<?xml version='1.0' encoding='UTF-8'?><gpx version="1.1" creator="JPX - https://github.com/jenetics/jpx" xmlns="http://www.topografix.com/GPX/1/1"><trk><trkseg><trkpt lat="36.9879226" lon="-3.5648692"><ele>790.0</ele><time>2026-04-28T10:28:40.934Z</time></trkpt><trkpt lat="36.9877433" lon="-3.5648833"><ele>790.0</ele><time>2026-04-28T10:28:45.933Z</time></trkpt><trkpt lat="36.9876733" lon="-3.5647683"><ele>790.0</ele><time>2026-04-28T10:28:47.933Z</time></trkpt><trkpt lat="36.9876717" lon="-3.5646483"><ele>790.0</ele><time>2026-04-28T10:28:49.933Z</time></trkpt><trkpt lat="36.9876583" lon="-3.5645583"><ele>790.1666666666666</ele><time>2026-04-28T10:28:50.933Z</time></trkpt><trkpt lat="36.9876483" lon="-3.5644767"><ele>790.3333333333333</ele><time>2026-04-28T10:28:51.934Z</time></trkpt><trkpt lat="36.9876633" lon="-3.564345"><ele>790.5</ele><time>2026-04-28T10:28:52.935Z</time></trkpt><trkpt lat="36.9876617" lon="-3.5642417"><ele>790.6666666666667</ele><time>2026-04-28T10:28:53.934Z</time></trkpt><trkpt lat="36.98763" lon="-3.5641383"><ele>790.8333333333334</ele><time>2026-04-28T10:28:54.934Z</time></trkpt><trkpt lat="36.9875917" lon="-3.5640233"><ele>791.0</ele><time>2026-04-28T10:28:55.935Z</time></trkpt><trkpt lat="36.9875483" lon="-3.563925"><ele>791.3333333333334</ele><time>2026-04-28T10:28:56.934Z</time></trkpt><trkpt lat="36.98751" lon="-3.5638117"><ele>791.6666666666667</ele><time>2026-04-28T10:28:57.936Z</time></trkpt><trkpt lat="36.98747" lon="-3.5637067"><ele>792.0</ele><time>2026-04-28T10:28:58.935Z</time></trkpt><trkpt lat="36.9874417" lon="-3.563615"><ele>792.3333333333333</ele><time>2026-04-28T10:28:59.935Z</time></trkpt><trkpt lat="36.98741" lon="-3.5635217"><ele>792.6666666666666</ele><time>2026-04-28T10:29:00.935Z</time></trkpt><trkpt lat="36.9873767" lon="-3.5634383"><ele>793.0</ele><time>2026-04-28T10:29:01.935Z</time></trkpt><trkpt lat="36.9873483" lon="-3.5633583"><ele>793.8</ele><time>2026-04-28T10:29:02.936Z</time></trkpt><trkpt lat="36.9873233" lon="-3.563285"><ele>794.5999999999999</ele><time>2026-04-28T10:29:03.934Z</time></trkpt><trkpt lat="36.9872917" lon="-3.5631367"><ele>795.4000000000001</ele><time>2026-04-28T10:29:05.935Z</time></trkpt><trkpt lat="36.987275" lon="-3.56291"><ele>796.2</ele><time>2026-04-28T10:29:08.936Z</time></trkpt><trkpt lat="36.9872667" lon="-3.5628117"><ele>797.0</ele><time>2026-04-28T10:29:09.934Z</time></trkpt><trkpt lat="36.9872967" lon="-3.5626233"><ele>797.3333333333334</ele><time>2026-04-28T10:29:10.935Z</time></trkpt><trkpt lat="36.987285" lon="-3.56253"><ele>797.6666666666667</ele><time>2026-04-28T10:29:11.935Z</time></trkpt><trkpt lat="36.9872683" lon="-3.5624267"><ele>798.0</ele><time>2026-04-28T10:29:12.935Z</time></trkpt><trkpt lat="36.9872633" lon="-3.5623267"><ele>798.3333333333333</ele><time>2026-04-28T10:29:13.934Z</time></trkpt><trkpt lat="36.987195" lon="-3.5621933"><ele>798.6666666666666</ele><time>2026-04-28T10:29:15.934Z</time></trkpt><trkpt lat="36.98716" lon="-3.5621217"><ele>799.0</ele><time>2026-04-28T10:29:16.935Z</time></trkpt><trkpt lat="36.987135" lon="-3.5620433"><ele>799.25</ele><time>2026-04-28T10:29:17.934Z</time></trkpt><trkpt lat="36.9870967" lon="-3.561905"><ele>799.5</ele><time>2026-04-28T10:29:19.935Z</time></trkpt><trkpt lat="36.98706" lon="-3.56177"><ele>799.75</ele><time>2026-04-28T10:29:21.935Z</time></trkpt><trkpt lat="36.9869767" lon="-3.5616383"><ele>800.0</ele><time>2026-04-28T10:29:23.934Z</time></trkpt><trkpt lat="36.98691" lon="-3.5615567"><ele>800.0000000000001</ele><time>2026-04-28T10:29:25.935Z</time></trkpt><trkpt lat="36.9868633" lon="-3.561475"><ele>800.0</ele><time>2026-04-28T10:29:30.935Z</time></trkpt><trkpt lat="36.9868" lon="-3.5615467"><ele>800.0</ele><time>2026-04-28T10:29:34.935Z</time></trkpt><trkpt lat="36.98677" lon="-3.5616183"><ele>800.0</ele><time>2026-04-28T10:29:38.935Z</time></trkpt><trkpt lat="36.9867017" lon="-3.5616133"><ele>800.0000000000001</ele><time>2026-04-28T10:29:41.935Z</time></trkpt><trkpt lat="36.9866317" lon="-3.5617217"><ele>800.0</ele><time>2026-04-28T10:29:43.936Z</time></trkpt><trkpt lat="36.98654" lon="-3.56182"><ele>799.8</ele><time>2026-04-28T10:29:45.937Z</time></trkpt><trkpt lat="36.9865" lon="-3.56191"><ele>799.6</ele><time>2026-04-28T10:29:46.934Z</time></trkpt><trkpt lat="36.986455" lon="-3.5620083"><ele>799.4000000000001</ele><time>2026-04-28T10:29:47.935Z</time></trkpt><trkpt lat="36.9864183" lon="-3.5621117"><ele>799.2</ele><time>2026-04-28T10:29:48.935Z</time></trkpt><trkpt lat="36.9863683" lon="-3.562215"><ele>799.0</ele><time>2026-04-28T10:29:49.935Z</time></trkpt><trkpt lat="36.9863067" lon="-3.56233"><ele>798.9999999999999</ele><time>2026-04-28T10:29:50.935Z</time></trkpt><trkpt lat="36.98625" lon="-3.5624167"><ele>799.0</ele><time>2026-04-28T10:29:51.935Z</time></trkpt><trkpt lat="36.9861967" lon="-3.5625"><ele>799.0</ele><time>2026-04-28T10:29:52.936Z</time></trkpt><trkpt lat="36.98616" lon="-3.562585"><ele>799.0</ele><time>2026-04-28T10:29:53.937Z</time></trkpt><trkpt lat="36.9861217" lon="-3.5626783"><ele>798.9999999999999</ele><time>2026-04-28T10:29:54.937Z</time></trkpt><trkpt lat="36.98608" lon="-3.5627683"><ele>799.0</ele><time>2026-04-28T10:29:55.938Z</time></trkpt><trkpt lat="36.9860283" lon="-3.56285"><ele>798.7142857142858</ele><time>2026-04-28T10:29:56.937Z</time></trkpt><trkpt lat="36.985985" lon="-3.5629317"><ele>798.4285714285713</ele><time>2026-04-28T10:29:57.937Z</time></trkpt><trkpt lat="36.9859467" lon="-3.5630167"><ele>798.1428571428571</ele><time>2026-04-28T10:29:58.937Z</time></trkpt><trkpt lat="36.9859083" lon="-3.5630983"><ele>797.8571428571429</ele><time>2026-04-28T10:29:59.937Z</time></trkpt><trkpt lat="36.985875" lon="-3.563175"><ele>797.5714285714287</ele><time>2026-04-28T10:30:00.937Z</time></trkpt><trkpt lat="36.9858617" lon="-3.56326"><ele>797.2857142857142</ele><time>2026-04-28T10:30:01.937Z</time></trkpt><trkpt lat="36.9858183" lon="-3.56333"><ele>797.0</ele><time>2026-04-28T10:30:02.936Z</time></trkpt><trkpt lat="36.9857633" lon="-3.5634017"><ele>797.0000000000001</ele><time>2026-04-28T10:30:03.935Z</time></trkpt><trkpt lat="36.9857283" lon="-3.56349"><ele>797.0</ele><time>2026-04-28T10:30:04.935Z</time></trkpt><trkpt lat="36.9856917" lon="-3.5635767"><ele>797.0</ele><time>2026-04-28T10:30:05.934Z</time></trkpt><trkpt lat="36.9856367" lon="-3.5636583"><ele>797.0</ele><time>2026-04-28T10:30:06.935Z</time></trkpt><trkpt lat="36.98556" lon="-3.5637133"><ele>797.0000000000001</ele><time>2026-04-28T10:30:07.935Z</time></trkpt><trkpt lat="36.9854917" lon="-3.5637617"><ele>797.0</ele><time>2026-04-28T10:30:08.935Z</time></trkpt><trkpt lat="36.985425" lon="-3.5638117"><ele>796.7142857142857</ele><time>2026-04-28T10:30:09.935Z</time></trkpt><trkpt lat="36.985375" lon="-3.56387"><ele>796.4285714285714</ele><time>2026-04-28T10:30:10.937Z</time></trkpt><trkpt lat="36.9853233" lon="-3.5639283"><ele>796.1428571428571</ele><time>2026-04-28T10:30:11.939Z</time></trkpt><trkpt lat="36.98527" lon="-3.5639917"><ele>795.8571428571429</ele><time>2026-04-28T10:30:12.937Z</time></trkpt><trkpt lat="36.9852167" lon="-3.56406"><ele>795.5714285714287</ele><time>2026-04-28T10:30:13.934Z</time></trkpt><trkpt lat="36.985165" lon="-3.5641217"><ele>795.2857142857143</ele><time>2026-04-28T10:30:14.935Z</time></trkpt><trkpt lat="36.9851267" lon="-3.564185"><ele>795.0</ele><time>2026-04-28T10:30:15.935Z</time></trkpt><trkpt lat="36.9850833" lon="-3.564255"><ele>795.0</ele><time>2026-04-28T10:30:16.935Z</time></trkpt><trkpt lat="36.98504" lon="-3.5643267"><ele>795.0</ele><time>2026-04-28T10:30:17.936Z</time></trkpt><trkpt lat="36.985" lon="-3.5643967"><ele>795.0</ele><time>2026-04-28T10:30:18.937Z</time></trkpt><trkpt lat="36.9849683" lon="-3.564475"><ele>795.0</ele><time>2026-04-28T10:30:19.937Z</time></trkpt><trkpt lat="36.984935" lon="-3.56455"><ele>795.0</ele><time>2026-04-28T10:30:20.936Z</time></trkpt><trkpt lat="36.984865" lon="-3.564675"><ele>795.0</ele><time>2026-04-28T10:30:22.937Z</time></trkpt><trkpt lat="36.9848117" lon="-3.5647933"><ele>795.1666666666666</ele><time>2026-04-28T10:30:24.935Z</time></trkpt><trkpt lat="36.984755" lon="-3.564905"><ele>795.3333333333333</ele><time>2026-04-28T10:30:26.937Z</time></trkpt><trkpt lat="36.984685" lon="-3.5649933"><ele>795.5</ele><time>2026-04-28T10:30:28.934Z</time></trkpt><trkpt lat="36.9846517" lon="-3.5650717"><ele>795.6666666666666</ele><time>2026-04-28T10:30:30.936Z</time></trkpt><trkpt lat="36.98457" lon="-3.56509"><ele>795.8333333333333</ele><time>2026-04-28T10:30:51.934Z</time></trkpt><trkpt lat="36.984505" lon="-3.565075"><ele>796.0</ele><time>2026-04-28T10:30:53.935Z</time></trkpt><trkpt lat="36.98443" lon="-3.56508"><ele>796.0</ele><time>2026-04-28T10:30:55.935Z</time></trkpt><trkpt lat="36.9843033" lon="-3.5650333"><ele>796.0</ele><time>2026-04-28T10:30:57.934Z</time></trkpt><trkpt lat="36.9842167" lon="-3.56496"><ele>796.0</ele><time>2026-04-28T10:30:58.935Z</time></trkpt><trkpt lat="36.9841467" lon="-3.5648983"><ele>796.0</ele><time>2026-04-28T10:30:59.935Z</time></trkpt><trkpt lat="36.9840867" lon="-3.5648683"><ele>796.0</ele><time>2026-04-28T10:31:00.936Z</time></trkpt><trkpt lat="36.9840267" lon="-3.5648083"><ele>796.0</ele><time>2026-04-28T10:31:01.935Z</time></trkpt><trkpt lat="36.98394" lon="-3.56471"><ele>796.0</ele><time>2026-04-28T10:31:02.935Z</time></trkpt><trkpt lat="36.9837933" lon="-3.56463"><ele>796.0</ele><time>2026-04-28T10:31:03.935Z</time></trkpt><trkpt lat="36.9837217" lon="-3.5646117"><ele>796.0</ele><time>2026-04-28T10:31:04.935Z</time></trkpt><trkpt lat="36.9836483" lon="-3.5645383"><ele>796.0</ele><time>2026-04-28T10:31:05.935Z</time></trkpt><trkpt lat="36.9835433" lon="-3.5644617"><ele>796.1999999999999</ele><time>2026-04-28T10:31:06.935Z</time></trkpt><trkpt lat="36.9834583" lon="-3.5644133"><ele>796.4</ele><time>2026-04-28T10:31:07.935Z</time></trkpt><trkpt lat="36.983365" lon="-3.564355"><ele>796.6</ele><time>2026-04-28T10:31:08.935Z</time></trkpt><trkpt lat="36.983265" lon="-3.56428"><ele>796.8</ele><time>2026-04-28T10:31:09.934Z</time></trkpt><trkpt lat="36.9831733" lon="-3.564215"><ele>797.0</ele><time>2026-04-28T10:31:10.934Z</time></trkpt><trkpt lat="36.9830817" lon="-3.56415"><ele>797.1666666666667</ele><time>2026-04-28T10:31:11.935Z</time></trkpt><trkpt lat="36.9830133" lon="-3.5641067"><ele>797.3333333333334</ele><time>2026-04-28T10:31:12.935Z</time></trkpt><trkpt lat="36.98292" lon="-3.564045"><ele>797.5</ele><time>2026-04-28T10:31:13.936Z</time></trkpt><trkpt lat="36.9828383" lon="-3.5639717"><ele>797.6666666666667</ele><time>2026-04-28T10:31:14.936Z</time></trkpt><trkpt lat="36.9827783" lon="-3.563935"><ele>797.8333333333334</ele><time>2026-04-28T10:31:15.935Z</time></trkpt><trkpt lat="36.982715" lon="-3.5638983"><ele>798.0</ele><time>2026-04-28T10:31:16.935Z</time></trkpt><trkpt lat="36.9826583" lon="-3.5638517"><ele>798.0</ele><time>2026-04-28T10:31:17.935Z</time></trkpt><trkpt lat="36.9825767" lon="-3.56379"><ele>798.0</ele><time>2026-04-28T10:31:19.935Z</time></trkpt><trkpt lat="36.9824833" lon="-3.5637217"><ele>798.0</ele><time>2026-04-28T10:31:21.935Z</time></trkpt><trkpt lat="36.9824183" lon="-3.5636783"><ele>798.0</ele><time>2026-04-28T10:31:22.935Z</time></trkpt><trkpt lat="36.982345" lon="-3.5636167"><ele>798.0</ele><time>2026-04-28T10:31:23.937Z</time></trkpt><trkpt lat="36.9822833" lon="-3.5635933"><ele>798.0</ele><time>2026-04-28T10:31:24.936Z</time></trkpt><trkpt lat="36.9822083" lon="-3.5635367"><ele>797.8</ele><time>2026-04-28T10:31:25.935Z</time></trkpt><trkpt lat="36.98212" lon="-3.5634667"><ele>797.5999999999999</ele><time>2026-04-28T10:31:26.935Z</time></trkpt><trkpt lat="36.9820267" lon="-3.56339"><ele>797.4000000000001</ele><time>2026-04-28T10:31:27.938Z</time></trkpt><trkpt lat="36.981935" lon="-3.5633117"><ele>797.2</ele><time>2026-04-28T10:31:28.934Z</time></trkpt><trkpt lat="36.981865" lon="-3.5632567"><ele>797.0</ele><time>2026-04-28T10:31:29.936Z</time></trkpt><trkpt lat="36.98179" lon="-3.56323"><ele>797.0</ele><time>2026-04-28T10:31:30.936Z</time></trkpt><trkpt lat="36.981705" lon="-3.563185"><ele>797.0</ele><time>2026-04-28T10:31:31.936Z</time></trkpt><trkpt lat="36.9815917" lon="-3.563085"><ele>797.0</ele><time>2026-04-28T10:31:32.936Z</time></trkpt><trkpt lat="36.9814717" lon="-3.5629817"><ele>797.0</ele><time>2026-04-28T10:31:33.935Z</time></trkpt><trkpt lat="36.9813683" lon="-3.5629267"><ele>796.8</ele><time>2026-04-28T10:31:34.935Z</time></trkpt><trkpt lat="36.9812733" lon="-3.56288"><ele>796.6</ele><time>2026-04-28T10:31:35.935Z</time></trkpt><trkpt lat="36.9811783" lon="-3.5628317"><ele>796.4</ele><time>2026-04-28T10:31:36.936Z</time></trkpt><trkpt lat="36.9810833" lon="-3.5627533"><ele>796.1999999999999</ele><time>2026-04-28T10:31:37.935Z</time></trkpt><trkpt lat="36.9809867" lon="-3.5626633"><ele>796.0</ele><time>2026-04-28T10:31:38.935Z</time></trkpt><trkpt lat="36.9808933" lon="-3.5625967"><ele>797.1999999999999</ele><time>2026-04-28T10:31:39.936Z</time></trkpt><trkpt lat="36.9808017" lon="-3.5625317"><ele>798.4</ele><time>2026-04-28T10:31:40.935Z</time></trkpt><trkpt lat="36.980715" lon="-3.5624417"><ele>799.6</ele><time>2026-04-28T10:31:41.936Z</time></trkpt><trkpt lat="36.9806367" lon="-3.5623717"><ele>800.8</ele><time>2026-04-28T10:31:42.936Z</time></trkpt><trkpt lat="36.9805583" lon="-3.5623117"><ele>802.0</ele><time>2026-04-28T10:31:43.936Z</time></trkpt><trkpt lat="36.9804783" lon="-3.56225"><ele>802.0</ele><time>2026-04-28T10:31:44.935Z</time></trkpt><trkpt lat="36.9803933" lon="-3.562185"><ele>802.0</ele><time>2026-04-28T10:31:45.935Z</time></trkpt><trkpt lat="36.9803067" lon="-3.56212"><ele>802.0</ele><time>2026-04-28T10:31:46.935Z</time></trkpt><trkpt lat="36.98022" lon="-3.562045"><ele>802.0</ele><time>2026-04-28T10:31:47.937Z</time></trkpt><trkpt lat="36.9801283" lon="-3.5619667"><ele>802.0</ele><time>2026-04-28T10:31:48.935Z</time></trkpt><trkpt lat="36.9800317" lon="-3.561895"><ele>803.0</ele><time>2026-04-28T10:31:49.937Z</time></trkpt><trkpt lat="36.979935" lon="-3.5618217"><ele>804.0</ele><time>2026-04-28T10:31:50.936Z</time></trkpt><trkpt lat="36.9798383" lon="-3.5617483"><ele>805.0</ele><time>2026-04-28T10:31:51.935Z</time></trkpt><trkpt lat="36.9797383" lon="-3.5616733"><ele>806.0</ele><time>2026-04-28T10:31:52.935Z</time></trkpt><trkpt lat="36.97964" lon="-3.5616033"><ele>806.0</ele><time>2026-04-28T10:31:53.935Z</time></trkpt><trkpt lat="36.9795417" lon="-3.56153"><ele>806.0</ele><time>2026-04-28T10:31:54.936Z</time></trkpt><trkpt lat="36.97944" lon="-3.5614583"><ele>806.0</ele><time>2026-04-28T10:31:55.935Z</time></trkpt><trkpt lat="36.9793383" lon="-3.56138"><ele>806.0</ele><time>2026-04-28T10:31:56.935Z</time></trkpt><trkpt lat="36.9792367" lon="-3.5613067"><ele>805.75</ele><time>2026-04-28T10:31:57.935Z</time></trkpt><trkpt lat="36.979135" lon="-3.5612283"><ele>805.5</ele><time>2026-04-28T10:31:58.935Z</time></trkpt><trkpt lat="36.9790317" lon="-3.5611533"><ele>805.25</ele><time>2026-04-28T10:31:59.935Z</time></trkpt><trkpt lat="36.97893" lon="-3.5610783"><ele>805.0</ele><time>2026-04-28T10:32:00.936Z</time></trkpt><trkpt lat="36.978825" lon="-3.5610067"><ele>806.25</ele><time>2026-04-28T10:32:01.936Z</time></trkpt><trkpt lat="36.97872" lon="-3.560935"><ele>807.5</ele><time>2026-04-28T10:32:02.936Z</time></trkpt><trkpt lat="36.9786167" lon="-3.5608583"><ele>808.75</ele><time>2026-04-28T10:32:03.935Z</time></trkpt><trkpt lat="36.9785133" lon="-3.5607833"><ele>810.0</ele><time>2026-04-28T10:32:04.936Z</time></trkpt><trkpt lat="36.9784083" lon="-3.5607067"><ele>809.5</ele><time>2026-04-28T10:32:05.936Z</time></trkpt><trkpt lat="36.978305" lon="-3.5606333"><ele>809.0</ele><time>2026-04-28T10:32:06.935Z</time></trkpt><trkpt lat="36.9782017" lon="-3.5605583"><ele>808.5</ele><time>2026-04-28T10:32:07.935Z</time></trkpt><trkpt lat="36.978095" lon="-3.560485"><ele>808.0</ele><time>2026-04-28T10:32:08.936Z</time></trkpt><trkpt lat="36.97799" lon="-3.5604083"><ele>809.0</ele><time>2026-04-28T10:32:09.935Z</time></trkpt><trkpt lat="36.977885" lon="-3.560335"><ele>810.0</ele><time>2026-04-28T10:32:10.934Z</time></trkpt><trkpt lat="36.9777833" lon="-3.5602617"><ele>811.0</ele><time>2026-04-28T10:32:11.935Z</time></trkpt><trkpt lat="36.9776817" lon="-3.5601917"><ele>812.0</ele><time>2026-04-28T10:32:12.935Z</time></trkpt><trkpt lat="36.9775817" lon="-3.5601217"><ele>812.75</ele><time>2026-04-28T10:32:13.935Z</time></trkpt><trkpt lat="36.9774833" lon="-3.5600483"><ele>813.5</ele><time>2026-04-28T10:32:14.935Z</time></trkpt><trkpt lat="36.9773833" lon="-3.5599733"><ele>814.25</ele><time>2026-04-28T10:32:15.935Z</time></trkpt><trkpt lat="36.9772817" lon="-3.5598933"><ele>815.0</ele><time>2026-04-28T10:32:16.936Z</time></trkpt><trkpt lat="36.9771817" lon="-3.5598167"><ele>815.0</ele><time>2026-04-28T10:32:17.935Z</time></trkpt><trkpt lat="36.97708" lon="-3.5597417"><ele>815.0</ele><time>2026-04-28T10:32:18.937Z</time></trkpt><trkpt lat="36.97698" lon="-3.5596683"><ele>815.0</ele><time>2026-04-28T10:32:19.935Z</time></trkpt><trkpt lat="36.97688" lon="-3.5595967"><ele>815.0</ele><time>2026-04-28T10:32:20.935Z</time></trkpt><trkpt lat="36.9767767" lon="-3.559525"><ele>816.5</ele><time>2026-04-28T10:32:21.934Z</time></trkpt><trkpt lat="36.9766733" lon="-3.5594533"><ele>818.0</ele><time>2026-04-28T10:32:22.935Z</time></trkpt><trkpt lat="36.9765683" lon="-3.55938"><ele>819.5</ele><time>2026-04-28T10:32:23.935Z</time></trkpt><trkpt lat="36.9764617" lon="-3.5593033"><ele>821.0</ele><time>2026-04-28T10:32:24.936Z</time></trkpt><trkpt lat="36.9763533" lon="-3.5592233"><ele>821.0</ele><time>2026-04-28T10:32:25.935Z</time></trkpt><trkpt lat="36.97625" lon="-3.5591383"><ele>821.0</ele><time>2026-04-28T10:32:26.935Z</time></trkpt><trkpt lat="36.976145" lon="-3.5590583"><ele>821.0</ele><time>2026-04-28T10:32:27.936Z</time></trkpt><trkpt lat="36.97604" lon="-3.5589783"><ele>821.0</ele><time>2026-04-28T10:32:28.935Z</time></trkpt><trkpt lat="36.9759283" lon="-3.5589083"><ele>822.0</ele><time>2026-04-28T10:32:29.934Z</time></trkpt><trkpt lat="36.97582" lon="-3.5588383"><ele>823.0</ele><time>2026-04-28T10:32:30.934Z</time></trkpt><trkpt lat="36.9757217" lon="-3.55877"><ele>824.0</ele><time>2026-04-28T10:32:31.935Z</time></trkpt><trkpt lat="36.9756217" lon="-3.5586967"><ele>825.0</ele><time>2026-04-28T10:32:32.937Z</time></trkpt><trkpt lat="36.9755233" lon="-3.5586233"><ele>825.4</ele><time>2026-04-28T10:32:33.936Z</time></trkpt><trkpt lat="36.9754233" lon="-3.5585533"><ele>825.8</ele><time>2026-04-28T10:32:34.934Z</time></trkpt><trkpt lat="36.9753283" lon="-3.5584833"><ele>826.2</ele><time>2026-04-28T10:32:35.935Z</time></trkpt><trkpt lat="36.97524" lon="-3.5584067"><ele>826.6</ele><time>2026-04-28T10:32:36.936Z</time></trkpt><trkpt lat="36.975145" lon="-3.5583367"><ele>827.0</ele><time>2026-04-28T10:32:37.935Z</time></trkpt><trkpt lat="36.9750467" lon="-3.558265"><ele>827.4000000000001</ele><time>2026-04-28T10:32:38.936Z</time></trkpt><trkpt lat="36.974955" lon="-3.558185"><ele>827.8000000000001</ele><time>2026-04-28T10:32:39.935Z</time></trkpt><trkpt lat="36.9748567" lon="-3.5581133"><ele>828.2</ele><time>2026-04-28T10:32:40.934Z</time></trkpt><trkpt lat="36.974765" lon="-3.5580517"><ele>828.6</ele><time>2026-04-28T10:32:41.938Z</time></trkpt><trkpt lat="36.9746767" lon="-3.5579967"><ele>829.0</ele><time>2026-04-28T10:32:42.936Z</time></trkpt><trkpt lat="36.9745967" lon="-3.5579417"><ele>828.9999999999999</ele><time>2026-04-28T10:32:43.935Z</time></trkpt><trkpt lat="36.9745283" lon="-3.5578833"><ele>829.0</ele><time>2026-04-28T10:32:44.937Z</time></trkpt><trkpt lat="36.974475" lon="-3.55784"><ele>829.0</ele><time>2026-04-28T10:32:45.935Z</time></trkpt><trkpt lat="36.9744" lon="-3.5577917"><ele>829.0</ele><time>2026-04-28T10:32:47.935Z</time></trkpt><trkpt lat="36.9743317" lon="-3.5577283"><ele>828.9999999999999</ele><time>2026-04-28T10:32:59.938Z</time></trkpt><trkpt lat="36.97426" lon="-3.5577367"><ele>829.0</ele><time>2026-04-28T10:33:01.935Z</time></trkpt><trkpt lat="36.9741917" lon="-3.5576917"><ele>829.4999999999999</ele><time>2026-04-28T10:33:03.937Z</time></trkpt><trkpt lat="36.9741167" lon="-3.5575817"><ele>830.0</ele><time>2026-04-28T10:33:05.937Z</time></trkpt><trkpt lat="36.9740283" lon="-3.5574883"><ele>830.5</ele><time>2026-04-28T10:33:07.934Z</time></trkpt><trkpt lat="36.9739717" lon="-3.5574433"><ele>831.0</ele><time>2026-04-28T10:33:08.935Z</time></trkpt><trkpt lat="36.9739117" lon="-3.557395"><ele>831.4999999999999</ele><time>2026-04-28T10:33:09.936Z</time></trkpt><trkpt lat="36.9738517" lon="-3.557345"><ele>832.0</ele><time>2026-04-28T10:33:10.934Z</time></trkpt><trkpt lat="36.973795" lon="-3.5573017"><ele>831.9999999999999</ele><time>2026-04-28T10:33:11.935Z</time></trkpt><trkpt lat="36.9737383" lon="-3.5572583"><ele>832.0</ele><time>2026-04-28T10:33:12.934Z</time></trkpt><trkpt lat="36.973675" lon="-3.5572117"><ele>832.0</ele><time>2026-04-28T10:33:13.934Z</time></trkpt><trkpt lat="36.9736083" lon="-3.557155"><ele>832.0</ele><time>2026-04-28T10:33:14.936Z</time></trkpt><trkpt lat="36.9735367" lon="-3.557105"><ele>831.9999999999999</ele><time>2026-04-28T10:33:15.935Z</time></trkpt><trkpt lat="36.9734717" lon="-3.55706"><ele>832.0</ele><time>2026-04-28T10:33:16.936Z</time></trkpt><trkpt lat="36.9734083" lon="-3.5570083"><ele>832.2</ele><time>2026-04-28T10:33:17.935Z</time></trkpt><trkpt lat="36.9733383" lon="-3.5569467"><ele>832.4000000000001</ele><time>2026-04-28T10:33:18.935Z</time></trkpt><trkpt lat="36.97326" lon="-3.5568833"><ele>832.5999999999999</ele><time>2026-04-28T10:33:19.936Z</time></trkpt><trkpt lat="36.9731667" lon="-3.5568217"><ele>832.8</ele><time>2026-04-28T10:33:20.935Z</time></trkpt><trkpt lat="36.9730667" lon="-3.5567583"><ele>833.0</ele><time>2026-04-28T10:33:21.936Z</time></trkpt><trkpt lat="36.972965" lon="-3.556685"><ele>833.0</ele><time>2026-04-28T10:33:22.934Z</time></trkpt><trkpt lat="36.9728583" lon="-3.5566117"><ele>833.0</ele><time>2026-04-28T10:33:23.935Z</time></trkpt><trkpt lat="36.9727533" lon="-3.5565317"><ele>833.0</ele><time>2026-04-28T10:33:24.937Z</time></trkpt><trkpt lat="36.9726467" lon="-3.556455"><ele>833.0</ele><time>2026-04-28T10:33:25.934Z</time></trkpt><trkpt lat="36.9725433" lon="-3.5563733"><ele>833.0</ele><time>2026-04-28T10:33:26.936Z</time></trkpt><trkpt lat="36.9724367" lon="-3.5562917"><ele>833.0</ele><time>2026-04-28T10:33:27.935Z</time></trkpt><trkpt lat="36.97233" lon="-3.55621"><ele>833.0</ele><time>2026-04-28T10:33:28.934Z</time></trkpt><trkpt lat="36.9722217" lon="-3.5561317"><ele>833.0</ele><time>2026-04-28T10:33:29.935Z</time></trkpt><trkpt lat="36.9721117" lon="-3.5560483"><ele>833.75</ele><time>2026-04-28T10:33:30.935Z</time></trkpt><trkpt lat="36.9719967" lon="-3.5559633"><ele>834.5</ele><time>2026-04-28T10:33:31.937Z</time></trkpt><trkpt lat="36.9718817" lon="-3.5558767"><ele>835.25</ele><time>2026-04-28T10:33:32.935Z</time></trkpt><trkpt lat="36.9717633" lon="-3.55579"><ele>836.0</ele><time>2026-04-28T10:33:33.935Z</time></trkpt><trkpt lat="36.971645" lon="-3.5556983"><ele>836.0</ele><time>2026-04-28T10:33:34.935Z</time></trkpt><trkpt lat="36.9715283" lon="-3.5556067"><ele>836.0</ele><time>2026-04-28T10:33:35.935Z</time></trkpt><trkpt lat="36.9714083" lon="-3.555515"><ele>836.0</ele><time>2026-04-28T10:33:36.935Z</time></trkpt><trkpt lat="36.9712883" lon="-3.5554233"><ele>836.0</ele><time>2026-04-28T10:33:37.935Z</time></trkpt><trkpt lat="36.9711667" lon="-3.55533"><ele>836.75</ele><time>2026-04-28T10:33:38.935Z</time></trkpt><trkpt lat="36.9710383" lon="-3.5552383"><ele>837.5</ele><time>2026-04-28T10:33:39.935Z</time></trkpt><trkpt lat="36.9709133" lon="-3.5551433"><ele>838.25</ele><time>2026-04-28T10:33:40.936Z</time></trkpt><trkpt lat="36.9707933" lon="-3.55505"><ele>839.0</ele><time>2026-04-28T10:33:41.935Z</time></trkpt><trkpt lat="36.97067" lon="-3.5549617"><ele>839.5</ele><time>2026-04-28T10:33:42.936Z</time></trkpt><trkpt lat="36.9705483" lon="-3.5548683"><ele>840.0</ele><time>2026-04-28T10:33:43.936Z</time></trkpt><trkpt lat="36.9704267" lon="-3.5547733"><ele>840.5</ele><time>2026-04-28T10:33:44.936Z</time></trkpt><trkpt lat="36.9703017" lon="-3.5546783"><ele>841.0</ele><time>2026-04-28T10:33:45.936Z</time></trkpt><trkpt lat="36.9701733" lon="-3.5545817"><ele>841.5</ele><time>2026-04-28T10:33:46.935Z</time></trkpt><trkpt lat="36.9700467" lon="-3.554485"><ele>842.0</ele><time>2026-04-28T10:33:47.934Z</time></trkpt><trkpt lat="36.9699283" lon="-3.5543933"><ele>842.5</ele><time>2026-04-28T10:33:48.935Z</time></trkpt><trkpt lat="36.969805" lon="-3.5543017"><ele>843.0</ele><time>2026-04-28T10:33:49.935Z</time></trkpt><trkpt lat="36.9696833" lon="-3.5542117"><ele>843.0</ele><time>2026-04-28T10:33:50.935Z</time></trkpt><trkpt lat="36.9695617" lon="-3.5541233"><ele>843.0</ele><time>2026-04-28T10:33:51.937Z</time></trkpt><trkpt lat="36.9694467" lon="-3.5540417"><ele>843.0</ele><time>2026-04-28T10:33:52.936Z</time></trkpt><trkpt lat="36.969335" lon="-3.55396"><ele>843.0</ele><time>2026-04-28T10:33:53.935Z</time></trkpt><trkpt lat="36.969225" lon="-3.553875"><ele>844.0</ele><time>2026-04-28T10:33:54.936Z</time></trkpt><trkpt lat="36.9691183" lon="-3.55379"><ele>845.0</ele><time>2026-04-28T10:33:55.934Z</time></trkpt><trkpt lat="36.969015" lon="-3.553715"><ele>846.0</ele><time>2026-04-28T10:33:56.935Z</time></trkpt><trkpt lat="36.96892" lon="-3.5536283"><ele>847.0</ele><time>2026-04-28T10:33:57.937Z</time></trkpt><trkpt lat="36.9688067" lon="-3.5535467"><ele>847.0</ele><time>2026-04-28T10:33:58.934Z</time></trkpt><trkpt lat="36.9686933" lon="-3.5534633"><ele>847.0</ele><time>2026-04-28T10:33:59.936Z</time></trkpt><trkpt lat="36.9685767" lon="-3.55338"><ele>847.0</ele><time>2026-04-28T10:34:00.935Z</time></trkpt><trkpt lat="36.968465" lon="-3.5533"><ele>847.0</ele><time>2026-04-28T10:34:01.937Z</time></trkpt><trkpt lat="36.9683683" lon="-3.553225"><ele>847.25</ele><time>2026-04-28T10:34:02.936Z</time></trkpt><trkpt lat="36.9682717" lon="-3.5531517"><ele>847.5</ele><time>2026-04-28T10:34:03.935Z</time></trkpt><trkpt lat="36.9681717" lon="-3.5530783"><ele>847.75</ele><time>2026-04-28T10:34:04.935Z</time></trkpt><trkpt lat="36.96807" lon="-3.5530033"><ele>848.0</ele><time>2026-04-28T10:34:05.935Z</time></trkpt><trkpt lat="36.9679667" lon="-3.5529267"><ele>848.75</ele><time>2026-04-28T10:34:06.935Z</time></trkpt><trkpt lat="36.9678667" lon="-3.5528517"><ele>849.5</ele><time>2026-04-28T10:34:07.935Z</time></trkpt><trkpt lat="36.967765" lon="-3.5527733"><ele>850.25</ele><time>2026-04-28T10:34:08.935Z</time></trkpt><trkpt lat="36.9676583" lon="-3.552695"><ele>851.0</ele><time>2026-04-28T10:34:09.936Z</time></trkpt><trkpt lat="36.96755" lon="-3.552615"><ele>850.5</ele><time>2026-04-28T10:34:10.935Z</time></trkpt><trkpt lat="36.9674417" lon="-3.5525333"><ele>850.0</ele><time>2026-04-28T10:34:11.935Z</time></trkpt><trkpt lat="36.967335" lon="-3.55245"><ele>849.5</ele><time>2026-04-28T10:34:12.935Z</time></trkpt><trkpt lat="36.967225" lon="-3.5523683"><ele>849.0</ele><time>2026-04-28T10:34:13.936Z</time></trkpt><trkpt lat="36.9671167" lon="-3.5522833"><ele>849.0</ele><time>2026-04-28T10:34:14.935Z</time></trkpt><trkpt lat="36.9670083" lon="-3.5522017"><ele>849.0</ele><time>2026-04-28T10:34:15.936Z</time></trkpt><trkpt lat="36.9669067" lon="-3.5521233"><ele>849.0</ele><time>2026-04-28T10:34:16.936Z</time></trkpt><trkpt lat="36.9668067" lon="-3.55205"><ele>849.0</ele><time>2026-04-28T10:34:17.937Z</time></trkpt><trkpt lat="36.96671" lon="-3.5519783"><ele>849.5</ele><time>2026-04-28T10:34:18.937Z</time></trkpt><trkpt lat="36.96661" lon="-3.5519017"><ele>850.0</ele><time>2026-04-28T10:34:19.935Z</time></trkpt><trkpt lat="36.9665083" lon="-3.5518333"><ele>850.5</ele><time>2026-04-28T10:34:20.936Z</time></trkpt><trkpt lat="36.9664083" lon="-3.5517567"><ele>851.0</ele><time>2026-04-28T10:34:21.937Z</time></trkpt><trkpt lat="36.9663067" lon="-3.551675"><ele>851.0</ele><time>2026-04-28T10:34:22.935Z</time></trkpt><trkpt lat="36.9662033" lon="-3.5515967"><ele>851.0</ele><time>2026-04-28T10:34:23.935Z</time></trkpt><trkpt lat="36.9661017" lon="-3.55152"><ele>851.0</ele><time>2026-04-28T10:34:24.936Z</time></trkpt><trkpt lat="36.965995" lon="-3.551445"><ele>851.0</ele><time>2026-04-28T10:34:25.934Z</time></trkpt><trkpt lat="36.96589" lon="-3.5513633"><ele>851.0</ele><time>2026-04-28T10:34:26.935Z</time></trkpt><trkpt lat="36.9657817" lon="-3.5512817"><ele>851.0</ele><time>2026-04-28T10:34:27.935Z</time></trkpt><trkpt lat="36.965675" lon="-3.551195"><ele>851.0</ele><time>2026-04-28T10:34:28.935Z</time></trkpt><trkpt lat="36.965565" lon="-3.5511167"><ele>851.0</ele><time>2026-04-28T10:34:29.935Z</time></trkpt><trkpt lat="36.965455" lon="-3.5510383"><ele>851.0</ele><time>2026-04-28T10:34:30.936Z</time></trkpt><trkpt lat="36.9653483" lon="-3.5509617"><ele>851.0</ele><time>2026-04-28T10:34:31.935Z</time></trkpt><trkpt lat="36.9652367" lon="-3.55088"><ele>851.0</ele><time>2026-04-28T10:34:32.938Z</time></trkpt><trkpt lat="36.96513" lon="-3.5507983"><ele>851.0</ele><time>2026-04-28T10:34:33.937Z</time></trkpt><trkpt lat="36.965025" lon="-3.5507183"><ele>850.0</ele><time>2026-04-28T10:34:34.937Z</time></trkpt><trkpt lat="36.9649183" lon="-3.5506383"><ele>849.0</ele><time>2026-04-28T10:34:35.938Z</time></trkpt><trkpt lat="36.9648133" lon="-3.55056"><ele>848.0</ele><time>2026-04-28T10:34:36.937Z</time></trkpt><trkpt lat="36.9647083" lon="-3.5504817"><ele>847.0</ele><time>2026-04-28T10:34:37.938Z</time></trkpt><trkpt lat="36.9646083" lon="-3.5504133"><ele>847.5</ele><time>2026-04-28T10:34:38.939Z</time></trkpt><trkpt lat="36.96451" lon="-3.5503333"><ele>848.0</ele><time>2026-04-28T10:34:39.938Z</time></trkpt><trkpt lat="36.9644233" lon="-3.5502383"><ele>848.5</ele><time>2026-04-28T10:34:40.937Z</time></trkpt><trkpt lat="36.9643517" lon="-3.5501217"><ele>849.0</ele><time>2026-04-28T10:34:41.938Z</time></trkpt><trkpt lat="36.9643117" lon="-3.54998"><ele>849.0</ele><time>2026-04-28T10:34:42.938Z</time></trkpt><trkpt lat="36.9642933" lon="-3.549835"><ele>849.0</ele><time>2026-04-28T10:34:43.938Z</time></trkpt><trkpt lat="36.9642633" lon="-3.5497017"><ele>849.0</ele><time>2026-04-28T10:34:44.937Z</time></trkpt><trkpt lat="36.9642533" lon="-3.5495483"><ele>849.0</ele><time>2026-04-28T10:34:45.937Z</time></trkpt><trkpt lat="36.9642433" lon="-3.5493867"><ele>848.75</ele><time>2026-04-28T10:34:46.938Z</time></trkpt><trkpt lat="36.96422" lon="-3.5492217"><ele>848.5</ele><time>2026-04-28T10:34:47.935Z</time></trkpt><trkpt lat="36.9641917" lon="-3.5490517"><ele>848.25</ele><time>2026-04-28T10:34:48.938Z</time></trkpt><trkpt lat="36.9641483" lon="-3.548885"><ele>848.0</ele><time>2026-04-28T10:34:49.937Z</time></trkpt><trkpt lat="36.9640967" lon="-3.5487233"><ele>846.5</ele><time>2026-04-28T10:34:50.935Z</time></trkpt><trkpt lat="36.9640383" lon="-3.54857"><ele>845.0</ele><time>2026-04-28T10:34:51.934Z</time></trkpt><trkpt lat="36.9639767" lon="-3.5484217"><ele>843.5</ele><time>2026-04-28T10:34:52.934Z</time></trkpt><trkpt lat="36.9639167" lon="-3.5482767"><ele>842.0</ele><time>2026-04-28T10:34:53.936Z</time></trkpt><trkpt lat="36.963855" lon="-3.54814"><ele>842.0</ele><time>2026-04-28T10:34:54.938Z</time></trkpt><trkpt lat="36.9637967" lon="-3.5480017"><ele>842.0</ele><time>2026-04-28T10:34:55.938Z</time></trkpt><trkpt lat="36.9637533" lon="-3.5478583"><ele>842.0</ele><time>2026-04-28T10:34:56.938Z</time></trkpt><trkpt lat="36.9637267" lon="-3.5477117"><ele>842.0</ele><time>2026-04-28T10:34:57.937Z</time></trkpt><trkpt lat="36.9637167" lon="-3.547565"><ele>841.0</ele><time>2026-04-28T10:34:58.938Z</time></trkpt><trkpt lat="36.9637417" lon="-3.5474233"><ele>840.0</ele><time>2026-04-28T10:34:59.938Z</time></trkpt><trkpt lat="36.96378" lon="-3.5472817"><ele>839.0</ele><time>2026-04-28T10:35:00.938Z</time></trkpt><trkpt lat="36.9638367" lon="-3.5471667"><ele>838.0</ele><time>2026-04-28T10:35:01.937Z</time></trkpt><trkpt lat="36.9639283" lon="-3.5470783"><ele>838.0</ele><time>2026-04-28T10:35:02.939Z</time></trkpt><trkpt lat="36.9640217" lon="-3.54699"><ele>838.0</ele><time>2026-04-28T10:35:03.937Z</time></trkpt><trkpt lat="36.9641267" lon="-3.5469083"><ele>838.0</ele><time>2026-04-28T10:35:04.938Z</time></trkpt><trkpt lat="36.9642483" lon="-3.5468433"><ele>838.0</ele><time>2026-04-28T10:35:05.938Z</time></trkpt><trkpt lat="36.9643767" lon="-3.5467633"><ele>838.0</ele><time>2026-04-28T10:35:06.937Z</time></trkpt><trkpt lat="36.9645167" lon="-3.54667"><ele>838.0</ele><time>2026-04-28T10:35:07.938Z</time></trkpt><trkpt lat="36.9646567" lon="-3.546575"><ele>838.0</ele><time>2026-04-28T10:35:08.937Z</time></trkpt><trkpt lat="36.9647733" lon="-3.546485"><ele>838.0</ele><time>2026-04-28T10:35:09.938Z</time></trkpt><trkpt lat="36.9648833" lon="-3.5463967"><ele>838.0</ele><time>2026-04-28T10:35:10.937Z</time></trkpt><trkpt lat="36.9649983" lon="-3.5463167"><ele>838.0</ele><time>2026-04-28T10:35:11.939Z</time></trkpt><trkpt lat="36.9651133" lon="-3.5462267"><ele>838.0</ele><time>2026-04-28T10:35:12.938Z</time></trkpt><trkpt lat="36.965235" lon="-3.546135"><ele>836.0</ele><time>2026-04-28T10:35:13.936Z</time></trkpt><trkpt lat="36.965355" lon="-3.546035"><ele>834.0</ele><time>2026-04-28T10:35:14.935Z</time></trkpt><trkpt lat="36.965475" lon="-3.5459317"><ele>832.0</ele><time>2026-04-28T10:35:15.936Z</time></trkpt><trkpt lat="36.9656" lon="-3.5458317"><ele>830.0</ele><time>2026-04-28T10:35:16.938Z</time></trkpt><trkpt lat="36.9657233" lon="-3.5457267"><ele>830.0</ele><time>2026-04-28T10:35:17.935Z</time></trkpt><trkpt lat="36.9658433" lon="-3.5456067"><ele>830.0</ele><time>2026-04-28T10:35:18.935Z</time></trkpt><trkpt lat="36.96597" lon="-3.5455117"><ele>830.0</ele><time>2026-04-28T10:35:19.936Z</time></trkpt><trkpt lat="36.96609" lon="-3.545415"><ele>830.0</ele><time>2026-04-28T10:35:20.935Z</time></trkpt><trkpt lat="36.9662167" lon="-3.5453283"><ele>833.0</ele><time>2026-04-28T10:35:21.935Z</time></trkpt><trkpt lat="36.9663417" lon="-3.54524"><ele>836.0</ele><time>2026-04-28T10:35:22.935Z</time></trkpt><trkpt lat="36.966465" lon="-3.545155"><ele>839.0</ele><time>2026-04-28T10:35:23.936Z</time></trkpt><trkpt lat="36.96659" lon="-3.545075"><ele>842.0</ele><time>2026-04-28T10:35:24.938Z</time></trkpt><trkpt lat="36.96671" lon="-3.545"><ele>842.0</ele><time>2026-04-28T10:35:25.937Z</time></trkpt><trkpt lat="36.9668267" lon="-3.54493"><ele>842.0</ele><time>2026-04-28T10:35:26.938Z</time></trkpt><trkpt lat="36.9669367" lon="-3.5448617"><ele>842.0</ele><time>2026-04-28T10:35:27.938Z</time></trkpt><trkpt lat="36.9670367" lon="-3.5447883"><ele>842.0</ele><time>2026-04-28T10:35:28.935Z</time></trkpt><trkpt lat="36.9671333" lon="-3.54471"><ele>842.0</ele><time>2026-04-28T10:35:29.936Z</time></trkpt><trkpt lat="36.96723" lon="-3.544625"><ele>842.0</ele><time>2026-04-28T10:35:30.935Z</time></trkpt><trkpt lat="36.9673067" lon="-3.5445133"><ele>842.0</ele><time>2026-04-28T10:35:31.937Z</time></trkpt><trkpt lat="36.9673533" lon="-3.5443733"><ele>842.0</ele><time>2026-04-28T10:35:32.939Z</time></trkpt><trkpt lat="36.9673883" lon="-3.54425"><ele>836.0</ele><time>2026-04-28T10:35:33.936Z</time></trkpt><trkpt lat="36.9673783" lon="-3.5441233"><ele>830.0</ele><time>2026-04-28T10:35:34.937Z</time></trkpt><trkpt lat="36.9673317" lon="-3.5439833"><ele>824.0</ele><time>2026-04-28T10:35:35.935Z</time></trkpt><trkpt lat="36.967255" lon="-3.543845"><ele>818.0</ele><time>2026-04-28T10:35:36.935Z</time></trkpt><trkpt lat="36.96718" lon="-3.5437333"><ele>815.0</ele><time>2026-04-28T10:35:37.934Z</time></trkpt><trkpt lat="36.9670983" lon="-3.5435933"><ele>812.0</ele><time>2026-04-28T10:35:38.936Z</time></trkpt><trkpt lat="36.967015" lon="-3.5434433"><ele>809.0</ele><time>2026-04-28T10:35:39.935Z</time></trkpt><trkpt lat="36.96694" lon="-3.5432767"><ele>806.0</ele><time>2026-04-28T10:35:40.936Z</time></trkpt><trkpt lat="36.9668533" lon="-3.54314"><ele>806.0</ele><time>2026-04-28T10:35:41.936Z</time></trkpt><trkpt lat="36.9667733" lon="-3.5430333"><ele>806.0</ele><time>2026-04-28T10:35:42.935Z</time></trkpt><trkpt lat="36.9667083" lon="-3.5429383"><ele>806.0</ele><time>2026-04-28T10:35:43.935Z</time></trkpt><trkpt lat="36.9666667" lon="-3.5428433"><ele>806.0</ele><time>2026-04-28T10:35:44.935Z</time></trkpt><trkpt lat="36.966615" lon="-3.5427683"><ele>806.0</ele><time>2026-04-28T10:35:45.937Z</time></trkpt><trkpt lat="36.96651" lon="-3.5427417"><ele>804.8</ele><time>2026-04-28T10:35:46.935Z</time></trkpt><trkpt lat="36.966435" lon="-3.5427267"><ele>803.5999999999999</ele><time>2026-04-28T10:35:47.936Z</time></trkpt><trkpt lat="36.966355" lon="-3.5427633"><ele>802.4</ele><time>2026-04-28T10:35:48.937Z</time></trkpt><trkpt lat="36.9662617" lon="-3.542855"><ele>801.2</ele><time>2026-04-28T10:35:49.937Z</time></trkpt><trkpt lat="36.9661433" lon="-3.5429917"><ele>800.0</ele><time>2026-04-28T10:35:50.934Z</time></trkpt><trkpt lat="36.966" lon="-3.5431133"><ele>800.0</ele><time>2026-04-28T10:35:51.936Z</time></trkpt><trkpt lat="36.9658783" lon="-3.543185"><ele>800.0</ele><time>2026-04-28T10:35:52.934Z</time></trkpt><trkpt lat="36.9657783" lon="-3.54324"><ele>800.0</ele><time>2026-04-28T10:35:53.936Z</time></trkpt><trkpt lat="36.9656483" lon="-3.5433283"><ele>800.0</ele><time>2026-04-28T10:35:54.936Z</time></trkpt><trkpt lat="36.965475" lon="-3.5434367"><ele>802.0</ele><time>2026-04-28T10:35:55.936Z</time></trkpt><trkpt lat="36.965295" lon="-3.5435217"><ele>804.0</ele><time>2026-04-28T10:35:56.936Z</time></trkpt><trkpt lat="36.9651333" lon="-3.5435917"><ele>806.0</ele><time>2026-04-28T10:35:57.936Z</time></trkpt><trkpt lat="36.964975" lon="-3.5436767"><ele>800.6666666666667</ele><time>2026-04-28T10:35:58.935Z</time></trkpt><trkpt lat="36.9648133" lon="-3.543785"><ele>795.3333333333333</ele><time>2026-04-28T10:35:59.935Z</time></trkpt><trkpt lat="36.9646567" lon="-3.5438817"><ele>790.0</ele><time>2026-04-28T10:36:00.934Z</time></trkpt><trkpt lat="36.9645" lon="-3.5439833"><ele>790.0</ele><time>2026-04-28T10:36:01.935Z</time></trkpt><trkpt lat="36.964335" lon="-3.5441033"><ele>790.0</ele><time>2026-04-28T10:36:02.936Z</time></trkpt><trkpt lat="36.964165" lon="-3.544225"><ele>790.0</ele><time>2026-04-28T10:36:03.935Z</time></trkpt><trkpt lat="36.9639983" lon="-3.5443417"><ele>792.6666666666666</ele><time>2026-04-28T10:36:04.936Z</time></trkpt><trkpt lat="36.96383" lon="-3.544445"><ele>795.3333333333333</ele><time>2026-04-28T10:36:05.935Z</time></trkpt><trkpt lat="36.9636583" lon="-3.54452"><ele>798.0</ele><time>2026-04-28T10:36:06.939Z</time></trkpt><trkpt lat="36.9634783" lon="-3.5446"><ele>792.3333333333333</ele><time>2026-04-28T10:36:07.938Z</time></trkpt><trkpt lat="36.9632983" lon="-3.544675"><ele>786.6666666666666</ele><time>2026-04-28T10:36:08.939Z</time></trkpt><trkpt lat="36.963125" lon="-3.54474"><ele>781.0</ele><time>2026-04-28T10:36:09.939Z</time></trkpt><trkpt lat="36.9629617" lon="-3.5447433"><ele>781.0</ele><time>2026-04-28T10:36:10.937Z</time></trkpt><trkpt lat="36.9627983" lon="-3.5447867"><ele>781.0</ele><time>2026-04-28T10:36:11.938Z</time></trkpt><trkpt lat="36.96264" lon="-3.5448433"><ele>781.0</ele><time>2026-04-28T10:36:12.938Z</time></trkpt><trkpt lat="36.9624883" lon="-3.5448817"><ele>781.3333333333333</ele><time>2026-04-28T10:36:13.937Z</time></trkpt><trkpt lat="36.9623367" lon="-3.5449417"><ele>781.6666666666667</ele><time>2026-04-28T10:36:14.937Z</time></trkpt><trkpt lat="36.962175" lon="-3.5449833"><ele>782.0</ele><time>2026-04-28T10:36:15.937Z</time></trkpt><trkpt lat="36.962005" lon="-3.5450183"><ele>782.0</ele><time>2026-04-28T10:36:16.938Z</time></trkpt><trkpt lat="36.9618233" lon="-3.5450383"><ele>782.0</ele><time>2026-04-28T10:36:17.935Z</time></trkpt><trkpt lat="36.9616433" lon="-3.5450567"><ele>782.0</ele><time>2026-04-28T10:36:18.936Z</time></trkpt><trkpt lat="36.9614667" lon="-3.545075"><ele>781.3333333333334</ele><time>2026-04-28T10:36:19.935Z</time></trkpt><trkpt lat="36.9612967" lon="-3.5450883"><ele>780.6666666666667</ele><time>2026-04-28T10:36:20.935Z</time></trkpt><trkpt lat="36.9611333" lon="-3.545095"><ele>780.0</ele><time>2026-04-28T10:36:21.936Z</time></trkpt><trkpt lat="36.960975" lon="-3.5451033"><ele>777.3333333333333</ele><time>2026-04-28T10:36:22.934Z</time></trkpt><trkpt lat="36.9608133" lon="-3.5451067"><ele>774.6666666666666</ele><time>2026-04-28T10:36:23.935Z</time></trkpt><trkpt lat="36.9606517" lon="-3.5451033"><ele>772.0</ele><time>2026-04-28T10:36:24.941Z</time></trkpt><trkpt lat="36.960495" lon="-3.54509"><ele>772.0</ele><time>2026-04-28T10:36:25.935Z</time></trkpt><trkpt lat="36.9603367" lon="-3.5450767"><ele>772.0</ele><time>2026-04-28T10:36:26.937Z</time></trkpt><trkpt lat="36.960185" lon="-3.5450533"><ele>772.0</ele><time>2026-04-28T10:36:27.935Z</time></trkpt><trkpt lat="36.9600333" lon="-3.54502"><ele>770.75</ele><time>2026-04-28T10:36:28.939Z</time></trkpt><trkpt lat="36.9598933" lon="-3.54498"><ele>769.5</ele><time>2026-04-28T10:36:29.938Z</time></trkpt><trkpt lat="36.9597583" lon="-3.54495"><ele>768.25</ele><time>2026-04-28T10:36:30.937Z</time></trkpt><trkpt lat="36.9596267" lon="-3.5449267"><ele>767.0</ele><time>2026-04-28T10:36:31.937Z</time></trkpt><trkpt lat="36.959495" lon="-3.5449067"><ele>767.0</ele><time>2026-04-28T10:36:32.938Z</time></trkpt><trkpt lat="36.95937" lon="-3.544905"><ele>767.0</ele><time>2026-04-28T10:36:33.938Z</time></trkpt><trkpt lat="36.9592417" lon="-3.5449283"><ele>767.0</ele><time>2026-04-28T10:36:34.938Z</time></trkpt><trkpt lat="36.95912" lon="-3.5449717"><ele>767.0</ele><time>2026-04-28T10:36:35.938Z</time></trkpt><trkpt lat="36.958995" lon="-3.5450167"><ele>767.0</ele><time>2026-04-28T10:36:36.938Z</time></trkpt><trkpt lat="36.9588833" lon="-3.5450683"><ele>767.0</ele><time>2026-04-28T10:36:37.937Z</time></trkpt><trkpt lat="36.9587783" lon="-3.5451167"><ele>767.0</ele><time>2026-04-28T10:36:38.939Z</time></trkpt><trkpt lat="36.95868" lon="-3.5451817"><ele>767.0</ele><time>2026-04-28T10:36:39.937Z</time></trkpt><trkpt lat="36.9585967" lon="-3.54528"><ele>764.5</ele><time>2026-04-28T10:36:40.937Z</time></trkpt><trkpt lat="36.958535" lon="-3.5454267"><ele>762.0</ele><time>2026-04-28T10:36:41.938Z</time></trkpt><trkpt lat="36.95847" lon="-3.5455567"><ele>759.5</ele><time>2026-04-28T10:36:42.939Z</time></trkpt><trkpt lat="36.9584183" lon="-3.5457083"><ele>757.0</ele><time>2026-04-28T10:36:43.937Z</time></trkpt><trkpt lat="36.9583733" lon="-3.545875"><ele>755.25</ele><time>2026-04-28T10:36:44.939Z</time></trkpt><trkpt lat="36.9583133" lon="-3.5460183"><ele>753.5</ele><time>2026-04-28T10:36:45.936Z</time></trkpt><trkpt lat="36.95825" lon="-3.5461567"><ele>751.75</ele><time>2026-04-28T10:36:46.934Z</time></trkpt><trkpt lat="36.95817" lon="-3.5462533"><ele>750.0</ele><time>2026-04-28T10:36:47.935Z</time></trkpt><trkpt lat="36.95808" lon="-3.5463667"><ele>750.0</ele><time>2026-04-28T10:36:48.935Z</time></trkpt><trkpt lat="36.9579517" lon="-3.5464433"><ele>750.0</ele><time>2026-04-28T10:36:49.935Z</time></trkpt><trkpt lat="36.95782" lon="-3.546505"><ele>750.0</ele><time>2026-04-28T10:36:50.937Z</time></trkpt><trkpt lat="36.95768" lon="-3.546545"><ele>750.0</ele><time>2026-04-28T10:36:51.936Z</time></trkpt><trkpt lat="36.95754" lon="-3.546585"><ele>751.5</ele><time>2026-04-28T10:36:52.935Z</time></trkpt><trkpt lat="36.9573967" lon="-3.5466217"><ele>753.0</ele><time>2026-04-28T10:36:53.935Z</time></trkpt><trkpt lat="36.95725" lon="-3.5466567"><ele>754.5</ele><time>2026-04-28T10:36:54.936Z</time></trkpt><trkpt lat="36.957105" lon="-3.5466983"><ele>756.0</ele><time>2026-04-28T10:36:55.939Z</time></trkpt><trkpt lat="36.956965" lon="-3.5467533"><ele>756.0</ele><time>2026-04-28T10:36:56.934Z</time></trkpt><trkpt lat="36.9568333" lon="-3.5468317"><ele>756.0</ele><time>2026-04-28T10:36:57.939Z</time></trkpt><trkpt lat="36.956705" lon="-3.546935"><ele>756.0</ele><time>2026-04-28T10:36:58.937Z</time></trkpt><trkpt lat="36.95658" lon="-3.547045"><ele>751.6666666666666</ele><time>2026-04-28T10:36:59.937Z</time></trkpt><trkpt lat="36.9564583" lon="-3.5471567"><ele>747.3333333333333</ele><time>2026-04-28T10:37:00.937Z</time></trkpt><trkpt lat="36.9563417" lon="-3.54728"><ele>743.0</ele><time>2026-04-28T10:37:01.935Z</time></trkpt><trkpt lat="36.9562183" lon="-3.5473933"><ele>743.0</ele><time>2026-04-28T10:37:02.939Z</time></trkpt><trkpt lat="36.9560967" lon="-3.547505"><ele>743.0</ele><time>2026-04-28T10:37:03.935Z</time></trkpt><trkpt lat="36.955965" lon="-3.5476133"><ele>743.0</ele><time>2026-04-28T10:37:04.936Z</time></trkpt><trkpt lat="36.9558283" lon="-3.5477117"><ele>739.3333333333333</ele><time>2026-04-28T10:37:05.938Z</time></trkpt><trkpt lat="36.95569" lon="-3.547805"><ele>735.6666666666666</ele><time>2026-04-28T10:37:06.938Z</time></trkpt><trkpt lat="36.955555" lon="-3.54789"><ele>732.0</ele><time>2026-04-28T10:37:07.937Z</time></trkpt><trkpt lat="36.9554167" lon="-3.5479633"><ele>732.0</ele><time>2026-04-28T10:37:08.938Z</time></trkpt><trkpt lat="36.9552867" lon="-3.5480483"><ele>732.0</ele><time>2026-04-28T10:37:09.938Z</time></trkpt><trkpt lat="36.9551583" lon="-3.5481233"><ele>732.0</ele><time>2026-04-28T10:37:10.937Z</time></trkpt><trkpt lat="36.9550333" lon="-3.5481983"><ele>732.0</ele><time>2026-04-28T10:37:11.936Z</time></trkpt><trkpt lat="36.9549083" lon="-3.54827"><ele>735.25</ele><time>2026-04-28T10:37:12.938Z</time></trkpt><trkpt lat="36.9547817" lon="-3.54834"><ele>738.5</ele><time>2026-04-28T10:37:13.937Z</time></trkpt><trkpt lat="36.9546533" lon="-3.5483983"><ele>741.75</ele><time>2026-04-28T10:37:14.938Z</time></trkpt><trkpt lat="36.954535" lon="-3.5484633"><ele>745.0</ele><time>2026-04-28T10:37:15.937Z</time></trkpt><trkpt lat="36.95442" lon="-3.54852"><ele>745.0</ele><time>2026-04-28T10:37:16.937Z</time></trkpt><trkpt lat="36.9543133" lon="-3.5485733"><ele>745.0</ele><time>2026-04-28T10:37:17.935Z</time></trkpt><trkpt lat="36.95421" lon="-3.54863"><ele>745.0</ele><time>2026-04-28T10:37:18.935Z</time></trkpt><trkpt lat="36.9541083" lon="-3.54868"><ele>745.0</ele><time>2026-04-28T10:37:19.934Z</time></trkpt><trkpt lat="36.9540117" lon="-3.5487333"><ele>745.0</ele><time>2026-04-28T10:37:20.936Z</time></trkpt><trkpt lat="36.95392" lon="-3.5487817"><ele>742.5</ele><time>2026-04-28T10:37:21.935Z</time></trkpt><trkpt lat="36.95384" lon="-3.5488233"><ele>740.0</ele><time>2026-04-28T10:37:22.935Z</time></trkpt><trkpt lat="36.9537717" lon="-3.5488617"><ele>737.5</ele><time>2026-04-28T10:37:23.935Z</time></trkpt><trkpt lat="36.95371" lon="-3.5488967"><ele>735.0</ele><time>2026-04-28T10:37:24.938Z</time></trkpt><trkpt lat="36.95365" lon="-3.5489283"><ele>732.5</ele><time>2026-04-28T10:37:25.938Z</time></trkpt><trkpt lat="36.9535867" lon="-3.54898"><ele>730.0</ele><time>2026-04-28T10:37:27.937Z</time></trkpt><trkpt lat="36.9534933" lon="-3.54903"><ele>730.0</ele><time>2026-04-28T10:37:30.938Z</time></trkpt><trkpt lat="36.9533933" lon="-3.5491"><ele>730.0</ele><time>2026-04-28T10:37:32.936Z</time></trkpt><trkpt lat="36.95333" lon="-3.549155"><ele>730.0</ele><time>2026-04-28T10:37:33.938Z</time></trkpt><trkpt lat="36.9532467" lon="-3.54922"><ele>730.0</ele><time>2026-04-28T10:37:34.937Z</time></trkpt><trkpt lat="36.9531617" lon="-3.549285"><ele>730.0</ele><time>2026-04-28T10:37:35.937Z</time></trkpt><trkpt lat="36.9530733" lon="-3.5493517"><ele>731.0</ele><time>2026-04-28T10:37:36.937Z</time></trkpt><trkpt lat="36.95298" lon="-3.5494183"><ele>732.0</ele><time>2026-04-28T10:37:37.937Z</time></trkpt><trkpt lat="36.9528917" lon="-3.5494933"><ele>733.0</ele><time>2026-04-28T10:37:38.938Z</time></trkpt><trkpt lat="36.9527967" lon="-3.549575"><ele>734.0</ele><time>2026-04-28T10:37:39.935Z</time></trkpt><trkpt lat="36.9527017" lon="-3.549655"><ele>735.0</ele><time>2026-04-28T10:37:40.935Z</time></trkpt><trkpt lat="36.9526017" lon="-3.5497317"><ele>732.0</ele><time>2026-04-28T10:37:41.935Z</time></trkpt><trkpt lat="36.9525033" lon="-3.5498067"><ele>729.0</ele><time>2026-04-28T10:37:42.938Z</time></trkpt><trkpt lat="36.9524083" lon="-3.5498783"><ele>726.0</ele><time>2026-04-28T10:37:43.938Z</time></trkpt><trkpt lat="36.9523117" lon="-3.549945"><ele>723.0</ele><time>2026-04-28T10:37:44.938Z</time></trkpt><trkpt lat="36.952215" lon="-3.5500133"><ele>720.0</ele><time>2026-04-28T10:37:45.938Z</time></trkpt><trkpt lat="36.9521233" lon="-3.5500783"><ele>720.0</ele><time>2026-04-28T10:37:46.938Z</time></trkpt><trkpt lat="36.9520317" lon="-3.5501433"><ele>720.0</ele><time>2026-04-28T10:37:47.935Z</time></trkpt><trkpt lat="36.951945" lon="-3.5502067"><ele>720.0</ele><time>2026-04-28T10:37:48.936Z</time></trkpt><trkpt lat="36.951865" lon="-3.550265"><ele>720.0</ele><time>2026-04-28T10:37:49.935Z</time></trkpt><trkpt lat="36.951795" lon="-3.5503217"><ele>720.0</ele><time>2026-04-28T10:37:50.936Z</time></trkpt><trkpt lat="36.95172" lon="-3.55037"><ele>718.6</ele><time>2026-04-28T10:37:51.937Z</time></trkpt><trkpt lat="36.9516533" lon="-3.5504133"><ele>717.2</ele><time>2026-04-28T10:37:52.936Z</time></trkpt><trkpt lat="36.9515517" lon="-3.5504767"><ele>715.8</ele><time>2026-04-28T10:37:54.936Z</time></trkpt><trkpt lat="36.951445" lon="-3.5505483"><ele>714.4</ele><time>2026-04-28T10:37:56.935Z</time></trkpt><trkpt lat="36.95138" lon="-3.5506"><ele>713.0</ele><time>2026-04-28T10:37:57.935Z</time></trkpt><trkpt lat="36.9512983" lon="-3.550655"><ele>713.0</ele><time>2026-04-28T10:37:58.937Z</time></trkpt><trkpt lat="36.9512133" lon="-3.5507167"><ele>713.0</ele><time>2026-04-28T10:37:59.938Z</time></trkpt><trkpt lat="36.9511267" lon="-3.5507783"><ele>713.0</ele><time>2026-04-28T10:38:00.937Z</time></trkpt><trkpt lat="36.9510517" lon="-3.5508533"><ele>713.0</ele><time>2026-04-28T10:38:01.937Z</time></trkpt><trkpt lat="36.95096" lon="-3.5509167"><ele>713.0</ele><time>2026-04-28T10:38:02.938Z</time></trkpt><trkpt lat="36.9508733" lon="-3.550985"><ele>714.5</ele><time>2026-04-28T10:38:03.936Z</time></trkpt><trkpt lat="36.9507867" lon="-3.5510417"><ele>716.0</ele><time>2026-04-28T10:38:04.934Z</time></trkpt><trkpt lat="36.9507083" lon="-3.5510967"><ele>717.5</ele><time>2026-04-28T10:38:05.935Z</time></trkpt><trkpt lat="36.95063" lon="-3.5511433"><ele>719.0</ele><time>2026-04-28T10:38:06.935Z</time></trkpt><trkpt lat="36.9505617" lon="-3.551195"><ele>720.5</ele><time>2026-04-28T10:38:07.935Z</time></trkpt><trkpt lat="36.9505017" lon="-3.5512367"><ele>722.0</ele><time>2026-04-28T10:38:08.935Z</time></trkpt><trkpt lat="36.9504033" lon="-3.551315"><ele>720.1666666666666</ele><time>2026-04-28T10:38:10.935Z</time></trkpt><trkpt lat="36.950345" lon="-3.55136"><ele>718.3333333333333</ele><time>2026-04-28T10:38:11.938Z</time></trkpt><trkpt lat="36.9502717" lon="-3.5514117"><ele>716.5</ele><time>2026-04-28T10:38:12.937Z</time></trkpt><trkpt lat="36.950195" lon="-3.5514667"><ele>714.6666666666666</ele><time>2026-04-28T10:38:13.934Z</time></trkpt><trkpt lat="36.9501133" lon="-3.5515217"><ele>712.8333333333334</ele><time>2026-04-28T10:38:14.936Z</time></trkpt><trkpt lat="36.9500233" lon="-3.5515783"><ele>711.0</ele><time>2026-04-28T10:38:15.936Z</time></trkpt><trkpt lat="36.9499367" lon="-3.551635"><ele>711.0</ele><time>2026-04-28T10:38:16.935Z</time></trkpt><trkpt lat="36.949855" lon="-3.5516883"><ele>711.0</ele><time>2026-04-28T10:38:17.935Z</time></trkpt><trkpt lat="36.9497683" lon="-3.5517433"><ele>711.0</ele><time>2026-04-28T10:38:18.936Z</time></trkpt><trkpt lat="36.94968" lon="-3.5517933"><ele>711.0</ele><time>2026-04-28T10:38:19.936Z</time></trkpt><trkpt lat="36.9495817" lon="-3.5518283"><ele>711.0</ele><time>2026-04-28T10:38:20.936Z</time></trkpt><trkpt lat="36.949485" lon="-3.55186"><ele>711.0</ele><time>2026-04-28T10:38:21.935Z</time></trkpt><trkpt lat="36.9493867" lon="-3.5518767"><ele>711.0</ele><time>2026-04-28T10:38:22.934Z</time></trkpt><trkpt lat="36.9492833" lon="-3.55188"><ele>711.0</ele><time>2026-04-28T10:38:23.935Z</time></trkpt><trkpt lat="36.9491833" lon="-3.5518583"><ele>711.0</ele><time>2026-04-28T10:38:24.936Z</time></trkpt><trkpt lat="36.949085" lon="-3.5518317"><ele>711.0</ele><time>2026-04-28T10:38:25.935Z</time></trkpt><trkpt lat="36.9490033" lon="-3.5518117"><ele>710.6666666666666</ele><time>2026-04-28T10:38:26.935Z</time></trkpt><trkpt lat="36.9489217" lon="-3.55178"><ele>710.3333333333334</ele><time>2026-04-28T10:38:27.935Z</time></trkpt><trkpt lat="36.948845" lon="-3.55175"><ele>710.0</ele><time>2026-04-28T10:38:28.935Z</time></trkpt><trkpt lat="36.9487867" lon="-3.551715"><ele>709.6666666666667</ele><time>2026-04-28T10:38:29.936Z</time></trkpt><trkpt lat="36.9487317" lon="-3.5516717"><ele>709.3333333333334</ele><time>2026-04-28T10:38:30.935Z</time></trkpt><trkpt lat="36.9486467" lon="-3.5516533"><ele>709.0</ele><time>2026-04-28T10:38:32.935Z</time></trkpt><trkpt lat="36.9485533" lon="-3.5517167"><ele>709.0</ele><time>2026-04-28T10:38:34.937Z</time></trkpt><trkpt lat="36.9485133" lon="-3.5518017"><ele>709.0</ele><time>2026-04-28T10:38:35.938Z</time></trkpt><trkpt lat="36.948475" lon="-3.5519"><ele>709.0</ele><time>2026-04-28T10:38:36.938Z</time></trkpt><trkpt lat="36.9484417" lon="-3.5520033"><ele>709.0</ele><time>2026-04-28T10:38:37.938Z</time></trkpt><trkpt lat="36.9484067" lon="-3.552105"><ele>709.0</ele><time>2026-04-28T10:38:38.938Z</time></trkpt><trkpt lat="36.9483683" lon="-3.5522"><ele>709.0</ele><time>2026-04-28T10:38:39.937Z</time></trkpt><trkpt lat="36.94833" lon="-3.55228"><ele>708.0000000000001</ele><time>2026-04-28T10:38:40.937Z</time></trkpt><trkpt lat="36.94829" lon="-3.552345"><ele>707.0</ele><time>2026-04-28T10:38:41.938Z</time></trkpt><trkpt lat="36.9482483" lon="-3.5524067"><ele>706.0</ele><time>2026-04-28T10:38:42.937Z</time></trkpt><trkpt lat="36.9482017" lon="-3.5524717"><ele>705.0</ele><time>2026-04-28T10:38:43.938Z</time></trkpt><trkpt lat="36.948135" lon="-3.5525217"><ele>704.0</ele><time>2026-04-28T10:38:44.938Z</time></trkpt><trkpt lat="36.9480767" lon="-3.55258"><ele>703.0000000000001</ele><time>2026-04-28T10:38:45.937Z</time></trkpt><trkpt lat="36.9480033" lon="-3.5526383"><ele>702.0</ele><time>2026-04-28T10:38:46.937Z</time></trkpt><trkpt lat="36.947915" lon="-3.5526967"><ele>702.0</ele><time>2026-04-28T10:38:47.935Z</time></trkpt><trkpt lat="36.947825" lon="-3.552755"><ele>702.0</ele><time>2026-04-28T10:38:48.935Z</time></trkpt><trkpt lat="36.9477333" lon="-3.55281"><ele>702.0</ele><time>2026-04-28T10:38:49.935Z</time></trkpt><trkpt lat="36.94764" lon="-3.55287"><ele>702.0</ele><time>2026-04-28T10:38:50.936Z</time></trkpt><trkpt lat="36.9475367" lon="-3.5529233"><ele>702.0</ele><time>2026-04-28T10:38:51.935Z</time></trkpt><trkpt lat="36.9474333" lon="-3.5529767"><ele>700.8</ele><time>2026-04-28T10:38:52.937Z</time></trkpt><trkpt lat="36.9473333" lon="-3.5530283"><ele>699.6</ele><time>2026-04-28T10:38:53.936Z</time></trkpt><trkpt lat="36.9472333" lon="-3.5530733"><ele>698.4</ele><time>2026-04-28T10:38:54.941Z</time></trkpt><trkpt lat="36.94714" lon="-3.5531217"><ele>697.1999999999999</ele><time>2026-04-28T10:38:55.938Z</time></trkpt><trkpt lat="36.94706" lon="-3.5531717"><ele>696.0</ele><time>2026-04-28T10:38:56.938Z</time></trkpt><trkpt lat="36.9469917" lon="-3.5532183"><ele>696.0</ele><time>2026-04-28T10:38:57.938Z</time></trkpt><trkpt lat="36.9469233" lon="-3.5532583"><ele>696.0</ele><time>2026-04-28T10:38:58.935Z</time></trkpt><trkpt lat="36.9468617" lon="-3.553285"><ele>696.0</ele><time>2026-04-28T10:38:59.937Z</time></trkpt><trkpt lat="36.9467617" lon="-3.55334"><ele>696.0</ele><time>2026-04-28T10:39:01.935Z</time></trkpt><trkpt lat="36.9466717" lon="-3.5533883"><ele>696.0</ele><time>2026-04-28T10:39:03.935Z</time></trkpt><trkpt lat="36.9466133" lon="-3.55343"><ele>696.0</ele><time>2026-04-28T10:39:04.938Z</time></trkpt><trkpt lat="36.946545" lon="-3.553475"><ele>695.8</ele><time>2026-04-28T10:39:05.938Z</time></trkpt><trkpt lat="36.9464533" lon="-3.55352"><ele>695.5999999999999</ele><time>2026-04-28T10:39:06.935Z</time></trkpt><trkpt lat="36.94637" lon="-3.553575"><ele>695.4</ele><time>2026-04-28T10:39:07.938Z</time></trkpt><trkpt lat="36.94629" lon="-3.5536333"><ele>695.2</ele><time>2026-04-28T10:39:08.935Z</time></trkpt><trkpt lat="36.946205" lon="-3.5536817"><ele>695.0</ele><time>2026-04-28T10:39:09.936Z</time></trkpt><trkpt lat="36.9461183" lon="-3.5537267"><ele>694.8</ele><time>2026-04-28T10:39:10.938Z</time></trkpt><trkpt lat="36.9460367" lon="-3.55378"><ele>694.6</ele><time>2026-04-28T10:39:11.937Z</time></trkpt><trkpt lat="36.94595" lon="-3.55384"><ele>694.4000000000001</ele><time>2026-04-28T10:39:12.938Z</time></trkpt><trkpt lat="36.9458517" lon="-3.5538933"><ele>694.2</ele><time>2026-04-28T10:39:13.935Z</time></trkpt><trkpt lat="36.9457467" lon="-3.55394"><ele>694.0</ele><time>2026-04-28T10:39:14.936Z</time></trkpt><trkpt lat="36.9456467" lon="-3.554"><ele>694.0</ele><time>2026-04-28T10:39:15.937Z</time></trkpt><trkpt lat="36.9455383" lon="-3.5540483"><ele>694.0</ele><time>2026-04-28T10:39:16.938Z</time></trkpt><trkpt lat="36.9454267" lon="-3.554085"><ele>694.0</ele><time>2026-04-28T10:39:17.934Z</time></trkpt><trkpt lat="36.9453033" lon="-3.5541"><ele>694.0</ele><time>2026-04-28T10:39:18.937Z</time></trkpt><trkpt lat="36.9451767" lon="-3.5540933"><ele>694.0</ele><time>2026-04-28T10:39:19.936Z</time></trkpt><trkpt lat="36.9450467" lon="-3.554075"><ele>694.0</ele><time>2026-04-28T10:39:20.935Z</time></trkpt><trkpt lat="36.9449133" lon="-3.554055"><ele>694.0</ele><time>2026-04-28T10:39:21.936Z</time></trkpt><trkpt lat="36.9447767" lon="-3.554035"><ele>694.0</ele><time>2026-04-28T10:39:22.935Z</time></trkpt><trkpt lat="36.9446383" lon="-3.554025"><ele>693.5</ele><time>2026-04-28T10:39:23.936Z</time></trkpt><trkpt lat="36.9445" lon="-3.5540267"><ele>693.0</ele><time>2026-04-28T10:39:24.935Z</time></trkpt><trkpt lat="36.9443633" lon="-3.5540417"><ele>692.5</ele><time>2026-04-28T10:39:25.936Z</time></trkpt><trkpt lat="36.9442283" lon="-3.5540483"><ele>692.0</ele><time>2026-04-28T10:39:26.936Z</time></trkpt><trkpt lat="36.944095" lon="-3.5540733"><ele>690.5</ele><time>2026-04-28T10:39:27.935Z</time></trkpt><trkpt lat="36.9439583" lon="-3.554115"><ele>689.0</ele><time>2026-04-28T10:39:28.936Z</time></trkpt><trkpt lat="36.9438217" lon="-3.5541667"><ele>687.5</ele><time>2026-04-28T10:39:29.938Z</time></trkpt><trkpt lat="36.9436867" lon="-3.554225"><ele>686.0</ele><time>2026-04-28T10:39:30.938Z</time></trkpt><trkpt lat="36.943555" lon="-3.5543083"><ele>686.0</ele><time>2026-04-28T10:39:31.938Z</time></trkpt><trkpt lat="36.9434217" lon="-3.5543967"><ele>686.0</ele><time>2026-04-28T10:39:32.938Z</time></trkpt><trkpt lat="36.9432933" lon="-3.5544883"><ele>686.0</ele><time>2026-04-28T10:39:33.938Z</time></trkpt><trkpt lat="36.9431667" lon="-3.5545783"><ele>686.0</ele><time>2026-04-28T10:39:34.938Z</time></trkpt><trkpt lat="36.943045" lon="-3.5546683"><ele>688.75</ele><time>2026-04-28T10:39:35.937Z</time></trkpt><trkpt lat="36.9429233" lon="-3.5547533"><ele>691.5</ele><time>2026-04-28T10:39:36.938Z</time></trkpt><trkpt lat="36.9428133" lon="-3.55487"><ele>694.25</ele><time>2026-04-28T10:39:37.938Z</time></trkpt><trkpt lat="36.9427133" lon="-3.5549733"><ele>697.0</ele><time>2026-04-28T10:39:38.938Z</time></trkpt><trkpt lat="36.9426167" lon="-3.5550667"><ele>693.0</ele><time>2026-04-28T10:39:39.937Z</time></trkpt><trkpt lat="36.942505" lon="-3.555135"><ele>689.0</ele><time>2026-04-28T10:39:40.934Z</time></trkpt><trkpt lat="36.9423917" lon="-3.5551833"><ele>685.0</ele><time>2026-04-28T10:39:41.939Z</time></trkpt><trkpt lat="36.9422717" lon="-3.555215"><ele>681.0</ele><time>2026-04-28T10:39:42.938Z</time></trkpt><trkpt lat="36.9421483" lon="-3.5552317"><ele>681.0</ele><time>2026-04-28T10:39:43.938Z</time></trkpt><trkpt lat="36.94202" lon="-3.5552417"><ele>681.0</ele><time>2026-04-28T10:39:44.938Z</time></trkpt><trkpt lat="36.9418883" lon="-3.5552517"><ele>681.0</ele><time>2026-04-28T10:39:45.938Z</time></trkpt><trkpt lat="36.9417633" lon="-3.5552583"><ele>681.0</ele><time>2026-04-28T10:39:46.937Z</time></trkpt><trkpt lat="36.94164" lon="-3.5552567"><ele>679.75</ele><time>2026-04-28T10:39:47.937Z</time></trkpt><trkpt lat="36.9415217" lon="-3.5552467"><ele>678.5</ele><time>2026-04-28T10:39:48.935Z</time></trkpt><trkpt lat="36.9414067" lon="-3.5552417"><ele>677.25</ele><time>2026-04-28T10:39:49.934Z</time></trkpt><trkpt lat="36.9412983" lon="-3.5552267"><ele>676.0</ele><time>2026-04-28T10:39:50.935Z</time></trkpt><trkpt lat="36.9411833" lon="-3.5552117"><ele>676.0</ele><time>2026-04-28T10:39:51.935Z</time></trkpt><trkpt lat="36.9410783" lon="-3.5551983"><ele>676.0</ele><time>2026-04-28T10:39:52.936Z</time></trkpt><trkpt lat="36.940975" lon="-3.55521"><ele>676.0</ele><time>2026-04-28T10:39:53.935Z</time></trkpt><trkpt lat="36.9408817" lon="-3.55527"><ele>676.0</ele><time>2026-04-28T10:39:54.937Z</time></trkpt><trkpt lat="36.9408017" lon="-3.5553567"><ele>676.0</ele><time>2026-04-28T10:39:55.936Z</time></trkpt><trkpt lat="36.9407467" lon="-3.5554617"><ele>678.0</ele><time>2026-04-28T10:39:56.935Z</time></trkpt><trkpt lat="36.9407067" lon="-3.5555517"><ele>680.0</ele><time>2026-04-28T10:39:57.934Z</time></trkpt><trkpt lat="36.9406933" lon="-3.55566"><ele>682.0</ele><time>2026-04-28T10:39:58.936Z</time></trkpt><trkpt lat="36.94071" lon="-3.5557833"><ele>684.0</ele><time>2026-04-28T10:39:59.938Z</time></trkpt><trkpt lat="36.9407417" lon="-3.555925"><ele>686.0</ele><time>2026-04-28T10:40:00.937Z</time></trkpt><trkpt lat="36.94078" lon="-3.5560783"><ele>686.0</ele><time>2026-04-28T10:40:01.938Z</time></trkpt><trkpt lat="36.94079" lon="-3.5561983"><ele>686.0</ele><time>2026-04-28T10:40:02.939Z</time></trkpt><trkpt lat="36.9408067" lon="-3.5563183"><ele>686.0</ele><time>2026-04-28T10:40:03.938Z</time></trkpt><trkpt lat="36.94087" lon="-3.55648"><ele>686.0</ele><time>2026-04-28T10:40:04.935Z</time></trkpt><trkpt lat="36.9409183" lon="-3.556595"><ele>686.0</ele><time>2026-04-28T10:40:05.935Z</time></trkpt><trkpt lat="36.94096" lon="-3.5566983"><ele>686.75</ele><time>2026-04-28T10:40:06.938Z</time></trkpt><trkpt lat="36.9410067" lon="-3.55682"><ele>687.5</ele><time>2026-04-28T10:40:07.938Z</time></trkpt><trkpt lat="36.941065" lon="-3.5570117"><ele>688.25</ele><time>2026-04-28T10:40:08.938Z</time></trkpt><trkpt lat="36.9410583" lon="-3.55717"><ele>689.0</ele><time>2026-04-28T10:40:09.939Z</time></trkpt><trkpt lat="36.9409933" lon="-3.557255"><ele>690.0</ele><time>2026-04-28T10:40:10.938Z</time></trkpt><trkpt lat="36.940955" lon="-3.5574067"><ele>691.0</ele><time>2026-04-28T10:40:11.938Z</time></trkpt><trkpt lat="36.9409083" lon="-3.5575533"><ele>692.0</ele><time>2026-04-28T10:40:12.937Z</time></trkpt><trkpt lat="36.9408417" lon="-3.557675"><ele>693.0</ele><time>2026-04-28T10:40:13.938Z</time></trkpt><trkpt lat="36.940755" lon="-3.5577783"><ele>691.25</ele><time>2026-04-28T10:40:14.938Z</time></trkpt><trkpt lat="36.9406517" lon="-3.55785"><ele>689.5</ele><time>2026-04-28T10:40:15.937Z</time></trkpt><trkpt lat="36.9405417" lon="-3.5579"><ele>687.75</ele><time>2026-04-28T10:40:16.938Z</time></trkpt><trkpt lat="36.94044" lon="-3.557965"><ele>686.0</ele><time>2026-04-28T10:40:17.938Z</time></trkpt><trkpt lat="36.94036" lon="-3.55807"><ele>686.0</ele><time>2026-04-28T10:40:18.935Z</time></trkpt><trkpt lat="36.9402917" lon="-3.5581783"><ele>686.0</ele><time>2026-04-28T10:40:19.935Z</time></trkpt><trkpt lat="36.9402383" lon="-3.5582867"><ele>686.0</ele><time>2026-04-28T10:40:20.935Z</time></trkpt><trkpt lat="36.940185" lon="-3.5583883"><ele>686.0</ele><time>2026-04-28T10:40:21.937Z</time></trkpt><trkpt lat="36.9401167" lon="-3.558485"><ele>686.0</ele><time>2026-04-28T10:40:22.935Z</time></trkpt><trkpt lat="36.9400367" lon="-3.5585767"><ele>684.0</ele><time>2026-04-28T10:40:23.935Z</time></trkpt><trkpt lat="36.9399567" lon="-3.5586833"><ele>682.0</ele><time>2026-04-28T10:40:24.936Z</time></trkpt><trkpt lat="36.9398717" lon="-3.558785"><ele>680.0</ele><time>2026-04-28T10:40:25.935Z</time></trkpt><trkpt lat="36.9397867" lon="-3.5588883"><ele>678.0</ele><time>2026-04-28T10:40:26.936Z</time></trkpt><trkpt lat="36.93972" lon="-3.5590133"><ele>678.0</ele><time>2026-04-28T10:40:27.936Z</time></trkpt><trkpt lat="36.939665" lon="-3.55914"><ele>678.0</ele><time>2026-04-28T10:40:28.936Z</time></trkpt><trkpt lat="36.9396117" lon="-3.5592583"><ele>678.0</ele><time>2026-04-28T10:40:29.938Z</time></trkpt><trkpt lat="36.9395567" lon="-3.559375"><ele>678.0</ele><time>2026-04-28T10:40:30.938Z</time></trkpt><trkpt lat="36.9394733" lon="-3.5594717"><ele>678.0</ele><time>2026-04-28T10:40:31.938Z</time></trkpt><trkpt lat="36.9393733" lon="-3.5595483"><ele>676.25</ele><time>2026-04-28T10:40:32.938Z</time></trkpt><trkpt lat="36.93926" lon="-3.5596167"><ele>674.5</ele><time>2026-04-28T10:40:33.937Z</time></trkpt><trkpt lat="36.9391467" lon="-3.5596917"><ele>672.75</ele><time>2026-04-28T10:40:34.938Z</time></trkpt><trkpt lat="36.9390317" lon="-3.559785"><ele>671.0</ele><time>2026-04-28T10:40:35.938Z</time></trkpt><trkpt lat="36.938915" lon="-3.55989"><ele>669.25</ele><time>2026-04-28T10:40:36.938Z</time></trkpt><trkpt lat="36.9387983" lon="-3.5600033"><ele>667.5</ele><time>2026-04-28T10:40:37.938Z</time></trkpt><trkpt lat="36.9386833" lon="-3.56012"><ele>665.75</ele><time>2026-04-28T10:40:38.938Z</time></trkpt><trkpt lat="36.9385667" lon="-3.560235"><ele>664.0</ele><time>2026-04-28T10:40:39.938Z</time></trkpt><trkpt lat="36.9384567" lon="-3.5603567"><ele>662.5</ele><time>2026-04-28T10:40:40.938Z</time></trkpt><trkpt lat="36.9383433" lon="-3.5604633"><ele>661.0</ele><time>2026-04-28T10:40:41.938Z</time></trkpt><trkpt lat="36.9382367" lon="-3.5605667"><ele>659.5</ele><time>2026-04-28T10:40:42.937Z</time></trkpt><trkpt lat="36.9381367" lon="-3.560665"><ele>658.0</ele><time>2026-04-28T10:40:43.938Z</time></trkpt><trkpt lat="36.93804" lon="-3.5607533"><ele>658.0</ele><time>2026-04-28T10:40:44.938Z</time></trkpt><trkpt lat="36.9379483" lon="-3.5608367"><ele>658.0</ele><time>2026-04-28T10:40:45.938Z</time></trkpt><trkpt lat="36.9378583" lon="-3.5609183"><ele>658.0</ele><time>2026-04-28T10:40:46.938Z</time></trkpt><trkpt lat="36.9377733" lon="-3.5610033"><ele>658.0</ele><time>2026-04-28T10:40:47.936Z</time></trkpt><trkpt lat="36.9376933" lon="-3.5610983"><ele>658.0</ele><time>2026-04-28T10:40:48.935Z</time></trkpt><trkpt lat="36.9376183" lon="-3.561205"><ele>656.5</ele><time>2026-04-28T10:40:49.934Z</time></trkpt><trkpt lat="36.93755" lon="-3.56132"><ele>655.0</ele><time>2026-04-28T10:40:50.935Z</time></trkpt><trkpt lat="36.93747" lon="-3.5614267"><ele>653.5</ele><time>2026-04-28T10:40:51.936Z</time></trkpt><trkpt lat="36.9373717" lon="-3.5615117"><ele>652.0</ele><time>2026-04-28T10:40:52.933Z</time></trkpt><trkpt lat="36.9372633" lon="-3.5615733"><ele>652.0</ele><time>2026-04-28T10:40:53.935Z</time></trkpt><trkpt lat="36.937145" lon="-3.5616167"><ele>652.0</ele><time>2026-04-28T10:40:54.935Z</time></trkpt><trkpt lat="36.937015" lon="-3.5616417"><ele>652.0</ele><time>2026-04-28T10:40:55.937Z</time></trkpt><trkpt lat="36.9368833" lon="-3.5616617"><ele>652.0</ele><time>2026-04-28T10:40:56.938Z</time></trkpt><trkpt lat="36.9367517" lon="-3.5616683"><ele>649.25</ele><time>2026-04-28T10:40:57.935Z</time></trkpt><trkpt lat="36.9366217" lon="-3.5616833"><ele>646.5</ele><time>2026-04-28T10:40:58.935Z</time></trkpt><trkpt lat="36.9364933" lon="-3.5616967"><ele>643.75</ele><time>2026-04-28T10:40:59.938Z</time></trkpt><trkpt lat="36.9363667" lon="-3.5617117"><ele>641.0</ele><time>2026-04-28T10:41:00.937Z</time></trkpt><trkpt lat="36.936245" lon="-3.5617333"><ele>641.0</ele><time>2026-04-28T10:41:01.938Z</time></trkpt><trkpt lat="36.936125" lon="-3.561755"><ele>641.0</ele><time>2026-04-28T10:41:02.938Z</time></trkpt><trkpt lat="36.93601" lon="-3.561775"><ele>641.0</ele><time>2026-04-28T10:41:03.939Z</time></trkpt><trkpt lat="36.9359" lon="-3.5617967"><ele>641.0</ele><time>2026-04-28T10:41:04.938Z</time></trkpt><trkpt lat="36.935795" lon="-3.5618233"><ele>639.4</ele><time>2026-04-28T10:41:05.938Z</time></trkpt><trkpt lat="36.9356867" lon="-3.5618517"><ele>637.8</ele><time>2026-04-28T10:41:06.938Z</time></trkpt><trkpt lat="36.935585" lon="-3.5618767"><ele>636.1999999999999</ele><time>2026-04-28T10:41:07.939Z</time></trkpt><trkpt lat="36.93549" lon="-3.5618933"><ele>634.5999999999999</ele><time>2026-04-28T10:41:08.94Z</time></trkpt><trkpt lat="36.9354033" lon="-3.56191"><ele>633.0</ele><time>2026-04-28T10:41:09.938Z</time></trkpt><trkpt lat="36.9353283" lon="-3.5619333"><ele>633.0</ele><time>2026-04-28T10:41:10.938Z</time></trkpt><trkpt lat="36.9352567" lon="-3.56196"><ele>633.0</ele><time>2026-04-28T10:41:11.937Z</time></trkpt><trkpt lat="36.9351817" lon="-3.561995"><ele>633.0</ele><time>2026-04-28T10:41:12.938Z</time></trkpt><trkpt lat="36.93512" lon="-3.5620467"><ele>633.0</ele><time>2026-04-28T10:41:13.938Z</time></trkpt><trkpt lat="36.9350783" lon="-3.5621233"><ele>633.0</ele><time>2026-04-28T10:41:14.939Z</time></trkpt><trkpt lat="36.935035" lon="-3.562185"><ele>633.0</ele><time>2026-04-28T10:41:15.939Z</time></trkpt><trkpt lat="36.93506" lon="-3.5623517"><ele>634.0</ele><time>2026-04-28T10:41:17.935Z</time></trkpt><trkpt lat="36.9351267" lon="-3.5624433"><ele>635.0</ele><time>2026-04-28T10:41:18.935Z</time></trkpt><trkpt lat="36.9351767" lon="-3.5625533"><ele>636.0</ele><time>2026-04-28T10:41:19.936Z</time></trkpt><trkpt lat="36.935195" lon="-3.5626967"><ele>637.0</ele><time>2026-04-28T10:41:20.936Z</time></trkpt><trkpt lat="36.93518" lon="-3.5628"><ele>638.0</ele><time>2026-04-28T10:41:21.935Z</time></trkpt><trkpt lat="36.9351133" lon="-3.5628667"><ele>634.1999999999999</ele><time>2026-04-28T10:41:22.934Z</time></trkpt><trkpt lat="36.9350517" lon="-3.5629483"><ele>630.4</ele><time>2026-04-28T10:41:23.934Z</time></trkpt><trkpt lat="36.9349767" lon="-3.5630383"><ele>626.5999999999999</ele><time>2026-04-28T10:41:24.938Z</time></trkpt><trkpt lat="36.9348883" lon="-3.5631067"><ele>622.8</ele><time>2026-04-28T10:41:25.938Z</time></trkpt><trkpt lat="36.9347917" lon="-3.5631517"><ele>619.0</ele><time>2026-04-28T10:41:26.938Z</time></trkpt><trkpt lat="36.934695" lon="-3.5631867"><ele>619.0</ele><time>2026-04-28T10:41:27.935Z</time></trkpt><trkpt lat="36.9346067" lon="-3.5632233"><ele>619.0</ele><time>2026-04-28T10:41:28.936Z</time></trkpt><trkpt lat="36.934515" lon="-3.56326"><ele>619.0</ele><time>2026-04-28T10:41:29.935Z</time></trkpt><trkpt lat="36.934425" lon="-3.563285"><ele>619.0</ele><time>2026-04-28T10:41:30.936Z</time></trkpt><trkpt lat="36.934335" lon="-3.5633117"><ele>619.0</ele><time>2026-04-28T10:41:31.934Z</time></trkpt><trkpt lat="36.934245" lon="-3.5633417"><ele>618.6666666666667</ele><time>2026-04-28T10:41:32.935Z</time></trkpt><trkpt lat="36.9341533" lon="-3.5633767"><ele>618.3333333333334</ele><time>2026-04-28T10:41:33.936Z</time></trkpt><trkpt lat="36.934065" lon="-3.56342"><ele>618.0</ele><time>2026-04-28T10:41:34.934Z</time></trkpt><trkpt lat="36.9339867" lon="-3.563475"><ele>617.6666666666666</ele><time>2026-04-28T10:41:35.936Z</time></trkpt><trkpt lat="36.93392" lon="-3.563545"><ele>617.3333333333333</ele><time>2026-04-28T10:41:36.941Z</time></trkpt><trkpt lat="36.9338733" lon="-3.5636233"><ele>617.0</ele><time>2026-04-28T10:41:37.937Z</time></trkpt><trkpt lat="36.9338433" lon="-3.56371"><ele>616.1666666666666</ele><time>2026-04-28T10:41:38.939Z</time></trkpt><trkpt lat="36.9338383" lon="-3.5637983"><ele>615.3333333333333</ele><time>2026-04-28T10:41:39.938Z</time></trkpt><trkpt lat="36.9338667" lon="-3.5638833"><ele>614.5</ele><time>2026-04-28T10:41:40.939Z</time></trkpt><trkpt lat="36.9339183" lon="-3.5639583"><ele>613.6666666666666</ele><time>2026-04-28T10:41:41.938Z</time></trkpt><trkpt lat="36.9339967" lon="-3.5639717"><ele>612.8333333333334</ele><time>2026-04-28T10:41:43.938Z</time></trkpt><trkpt lat="36.9341433" lon="-3.5639633"><ele>612.0</ele><time>2026-04-28T10:41:44.936Z</time></trkpt><trkpt lat="36.9342583" lon="-3.5639367"><ele>609.0</ele><time>2026-04-28T10:41:45.937Z</time></trkpt><trkpt lat="36.9343567" lon="-3.5638883"><ele>606.0</ele><time>2026-04-28T10:41:46.937Z</time></trkpt><trkpt lat="36.9344483" lon="-3.5638383"><ele>603.0</ele><time>2026-04-28T10:41:47.936Z</time></trkpt><trkpt lat="36.9345167" lon="-3.5637983"><ele>600.0</ele><time>2026-04-28T10:41:48.935Z</time></trkpt><trkpt lat="36.9346" lon="-3.5637517"><ele>597.0</ele><time>2026-04-28T10:41:49.936Z</time></trkpt><trkpt lat="36.9347117" lon="-3.5637"><ele>602.25</ele><time>2026-04-28T10:41:50.936Z</time></trkpt><trkpt lat="36.9348333" lon="-3.5636333"><ele>607.5</ele><time>2026-04-28T10:41:51.936Z</time></trkpt><trkpt lat="36.9349517" lon="-3.563575"><ele>612.75</ele><time>2026-04-28T10:41:52.934Z</time></trkpt><trkpt lat="36.9350533" lon="-3.5635317"><ele>618.0</ele><time>2026-04-28T10:41:53.935Z</time></trkpt><trkpt lat="36.9351533" lon="-3.5635017"><ele>618.0</ele><time>2026-04-28T10:41:54.938Z</time></trkpt><trkpt lat="36.935215" lon="-3.56347"><ele>618.0</ele><time>2026-04-28T10:41:55.939Z</time></trkpt><trkpt lat="36.93528" lon="-3.5634483"><ele>618.0</ele><time>2026-04-28T10:41:56.936Z</time></trkpt><trkpt lat="36.935435" lon="-3.5634617"><ele>618.0</ele><time>2026-04-28T10:41:57.936Z</time></trkpt><trkpt lat="36.93559" lon="-3.5634833"><ele>618.0</ele><time>2026-04-28T10:41:58.936Z</time></trkpt><trkpt lat="36.9356617" lon="-3.56349"><ele>618.0</ele><time>2026-04-28T10:41:59.936Z</time></trkpt><trkpt lat="36.93576" lon="-3.5635317"><ele>618.0</ele><time>2026-04-28T10:42:00.938Z</time></trkpt><trkpt lat="36.93588" lon="-3.563565"><ele>618.0</ele><time>2026-04-28T10:42:01.938Z</time></trkpt><trkpt lat="36.9359917" lon="-3.56359"><ele>618.0</ele><time>2026-04-28T10:42:02.938Z</time></trkpt><trkpt lat="36.9360967" lon="-3.563635"><ele>617.8</ele><time>2026-04-28T10:42:03.938Z</time></trkpt><trkpt lat="36.9361917" lon="-3.563665"><ele>617.5999999999999</ele><time>2026-04-28T10:42:04.938Z</time></trkpt><trkpt lat="36.9362783" lon="-3.5636883"><ele>617.4000000000001</ele><time>2026-04-28T10:42:05.938Z</time></trkpt><trkpt lat="36.9363817" lon="-3.5637183"><ele>617.2</ele><time>2026-04-28T10:42:06.937Z</time></trkpt><trkpt lat="36.936485" lon="-3.5637267"><ele>617.0</ele><time>2026-04-28T10:42:07.938Z</time></trkpt><trkpt lat="36.9366217" lon="-3.5637183"><ele>615.8000000000001</ele><time>2026-04-28T10:42:08.94Z</time></trkpt><trkpt lat="36.9367383" lon="-3.563685"><ele>614.6</ele><time>2026-04-28T10:42:09.937Z</time></trkpt><trkpt lat="36.9368483" lon="-3.563635"><ele>613.4000000000001</ele><time>2026-04-28T10:42:10.937Z</time></trkpt><trkpt lat="36.93695" lon="-3.563605"><ele>612.2</ele><time>2026-04-28T10:42:11.938Z</time></trkpt><trkpt lat="36.9370183" lon="-3.5635967"><ele>611.0</ele><time>2026-04-28T10:42:12.935Z</time></trkpt><trkpt lat="36.9371317" lon="-3.5635883"><ele>611.0</ele><time>2026-04-28T10:42:13.938Z</time></trkpt><trkpt lat="36.9372867" lon="-3.563605"><ele>611.0</ele><time>2026-04-28T10:42:14.936Z</time></trkpt><trkpt lat="36.9373967" lon="-3.5636067"><ele>611.0</ele><time>2026-04-28T10:42:15.935Z</time></trkpt><trkpt lat="36.937485" lon="-3.5636083"><ele>611.0</ele><time>2026-04-28T10:42:16.938Z</time></trkpt><trkpt lat="36.9375883" lon="-3.563615"><ele>611.1666666666666</ele><time>2026-04-28T10:42:17.937Z</time></trkpt><trkpt lat="36.9376783" lon="-3.5636233"><ele>611.3333333333333</ele><time>2026-04-28T10:42:18.938Z</time></trkpt><trkpt lat="36.937775" lon="-3.5636183"><ele>611.5</ele><time>2026-04-28T10:42:19.937Z</time></trkpt><trkpt lat="36.9378717" lon="-3.5636267"><ele>611.6666666666666</ele><time>2026-04-28T10:42:20.935Z</time></trkpt><trkpt lat="36.9379383" lon="-3.56364"><ele>611.8333333333334</ele><time>2026-04-28T10:42:21.939Z</time></trkpt><trkpt lat="36.93801" lon="-3.5636667"><ele>612.0</ele><time>2026-04-28T10:42:22.938Z</time></trkpt><trkpt lat="36.9380967" lon="-3.5637117"><ele>610.0</ele><time>2026-04-28T10:42:23.937Z</time></trkpt><trkpt lat="36.938165" lon="-3.5637733"><ele>608.0</ele><time>2026-04-28T10:42:24.935Z</time></trkpt><trkpt lat="36.938275" lon="-3.5639"><ele>606.0</ele><time>2026-04-28T10:42:26.938Z</time></trkpt><trkpt lat="36.9383183" lon="-3.5639933"><ele>604.0</ele><time>2026-04-28T10:42:27.934Z</time></trkpt><trkpt lat="36.938305" lon="-3.5640783"><ele>602.0</ele><time>2026-04-28T10:42:28.937Z</time></trkpt><trkpt lat="36.9382783" lon="-3.5641817"><ele>602.0</ele><time>2026-04-28T10:42:29.937Z</time></trkpt><trkpt lat="36.9382267" lon="-3.564285"><ele>602.0</ele><time>2026-04-28T10:42:30.937Z</time></trkpt><trkpt lat="36.9381533" lon="-3.56441"><ele>602.0</ele><time>2026-04-28T10:42:31.937Z</time></trkpt><trkpt lat="36.93807" lon="-3.5645017"><ele>602.0</ele><time>2026-04-28T10:42:32.936Z</time></trkpt><trkpt lat="36.9379917" lon="-3.564605"><ele>602.0</ele><time>2026-04-28T10:42:33.938Z</time></trkpt><trkpt lat="36.9379333" lon="-3.5647383"><ele>603.2</ele><time>2026-04-28T10:42:34.938Z</time></trkpt><trkpt lat="36.9378917" lon="-3.5648717"><ele>604.4000000000001</ele><time>2026-04-28T10:42:35.939Z</time></trkpt><trkpt lat="36.9378383" lon="-3.5649883"><ele>605.5999999999999</ele><time>2026-04-28T10:42:36.937Z</time></trkpt><trkpt lat="36.9377817" lon="-3.5651083"><ele>606.8</ele><time>2026-04-28T10:42:37.938Z</time></trkpt><trkpt lat="36.9377383" lon="-3.5652367"><ele>608.0</ele><time>2026-04-28T10:42:38.935Z</time></trkpt><trkpt lat="36.9377017" lon="-3.5653583"><ele>606.6666666666666</ele><time>2026-04-28T10:42:39.937Z</time></trkpt><trkpt lat="36.937665" lon="-3.5654633"><ele>605.3333333333333</ele><time>2026-04-28T10:42:40.938Z</time></trkpt><trkpt lat="36.9376317" lon="-3.5655683"><ele>604.0</ele><time>2026-04-28T10:42:41.938Z</time></trkpt><trkpt lat="36.9376017" lon="-3.5656667"><ele>602.6666666666666</ele><time>2026-04-28T10:42:42.937Z</time></trkpt><trkpt lat="36.9375683" lon="-3.5657617"><ele>601.3333333333334</ele><time>2026-04-28T10:42:43.936Z</time></trkpt><trkpt lat="36.9375383" lon="-3.56587"><ele>600.0</ele><time>2026-04-28T10:42:44.936Z</time></trkpt><trkpt lat="36.937525" lon="-3.56599"><ele>597.4</ele><time>2026-04-28T10:42:45.936Z</time></trkpt><trkpt lat="36.9375267" lon="-3.5661117"><ele>594.8</ele><time>2026-04-28T10:42:46.938Z</time></trkpt><trkpt lat="36.9375233" lon="-3.5662367"><ele>592.2</ele><time>2026-04-28T10:42:47.937Z</time></trkpt><trkpt lat="36.93751" lon="-3.5663583"><ele>589.6</ele><time>2026-04-28T10:42:48.934Z</time></trkpt><trkpt lat="36.9375033" lon="-3.56649"><ele>587.0</ele><time>2026-04-28T10:42:49.937Z</time></trkpt><trkpt lat="36.9374833" lon="-3.56663"><ele>586.5</ele><time>2026-04-28T10:42:50.938Z</time></trkpt><trkpt lat="36.9374267" lon="-3.5667567"><ele>586.0</ele><time>2026-04-28T10:42:51.938Z</time></trkpt><trkpt lat="36.9373483" lon="-3.5668667"><ele>585.5</ele><time>2026-04-28T10:42:52.938Z</time></trkpt><trkpt lat="36.9372583" lon="-3.5669633"><ele>585.0</ele><time>2026-04-28T10:42:53.937Z</time></trkpt><trkpt lat="36.9371633" lon="-3.56706"><ele>584.5</ele><time>2026-04-28T10:42:54.937Z</time></trkpt><trkpt lat="36.9370717" lon="-3.567155"><ele>584.0</ele><time>2026-04-28T10:42:55.938Z</time></trkpt><trkpt lat="36.9369867" lon="-3.5672683"><ele>583.5</ele><time>2026-04-28T10:42:56.938Z</time></trkpt><trkpt lat="36.9369033" lon="-3.5673917"><ele>583.0</ele><time>2026-04-28T10:42:57.938Z</time></trkpt><trkpt lat="36.9368333" lon="-3.567525"><ele>583.0</ele><time>2026-04-28T10:42:58.936Z</time></trkpt><trkpt lat="36.9367617" lon="-3.56766"><ele>583.0</ele><time>2026-04-28T10:42:59.938Z</time></trkpt><trkpt lat="36.9366983" lon="-3.5677883"><ele>583.0</ele><time>2026-04-28T10:43:00.937Z</time></trkpt><trkpt lat="36.9366267" lon="-3.5679083"><ele>583.0</ele><time>2026-04-28T10:43:01.938Z</time></trkpt><trkpt lat="36.9365683" lon="-3.568035"><ele>581.0</ele><time>2026-04-28T10:43:02.938Z</time></trkpt><trkpt lat="36.9364983" lon="-3.568155"><ele>579.0</ele><time>2026-04-28T10:43:03.938Z</time></trkpt><trkpt lat="36.9364267" lon="-3.568275"><ele>577.0</ele><time>2026-04-28T10:43:04.937Z</time></trkpt><trkpt lat="36.936345" lon="-3.5683917"><ele>575.0</ele><time>2026-04-28T10:43:05.938Z</time></trkpt><trkpt lat="36.9362617" lon="-3.568505"><ele>575.0</ele><time>2026-04-28T10:43:06.938Z</time></trkpt><trkpt lat="36.936185" lon="-3.568625"><ele>575.0</ele><time>2026-04-28T10:43:07.937Z</time></trkpt><trkpt lat="36.9360983" lon="-3.5687367"><ele>575.0</ele><time>2026-04-28T10:43:08.938Z</time></trkpt><trkpt lat="36.9360167" lon="-3.5688417"><ele>575.0</ele><time>2026-04-28T10:43:09.938Z</time></trkpt><trkpt lat="36.9359433" lon="-3.56894"><ele>574.0</ele><time>2026-04-28T10:43:10.936Z</time></trkpt><trkpt lat="36.9358767" lon="-3.5690317"><ele>573.0</ele><time>2026-04-28T10:43:11.937Z</time></trkpt><trkpt lat="36.93581" lon="-3.5691083"><ele>572.0</ele><time>2026-04-28T10:43:12.938Z</time></trkpt><trkpt lat="36.9357467" lon="-3.5691767"><ele>571.0</ele><time>2026-04-28T10:43:13.937Z</time></trkpt><trkpt lat="36.9356833" lon="-3.5692367"><ele>570.0</ele><time>2026-04-28T10:43:14.938Z</time></trkpt><trkpt lat="36.9356167" lon="-3.56929"><ele>569.0</ele><time>2026-04-28T10:43:15.938Z</time></trkpt><trkpt lat="36.935565" lon="-3.5693533"><ele>569.0</ele><time>2026-04-28T10:43:16.938Z</time></trkpt><trkpt lat="36.9354967" lon="-3.569415"><ele>569.0</ele><time>2026-04-28T10:43:17.938Z</time></trkpt><trkpt lat="36.93543" lon="-3.5694867"><ele>569.0</ele><time>2026-04-28T10:43:18.935Z</time></trkpt><trkpt lat="36.9353583" lon="-3.5695567"><ele>569.0</ele><time>2026-04-28T10:43:19.938Z</time></trkpt><trkpt lat="36.935285" lon="-3.5696233"><ele>569.0</ele><time>2026-04-28T10:43:20.938Z</time></trkpt><trkpt lat="36.9352067" lon="-3.569685"><ele>569.0</ele><time>2026-04-28T10:43:21.938Z</time></trkpt><trkpt lat="36.9351267" lon="-3.56975"><ele>567.4</ele><time>2026-04-28T10:43:22.938Z</time></trkpt><trkpt lat="36.93504" lon="-3.5698133"><ele>565.8</ele><time>2026-04-28T10:43:23.938Z</time></trkpt><trkpt lat="36.93496" lon="-3.5698883"><ele>564.2</ele><time>2026-04-28T10:43:24.935Z</time></trkpt><trkpt lat="36.934885" lon="-3.5699683"><ele>562.6</ele><time>2026-04-28T10:43:25.935Z</time></trkpt><trkpt lat="36.934805" lon="-3.5700367"><ele>561.0</ele><time>2026-04-28T10:43:26.938Z</time></trkpt><trkpt lat="36.934725" lon="-3.5701117"><ele>561.0</ele><time>2026-04-28T10:43:27.938Z</time></trkpt><trkpt lat="36.93464" lon="-3.5701717"><ele>561.0</ele><time>2026-04-28T10:43:28.938Z</time></trkpt><trkpt lat="36.9345517" lon="-3.5702167"><ele>561.0</ele><time>2026-04-28T10:43:29.938Z</time></trkpt><trkpt lat="36.9344633" lon="-3.5702467"><ele>561.0</ele><time>2026-04-28T10:43:30.937Z</time></trkpt><trkpt lat="36.9343917" lon="-3.570275"><ele>561.0</ele><time>2026-04-28T10:43:31.938Z</time></trkpt><trkpt lat="36.9343283" lon="-3.5702983"><ele>561.0</ele><time>2026-04-28T10:43:32.937Z</time></trkpt><trkpt lat="36.93426" lon="-3.57032"><ele>560.5</ele><time>2026-04-28T10:43:33.935Z</time></trkpt><trkpt lat="36.9341883" lon="-3.5703317"><ele>560.0</ele><time>2026-04-28T10:43:34.937Z</time></trkpt><trkpt lat="36.9341233" lon="-3.5703367"><ele>559.5</ele><time>2026-04-28T10:43:35.936Z</time></trkpt><trkpt lat="36.9340533" lon="-3.570355"><ele>559.0</ele><time>2026-04-28T10:43:36.938Z</time></trkpt><trkpt lat="36.9339933" lon="-3.5703833"><ele>558.5</ele><time>2026-04-28T10:43:37.938Z</time></trkpt><trkpt lat="36.933895" lon="-3.57047"><ele>558.0</ele><time>2026-04-28T10:43:39.938Z</time></trkpt><trkpt lat="36.9338733" lon="-3.5705517"><ele>557.8333333333334</ele><time>2026-04-28T10:43:40.938Z</time></trkpt><trkpt lat="36.9338517" lon="-3.5706483"><ele>557.6666666666666</ele><time>2026-04-28T10:43:41.938Z</time></trkpt><trkpt lat="36.9338367" lon="-3.5707533"><ele>557.5</ele><time>2026-04-28T10:43:42.937Z</time></trkpt><trkpt lat="36.933845" lon="-3.5708783"><ele>557.3333333333333</ele><time>2026-04-28T10:43:43.938Z</time></trkpt><trkpt lat="36.9338467" lon="-3.5709867"><ele>557.1666666666666</ele><time>2026-04-28T10:43:44.938Z</time></trkpt><trkpt lat="36.9338433" lon="-3.5710817"><ele>557.0</ele><time>2026-04-28T10:43:45.937Z</time></trkpt><trkpt lat="36.9338517" lon="-3.571195"><ele>556.3333333333333</ele><time>2026-04-28T10:43:46.938Z</time></trkpt><trkpt lat="36.9338517" lon="-3.5713133"><ele>555.6666666666666</ele><time>2026-04-28T10:43:47.937Z</time></trkpt><trkpt lat="36.9338433" lon="-3.571435"><ele>555.0</ele><time>2026-04-28T10:43:48.938Z</time></trkpt><trkpt lat="36.9338333" lon="-3.5715283"><ele>554.3333333333334</ele><time>2026-04-28T10:43:49.937Z</time></trkpt><trkpt lat="36.93382" lon="-3.571625"><ele>553.6666666666667</ele><time>2026-04-28T10:43:50.938Z</time></trkpt><trkpt lat="36.933795" lon="-3.5717"><ele>553.0</ele><time>2026-04-28T10:43:51.937Z</time></trkpt><trkpt lat="36.9338133" lon="-3.5718317"><ele>553.0</ele><time>2026-04-28T10:43:52.938Z</time></trkpt><trkpt lat="36.9338083" lon="-3.5719383"><ele>553.0</ele><time>2026-04-28T10:43:53.937Z</time></trkpt><trkpt lat="36.93381" lon="-3.5720383"><ele>553.0</ele><time>2026-04-28T10:43:54.938Z</time></trkpt><trkpt lat="36.9338133" lon="-3.5721383"><ele>553.0</ele><time>2026-04-28T10:43:55.937Z</time></trkpt><trkpt lat="36.93381" lon="-3.5722783"><ele>553.0</ele><time>2026-04-28T10:43:57.938Z</time></trkpt><trkpt lat="36.933855" lon="-3.5724167"><ele>552.1999999999999</ele><time>2026-04-28T10:43:59.937Z</time></trkpt><trkpt lat="36.9338933" lon="-3.57253"><ele>551.4</ele><time>2026-04-28T10:44:01.937Z</time></trkpt><trkpt lat="36.9339333" lon="-3.572595"><ele>550.5999999999999</ele><time>2026-04-28T10:44:02.941Z</time></trkpt><trkpt lat="36.9339717" lon="-3.5726667"><ele>549.8</ele><time>2026-04-28T10:44:03.938Z</time></trkpt><trkpt lat="36.93403" lon="-3.57281"><ele>549.0</ele><time>2026-04-28T10:44:05.938Z</time></trkpt><trkpt lat="36.9340633" lon="-3.5729217"><ele>548.8</ele><time>2026-04-28T10:44:06.938Z</time></trkpt><trkpt lat="36.9340733" lon="-3.573035"><ele>548.5999999999999</ele><time>2026-04-28T10:44:07.938Z</time></trkpt><trkpt lat="36.934065" lon="-3.57315"><ele>548.4</ele><time>2026-04-28T10:44:08.937Z</time></trkpt><trkpt lat="36.9340417" lon="-3.5732633"><ele>548.1999999999999</ele><time>2026-04-28T10:44:09.938Z</time></trkpt><trkpt lat="36.93401" lon="-3.5733683"><ele>548.0</ele><time>2026-04-28T10:44:10.938Z</time></trkpt><trkpt lat="36.933965" lon="-3.573465"><ele>548.0</ele><time>2026-04-28T10:44:11.937Z</time></trkpt><trkpt lat="36.9339117" lon="-3.5735533"><ele>548.0</ele><time>2026-04-28T10:44:12.937Z</time></trkpt><trkpt lat="36.9338517" lon="-3.573635"><ele>548.0</ele><time>2026-04-28T10:44:13.938Z</time></trkpt><trkpt lat="36.9337867" lon="-3.5737033"><ele>548.0</ele><time>2026-04-28T10:44:14.938Z</time></trkpt><trkpt lat="36.9337167" lon="-3.5737583"><ele>548.0</ele><time>2026-04-28T10:44:15.937Z</time></trkpt><trkpt lat="36.93365" lon="-3.5737983"><ele>548.0</ele><time>2026-04-28T10:44:16.938Z</time></trkpt><trkpt lat="36.933575" lon="-3.573835"><ele>547.1666666666666</ele><time>2026-04-28T10:44:17.934Z</time></trkpt><trkpt lat="36.9334983" lon="-3.5738733"><ele>546.3333333333333</ele><time>2026-04-28T10:44:18.936Z</time></trkpt><trkpt lat="36.93342" lon="-3.5739167"><ele>545.5</ele><time>2026-04-28T10:44:19.936Z</time></trkpt><trkpt lat="36.9333467" lon="-3.5739733"><ele>544.6666666666666</ele><time>2026-04-28T10:44:20.936Z</time></trkpt><trkpt lat="36.9332783" lon="-3.5740417"><ele>543.8333333333334</ele><time>2026-04-28T10:44:21.934Z</time></trkpt><trkpt lat="36.93322" lon="-3.5741167"><ele>543.0</ele><time>2026-04-28T10:44:22.935Z</time></trkpt><trkpt lat="36.9331717" lon="-3.5741967"><ele>541.8333333333334</ele><time>2026-04-28T10:44:23.936Z</time></trkpt><trkpt lat="36.9331333" lon="-3.5742783"><ele>540.6666666666666</ele><time>2026-04-28T10:44:24.938Z</time></trkpt><trkpt lat="36.9331083" lon="-3.5743617"><ele>539.5</ele><time>2026-04-28T10:44:25.937Z</time></trkpt><trkpt lat="36.9330967" lon="-3.5744567"><ele>538.3333333333333</ele><time>2026-04-28T10:44:26.938Z</time></trkpt><trkpt lat="36.9331033" lon="-3.57455"><ele>537.1666666666666</ele><time>2026-04-28T10:44:27.944Z</time></trkpt><trkpt lat="36.933135" lon="-3.5746533"><ele>536.0</ele><time>2026-04-28T10:44:28.934Z</time></trkpt><trkpt lat="36.93321" lon="-3.5747633"><ele>535.5</ele><time>2026-04-28T10:44:29.936Z</time></trkpt><trkpt lat="36.9333233" lon="-3.5748417"><ele>535.0</ele><time>2026-04-28T10:44:30.936Z</time></trkpt><trkpt lat="36.9334233" lon="-3.5749033"><ele>534.5</ele><time>2026-04-28T10:44:31.936Z</time></trkpt><trkpt lat="36.9335133" lon="-3.57497"><ele>534.0</ele><time>2026-04-28T10:44:32.935Z</time></trkpt><trkpt lat="36.9336033" lon="-3.5750467"><ele>534.0</ele><time>2026-04-28T10:44:33.935Z</time></trkpt><trkpt lat="36.9336967" lon="-3.575115"><ele>534.0</ele><time>2026-04-28T10:44:34.935Z</time></trkpt><trkpt lat="36.9337917" lon="-3.575175"><ele>534.0</ele><time>2026-04-28T10:44:35.935Z</time></trkpt><trkpt lat="36.9338867" lon="-3.5752317"><ele>534.0</ele><time>2026-04-28T10:44:36.935Z</time></trkpt><trkpt lat="36.9339767" lon="-3.5752817"><ele>534.0</ele><time>2026-04-28T10:44:37.936Z</time></trkpt><trkpt lat="36.9340617" lon="-3.5753433"><ele>533.6</ele><time>2026-04-28T10:44:38.935Z</time></trkpt><trkpt lat="36.93413" lon="-3.5754383"><ele>533.2</ele><time>2026-04-28T10:44:39.935Z</time></trkpt><trkpt lat="36.9341817" lon="-3.5755483"><ele>532.8000000000001</ele><time>2026-04-28T10:44:40.934Z</time></trkpt><trkpt lat="36.9342133" lon="-3.5756733"><ele>532.4</ele><time>2026-04-28T10:44:41.936Z</time></trkpt><trkpt lat="36.93423" lon="-3.57582"><ele>532.0</ele><time>2026-04-28T10:44:42.935Z</time></trkpt><trkpt lat="36.9342317" lon="-3.5759717"><ele>530.5</ele><time>2026-04-28T10:44:43.935Z</time></trkpt><trkpt lat="36.93422" lon="-3.5761233"><ele>529.0</ele><time>2026-04-28T10:44:44.937Z</time></trkpt><trkpt lat="36.9341933" lon="-3.5762733"><ele>527.5</ele><time>2026-04-28T10:44:45.937Z</time></trkpt><trkpt lat="36.9341567" lon="-3.5764217"><ele>526.0</ele><time>2026-04-28T10:44:46.938Z</time></trkpt><trkpt lat="36.93411" lon="-3.5765567"><ele>525.25</ele><time>2026-04-28T10:44:47.934Z</time></trkpt><trkpt lat="36.934065" lon="-3.5766883"><ele>524.5</ele><time>2026-04-28T10:44:48.936Z</time></trkpt><trkpt lat="36.9340217" lon="-3.5768183"><ele>523.75</ele><time>2026-04-28T10:44:49.934Z</time></trkpt><trkpt lat="36.9339733" lon="-3.576945"><ele>523.0</ele><time>2026-04-28T10:44:50.936Z</time></trkpt><trkpt lat="36.9339233" lon="-3.5770717"><ele>522.75</ele><time>2026-04-28T10:44:51.937Z</time></trkpt><trkpt lat="36.9338783" lon="-3.5772"><ele>522.5</ele><time>2026-04-28T10:44:52.935Z</time></trkpt><trkpt lat="36.93383" lon="-3.5773267"><ele>522.25</ele><time>2026-04-28T10:44:53.935Z</time></trkpt><trkpt lat="36.9337717" lon="-3.5774517"><ele>522.0</ele><time>2026-04-28T10:44:54.937Z</time></trkpt><trkpt lat="36.9337017" lon="-3.5775767"><ele>522.0</ele><time>2026-04-28T10:44:55.939Z</time></trkpt><trkpt lat="36.9336183" lon="-3.5776967"><ele>522.0</ele><time>2026-04-28T10:44:56.937Z</time></trkpt><trkpt lat="36.93353" lon="-3.577815"><ele>522.0</ele><time>2026-04-28T10:44:57.937Z</time></trkpt><trkpt lat="36.9334383" lon="-3.5779283"><ele>522.0</ele><time>2026-04-28T10:44:58.937Z</time></trkpt><trkpt lat="36.93334" lon="-3.5780367"><ele>521.0</ele><time>2026-04-28T10:44:59.936Z</time></trkpt><trkpt lat="36.9332433" lon="-3.5781433"><ele>520.0</ele><time>2026-04-28T10:45:00.938Z</time></trkpt><trkpt lat="36.9331483" lon="-3.57825"><ele>519.0</ele><time>2026-04-28T10:45:01.937Z</time></trkpt><trkpt lat="36.9330517" lon="-3.5783617"><ele>518.0</ele><time>2026-04-28T10:45:02.937Z</time></trkpt><trkpt lat="36.93296" lon="-3.578475"><ele>518.0</ele><time>2026-04-28T10:45:03.938Z</time></trkpt><trkpt lat="36.9328633" lon="-3.5785883"><ele>518.0</ele><time>2026-04-28T10:45:04.937Z</time></trkpt><trkpt lat="36.9327667" lon="-3.5786983"><ele>518.0</ele><time>2026-04-28T10:45:05.938Z</time></trkpt><trkpt lat="36.93267" lon="-3.5788033"><ele>518.0</ele><time>2026-04-28T10:45:06.937Z</time></trkpt><trkpt lat="36.9325817" lon="-3.5789117"><ele>516.0</ele><time>2026-04-28T10:45:07.939Z</time></trkpt><trkpt lat="36.932495" lon="-3.579015"><ele>514.0</ele><time>2026-04-28T10:45:08.938Z</time></trkpt><trkpt lat="36.9324083" lon="-3.5791217"><ele>512.0</ele><time>2026-04-28T10:45:09.937Z</time></trkpt><trkpt lat="36.9323183" lon="-3.579225"><ele>510.0</ele><time>2026-04-28T10:45:10.938Z</time></trkpt><trkpt lat="36.9322317" lon="-3.5793283"><ele>510.0</ele><time>2026-04-28T10:45:11.937Z</time></trkpt><trkpt lat="36.9321483" lon="-3.5794283"><ele>510.0</ele><time>2026-04-28T10:45:12.937Z</time></trkpt><trkpt lat="36.93207" lon="-3.5795217"><ele>510.0</ele><time>2026-04-28T10:45:13.934Z</time></trkpt><trkpt lat="36.9319917" lon="-3.5796133"><ele>510.0</ele><time>2026-04-28T10:45:14.936Z</time></trkpt><trkpt lat="36.93191" lon="-3.5797"><ele>510.0</ele><time>2026-04-28T10:45:15.935Z</time></trkpt><trkpt lat="36.9318267" lon="-3.5797833"><ele>509.0</ele><time>2026-04-28T10:45:16.937Z</time></trkpt><trkpt lat="36.9317283" lon="-3.5798567"><ele>508.0</ele><time>2026-04-28T10:45:17.934Z</time></trkpt><trkpt lat="36.93162" lon="-3.57992"><ele>507.0</ele><time>2026-04-28T10:45:18.936Z</time></trkpt><trkpt lat="36.9315033" lon="-3.579975"><ele>506.0</ele><time>2026-04-28T10:45:19.934Z</time></trkpt><trkpt lat="36.931385" lon="-3.5800233"><ele>504.8</ele><time>2026-04-28T10:45:20.936Z</time></trkpt><trkpt lat="36.9312717" lon="-3.5800667"><ele>503.6</ele><time>2026-04-28T10:45:21.935Z</time></trkpt><trkpt lat="36.93116" lon="-3.5801083"><ele>502.4</ele><time>2026-04-28T10:45:22.935Z</time></trkpt><trkpt lat="36.9310583" lon="-3.5801483"><ele>501.2</ele><time>2026-04-28T10:45:23.935Z</time></trkpt><trkpt lat="36.9309733" lon="-3.580195"><ele>500.0</ele><time>2026-04-28T10:45:24.94Z</time></trkpt><trkpt lat="36.9309083" lon="-3.5802667"><ele>501.0</ele><time>2026-04-28T10:45:25.938Z</time></trkpt><trkpt lat="36.930865" lon="-3.580365"><ele>502.0</ele><time>2026-04-28T10:45:26.938Z</time></trkpt><trkpt lat="36.930845" lon="-3.5804783"><ele>503.0</ele><time>2026-04-28T10:45:27.938Z</time></trkpt><trkpt lat="36.9308383" lon="-3.5806017"><ele>504.0</ele><time>2026-04-28T10:45:28.938Z</time></trkpt><trkpt lat="36.930845" lon="-3.580745"><ele>505.0</ele><time>2026-04-28T10:45:29.937Z</time></trkpt><trkpt lat="36.9308183" lon="-3.5808633"><ele>505.0</ele><time>2026-04-28T10:45:30.938Z</time></trkpt><trkpt lat="36.9308133" lon="-3.5809867"><ele>505.0</ele><time>2026-04-28T10:45:31.938Z</time></trkpt><trkpt lat="36.9308283" lon="-3.5811283"><ele>505.0</ele><time>2026-04-28T10:45:32.938Z</time></trkpt><trkpt lat="36.930825" lon="-3.5812583"><ele>505.0</ele><time>2026-04-28T10:45:33.937Z</time></trkpt><trkpt lat="36.93088" lon="-3.58149"><ele>507.0</ele><time>2026-04-28T10:45:35.283Z</time></trkpt><trkpt lat="36.9308517" lon="-3.5815983"><ele>509.0</ele><time>2026-04-28T10:45:36.539Z</time></trkpt><trkpt lat="36.9308733" lon="-3.581765"><ele>511.0</ele><time>2026-04-28T10:45:37.433Z</time></trkpt><trkpt lat="36.9308733" lon="-3.5819983"><ele>513.0</ele><time>2026-04-28T10:45:38.934Z</time></trkpt><trkpt lat="36.930855" lon="-3.5821267"><ele>513.0</ele><time>2026-04-28T10:45:39.935Z</time></trkpt><trkpt lat="36.930825" lon="-3.5822317"><ele>513.0</ele><time>2026-04-28T10:45:40.934Z</time></trkpt><trkpt lat="36.9307767" lon="-3.582315"><ele>513.0</ele><time>2026-04-28T10:45:41.934Z</time></trkpt><trkpt lat="36.9307133" lon="-3.5823733"><ele>513.0</ele><time>2026-04-28T10:45:42.935Z</time></trkpt><trkpt lat="36.9306483" lon="-3.5823967"><ele>513.0</ele><time>2026-04-28T10:45:43.937Z</time></trkpt><trkpt lat="36.9305883" lon="-3.582345"><ele>513.0</ele><time>2026-04-28T10:45:44.937Z</time></trkpt><trkpt lat="36.9305517" lon="-3.5822267"><ele>513.0</ele><time>2026-04-28T10:45:45.936Z</time></trkpt><trkpt lat="36.9305367" lon="-3.5820933"><ele>513.0</ele><time>2026-04-28T10:45:46.934Z</time></trkpt><trkpt lat="36.930535" lon="-3.58197"><ele>513.0</ele><time>2026-04-28T10:45:47.936Z</time></trkpt><trkpt lat="36.93055" lon="-3.58183"><ele>513.0</ele><time>2026-04-28T10:45:48.935Z</time></trkpt><trkpt lat="36.9305617" lon="-3.5817067"><ele>513.0</ele><time>2026-04-28T10:45:49.936Z</time></trkpt><trkpt lat="36.9305417" lon="-3.5816183"><ele>513.1666666666666</ele><time>2026-04-28T10:45:50.937Z</time></trkpt><trkpt lat="36.9304933" lon="-3.58156"><ele>513.3333333333334</ele><time>2026-04-28T10:45:51.935Z</time></trkpt><trkpt lat="36.9303683" lon="-3.5814933"><ele>513.5</ele><time>2026-04-28T10:45:53.937Z</time></trkpt><trkpt lat="36.93031" lon="-3.5815383"><ele>513.6666666666667</ele><time>2026-04-28T10:45:54.935Z</time></trkpt><trkpt lat="36.9302733" lon="-3.5816117"><ele>513.8333333333334</ele><time>2026-04-28T10:45:55.934Z</time></trkpt><trkpt lat="36.9302633" lon="-3.5817083"><ele>514.0</ele><time>2026-04-28T10:45:56.936Z</time></trkpt><trkpt lat="36.9302733" lon="-3.58181"><ele>514.0</ele><time>2026-04-28T10:45:57.934Z</time></trkpt><trkpt lat="36.9302783" lon="-3.5819"><ele>514.0</ele><time>2026-04-28T10:45:58.935Z</time></trkpt><trkpt lat="36.930255" lon="-3.5819817"><ele>514.0</ele><time>2026-04-28T10:45:59.935Z</time></trkpt><trkpt lat="36.9302967" lon="-3.5821033"><ele>514.0</ele><time>2026-04-28T10:46:00.936Z</time></trkpt><trkpt lat="36.930345" lon="-3.582225"><ele>514.0</ele><time>2026-04-28T10:46:01.936Z</time></trkpt><trkpt lat="36.9303733" lon="-3.5823533"><ele>513.8</ele><time>2026-04-28T10:46:02.936Z</time></trkpt><trkpt lat="36.9304317" lon="-3.5824683"><ele>513.5999999999999</ele><time>2026-04-28T10:46:03.935Z</time></trkpt><trkpt lat="36.9304483" lon="-3.582595"><ele>513.4</ele><time>2026-04-28T10:46:04.936Z</time></trkpt><trkpt lat="36.9304867" lon="-3.582725"><ele>513.1999999999999</ele><time>2026-04-28T10:46:05.936Z</time></trkpt><trkpt lat="36.9304967" lon="-3.5828583"><ele>513.0</ele><time>2026-04-28T10:46:06.936Z</time></trkpt><trkpt lat="36.93048" lon="-3.582985"><ele>512.6666666666666</ele><time>2026-04-28T10:46:07.936Z</time></trkpt><trkpt lat="36.93046" lon="-3.583095"><ele>512.3333333333334</ele><time>2026-04-28T10:46:08.937Z</time></trkpt><trkpt lat="36.9304283" lon="-3.583195"><ele>512.0</ele><time>2026-04-28T10:46:09.936Z</time></trkpt><trkpt lat="36.9303833" lon="-3.5832767"><ele>511.6666666666667</ele><time>2026-04-28T10:46:10.936Z</time></trkpt><trkpt lat="36.9303367" lon="-3.5833417"><ele>511.33333333333337</ele><time>2026-04-28T10:46:11.935Z</time></trkpt><trkpt lat="36.93028" lon="-3.5833917"><ele>511.0</ele><time>2026-04-28T10:46:12.936Z</time></trkpt><trkpt lat="36.9302217" lon="-3.5834333"><ele>511.00000000000006</ele><time>2026-04-28T10:46:13.935Z</time></trkpt><trkpt lat="36.9301333" lon="-3.58354"><ele>511.0</ele><time>2026-04-28T10:46:15.935Z</time></trkpt><trkpt lat="36.9300917" lon="-3.5836083"><ele>511.0</ele><time>2026-04-28T10:46:16.935Z</time></trkpt><trkpt lat="36.9300567" lon="-3.583685"><ele>511.0</ele><time>2026-04-28T10:46:17.935Z</time></trkpt><trkpt lat="36.9300117" lon="-3.583755"><ele>511.00000000000006</ele><time>2026-04-28T10:46:18.936Z</time></trkpt><trkpt lat="36.929965" lon="-3.58384"><ele>511.0</ele><time>2026-04-28T10:46:19.936Z</time></trkpt><trkpt lat="36.9299133" lon="-3.583925"><ele>513.1666666666667</ele><time>2026-04-28T10:46:20.936Z</time></trkpt><trkpt lat="36.9298617" lon="-3.5840117"><ele>515.3333333333334</ele><time>2026-04-28T10:46:21.936Z</time></trkpt><trkpt lat="36.9298217" lon="-3.584095"><ele>517.5</ele><time>2026-04-28T10:46:22.936Z</time></trkpt><trkpt lat="36.9297817" lon="-3.5841783"><ele>519.6666666666666</ele><time>2026-04-28T10:46:23.936Z</time></trkpt><trkpt lat="36.9297517" lon="-3.5842683"><ele>521.8333333333333</ele><time>2026-04-28T10:46:24.936Z</time></trkpt><trkpt lat="36.9297283" lon="-3.5843617"><ele>524.0</ele><time>2026-04-28T10:46:25.935Z</time></trkpt><trkpt lat="36.9297217" lon="-3.5844633"><ele>522.6666666666666</ele><time>2026-04-28T10:46:26.936Z</time></trkpt><trkpt lat="36.9297233" lon="-3.5845683"><ele>521.3333333333333</ele><time>2026-04-28T10:46:27.935Z</time></trkpt><trkpt lat="36.9297283" lon="-3.5846783"><ele>520.0</ele><time>2026-04-28T10:46:28.938Z</time></trkpt><trkpt lat="36.9297417" lon="-3.5847833"><ele>518.6666666666666</ele><time>2026-04-28T10:46:29.936Z</time></trkpt><trkpt lat="36.929755" lon="-3.5848917"><ele>517.3333333333334</ele><time>2026-04-28T10:46:30.936Z</time></trkpt><trkpt lat="36.92973" lon="-3.5849833"><ele>516.0</ele><time>2026-04-28T10:46:31.936Z</time></trkpt><trkpt lat="36.9297167" lon="-3.58508"><ele>515.9999999999999</ele><time>2026-04-28T10:46:32.935Z</time></trkpt><trkpt lat="36.92971" lon="-3.5851733"><ele>516.0</ele><time>2026-04-28T10:46:33.937Z</time></trkpt><trkpt lat="36.9296833" lon="-3.585245"><ele>516.0</ele><time>2026-04-28T10:46:34.935Z</time></trkpt><trkpt lat="36.9296417" lon="-3.585315"><ele>516.0</ele><time>2026-04-28T10:46:35.936Z</time></trkpt><trkpt lat="36.9296067" lon="-3.5853883"><ele>516.0</ele><time>2026-04-28T10:46:36.935Z</time></trkpt><trkpt lat="36.9295367" lon="-3.5854333"><ele>515.9999999999999</ele><time>2026-04-28T10:46:37.938Z</time></trkpt><trkpt lat="36.9294633" lon="-3.5854683"><ele>516.0</ele><time>2026-04-28T10:46:38.937Z</time></trkpt><trkpt lat="36.9293883" lon="-3.585495"><ele>515.1666666666666</ele><time>2026-04-28T10:46:39.937Z</time></trkpt><trkpt lat="36.9292967" lon="-3.5855017"><ele>514.3333333333334</ele><time>2026-04-28T10:46:40.937Z</time></trkpt><trkpt lat="36.9292267" lon="-3.58552"><ele>513.5</ele><time>2026-04-28T10:46:41.938Z</time></trkpt><trkpt lat="36.9291583" lon="-3.5855367"><ele>512.6666666666667</ele><time>2026-04-28T10:46:42.937Z</time></trkpt><trkpt lat="36.929095" lon="-3.5855533"><ele>511.83333333333337</ele><time>2026-04-28T10:46:43.937Z</time></trkpt><trkpt lat="36.929015" lon="-3.5856583"><ele>511.0</ele><time>2026-04-28T10:46:45.938Z</time></trkpt><trkpt lat="36.9290033" lon="-3.5857433"><ele>511.0</ele><time>2026-04-28T10:46:46.935Z</time></trkpt><trkpt lat="36.929005" lon="-3.5858283"><ele>511.0</ele><time>2026-04-28T10:46:47.935Z</time></trkpt><trkpt lat="36.92906" lon="-3.585915"><ele>511.0</ele><time>2026-04-28T10:46:48.937Z</time></trkpt><trkpt lat="36.929115" lon="-3.58598"><ele>511.0</ele><time>2026-04-28T10:46:49.935Z</time></trkpt><trkpt lat="36.92918" lon="-3.5860283"><ele>511.0</ele><time>2026-04-28T10:46:50.935Z</time></trkpt><trkpt lat="36.929245" lon="-3.5860533"><ele>511.0</ele><time>2026-04-28T10:46:51.935Z</time></trkpt><trkpt lat="36.9293083" lon="-3.5860867"><ele>511.0</ele><time>2026-04-28T10:46:52.935Z</time></trkpt><trkpt lat="36.9294167" lon="-3.586115"><ele>511.0</ele><time>2026-04-28T10:46:53.935Z</time></trkpt><trkpt lat="36.929535" lon="-3.5861633"><ele>511.0</ele><time>2026-04-28T10:46:54.938Z</time></trkpt><trkpt lat="36.9296017" lon="-3.5862333"><ele>511.0</ele><time>2026-04-28T10:46:55.937Z</time></trkpt><trkpt lat="36.9296733" lon="-3.5863033"><ele>511.0</ele><time>2026-04-28T10:46:56.937Z</time></trkpt><trkpt lat="36.9297483" lon="-3.5863867"><ele>511.0</ele><time>2026-04-28T10:46:57.937Z</time></trkpt><trkpt lat="36.9297883" lon="-3.5864667"><ele>511.6</ele><time>2026-04-28T10:46:58.938Z</time></trkpt><trkpt lat="36.929805" lon="-3.5865717"><ele>512.2</ele><time>2026-04-28T10:46:59.938Z</time></trkpt><trkpt lat="36.9298117" lon="-3.5867"><ele>512.8</ele><time>2026-04-28T10:47:00.937Z</time></trkpt><trkpt lat="36.929815" lon="-3.5868333"><ele>513.4</ele><time>2026-04-28T10:47:01.937Z</time></trkpt><trkpt lat="36.9298" lon="-3.58694"><ele>514.0</ele><time>2026-04-28T10:47:02.937Z</time></trkpt><trkpt lat="36.929775" lon="-3.58705"><ele>514.0</ele><time>2026-04-28T10:47:03.938Z</time></trkpt><trkpt lat="36.9297333" lon="-3.5871717"><ele>514.0</ele><time>2026-04-28T10:47:04.937Z</time></trkpt><trkpt lat="36.929665" lon="-3.5872683"><ele>514.0</ele><time>2026-04-28T10:47:05.937Z</time></trkpt><trkpt lat="36.9296" lon="-3.5873567"><ele>514.0</ele><time>2026-04-28T10:47:06.937Z</time></trkpt><trkpt lat="36.9295333" lon="-3.5874333"><ele>514.0</ele><time>2026-04-28T10:47:07.937Z</time></trkpt><trkpt lat="36.929465" lon="-3.587495"><ele>514.0</ele><time>2026-04-28T10:47:08.939Z</time></trkpt><trkpt lat="36.9294017" lon="-3.587555"><ele>514.0</ele><time>2026-04-28T10:47:09.938Z</time></trkpt><trkpt lat="36.9293033" lon="-3.587605"><ele>514.0</ele><time>2026-04-28T10:47:10.938Z</time></trkpt><trkpt lat="36.9292467" lon="-3.5876833"><ele>514.0</ele><time>2026-04-28T10:47:11.937Z</time></trkpt><trkpt lat="36.9292383" lon="-3.58779"><ele>514.0</ele><time>2026-04-28T10:47:12.938Z</time></trkpt><trkpt lat="36.9292217" lon="-3.587905"><ele>514.0</ele><time>2026-04-28T10:47:13.937Z</time></trkpt><trkpt lat="36.929205" lon="-3.58803"><ele>516.6</ele><time>2026-04-28T10:47:14.938Z</time></trkpt><trkpt lat="36.9291667" lon="-3.5881467"><ele>519.2</ele><time>2026-04-28T10:47:15.938Z</time></trkpt><trkpt lat="36.9291217" lon="-3.5882633"><ele>521.8000000000001</ele><time>2026-04-28T10:47:16.937Z</time></trkpt><trkpt lat="36.929085" lon="-3.588385"><ele>524.4</ele><time>2026-04-28T10:47:17.934Z</time></trkpt><trkpt lat="36.9290683" lon="-3.5885167"><ele>527.0</ele><time>2026-04-28T10:47:18.935Z</time></trkpt><trkpt lat="36.92907" lon="-3.5886533"><ele>527.6</ele><time>2026-04-28T10:47:19.935Z</time></trkpt><trkpt lat="36.92908" lon="-3.5887833"><ele>528.2</ele><time>2026-04-28T10:47:20.936Z</time></trkpt><trkpt lat="36.92908" lon="-3.5889033"><ele>528.8</ele><time>2026-04-28T10:47:21.936Z</time></trkpt><trkpt lat="36.9291383" lon="-3.5890433"><ele>529.4</ele><time>2026-04-28T10:47:22.935Z</time></trkpt><trkpt lat="36.92915" lon="-3.5891567"><ele>530.0</ele><time>2026-04-28T10:47:23.935Z</time></trkpt><trkpt lat="36.9291717" lon="-3.5892533"><ele>527.4</ele><time>2026-04-28T10:47:24.937Z</time></trkpt><trkpt lat="36.9292467" lon="-3.589355"><ele>524.8</ele><time>2026-04-28T10:47:25.938Z</time></trkpt><trkpt lat="36.9293517" lon="-3.589455"><ele>522.2</ele><time>2026-04-28T10:47:26.936Z</time></trkpt><trkpt lat="36.9293933" lon="-3.5895283"><ele>519.6</ele><time>2026-04-28T10:47:27.938Z</time></trkpt><trkpt lat="36.9294217" lon="-3.5896033"><ele>517.0</ele><time>2026-04-28T10:47:28.937Z</time></trkpt><trkpt lat="36.92949" lon="-3.589725"><ele>517.0</ele><time>2026-04-28T10:47:29.938Z</time></trkpt><trkpt lat="36.92956" lon="-3.5898567"><ele>517.0</ele><time>2026-04-28T10:47:30.937Z</time></trkpt><trkpt lat="36.9295917" lon="-3.589995"><ele>517.0</ele><time>2026-04-28T10:47:31.938Z</time></trkpt><trkpt lat="36.9296133" lon="-3.5901483"><ele>517.0</ele><time>2026-04-28T10:47:32.938Z</time></trkpt><trkpt lat="36.9296217" lon="-3.5902883"><ele>518.0</ele><time>2026-04-28T10:47:33.937Z</time></trkpt><trkpt lat="36.92962" lon="-3.59042"><ele>519.0</ele><time>2026-04-28T10:47:34.937Z</time></trkpt><trkpt lat="36.92963" lon="-3.5905483"><ele>520.0</ele><time>2026-04-28T10:47:35.937Z</time></trkpt><trkpt lat="36.929645" lon="-3.5906717"><ele>521.0</ele><time>2026-04-28T10:47:36.937Z</time></trkpt><trkpt lat="36.929685" lon="-3.5907917"><ele>522.0</ele><time>2026-04-28T10:47:37.937Z</time></trkpt><trkpt lat="36.92973" lon="-3.5908883"><ele>522.0</ele><time>2026-04-28T10:47:38.938Z</time></trkpt><trkpt lat="36.9297867" lon="-3.590965"><ele>522.0</ele><time>2026-04-28T10:47:39.937Z</time></trkpt><trkpt lat="36.9298033" lon="-3.5910433"><ele>522.0</ele><time>2026-04-28T10:47:40.937Z</time></trkpt><trkpt lat="36.9298667" lon="-3.5911067"><ele>522.0</ele><time>2026-04-28T10:47:41.937Z</time></trkpt><trkpt lat="36.9299417" lon="-3.5911583"><ele>522.0</ele><time>2026-04-28T10:47:42.937Z</time></trkpt><trkpt lat="36.9300033" lon="-3.5912183"><ele>522.0</ele><time>2026-04-28T10:47:43.938Z</time></trkpt><trkpt lat="36.93006" lon="-3.5912917"><ele>522.6666666666666</ele><time>2026-04-28T10:47:44.938Z</time></trkpt><trkpt lat="36.930075" lon="-3.5913867"><ele>523.3333333333334</ele><time>2026-04-28T10:47:45.937Z</time></trkpt><trkpt lat="36.93007" lon="-3.5914933"><ele>524.0</ele><time>2026-04-28T10:47:46.937Z</time></trkpt><trkpt lat="36.9300667" lon="-3.5916083"><ele>524.6666666666667</ele><time>2026-04-28T10:47:47.934Z</time></trkpt><trkpt lat="36.9300783" lon="-3.591715"><ele>525.3333333333334</ele><time>2026-04-28T10:47:48.935Z</time></trkpt><trkpt lat="36.9301083" lon="-3.5918133"><ele>526.0</ele><time>2026-04-28T10:47:49.935Z</time></trkpt><trkpt lat="36.9301567" lon="-3.591915"><ele>526.0</ele><time>2026-04-28T10:47:50.936Z</time></trkpt><trkpt lat="36.9302283" lon="-3.5920133"><ele>526.0</ele><time>2026-04-28T10:47:51.935Z</time></trkpt><trkpt lat="36.9302967" lon="-3.5921217"><ele>526.0</ele><time>2026-04-28T10:47:52.934Z</time></trkpt><trkpt lat="36.930365" lon="-3.59224"><ele>526.0</ele><time>2026-04-28T10:47:53.935Z</time></trkpt><trkpt lat="36.930435" lon="-3.592365"><ele>526.0</ele><time>2026-04-28T10:47:54.938Z</time></trkpt><trkpt lat="36.930485" lon="-3.5924783"><ele>526.0</ele><time>2026-04-28T10:47:55.934Z</time></trkpt><trkpt lat="36.9305333" lon="-3.59258"><ele>526.0</ele><time>2026-04-28T10:47:56.937Z</time></trkpt><trkpt lat="36.9305683" lon="-3.59268"><ele>526.0</ele><time>2026-04-28T10:47:57.937Z</time></trkpt><trkpt lat="36.9305717" lon="-3.5927817"><ele>526.0</ele><time>2026-04-28T10:47:58.937Z</time></trkpt><trkpt lat="36.9305683" lon="-3.5928817"><ele>526.0</ele><time>2026-04-28T10:47:59.938Z</time></trkpt><trkpt lat="36.9305617" lon="-3.5929667"><ele>526.0</ele><time>2026-04-28T10:48:00.939Z</time></trkpt><trkpt lat="36.9304667" lon="-3.5930467"><ele>526.0</ele><time>2026-04-28T10:48:02.938Z</time></trkpt><trkpt lat="36.9303583" lon="-3.59303"><ele>526.0</ele><time>2026-04-28T10:48:05.937Z</time></trkpt><trkpt lat="36.9302567" lon="-3.5929233"><ele>526.0</ele><time>2026-04-28T10:48:06.934Z</time></trkpt><trkpt lat="36.9302017" lon="-3.5928617"><ele>526.0</ele><time>2026-04-28T10:48:07.936Z</time></trkpt><trkpt lat="36.9301217" lon="-3.592765"><ele>527.1666666666667</ele><time>2026-04-28T10:48:09.937Z</time></trkpt><trkpt lat="36.9300517" lon="-3.5927133"><ele>528.3333333333334</ele><time>2026-04-28T10:48:10.938Z</time></trkpt><trkpt lat="36.9299883" lon="-3.5927083"><ele>529.5</ele><time>2026-04-28T10:48:11.937Z</time></trkpt><trkpt lat="36.9299233" lon="-3.59272"><ele>530.6666666666666</ele><time>2026-04-28T10:48:12.938Z</time></trkpt><trkpt lat="36.9298533" lon="-3.5927667"><ele>531.8333333333333</ele><time>2026-04-28T10:48:13.937Z</time></trkpt><trkpt lat="36.929745" lon="-3.5928017"><ele>533.0</ele><time>2026-04-28T10:48:14.938Z</time></trkpt><trkpt lat="36.9296567" lon="-3.592845"><ele>536.8</ele><time>2026-04-28T10:48:15.937Z</time></trkpt><trkpt lat="36.929585" lon="-3.5928983"><ele>540.5999999999999</ele><time>2026-04-28T10:48:16.937Z</time></trkpt><trkpt lat="36.9295017" lon="-3.5929717"><ele>544.4000000000001</ele><time>2026-04-28T10:48:17.936Z</time></trkpt><trkpt lat="36.9294483" lon="-3.5930417"><ele>548.2</ele><time>2026-04-28T10:48:18.936Z</time></trkpt><trkpt lat="36.9293433" lon="-3.5931733"><ele>552.0</ele><time>2026-04-28T10:48:20.936Z</time></trkpt><trkpt lat="36.9293017" lon="-3.59327"><ele>552.0</ele><time>2026-04-28T10:48:21.935Z</time></trkpt><trkpt lat="36.9293" lon="-3.5933733"><ele>552.0</ele><time>2026-04-28T10:48:22.935Z</time></trkpt><trkpt lat="36.9293217" lon="-3.5934583"><ele>552.0</ele><time>2026-04-28T10:48:23.935Z</time></trkpt><trkpt lat="36.9293483" lon="-3.59355"><ele>552.0</ele><time>2026-04-28T10:48:24.936Z</time></trkpt><trkpt lat="36.9293933" lon="-3.59366"><ele>552.0</ele><time>2026-04-28T10:48:25.937Z</time></trkpt></trkseg><trkseg><trkpt lat="36.9282329" lon="-3.6316804"><ele>730.0</ele><time>2026-04-28T11:47:04.958Z</time></trkpt><trkpt lat="36.9283097" lon="-3.6316694"><ele>730.0</ele><time>2026-04-28T11:47:08.999Z</time></trkpt><trkpt lat="36.92836" lon="-3.6317565"><ele>730.0</ele><time>2026-04-28T11:47:11Z</time></trkpt><trkpt lat="36.9284132" lon="-3.6318134"><ele>730.0</ele><time>2026-04-28T11:47:13.039Z</time></trkpt><trkpt lat="36.9285605" lon="-3.6314973"><ele>730.1666666666667</ele><time>2026-04-28T11:47:13.999Z</time></trkpt><trkpt lat="36.9286125" lon="-3.6313748"><ele>730.3333333333334</ele><time>2026-04-28T11:47:14.999Z</time></trkpt><trkpt lat="36.9286498" lon="-3.6313057"><ele>730.5</ele><time>2026-04-28T11:47:15.989Z</time></trkpt><trkpt lat="36.9286992" lon="-3.6312442"><ele>730.6666666666666</ele><time>2026-04-28T11:47:17.039Z</time></trkpt><trkpt lat="36.9287574" lon="-3.631142"><ele>730.8333333333333</ele><time>2026-04-28T11:47:18.999Z</time></trkpt><trkpt lat="36.9287937" lon="-3.6310695"><ele>731.0</ele><time>2026-04-28T11:47:20.918Z</time></trkpt><trkpt lat="36.9288193" lon="-3.6309936"><ele>731.0</ele><time>2026-04-28T11:47:22.957Z</time></trkpt><trkpt lat="36.9288246" lon="-3.6308915"><ele>731.0</ele><time>2026-04-28T11:47:25.009Z</time></trkpt><trkpt lat="36.9288458" lon="-3.6308021"><ele>731.0</ele><time>2026-04-28T11:47:26.877Z</time></trkpt><trkpt lat="36.928872" lon="-3.630716"><ele>731.0</ele><time>2026-04-28T11:47:28.989Z</time></trkpt><trkpt lat="36.9288965" lon="-3.6306337"><ele>731.0</ele><time>2026-04-28T11:47:30.979Z</time></trkpt><trkpt lat="36.9289121" lon="-3.6305427"><ele>731.0</ele><time>2026-04-28T11:47:32.977Z</time></trkpt><trkpt lat="36.9289219" lon="-3.6304543"><ele>731.0</ele><time>2026-04-28T11:47:34.969Z</time></trkpt><trkpt lat="36.928933" lon="-3.6303668"><ele>730.8</ele><time>2026-04-28T11:47:36.979Z</time></trkpt><trkpt lat="36.9289325" lon="-3.6302567"><ele>730.5999999999999</ele><time>2026-04-28T11:47:39.029Z</time></trkpt><trkpt lat="36.9288899" lon="-3.6301437"><ele>730.4</ele><time>2026-04-28T11:47:40.978Z</time></trkpt><trkpt lat="36.9288274" lon="-3.6300215"><ele>730.2</ele><time>2026-04-28T11:47:43.008Z</time></trkpt><trkpt lat="36.9287526" lon="-3.6299205"><ele>730.0</ele><time>2026-04-28T11:47:45.038Z</time></trkpt><trkpt lat="36.9286716" lon="-3.629832"><ele>730.0</ele><time>2026-04-28T11:47:46.957Z</time></trkpt><trkpt lat="36.9286359" lon="-3.6297286"><ele>730.0</ele><time>2026-04-28T11:47:48.898Z</time></trkpt><trkpt lat="36.9286553" lon="-3.6296119"><ele>730.0</ele><time>2026-04-28T11:47:51.026Z</time></trkpt><trkpt lat="36.9286526" lon="-3.629502"><ele>730.0</ele><time>2026-04-28T11:47:52.985Z</time></trkpt><trkpt lat="36.9287207" lon="-3.6294549"><ele>730.0</ele><time>2026-04-28T11:47:53.563Z</time></trkpt><trkpt lat="36.9287757" lon="-3.6293929"><ele>730.0</ele><time>2026-04-28T11:47:53.937Z</time></trkpt><trkpt lat="36.9288311" lon="-3.6292897"><ele>729.8333333333334</ele><time>2026-04-28T11:47:54.937Z</time></trkpt><trkpt lat="36.928877" lon="-3.6291846"><ele>729.6666666666667</ele><time>2026-04-28T11:47:55.937Z</time></trkpt><trkpt lat="36.9289117" lon="-3.6290973"><ele>729.5</ele><time>2026-04-28T11:47:56.938Z</time></trkpt><trkpt lat="36.9289521" lon="-3.629021"><ele>729.3333333333334</ele><time>2026-04-28T11:47:57.937Z</time></trkpt><trkpt lat="36.9289802" lon="-3.6289434"><ele>729.1666666666666</ele><time>2026-04-28T11:47:58.935Z</time></trkpt><trkpt lat="36.9289939" lon="-3.6288524"><ele>729.0</ele><time>2026-04-28T11:47:59.937Z</time></trkpt><trkpt lat="36.9289927" lon="-3.6287556"><ele>729.0</ele><time>2026-04-28T11:48:00.934Z</time></trkpt><trkpt lat="36.9289739" lon="-3.6286574"><ele>729.0</ele><time>2026-04-28T11:48:01.938Z</time></trkpt><trkpt lat="36.9289503" lon="-3.628554"><ele>729.0</ele><time>2026-04-28T11:48:02.938Z</time></trkpt><trkpt lat="36.9289328" lon="-3.6284469"><ele>729.0</ele><time>2026-04-28T11:48:03.934Z</time></trkpt><trkpt lat="36.9289196" lon="-3.6283404"><ele>729.0</ele><time>2026-04-28T11:48:04.936Z</time></trkpt><trkpt lat="36.9289162" lon="-3.6282379"><ele>729.0</ele><time>2026-04-28T11:48:05.937Z</time></trkpt><trkpt lat="36.9289177" lon="-3.6281431"><ele>728.2</ele><time>2026-04-28T11:48:06.937Z</time></trkpt><trkpt lat="36.9289198" lon="-3.6280605"><ele>727.4000000000001</ele><time>2026-04-28T11:48:07.938Z</time></trkpt><trkpt lat="36.9289347" lon="-3.6279222"><ele>726.6</ele><time>2026-04-28T11:48:09.934Z</time></trkpt><trkpt lat="36.9289569" lon="-3.6277616"><ele>725.8</ele><time>2026-04-28T11:48:11.934Z</time></trkpt><trkpt lat="36.9289743" lon="-3.6276678"><ele>725.0</ele><time>2026-04-28T11:48:12.936Z</time></trkpt><trkpt lat="36.9289926" lon="-3.6275752"><ele>725.0</ele><time>2026-04-28T11:48:13.935Z</time></trkpt><trkpt lat="36.9290106" lon="-3.627486"><ele>725.0</ele><time>2026-04-28T11:48:14.935Z</time></trkpt><trkpt lat="36.9290244" lon="-3.6274039"><ele>725.0</ele><time>2026-04-28T11:48:15.936Z</time></trkpt><trkpt lat="36.9290385" lon="-3.6273252"><ele>725.0</ele><time>2026-04-28T11:48:16.934Z</time></trkpt><trkpt lat="36.9290521" lon="-3.6272444"><ele>725.0</ele><time>2026-04-28T11:48:17.934Z</time></trkpt><trkpt lat="36.9290671" lon="-3.6271617"><ele>725.0</ele><time>2026-04-28T11:48:18.937Z</time></trkpt><trkpt lat="36.9290879" lon="-3.6270764"><ele>725.0</ele><time>2026-04-28T11:48:19.935Z</time></trkpt><trkpt lat="36.9291044" lon="-3.6269951"><ele>724.75</ele><time>2026-04-28T11:48:20.937Z</time></trkpt><trkpt lat="36.9291242" lon="-3.626844"><ele>724.5</ele><time>2026-04-28T11:48:22.934Z</time></trkpt><trkpt lat="36.9291331" lon="-3.6266982"><ele>724.25</ele><time>2026-04-28T11:48:24.938Z</time></trkpt><trkpt lat="36.9291262" lon="-3.6265531"><ele>724.0</ele><time>2026-04-28T11:48:26.935Z</time></trkpt><trkpt lat="36.9290862" lon="-3.6263934"><ele>724.0</ele><time>2026-04-28T11:48:28.937Z</time></trkpt><trkpt lat="36.9290515" lon="-3.6263095"><ele>724.0</ele><time>2026-04-28T11:48:29.937Z</time></trkpt><trkpt lat="36.9290117" lon="-3.6262284"><ele>724.0</ele><time>2026-04-28T11:48:30.937Z</time></trkpt><trkpt lat="36.9289673" lon="-3.6261456"><ele>724.0</ele><time>2026-04-28T11:48:31.938Z</time></trkpt><trkpt lat="36.9289295" lon="-3.6260644"><ele>724.0</ele><time>2026-04-28T11:48:32.937Z</time></trkpt><trkpt lat="36.9288953" lon="-3.6259702"><ele>724.0</ele><time>2026-04-28T11:48:33.937Z</time></trkpt><trkpt lat="36.9288665" lon="-3.6258755"><ele>724.6666666666667</ele><time>2026-04-28T11:48:34.937Z</time></trkpt><trkpt lat="36.9288443" lon="-3.6257767"><ele>725.3333333333334</ele><time>2026-04-28T11:48:35.938Z</time></trkpt><trkpt lat="36.9288298" lon="-3.6256798"><ele>726.0</ele><time>2026-04-28T11:48:36.938Z</time></trkpt><trkpt lat="36.9288144" lon="-3.6255889"><ele>726.6666666666666</ele><time>2026-04-28T11:48:37.937Z</time></trkpt><trkpt lat="36.9287939" lon="-3.6255047"><ele>727.3333333333333</ele><time>2026-04-28T11:48:38.939Z</time></trkpt><trkpt lat="36.9287683" lon="-3.6254278"><ele>728.0</ele><time>2026-04-28T11:48:39.937Z</time></trkpt><trkpt lat="36.9287096" lon="-3.625299"><ele>728.6666666666666</ele><time>2026-04-28T11:48:41.937Z</time></trkpt><trkpt lat="36.9286554" lon="-3.6251844"><ele>729.3333333333333</ele><time>2026-04-28T11:48:43.935Z</time></trkpt><trkpt lat="36.9286453" lon="-3.6250454"><ele>730.0</ele><time>2026-04-28T11:48:45.938Z</time></trkpt><trkpt lat="36.928628" lon="-3.6249676"><ele>730.6666666666666</ele><time>2026-04-28T11:48:46.935Z</time></trkpt><trkpt lat="36.9286036" lon="-3.6248883"><ele>731.3333333333334</ele><time>2026-04-28T11:48:47.935Z</time></trkpt><trkpt lat="36.9285756" lon="-3.6248078"><ele>732.0</ele><time>2026-04-28T11:48:48.938Z</time></trkpt><trkpt lat="36.9285515" lon="-3.6247317"><ele>732.0</ele><time>2026-04-28T11:48:49.938Z</time></trkpt><trkpt lat="36.9285326" lon="-3.6246565"><ele>732.0</ele><time>2026-04-28T11:48:50.939Z</time></trkpt><trkpt lat="36.9285305" lon="-3.6245156"><ele>732.0</ele><time>2026-04-28T11:48:52.938Z</time></trkpt><trkpt lat="36.9285516" lon="-3.6244163"><ele>732.0</ele><time>2026-04-28T11:48:54.938Z</time></trkpt><trkpt lat="36.9286105" lon="-3.6243503"><ele>732.0</ele><time>2026-04-28T11:48:56.937Z</time></trkpt><trkpt lat="36.928719" lon="-3.6243117"><ele>732.6</ele><time>2026-04-28T11:48:58.938Z</time></trkpt><trkpt lat="36.9288056" lon="-3.6242441"><ele>733.2</ele><time>2026-04-28T11:49:00.938Z</time></trkpt><trkpt lat="36.9288551" lon="-3.6241116"><ele>733.8</ele><time>2026-04-28T11:49:02.937Z</time></trkpt><trkpt lat="36.92888" lon="-3.6240004"><ele>734.4</ele><time>2026-04-28T11:49:04.936Z</time></trkpt><trkpt lat="36.928885" lon="-3.6238774"><ele>735.0</ele><time>2026-04-28T11:49:06.938Z</time></trkpt><trkpt lat="36.928878" lon="-3.6237185"><ele>735.6666666666666</ele><time>2026-04-28T11:49:08.941Z</time></trkpt><trkpt lat="36.9288642" lon="-3.6236312"><ele>736.3333333333334</ele><time>2026-04-28T11:49:09.936Z</time></trkpt><trkpt lat="36.9288417" lon="-3.6235363"><ele>737.0</ele><time>2026-04-28T11:49:10.938Z</time></trkpt><trkpt lat="36.9288203" lon="-3.6234363"><ele>737.6666666666667</ele><time>2026-04-28T11:49:11.938Z</time></trkpt><trkpt lat="36.9288026" lon="-3.6233429"><ele>738.3333333333334</ele><time>2026-04-28T11:49:12.937Z</time></trkpt><trkpt lat="36.9287875" lon="-3.6232567"><ele>739.0</ele><time>2026-04-28T11:49:13.938Z</time></trkpt><trkpt lat="36.9287769" lon="-3.6231703"><ele>739.0</ele><time>2026-04-28T11:49:14.938Z</time></trkpt><trkpt lat="36.9287739" lon="-3.623078"><ele>739.0</ele><time>2026-04-28T11:49:15.938Z</time></trkpt><trkpt lat="36.9287762" lon="-3.6229888"><ele>739.0</ele><time>2026-04-28T11:49:16.937Z</time></trkpt><trkpt lat="36.9287832" lon="-3.6229087"><ele>739.0</ele><time>2026-04-28T11:49:17.934Z</time></trkpt><trkpt lat="36.9287933" lon="-3.6228305"><ele>739.0</ele><time>2026-04-28T11:49:18.935Z</time></trkpt><trkpt lat="36.9288023" lon="-3.6227481"><ele>739.0</ele><time>2026-04-28T11:49:19.935Z</time></trkpt><trkpt lat="36.9287965" lon="-3.622663"><ele>739.0</ele><time>2026-04-28T11:49:20.937Z</time></trkpt><trkpt lat="36.9287746" lon="-3.6225782"><ele>740.3333333333334</ele><time>2026-04-28T11:49:21.936Z</time></trkpt><trkpt lat="36.9287412" lon="-3.6224933"><ele>741.6666666666667</ele><time>2026-04-28T11:49:22.934Z</time></trkpt><trkpt lat="36.9287018" lon="-3.6224055"><ele>743.0</ele><time>2026-04-28T11:49:23.934Z</time></trkpt><trkpt lat="36.928664" lon="-3.6223141"><ele>744.3333333333334</ele><time>2026-04-28T11:49:24.937Z</time></trkpt><trkpt lat="36.9286342" lon="-3.6222193"><ele>745.6666666666666</ele><time>2026-04-28T11:49:25.937Z</time></trkpt><trkpt lat="36.9286148" lon="-3.6221197"><ele>747.0</ele><time>2026-04-28T11:49:26.939Z</time></trkpt><trkpt lat="36.928606" lon="-3.6220162"><ele>748.2</ele><time>2026-04-28T11:49:27.938Z</time></trkpt><trkpt lat="36.9286106" lon="-3.6219066"><ele>749.4000000000001</ele><time>2026-04-28T11:49:28.937Z</time></trkpt><trkpt lat="36.9286299" lon="-3.6217933"><ele>750.5999999999999</ele><time>2026-04-28T11:49:29.936Z</time></trkpt><trkpt lat="36.9286587" lon="-3.6216812"><ele>751.8</ele><time>2026-04-28T11:49:30.937Z</time></trkpt><trkpt lat="36.9286885" lon="-3.6215734"><ele>753.0</ele><time>2026-04-28T11:49:31.937Z</time></trkpt><trkpt lat="36.928713" lon="-3.6214711"><ele>753.0</ele><time>2026-04-28T11:49:32.937Z</time></trkpt><trkpt lat="36.9287322" lon="-3.6213712"><ele>753.0</ele><time>2026-04-28T11:49:33.937Z</time></trkpt><trkpt lat="36.9287369" lon="-3.6212763"><ele>753.0</ele><time>2026-04-28T11:49:34.936Z</time></trkpt><trkpt lat="36.9287213" lon="-3.6211781"><ele>753.0</ele><time>2026-04-28T11:49:35.936Z</time></trkpt><trkpt lat="36.9286989" lon="-3.6210811"><ele>753.0</ele><time>2026-04-28T11:49:36.937Z</time></trkpt><trkpt lat="36.9286796" lon="-3.6209732"><ele>753.0</ele><time>2026-04-28T11:49:37.938Z</time></trkpt><trkpt lat="36.9286749" lon="-3.6208568"><ele>753.8</ele><time>2026-04-28T11:49:38.937Z</time></trkpt><trkpt lat="36.9286814" lon="-3.6207318"><ele>754.5999999999999</ele><time>2026-04-28T11:49:39.936Z</time></trkpt><trkpt lat="36.9286882" lon="-3.6206035"><ele>755.4000000000001</ele><time>2026-04-28T11:49:40.937Z</time></trkpt><trkpt lat="36.928699" lon="-3.6204814"><ele>756.2</ele><time>2026-04-28T11:49:41.936Z</time></trkpt><trkpt lat="36.9287096" lon="-3.6203689"><ele>757.0</ele><time>2026-04-28T11:49:42.936Z</time></trkpt><trkpt lat="36.9287165" lon="-3.6202653"><ele>757.8333333333334</ele><time>2026-04-28T11:49:43.933Z</time></trkpt><trkpt lat="36.9287194" lon="-3.6201615"><ele>758.6666666666667</ele><time>2026-04-28T11:49:44.936Z</time></trkpt><trkpt lat="36.9287193" lon="-3.6200584"><ele>759.5</ele><time>2026-04-28T11:49:45.936Z</time></trkpt><trkpt lat="36.9287083" lon="-3.6199455"><ele>760.3333333333334</ele><time>2026-04-28T11:49:46.936Z</time></trkpt><trkpt lat="36.9286942" lon="-3.6198383"><ele>761.1666666666666</ele><time>2026-04-28T11:49:47.933Z</time></trkpt><trkpt lat="36.9286864" lon="-3.6197228"><ele>762.0</ele><time>2026-04-28T11:49:48.933Z</time></trkpt><trkpt lat="36.9287001" lon="-3.6196137"><ele>762.0</ele><time>2026-04-28T11:49:49.934Z</time></trkpt><trkpt lat="36.9287367" lon="-3.6195117"><ele>762.0</ele><time>2026-04-28T11:49:50.933Z</time></trkpt><trkpt lat="36.928765" lon="-3.6194083"><ele>762.0</ele><time>2026-04-28T11:49:51.934Z</time></trkpt><trkpt lat="36.9287917" lon="-3.6193033"><ele>762.0</ele><time>2026-04-28T11:49:52.934Z</time></trkpt><trkpt lat="36.928815" lon="-3.6191933"><ele>762.0</ele><time>2026-04-28T11:49:53.935Z</time></trkpt><trkpt lat="36.928845" lon="-3.6190833"><ele>762.0</ele><time>2026-04-28T11:49:54.938Z</time></trkpt><trkpt lat="36.928865" lon="-3.6189767"><ele>761.6</ele><time>2026-04-28T11:49:55.937Z</time></trkpt><trkpt lat="36.9288883" lon="-3.6188767"><ele>761.2</ele><time>2026-04-28T11:49:56.939Z</time></trkpt><trkpt lat="36.9289117" lon="-3.6187767"><ele>760.8</ele><time>2026-04-28T11:49:57.937Z</time></trkpt><trkpt lat="36.9289417" lon="-3.6186683"><ele>760.4</ele><time>2026-04-28T11:49:58.937Z</time></trkpt><trkpt lat="36.9289967" lon="-3.6185533"><ele>760.0</ele><time>2026-04-28T11:49:59.937Z</time></trkpt><trkpt lat="36.9290633" lon="-3.618435"><ele>761.0</ele><time>2026-04-28T11:50:00.937Z</time></trkpt><trkpt lat="36.9291333" lon="-3.618305"><ele>762.0</ele><time>2026-04-28T11:50:01.937Z</time></trkpt><trkpt lat="36.9291967" lon="-3.6181667"><ele>763.0</ele><time>2026-04-28T11:50:02.937Z</time></trkpt><trkpt lat="36.9292533" lon="-3.618025"><ele>764.0</ele><time>2026-04-28T11:50:03.937Z</time></trkpt><trkpt lat="36.9293133" lon="-3.6178867"><ele>762.25</ele><time>2026-04-28T11:50:04.937Z</time></trkpt><trkpt lat="36.9293783" lon="-3.6177517"><ele>760.5</ele><time>2026-04-28T11:50:05.937Z</time></trkpt><trkpt lat="36.929445" lon="-3.6176217"><ele>758.75</ele><time>2026-04-28T11:50:06.937Z</time></trkpt><trkpt lat="36.92951" lon="-3.6175017"><ele>757.0</ele><time>2026-04-28T11:50:07.937Z</time></trkpt><trkpt lat="36.929565" lon="-3.61739"><ele>757.0</ele><time>2026-04-28T11:50:08.938Z</time></trkpt><trkpt lat="36.9296167" lon="-3.6172867"><ele>757.0</ele><time>2026-04-28T11:50:09.938Z</time></trkpt><trkpt lat="36.929665" lon="-3.6171883"><ele>757.0</ele><time>2026-04-28T11:50:10.938Z</time></trkpt><trkpt lat="36.9297083" lon="-3.6170883"><ele>757.0</ele><time>2026-04-28T11:50:11.937Z</time></trkpt><trkpt lat="36.9297333" lon="-3.61698"><ele>757.0</ele><time>2026-04-28T11:50:12.936Z</time></trkpt><trkpt lat="36.9297383" lon="-3.6168667"><ele>756.3333333333334</ele><time>2026-04-28T11:50:13.937Z</time></trkpt><trkpt lat="36.9297283" lon="-3.6167633"><ele>755.6666666666667</ele><time>2026-04-28T11:50:14.938Z</time></trkpt><trkpt lat="36.9297117" lon="-3.6166817"><ele>755.0</ele><time>2026-04-28T11:50:15.935Z</time></trkpt><trkpt lat="36.929675" lon="-3.6165617"><ele>754.3333333333334</ele><time>2026-04-28T11:50:17.935Z</time></trkpt><trkpt lat="36.9296033" lon="-3.6164433"><ele>753.6666666666666</ele><time>2026-04-28T11:50:19.935Z</time></trkpt><trkpt lat="36.929555" lon="-3.61637"><ele>753.0</ele><time>2026-04-28T11:50:20.934Z</time></trkpt><trkpt lat="36.9295033" lon="-3.6162867"><ele>753.0</ele><time>2026-04-28T11:50:21.935Z</time></trkpt><trkpt lat="36.92945" lon="-3.6161967"><ele>753.0</ele><time>2026-04-28T11:50:22.934Z</time></trkpt><trkpt lat="36.9293933" lon="-3.616105"><ele>753.0</ele><time>2026-04-28T11:50:23.935Z</time></trkpt><trkpt lat="36.9293367" lon="-3.61601"><ele>753.0</ele><time>2026-04-28T11:50:24.938Z</time></trkpt><trkpt lat="36.929275" lon="-3.6159133"><ele>753.0</ele><time>2026-04-28T11:50:25.937Z</time></trkpt><trkpt lat="36.929215" lon="-3.615815"><ele>751.0</ele><time>2026-04-28T11:50:26.935Z</time></trkpt><trkpt lat="36.9291583" lon="-3.6157133"><ele>749.0</ele><time>2026-04-28T11:50:27.934Z</time></trkpt><trkpt lat="36.9291033" lon="-3.61561"><ele>747.0</ele><time>2026-04-28T11:50:28.937Z</time></trkpt><trkpt lat="36.9290533" lon="-3.6155083"><ele>745.0</ele><time>2026-04-28T11:50:29.936Z</time></trkpt><trkpt lat="36.92901" lon="-3.615405"><ele>743.0</ele><time>2026-04-28T11:50:30.937Z</time></trkpt><trkpt lat="36.9289667" lon="-3.6153033"><ele>743.0</ele><time>2026-04-28T11:50:31.937Z</time></trkpt><trkpt lat="36.9289233" lon="-3.6152033"><ele>743.0</ele><time>2026-04-28T11:50:32.937Z</time></trkpt><trkpt lat="36.92888" lon="-3.6151067"><ele>743.0</ele><time>2026-04-28T11:50:33.937Z</time></trkpt><trkpt lat="36.9288383" lon="-3.6150117"><ele>743.0</ele><time>2026-04-28T11:50:34.937Z</time></trkpt><trkpt lat="36.9288117" lon="-3.6149067"><ele>743.0</ele><time>2026-04-28T11:50:35.937Z</time></trkpt><trkpt lat="36.9287967" lon="-3.614795"><ele>743.0</ele><time>2026-04-28T11:50:36.939Z</time></trkpt><trkpt lat="36.928795" lon="-3.614675"><ele>743.0</ele><time>2026-04-28T11:50:37.937Z</time></trkpt><trkpt lat="36.92881" lon="-3.6145433"><ele>743.0</ele><time>2026-04-28T11:50:38.938Z</time></trkpt><trkpt lat="36.9288333" lon="-3.6144083"><ele>743.0</ele><time>2026-04-28T11:50:39.939Z</time></trkpt><trkpt lat="36.9288567" lon="-3.61427"><ele>743.0</ele><time>2026-04-28T11:50:40.937Z</time></trkpt><trkpt lat="36.9288783" lon="-3.6141317"><ele>743.0</ele><time>2026-04-28T11:50:41.938Z</time></trkpt><trkpt lat="36.9288983" lon="-3.6139867"><ele>741.75</ele><time>2026-04-28T11:50:42.937Z</time></trkpt><trkpt lat="36.9289217" lon="-3.61384"><ele>740.5</ele><time>2026-04-28T11:50:43.936Z</time></trkpt><trkpt lat="36.92894" lon="-3.6136933"><ele>739.25</ele><time>2026-04-28T11:50:44.938Z</time></trkpt><trkpt lat="36.9289517" lon="-3.6135517"><ele>738.0</ele><time>2026-04-28T11:50:45.937Z</time></trkpt><trkpt lat="36.928965" lon="-3.6134167"><ele>737.4</ele><time>2026-04-28T11:50:46.937Z</time></trkpt><trkpt lat="36.92899" lon="-3.613285"><ele>736.8</ele><time>2026-04-28T11:50:47.935Z</time></trkpt><trkpt lat="36.92902" lon="-3.61315"><ele>736.2</ele><time>2026-04-28T11:50:48.935Z</time></trkpt><trkpt lat="36.9290583" lon="-3.61302"><ele>735.6</ele><time>2026-04-28T11:50:49.935Z</time></trkpt><trkpt lat="36.9291" lon="-3.61289"><ele>735.0</ele><time>2026-04-28T11:50:50.934Z</time></trkpt><trkpt lat="36.92914" lon="-3.6127667"><ele>734.2</ele><time>2026-04-28T11:50:51.933Z</time></trkpt><trkpt lat="36.9291717" lon="-3.61264"><ele>733.4</ele><time>2026-04-28T11:50:52.934Z</time></trkpt><trkpt lat="36.9291983" lon="-3.6125133"><ele>732.5999999999999</ele><time>2026-04-28T11:50:53.935Z</time></trkpt><trkpt lat="36.92921" lon="-3.6123767"><ele>731.8</ele><time>2026-04-28T11:50:54.937Z</time></trkpt><trkpt lat="36.92922" lon="-3.6122333"><ele>731.0</ele><time>2026-04-28T11:50:55.937Z</time></trkpt><trkpt lat="36.9292267" lon="-3.6120817"><ele>729.25</ele><time>2026-04-28T11:50:56.937Z</time></trkpt><trkpt lat="36.9292167" lon="-3.6119117"><ele>727.5</ele><time>2026-04-28T11:50:57.936Z</time></trkpt><trkpt lat="36.9292117" lon="-3.6117267"><ele>725.75</ele><time>2026-04-28T11:50:58.936Z</time></trkpt><trkpt lat="36.9292083" lon="-3.6115367"><ele>724.0</ele><time>2026-04-28T11:50:59.933Z</time></trkpt><trkpt lat="36.929205" lon="-3.6113267"><ele>720.6666666666667</ele><time>2026-04-28T11:51:00.936Z</time></trkpt><trkpt lat="36.92919" lon="-3.6111183"><ele>717.3333333333334</ele><time>2026-04-28T11:51:01.936Z</time></trkpt><trkpt lat="36.9291667" lon="-3.61091"><ele>714.0</ele><time>2026-04-28T11:51:02.936Z</time></trkpt><trkpt lat="36.929145" lon="-3.610705"><ele>714.0</ele><time>2026-04-28T11:51:03.937Z</time></trkpt><trkpt lat="36.9291283" lon="-3.610505"><ele>714.0</ele><time>2026-04-28T11:51:04.936Z</time></trkpt><trkpt lat="36.929125" lon="-3.6103133"><ele>714.0</ele><time>2026-04-28T11:51:05.936Z</time></trkpt><trkpt lat="36.9291133" lon="-3.6101233"><ele>711.5</ele><time>2026-04-28T11:51:06.937Z</time></trkpt><trkpt lat="36.9291" lon="-3.6099433"><ele>709.0</ele><time>2026-04-28T11:51:07.936Z</time></trkpt><trkpt lat="36.92908" lon="-3.6097817"><ele>706.5</ele><time>2026-04-28T11:51:08.937Z</time></trkpt><trkpt lat="36.92906" lon="-3.60964"><ele>704.0</ele><time>2026-04-28T11:51:09.937Z</time></trkpt><trkpt lat="36.92904" lon="-3.60951"><ele>702.25</ele><time>2026-04-28T11:51:10.937Z</time></trkpt><trkpt lat="36.9290167" lon="-3.6093833"><ele>700.5</ele><time>2026-04-28T11:51:11.934Z</time></trkpt><trkpt lat="36.928995" lon="-3.60925"><ele>698.75</ele><time>2026-04-28T11:51:12.936Z</time></trkpt><trkpt lat="36.9289617" lon="-3.6091083"><ele>697.0</ele><time>2026-04-28T11:51:13.937Z</time></trkpt><trkpt lat="36.9289317" lon="-3.6089533"><ele>697.0</ele><time>2026-04-28T11:51:14.937Z</time></trkpt><trkpt lat="36.9289" lon="-3.60879"><ele>697.0</ele><time>2026-04-28T11:51:15.937Z</time></trkpt><trkpt lat="36.9288667" lon="-3.608625"><ele>697.0</ele><time>2026-04-28T11:51:16.937Z</time></trkpt><trkpt lat="36.92883" lon="-3.6084583"><ele>697.0</ele><time>2026-04-28T11:51:17.935Z</time></trkpt><trkpt lat="36.9287967" lon="-3.6082917"><ele>695.5</ele><time>2026-04-28T11:51:18.936Z</time></trkpt><trkpt lat="36.9287633" lon="-3.60813"><ele>694.0</ele><time>2026-04-28T11:51:19.934Z</time></trkpt><trkpt lat="36.92873" lon="-3.6079717"><ele>692.5</ele><time>2026-04-28T11:51:20.935Z</time></trkpt><trkpt lat="36.9286967" lon="-3.6078083"><ele>691.0</ele><time>2026-04-28T11:51:21.935Z</time></trkpt><trkpt lat="36.92867" lon="-3.6076367"><ele>688.25</ele><time>2026-04-28T11:51:22.934Z</time></trkpt><trkpt lat="36.9286567" lon="-3.607455"><ele>685.5</ele><time>2026-04-28T11:51:23.935Z</time></trkpt><trkpt lat="36.928655" lon="-3.6072667"><ele>682.75</ele><time>2026-04-28T11:51:24.935Z</time></trkpt><trkpt lat="36.9286667" lon="-3.6070783"><ele>680.0</ele><time>2026-04-28T11:51:25.936Z</time></trkpt><trkpt lat="36.9286833" lon="-3.6068967"><ele>678.75</ele><time>2026-04-28T11:51:26.936Z</time></trkpt><trkpt lat="36.9287" lon="-3.6067217"><ele>677.5</ele><time>2026-04-28T11:51:27.934Z</time></trkpt><trkpt lat="36.9287133" lon="-3.6065467"><ele>676.25</ele><time>2026-04-28T11:51:28.934Z</time></trkpt><trkpt lat="36.9287367" lon="-3.6063733"><ele>675.0</ele><time>2026-04-28T11:51:29.938Z</time></trkpt><trkpt lat="36.9287667" lon="-3.606205"><ele>675.0</ele><time>2026-04-28T11:51:30.937Z</time></trkpt><trkpt lat="36.928805" lon="-3.6060433"><ele>675.0</ele><time>2026-04-28T11:51:31.937Z</time></trkpt><trkpt lat="36.92885" lon="-3.605895"><ele>675.0</ele><time>2026-04-28T11:51:32.937Z</time></trkpt><trkpt lat="36.9289117" lon="-3.60576"><ele>675.0</ele><time>2026-04-28T11:51:33.937Z</time></trkpt><trkpt lat="36.928975" lon="-3.605635"><ele>675.0</ele><time>2026-04-28T11:51:34.937Z</time></trkpt><trkpt lat="36.9290467" lon="-3.6055167"><ele>675.0</ele><time>2026-04-28T11:51:35.937Z</time></trkpt><trkpt lat="36.92913" lon="-3.6054067"><ele>675.0</ele><time>2026-04-28T11:51:36.937Z</time></trkpt><trkpt lat="36.929215" lon="-3.6052983"><ele>675.0</ele><time>2026-04-28T11:51:37.938Z</time></trkpt><trkpt lat="36.9292933" lon="-3.6051817"><ele>673.25</ele><time>2026-04-28T11:51:38.938Z</time></trkpt><trkpt lat="36.9293733" lon="-3.6050617"><ele>671.5</ele><time>2026-04-28T11:51:39.937Z</time></trkpt><trkpt lat="36.9294317" lon="-3.6049333"><ele>669.75</ele><time>2026-04-28T11:51:40.937Z</time></trkpt><trkpt lat="36.9294867" lon="-3.6048117"><ele>668.0</ele><time>2026-04-28T11:51:41.938Z</time></trkpt><trkpt lat="36.9295383" lon="-3.6046917"><ele>668.0</ele><time>2026-04-28T11:51:42.937Z</time></trkpt><trkpt lat="36.929585" lon="-3.6045767"><ele>668.0</ele><time>2026-04-28T11:51:43.937Z</time></trkpt><trkpt lat="36.9296233" lon="-3.60446"><ele>668.0</ele><time>2026-04-28T11:51:44.938Z</time></trkpt><trkpt lat="36.9296667" lon="-3.604355"><ele>668.0</ele><time>2026-04-28T11:51:45.937Z</time></trkpt><trkpt lat="36.9297067" lon="-3.6042583"><ele>668.0</ele><time>2026-04-28T11:51:46.937Z</time></trkpt><trkpt lat="36.9297517" lon="-3.6041717"><ele>667.4285714285714</ele><time>2026-04-28T11:51:47.937Z</time></trkpt><trkpt lat="36.9297967" lon="-3.6040833"><ele>666.8571428571429</ele><time>2026-04-28T11:51:48.934Z</time></trkpt><trkpt lat="36.9298283" lon="-3.604"><ele>666.2857142857142</ele><time>2026-04-28T11:51:49.934Z</time></trkpt><trkpt lat="36.9298667" lon="-3.6039233"><ele>665.7142857142858</ele><time>2026-04-28T11:51:50.935Z</time></trkpt><trkpt lat="36.92994" lon="-3.6038867"><ele>665.1428571428572</ele><time>2026-04-28T11:51:51.935Z</time></trkpt><trkpt lat="36.9300033" lon="-3.603845"><ele>664.5714285714286</ele><time>2026-04-28T11:51:52.934Z</time></trkpt><trkpt lat="36.930065" lon="-3.6038117"><ele>664.0</ele><time>2026-04-28T11:51:53.934Z</time></trkpt><trkpt lat="36.93019" lon="-3.6037683"><ele>660.6</ele><time>2026-04-28T11:51:55.935Z</time></trkpt><trkpt lat="36.9302367" lon="-3.603715"><ele>657.2</ele><time>2026-04-28T11:51:56.935Z</time></trkpt><trkpt lat="36.9302883" lon="-3.6036267"><ele>653.8000000000001</ele><time>2026-04-28T11:51:57.935Z</time></trkpt><trkpt lat="36.9303167" lon="-3.6035033"><ele>650.4000000000001</ele><time>2026-04-28T11:51:58.935Z</time></trkpt><trkpt lat="36.9303467" lon="-3.6033833"><ele>647.0</ele><time>2026-04-28T11:51:59.935Z</time></trkpt><trkpt lat="36.930355" lon="-3.6032583"><ele>644.8000000000001</ele><time>2026-04-28T11:52:00.937Z</time></trkpt><trkpt lat="36.9303617" lon="-3.6031433"><ele>642.6</ele><time>2026-04-28T11:52:01.937Z</time></trkpt><trkpt lat="36.9303617" lon="-3.6030233"><ele>640.4000000000001</ele><time>2026-04-28T11:52:02.939Z</time></trkpt><trkpt lat="36.9303433" lon="-3.6029067"><ele>638.2</ele><time>2026-04-28T11:52:03.934Z</time></trkpt><trkpt lat="36.9303367" lon="-3.6027983"><ele>636.0</ele><time>2026-04-28T11:52:04.937Z</time></trkpt><trkpt lat="36.9303367" lon="-3.602695"><ele>634.2</ele><time>2026-04-28T11:52:05.937Z</time></trkpt><trkpt lat="36.9303467" lon="-3.602585"><ele>632.4000000000001</ele><time>2026-04-28T11:52:06.937Z</time></trkpt><trkpt lat="36.9303633" lon="-3.602475"><ele>630.6</ele><time>2026-04-28T11:52:07.937Z</time></trkpt><trkpt lat="36.93041" lon="-3.602365"><ele>628.8000000000001</ele><time>2026-04-28T11:52:08.937Z</time></trkpt><trkpt lat="36.93046" lon="-3.6022517"><ele>627.0</ele><time>2026-04-28T11:52:09.937Z</time></trkpt><trkpt lat="36.9305133" lon="-3.6021317"><ele>627.0</ele><time>2026-04-28T11:52:10.937Z</time></trkpt><trkpt lat="36.93056" lon="-3.602"><ele>627.0</ele><time>2026-04-28T11:52:11.938Z</time></trkpt><trkpt lat="36.9305933" lon="-3.601865"><ele>627.0</ele><time>2026-04-28T11:52:12.937Z</time></trkpt><trkpt lat="36.9306133" lon="-3.6017317"><ele>627.0</ele><time>2026-04-28T11:52:13.937Z</time></trkpt><trkpt lat="36.93063" lon="-3.6016017"><ele>627.0</ele><time>2026-04-28T11:52:14.937Z</time></trkpt><trkpt lat="36.9306483" lon="-3.6014667"><ele>626.2</ele><time>2026-04-28T11:52:15.936Z</time></trkpt><trkpt lat="36.9306717" lon="-3.601335"><ele>625.4000000000001</ele><time>2026-04-28T11:52:16.936Z</time></trkpt><trkpt lat="36.93069" lon="-3.6012133"><ele>624.5999999999999</ele><time>2026-04-28T11:52:17.938Z</time></trkpt><trkpt lat="36.9307067" lon="-3.6010967"><ele>623.8</ele><time>2026-04-28T11:52:18.934Z</time></trkpt><trkpt lat="36.9307283" lon="-3.6009883"><ele>623.0</ele><time>2026-04-28T11:52:19.935Z</time></trkpt><trkpt lat="36.9307567" lon="-3.6008917"><ele>622.6666666666666</ele><time>2026-04-28T11:52:20.934Z</time></trkpt><trkpt lat="36.9307833" lon="-3.60081"><ele>622.3333333333333</ele><time>2026-04-28T11:52:21.935Z</time></trkpt><trkpt lat="36.9308233" lon="-3.6007383"><ele>622.0</ele><time>2026-04-28T11:52:22.934Z</time></trkpt><trkpt lat="36.9308717" lon="-3.600665"><ele>621.6666666666666</ele><time>2026-04-28T11:52:23.934Z</time></trkpt><trkpt lat="36.930915" lon="-3.60058"><ele>621.3333333333334</ele><time>2026-04-28T11:52:24.937Z</time></trkpt><trkpt lat="36.93095" lon="-3.6004867"><ele>621.0</ele><time>2026-04-28T11:52:25.936Z</time></trkpt><trkpt lat="36.9309617" lon="-3.6003817"><ele>618.2</ele><time>2026-04-28T11:52:26.935Z</time></trkpt><trkpt lat="36.9309683" lon="-3.6002617"><ele>615.4000000000001</ele><time>2026-04-28T11:52:27.938Z</time></trkpt><trkpt lat="36.93097" lon="-3.6001433"><ele>612.6</ele><time>2026-04-28T11:52:28.937Z</time></trkpt><trkpt lat="36.93098" lon="-3.6000267"><ele>609.8000000000001</ele><time>2026-04-28T11:52:29.937Z</time></trkpt><trkpt lat="36.9310017" lon="-3.599915"><ele>607.0</ele><time>2026-04-28T11:52:30.937Z</time></trkpt><trkpt lat="36.9310283" lon="-3.5998083"><ele>607.0</ele><time>2026-04-28T11:52:31.934Z</time></trkpt><trkpt lat="36.9310567" lon="-3.5997017"><ele>607.0</ele><time>2026-04-28T11:52:32.937Z</time></trkpt><trkpt lat="36.93109" lon="-3.5996017"><ele>607.0</ele><time>2026-04-28T11:52:33.937Z</time></trkpt><trkpt lat="36.9311283" lon="-3.5995083"><ele>607.0</ele><time>2026-04-28T11:52:34.937Z</time></trkpt><trkpt lat="36.9311617" lon="-3.5994233"><ele>607.0</ele><time>2026-04-28T11:52:35.938Z</time></trkpt><trkpt lat="36.9311817" lon="-3.5993383"><ele>607.0</ele><time>2026-04-28T11:52:36.937Z</time></trkpt><trkpt lat="36.9312" lon="-3.5992617"><ele>605.4</ele><time>2026-04-28T11:52:37.938Z</time></trkpt><trkpt lat="36.931235" lon="-3.59912"><ele>603.8000000000001</ele><time>2026-04-28T11:52:39.935Z</time></trkpt><trkpt lat="36.9312283" lon="-3.5989733"><ele>602.2</ele><time>2026-04-28T11:52:41.937Z</time></trkpt><trkpt lat="36.9312067" lon="-3.5988917"><ele>600.6</ele><time>2026-04-28T11:52:42.937Z</time></trkpt><trkpt lat="36.9311783" lon="-3.5988033"><ele>599.0</ele><time>2026-04-28T11:52:43.937Z</time></trkpt><trkpt lat="36.931175" lon="-3.59871"><ele>597.0</ele><time>2026-04-28T11:52:44.937Z</time></trkpt><trkpt lat="36.93117" lon="-3.5986233"><ele>595.0</ele><time>2026-04-28T11:52:45.937Z</time></trkpt><trkpt lat="36.931175" lon="-3.5985333"><ele>593.0</ele><time>2026-04-28T11:52:46.937Z</time></trkpt><trkpt lat="36.9311883" lon="-3.598375"><ele>591.0</ele><time>2026-04-28T11:52:48.935Z</time></trkpt><trkpt lat="36.9311867" lon="-3.598285"><ele>589.0</ele><time>2026-04-28T11:52:49.935Z</time></trkpt><trkpt lat="36.9311783" lon="-3.5981883"><ele>587.0</ele><time>2026-04-28T11:52:50.935Z</time></trkpt><trkpt lat="36.9311617" lon="-3.5980917"><ele>587.0</ele><time>2026-04-28T11:52:51.935Z</time></trkpt><trkpt lat="36.9311333" lon="-3.5979967"><ele>587.0</ele><time>2026-04-28T11:52:52.933Z</time></trkpt><trkpt lat="36.9310967" lon="-3.5979"><ele>587.0</ele><time>2026-04-28T11:52:53.936Z</time></trkpt><trkpt lat="36.9310583" lon="-3.5978067"><ele>587.0</ele><time>2026-04-28T11:52:54.936Z</time></trkpt><trkpt lat="36.93103" lon="-3.5977083"><ele>587.0</ele><time>2026-04-28T11:52:55.936Z</time></trkpt><trkpt lat="36.9309917" lon="-3.5976183"><ele>587.0</ele><time>2026-04-28T11:52:56.936Z</time></trkpt><trkpt lat="36.9309467" lon="-3.5975367"><ele>586.6666666666666</ele><time>2026-04-28T11:52:57.933Z</time></trkpt><trkpt lat="36.9308967" lon="-3.5974583"><ele>586.3333333333333</ele><time>2026-04-28T11:52:58.934Z</time></trkpt><trkpt lat="36.9308483" lon="-3.5973767"><ele>586.0</ele><time>2026-04-28T11:52:59.938Z</time></trkpt><trkpt lat="36.9308083" lon="-3.5972967"><ele>585.6666666666666</ele><time>2026-04-28T11:53:00.938Z</time></trkpt><trkpt lat="36.9307667" lon="-3.5972167"><ele>585.3333333333334</ele><time>2026-04-28T11:53:01.937Z</time></trkpt><trkpt lat="36.9307283" lon="-3.5971367"><ele>585.0</ele><time>2026-04-28T11:53:02.937Z</time></trkpt><trkpt lat="36.9306333" lon="-3.5970417"><ele>585.0</ele><time>2026-04-28T11:53:04.937Z</time></trkpt><trkpt lat="36.9305683" lon="-3.59702"><ele>585.0</ele><time>2026-04-28T11:53:05.937Z</time></trkpt><trkpt lat="36.930465" lon="-3.59696"><ele>585.0</ele><time>2026-04-28T11:53:07.937Z</time></trkpt><trkpt lat="36.9303867" lon="-3.596855"><ele>585.0</ele><time>2026-04-28T11:53:09.939Z</time></trkpt><trkpt lat="36.9303617" lon="-3.5967767"><ele>585.0</ele><time>2026-04-28T11:53:10.937Z</time></trkpt><trkpt lat="36.9303383" lon="-3.5966867"><ele>585.0</ele><time>2026-04-28T11:53:11.937Z</time></trkpt><trkpt lat="36.93031" lon="-3.5965867"><ele>584.5</ele><time>2026-04-28T11:53:12.937Z</time></trkpt><trkpt lat="36.9302683" lon="-3.59649"><ele>584.0</ele><time>2026-04-28T11:53:13.937Z</time></trkpt><trkpt lat="36.9302067" lon="-3.59641"><ele>583.5</ele><time>2026-04-28T11:53:14.937Z</time></trkpt><trkpt lat="36.930145" lon="-3.59633"><ele>583.0</ele><time>2026-04-28T11:53:15.938Z</time></trkpt><trkpt lat="36.9300733" lon="-3.5962583"><ele>582.5</ele><time>2026-04-28T11:53:16.937Z</time></trkpt><trkpt lat="36.93" lon="-3.5961933"><ele>582.0</ele><time>2026-04-28T11:53:17.936Z</time></trkpt><trkpt lat="36.929935" lon="-3.59612"><ele>580.0</ele><time>2026-04-28T11:53:18.935Z</time></trkpt><trkpt lat="36.9298767" lon="-3.5960467"><ele>578.0</ele><time>2026-04-28T11:53:19.935Z</time></trkpt><trkpt lat="36.9298233" lon="-3.595965"><ele>576.0</ele><time>2026-04-28T11:53:20.935Z</time></trkpt><trkpt lat="36.9297733" lon="-3.595885"><ele>574.0</ele><time>2026-04-28T11:53:21.936Z</time></trkpt><trkpt lat="36.9297517" lon="-3.5958"><ele>572.0</ele><time>2026-04-28T11:53:22.936Z</time></trkpt><trkpt lat="36.9297183" lon="-3.5957183"><ele>570.0</ele><time>2026-04-28T11:53:23.936Z</time></trkpt><trkpt lat="36.9296833" lon="-3.59564"><ele>570.0</ele><time>2026-04-28T11:53:24.937Z</time></trkpt><trkpt lat="36.9296417" lon="-3.595495"><ele>570.0</ele><time>2026-04-28T11:53:26.938Z</time></trkpt><trkpt lat="36.929635" lon="-3.5954133"><ele>570.0</ele><time>2026-04-28T11:53:27.937Z</time></trkpt><trkpt lat="36.9296317" lon="-3.5952633"><ele>570.0</ele><time>2026-04-28T11:53:29.937Z</time></trkpt><trkpt lat="36.92962" lon="-3.5951033"><ele>570.0</ele><time>2026-04-28T11:53:31.938Z</time></trkpt><trkpt lat="36.9296117" lon="-3.5950167"><ele>569.8571428571429</ele><time>2026-04-28T11:53:32.938Z</time></trkpt><trkpt lat="36.9296083" lon="-3.5949267"><ele>569.7142857142858</ele><time>2026-04-28T11:53:33.937Z</time></trkpt><trkpt lat="36.9295967" lon="-3.594845"><ele>569.5714285714287</ele><time>2026-04-28T11:53:34.937Z</time></trkpt><trkpt lat="36.929585" lon="-3.5947633"><ele>569.4285714285714</ele><time>2026-04-28T11:53:35.938Z</time></trkpt><trkpt lat="36.9295817" lon="-3.5946783"><ele>569.2857142857143</ele><time>2026-04-28T11:53:36.934Z</time></trkpt><trkpt lat="36.9295767" lon="-3.5945967"><ele>569.1428571428572</ele><time>2026-04-28T11:53:37.935Z</time></trkpt><trkpt lat="36.92957" lon="-3.5945183"><ele>569.0</ele><time>2026-04-28T11:53:38.938Z</time></trkpt><trkpt lat="36.929575" lon="-3.5944367"><ele>567.8333333333333</ele><time>2026-04-28T11:53:39.935Z</time></trkpt><trkpt lat="36.9295783" lon="-3.5943483"><ele>566.6666666666666</ele><time>2026-04-28T11:53:40.937Z</time></trkpt><trkpt lat="36.9295567" lon="-3.59426"><ele>565.5</ele><time>2026-04-28T11:53:41.937Z</time></trkpt><trkpt lat="36.9295317" lon="-3.5941617"><ele>564.3333333333334</ele><time>2026-04-28T11:53:42.937Z</time></trkpt><trkpt lat="36.9295017" lon="-3.59406"><ele>563.1666666666667</ele><time>2026-04-28T11:53:43.939Z</time></trkpt><trkpt lat="36.9294683" lon="-3.5939583"><ele>562.0</ele><time>2026-04-28T11:53:44.938Z</time></trkpt><trkpt lat="36.92944" lon="-3.5938567"><ele>562.0</ele><time>2026-04-28T11:53:45.938Z</time></trkpt><trkpt lat="36.9294133" lon="-3.593755"><ele>562.0</ele><time>2026-04-28T11:53:46.937Z</time></trkpt><trkpt lat="36.9293883" lon="-3.593655"><ele>562.0</ele><time>2026-04-28T11:53:47.935Z</time></trkpt><trkpt lat="36.9293533" lon="-3.593565"><ele>562.0</ele><time>2026-04-28T11:53:48.936Z</time></trkpt><trkpt lat="36.9293233" lon="-3.5934767"><ele>562.0</ele><time>2026-04-28T11:53:49.935Z</time></trkpt><trkpt lat="36.9293017" lon="-3.5933867"><ele>562.0</ele><time>2026-04-28T11:53:50.936Z</time></trkpt><trkpt lat="36.9292917" lon="-3.5932983"><ele>560.3333333333334</ele><time>2026-04-28T11:53:51.935Z</time></trkpt><trkpt lat="36.9293033" lon="-3.5932067"><ele>558.6666666666667</ele><time>2026-04-28T11:53:52.935Z</time></trkpt><trkpt lat="36.9293333" lon="-3.5931183"><ele>557.0</ele><time>2026-04-28T11:53:53.936Z</time></trkpt><trkpt lat="36.929385" lon="-3.593045"><ele>555.3333333333334</ele><time>2026-04-28T11:53:54.935Z</time></trkpt><trkpt lat="36.929445" lon="-3.5929767"><ele>553.6666666666666</ele><time>2026-04-28T11:53:55.936Z</time></trkpt><trkpt lat="36.9294933" lon="-3.5929033"><ele>552.0</ele><time>2026-04-28T11:53:56.935Z</time></trkpt><trkpt lat="36.929545" lon="-3.5928333"><ele>548.8333333333334</ele><time>2026-04-28T11:53:57.938Z</time></trkpt><trkpt lat="36.929605" lon="-3.5927717"><ele>545.6666666666666</ele><time>2026-04-28T11:53:58.935Z</time></trkpt><trkpt lat="36.92968" lon="-3.59273"><ele>542.5</ele><time>2026-04-28T11:53:59.935Z</time></trkpt><trkpt lat="36.9297583" lon="-3.5926967"><ele>539.3333333333333</ele><time>2026-04-28T11:54:00.938Z</time></trkpt><trkpt lat="36.929835" lon="-3.5926667"><ele>536.1666666666666</ele><time>2026-04-28T11:54:01.935Z</time></trkpt><trkpt lat="36.9299083" lon="-3.5926467"><ele>533.0</ele><time>2026-04-28T11:54:02.938Z</time></trkpt><trkpt lat="36.9299833" lon="-3.5926383"><ele>533.8333333333333</ele><time>2026-04-28T11:54:03.938Z</time></trkpt><trkpt lat="36.9300617" lon="-3.592655"><ele>534.6666666666666</ele><time>2026-04-28T11:54:04.937Z</time></trkpt><trkpt lat="36.9301317" lon="-3.5926967"><ele>535.5</ele><time>2026-04-28T11:54:05.938Z</time></trkpt><trkpt lat="36.9302083" lon="-3.5927717"><ele>536.3333333333334</ele><time>2026-04-28T11:54:07.938Z</time></trkpt><trkpt lat="36.9302533" lon="-3.5928583"><ele>537.1666666666667</ele><time>2026-04-28T11:54:08.939Z</time></trkpt><trkpt lat="36.9303183" lon="-3.5929217"><ele>538.0</ele><time>2026-04-28T11:54:10.936Z</time></trkpt><trkpt lat="36.9304317" lon="-3.59296"><ele>538.0</ele><time>2026-04-28T11:54:12.937Z</time></trkpt><trkpt lat="36.930495" lon="-3.5929283"><ele>538.0</ele><time>2026-04-28T11:54:13.937Z</time></trkpt><trkpt lat="36.9305417" lon="-3.5928733"><ele>538.0</ele><time>2026-04-28T11:54:14.938Z</time></trkpt><trkpt lat="36.9305533" lon="-3.5927867"><ele>538.0</ele><time>2026-04-28T11:54:15.937Z</time></trkpt><trkpt lat="36.93055" lon="-3.5926967"><ele>538.0</ele><time>2026-04-28T11:54:16.933Z</time></trkpt><trkpt lat="36.9305283" lon="-3.5926033"><ele>538.0</ele><time>2026-04-28T11:54:17.933Z</time></trkpt><trkpt lat="36.9304917" lon="-3.592515"><ele>538.0</ele><time>2026-04-28T11:54:18.937Z</time></trkpt><trkpt lat="36.9304583" lon="-3.592435"><ele>536.0</ele><time>2026-04-28T11:54:19.936Z</time></trkpt><trkpt lat="36.9304183" lon="-3.5923483"><ele>534.0</ele><time>2026-04-28T11:54:20.937Z</time></trkpt><trkpt lat="36.9303717" lon="-3.5922617"><ele>532.0</ele><time>2026-04-28T11:54:21.936Z</time></trkpt><trkpt lat="36.93033" lon="-3.5921617"><ele>530.0</ele><time>2026-04-28T11:54:22.936Z</time></trkpt><trkpt lat="36.93029" lon="-3.5920633"><ele>528.0</ele><time>2026-04-28T11:54:23.937Z</time></trkpt><trkpt lat="36.9302317" lon="-3.5919567"><ele>526.0</ele><time>2026-04-28T11:54:24.936Z</time></trkpt><trkpt lat="36.9301733" lon="-3.5918583"><ele>526.0</ele><time>2026-04-28T11:54:25.936Z</time></trkpt><trkpt lat="36.9301317" lon="-3.5917667"><ele>526.0</ele><time>2026-04-28T11:54:26.938Z</time></trkpt><trkpt lat="36.930115" lon="-3.5916733"><ele>526.0</ele><time>2026-04-28T11:54:27.936Z</time></trkpt><trkpt lat="36.9301217" lon="-3.59158"><ele>526.0</ele><time>2026-04-28T11:54:28.937Z</time></trkpt><trkpt lat="36.930135" lon="-3.5914817"><ele>526.0</ele><time>2026-04-28T11:54:29.936Z</time></trkpt><trkpt lat="36.93013" lon="-3.591385"><ele>526.0</ele><time>2026-04-28T11:54:30.937Z</time></trkpt><trkpt lat="36.9301" lon="-3.5912933"><ele>526.1666666666667</ele><time>2026-04-28T11:54:31.936Z</time></trkpt><trkpt lat="36.930055" lon="-3.5912167"><ele>526.3333333333334</ele><time>2026-04-28T11:54:32.937Z</time></trkpt><trkpt lat="36.9300133" lon="-3.5911483"><ele>526.5</ele><time>2026-04-28T11:54:33.937Z</time></trkpt><trkpt lat="36.92995" lon="-3.5910867"><ele>526.6666666666666</ele><time>2026-04-28T11:54:34.936Z</time></trkpt><trkpt lat="36.929855" lon="-3.591035"><ele>526.8333333333333</ele><time>2026-04-28T11:54:35.936Z</time></trkpt><trkpt lat="36.929775" lon="-3.590965"><ele>527.0</ele><time>2026-04-28T11:54:36.936Z</time></trkpt><trkpt lat="36.9297083" lon="-3.590885"><ele>526.0</ele><time>2026-04-28T11:54:37.937Z</time></trkpt><trkpt lat="36.929665" lon="-3.5907833"><ele>525.0</ele><time>2026-04-28T11:54:38.937Z</time></trkpt><trkpt lat="36.9296417" lon="-3.5906617"><ele>524.0</ele><time>2026-04-28T11:54:39.933Z</time></trkpt><trkpt lat="36.929635" lon="-3.5905317"><ele>523.0</ele><time>2026-04-28T11:54:40.937Z</time></trkpt><trkpt lat="36.9296383" lon="-3.590405"><ele>522.0</ele><time>2026-04-28T11:54:41.937Z</time></trkpt><trkpt lat="36.9296467" lon="-3.5902833"><ele>521.0</ele><time>2026-04-28T11:54:42.936Z</time></trkpt><trkpt lat="36.92965" lon="-3.590165"><ele>520.0</ele><time>2026-04-28T11:54:43.937Z</time></trkpt><trkpt lat="36.9296467" lon="-3.590045"><ele>519.0</ele><time>2026-04-28T11:54:44.937Z</time></trkpt><trkpt lat="36.92963" lon="-3.5899317"><ele>518.0</ele><time>2026-04-28T11:54:45.937Z</time></trkpt><trkpt lat="36.9295967" lon="-3.58982"><ele>517.0</ele><time>2026-04-28T11:54:46.939Z</time></trkpt><trkpt lat="36.92955" lon="-3.5897167"><ele>517.0</ele><time>2026-04-28T11:54:47.937Z</time></trkpt><trkpt lat="36.9294833" lon="-3.5896283"><ele>517.0</ele><time>2026-04-28T11:54:48.937Z</time></trkpt><trkpt lat="36.9294117" lon="-3.589545"><ele>517.0</ele><time>2026-04-28T11:54:49.936Z</time></trkpt><trkpt lat="36.929335" lon="-3.589465"><ele>517.0</ele><time>2026-04-28T11:54:50.936Z</time></trkpt><trkpt lat="36.9292583" lon="-3.589375"><ele>517.0</ele><time>2026-04-28T11:54:51.937Z</time></trkpt><trkpt lat="36.9291983" lon="-3.5892683"><ele>519.0</ele><time>2026-04-28T11:54:52.938Z</time></trkpt><trkpt lat="36.9291483" lon="-3.5891417"><ele>521.0</ele><time>2026-04-28T11:54:53.937Z</time></trkpt><trkpt lat="36.92911" lon="-3.5890067"><ele>523.0</ele><time>2026-04-28T11:54:54.936Z</time></trkpt><trkpt lat="36.92908" lon="-3.588875"><ele>525.0</ele><time>2026-04-28T11:54:55.937Z</time></trkpt><trkpt lat="36.9290533" lon="-3.5887417"><ele>527.0</ele><time>2026-04-28T11:54:56.937Z</time></trkpt><trkpt lat="36.9290533" lon="-3.5886083"><ele>527.0</ele><time>2026-04-28T11:54:57.936Z</time></trkpt><trkpt lat="36.9290717" lon="-3.5884817"><ele>527.0</ele><time>2026-04-28T11:54:58.937Z</time></trkpt><trkpt lat="36.929105" lon="-3.5883567"><ele>527.0</ele><time>2026-04-28T11:54:59.936Z</time></trkpt><trkpt lat="36.92914" lon="-3.5882367"><ele>527.0</ele><time>2026-04-28T11:55:00.937Z</time></trkpt><trkpt lat="36.9291733" lon="-3.58812"><ele>527.0</ele><time>2026-04-28T11:55:01.937Z</time></trkpt><trkpt lat="36.9291917" lon="-3.588"><ele>527.0</ele><time>2026-04-28T11:55:02.937Z</time></trkpt><trkpt lat="36.9292" lon="-3.5878817"><ele>527.0</ele><time>2026-04-28T11:55:03.936Z</time></trkpt><trkpt lat="36.9292083" lon="-3.5877683"><ele>527.0</ele><time>2026-04-28T11:55:04.936Z</time></trkpt><trkpt lat="36.929235" lon="-3.5876517"><ele>527.0</ele><time>2026-04-28T11:55:05.937Z</time></trkpt><trkpt lat="36.9292817" lon="-3.587555"><ele>527.0</ele><time>2026-04-28T11:55:06.937Z</time></trkpt><trkpt lat="36.9293517" lon="-3.5874817"><ele>524.8333333333333</ele><time>2026-04-28T11:55:07.937Z</time></trkpt><trkpt lat="36.9294433" lon="-3.5874267"><ele>522.6666666666666</ele><time>2026-04-28T11:55:08.94Z</time></trkpt><trkpt lat="36.9295133" lon="-3.58737"><ele>520.5</ele><time>2026-04-28T11:55:09.936Z</time></trkpt><trkpt lat="36.9295783" lon="-3.5873183"><ele>518.3333333333334</ele><time>2026-04-28T11:55:10.936Z</time></trkpt><trkpt lat="36.9296417" lon="-3.587265"><ele>516.1666666666667</ele><time>2026-04-28T11:55:11.938Z</time></trkpt><trkpt lat="36.9297033" lon="-3.5872117"><ele>514.0</ele><time>2026-04-28T11:55:12.937Z</time></trkpt><trkpt lat="36.92976" lon="-3.5871583"><ele>514.0</ele><time>2026-04-28T11:55:13.937Z</time></trkpt><trkpt lat="36.9298" lon="-3.58709"><ele>514.0</ele><time>2026-04-28T11:55:14.938Z</time></trkpt><trkpt lat="36.929825" lon="-3.5869967"><ele>514.0</ele><time>2026-04-28T11:55:15.936Z</time></trkpt><trkpt lat="36.9298433" lon="-3.5868883"><ele>514.0</ele><time>2026-04-28T11:55:16.936Z</time></trkpt><trkpt lat="36.9298733" lon="-3.586785"><ele>514.0</ele><time>2026-04-28T11:55:17.936Z</time></trkpt><trkpt lat="36.929895" lon="-3.5866883"><ele>514.0</ele><time>2026-04-28T11:55:18.934Z</time></trkpt><trkpt lat="36.9298767" lon="-3.5865933"><ele>514.1428571428571</ele><time>2026-04-28T11:55:19.936Z</time></trkpt><trkpt lat="36.92987" lon="-3.5865117"><ele>514.2857142857143</ele><time>2026-04-28T11:55:20.937Z</time></trkpt><trkpt lat="36.92984" lon="-3.5864367"><ele>514.4285714285714</ele><time>2026-04-28T11:55:21.937Z</time></trkpt><trkpt lat="36.929795" lon="-3.5863767"><ele>514.5714285714286</ele><time>2026-04-28T11:55:22.937Z</time></trkpt><trkpt lat="36.929735" lon="-3.5863117"><ele>514.7142857142857</ele><time>2026-04-28T11:55:23.938Z</time></trkpt><trkpt lat="36.9296733" lon="-3.5862533"><ele>514.8571428571429</ele><time>2026-04-28T11:55:24.937Z</time></trkpt><trkpt lat="36.9296167" lon="-3.586195"><ele>515.0</ele><time>2026-04-28T11:55:25.936Z</time></trkpt><trkpt lat="36.929565" lon="-3.5861467"><ele>514.3333333333333</ele><time>2026-04-28T11:55:26.937Z</time></trkpt><trkpt lat="36.9294517" lon="-3.5860683"><ele>513.6666666666666</ele><time>2026-04-28T11:55:28.936Z</time></trkpt><trkpt lat="36.929385" lon="-3.58604"><ele>513.0</ele><time>2026-04-28T11:55:29.937Z</time></trkpt><trkpt lat="36.929305" lon="-3.5860283"><ele>512.3333333333334</ele><time>2026-04-28T11:55:30.936Z</time></trkpt><trkpt lat="36.9292333" lon="-3.5860083"><ele>511.6666666666667</ele><time>2026-04-28T11:55:31.936Z</time></trkpt><trkpt lat="36.9291717" lon="-3.5859767"><ele>511.0</ele><time>2026-04-28T11:55:32.937Z</time></trkpt><trkpt lat="36.9291183" lon="-3.585925"><ele>512.4285714285714</ele><time>2026-04-28T11:55:33.937Z</time></trkpt><trkpt lat="36.9290617" lon="-3.58585"><ele>513.8571428571429</ele><time>2026-04-28T11:55:34.937Z</time></trkpt><trkpt lat="36.9290233" lon="-3.5857667"><ele>515.2857142857142</ele><time>2026-04-28T11:55:35.937Z</time></trkpt><trkpt lat="36.9290183" lon="-3.5856783"><ele>516.7142857142858</ele><time>2026-04-28T11:55:36.937Z</time></trkpt><trkpt lat="36.929035" lon="-3.5856"><ele>518.1428571428571</ele><time>2026-04-28T11:55:37.936Z</time></trkpt><trkpt lat="36.9290733" lon="-3.585535"><ele>519.5714285714286</ele><time>2026-04-28T11:55:38.938Z</time></trkpt><trkpt lat="36.929135" lon="-3.5854917"><ele>521.0</ele><time>2026-04-28T11:55:39.937Z</time></trkpt><trkpt lat="36.92922" lon="-3.58547"><ele>520.1666666666666</ele><time>2026-04-28T11:55:40.937Z</time></trkpt><trkpt lat="36.929295" lon="-3.5854417"><ele>519.3333333333333</ele><time>2026-04-28T11:55:41.933Z</time></trkpt><trkpt lat="36.9293533" lon="-3.5853933"><ele>518.5</ele><time>2026-04-28T11:55:42.938Z</time></trkpt><trkpt lat="36.9294083" lon="-3.5853483"><ele>517.6666666666666</ele><time>2026-04-28T11:55:43.938Z</time></trkpt><trkpt lat="36.92949" lon="-3.585325"><ele>516.8333333333334</ele><time>2026-04-28T11:55:44.937Z</time></trkpt><trkpt lat="36.929575" lon="-3.585295"><ele>516.0</ele><time>2026-04-28T11:55:45.937Z</time></trkpt><trkpt lat="36.929635" lon="-3.5852467"><ele>515.9999999999999</ele><time>2026-04-28T11:55:46.937Z</time></trkpt><trkpt lat="36.92968" lon="-3.5851833"><ele>516.0</ele><time>2026-04-28T11:55:47.939Z</time></trkpt><trkpt lat="36.9297117" lon="-3.585115"><ele>516.0</ele><time>2026-04-28T11:55:48.937Z</time></trkpt><trkpt lat="36.929745" lon="-3.5849883"><ele>516.0</ele><time>2026-04-28T11:55:50.938Z</time></trkpt><trkpt lat="36.92974" lon="-3.5849083"><ele>516.0</ele><time>2026-04-28T11:55:51.937Z</time></trkpt><trkpt lat="36.929745" lon="-3.5848267"><ele>515.9999999999999</ele><time>2026-04-28T11:55:52.938Z</time></trkpt><trkpt lat="36.92975" lon="-3.58474"><ele>516.0</ele><time>2026-04-28T11:55:53.937Z</time></trkpt><trkpt lat="36.9297433" lon="-3.5846483"><ele>516.0</ele><time>2026-04-28T11:55:54.937Z</time></trkpt><trkpt lat="36.9297483" lon="-3.5845533"><ele>516.0</ele><time>2026-04-28T11:55:55.937Z</time></trkpt><trkpt lat="36.92974" lon="-3.5844617"><ele>516.0</ele><time>2026-04-28T11:55:56.938Z</time></trkpt><trkpt lat="36.9297433" lon="-3.58437"><ele>516.0</ele><time>2026-04-28T11:55:57.937Z</time></trkpt><trkpt lat="36.92976" lon="-3.5842817"><ele>516.0</ele><time>2026-04-28T11:55:58.934Z</time></trkpt><trkpt lat="36.929795" lon="-3.5841917"><ele>516.0</ele><time>2026-04-28T11:55:59.937Z</time></trkpt><trkpt lat="36.9298383" lon="-3.5841083"><ele>515.1666666666666</ele><time>2026-04-28T11:56:00.937Z</time></trkpt><trkpt lat="36.9298833" lon="-3.5840267"><ele>514.3333333333334</ele><time>2026-04-28T11:56:01.937Z</time></trkpt><trkpt lat="36.9299217" lon="-3.5839483"><ele>513.5</ele><time>2026-04-28T11:56:02.937Z</time></trkpt><trkpt lat="36.929955" lon="-3.58386"><ele>512.6666666666667</ele><time>2026-04-28T11:56:03.937Z</time></trkpt><trkpt lat="36.929985" lon="-3.5837867"><ele>511.83333333333337</ele><time>2026-04-28T11:56:04.937Z</time></trkpt><trkpt lat="36.9300267" lon="-3.5837267"><ele>511.0</ele><time>2026-04-28T11:56:05.935Z</time></trkpt><trkpt lat="36.9300867" lon="-3.5836217"><ele>511.0</ele><time>2026-04-28T11:56:07.935Z</time></trkpt><trkpt lat="36.93011" lon="-3.58351"><ele>511.0</ele><time>2026-04-28T11:56:18.936Z</time></trkpt><trkpt lat="36.9300083" lon="-3.5834467"><ele>511.0</ele><time>2026-04-28T11:56:20.935Z</time></trkpt><trkpt lat="36.9299" lon="-3.5833883"><ele>511.0</ele><time>2026-04-28T11:56:22.935Z</time></trkpt><trkpt lat="36.9298317" lon="-3.5833483"><ele>511.0</ele><time>2026-04-28T11:56:23.935Z</time></trkpt><trkpt lat="36.9297117" lon="-3.5833"><ele>515.0</ele><time>2026-04-28T11:56:25.937Z</time></trkpt><trkpt lat="36.9296483" lon="-3.5833"><ele>519.0</ele><time>2026-04-28T11:56:26.939Z</time></trkpt><trkpt lat="36.929585" lon="-3.5832967"><ele>523.0</ele><time>2026-04-28T11:56:27.937Z</time></trkpt><trkpt lat="36.9294667" lon="-3.583265"><ele>527.0</ele><time>2026-04-28T11:56:29.937Z</time></trkpt><trkpt lat="36.92939" lon="-3.5832217"><ele>531.0</ele><time>2026-04-28T11:56:30.937Z</time></trkpt><trkpt lat="36.929325" lon="-3.583145"><ele>535.0</ele><time>2026-04-28T11:56:31.934Z</time></trkpt><trkpt lat="36.92927" lon="-3.5830433"><ele>535.8</ele><time>2026-04-28T11:56:32.936Z</time></trkpt><trkpt lat="36.9292167" lon="-3.58293"><ele>536.6</ele><time>2026-04-28T11:56:33.934Z</time></trkpt><trkpt lat="36.9291767" lon="-3.5828217"><ele>537.4</ele><time>2026-04-28T11:56:34.934Z</time></trkpt><trkpt lat="36.92914" lon="-3.5827133"><ele>538.2</ele><time>2026-04-28T11:56:35.938Z</time></trkpt><trkpt lat="36.9291033" lon="-3.5826167"><ele>539.0</ele><time>2026-04-28T11:56:36.937Z</time></trkpt><trkpt lat="36.9290617" lon="-3.5825283"><ele>539.0</ele><time>2026-04-28T11:56:37.937Z</time></trkpt><trkpt lat="36.9290217" lon="-3.5824433"><ele>539.0</ele><time>2026-04-28T11:56:38.936Z</time></trkpt><trkpt lat="36.9289867" lon="-3.5823617"><ele>539.0</ele><time>2026-04-28T11:56:39.934Z</time></trkpt><trkpt lat="36.9289583" lon="-3.5822783"><ele>539.0</ele><time>2026-04-28T11:56:40.937Z</time></trkpt><trkpt lat="36.9289017" lon="-3.5822117"><ele>539.0</ele><time>2026-04-28T11:56:41.936Z</time></trkpt><trkpt lat="36.9288417" lon="-3.5821533"><ele>539.0</ele><time>2026-04-28T11:56:42.935Z</time></trkpt><trkpt lat="36.9287667" lon="-3.5820917"><ele>539.25</ele><time>2026-04-28T11:56:43.935Z</time></trkpt><trkpt lat="36.9286917" lon="-3.5819983"><ele>539.5</ele><time>2026-04-28T11:56:44.937Z</time></trkpt><trkpt lat="36.9286183" lon="-3.5818917"><ele>539.75</ele><time>2026-04-28T11:56:45.934Z</time></trkpt><trkpt lat="36.928545" lon="-3.5817717"><ele>540.0</ele><time>2026-04-28T11:56:46.937Z</time></trkpt><trkpt lat="36.928465" lon="-3.5816517"><ele>539.5</ele><time>2026-04-28T11:56:47.935Z</time></trkpt><trkpt lat="36.92839" lon="-3.5815333"><ele>539.0</ele><time>2026-04-28T11:56:48.934Z</time></trkpt><trkpt lat="36.9283167" lon="-3.58141"><ele>538.5</ele><time>2026-04-28T11:56:49.936Z</time></trkpt><trkpt lat="36.9282433" lon="-3.5812867"><ele>538.0</ele><time>2026-04-28T11:56:50.936Z</time></trkpt><trkpt lat="36.9281717" lon="-3.5811667"><ele>538.0</ele><time>2026-04-28T11:56:51.936Z</time></trkpt><trkpt lat="36.9281083" lon="-3.5810433"><ele>538.0</ele><time>2026-04-28T11:56:52.935Z</time></trkpt><trkpt lat="36.928045" lon="-3.580925"><ele>538.0</ele><time>2026-04-28T11:56:53.935Z</time></trkpt><trkpt lat="36.9279867" lon="-3.5808133"><ele>538.0</ele><time>2026-04-28T11:56:54.938Z</time></trkpt><trkpt lat="36.9279283" lon="-3.5807067"><ele>538.0</ele><time>2026-04-28T11:56:55.937Z</time></trkpt><trkpt lat="36.927865" lon="-3.5805983"><ele>538.0</ele><time>2026-04-28T11:56:56.937Z</time></trkpt><trkpt lat="36.9277983" lon="-3.5804983"><ele>538.0</ele><time>2026-04-28T11:56:57.938Z</time></trkpt><trkpt lat="36.92772" lon="-3.5804167"><ele>538.0</ele><time>2026-04-28T11:56:58.937Z</time></trkpt><trkpt lat="36.9276267" lon="-3.580355"><ele>538.0</ele><time>2026-04-28T11:56:59.936Z</time></trkpt><trkpt lat="36.927525" lon="-3.5803133"><ele>538.0</ele><time>2026-04-28T11:57:00.934Z</time></trkpt><trkpt lat="36.92742" lon="-3.5802717"><ele>539.6</ele><time>2026-04-28T11:57:01.935Z</time></trkpt><trkpt lat="36.927315" lon="-3.5802283"><ele>541.1999999999999</ele><time>2026-04-28T11:57:02.938Z</time></trkpt><trkpt lat="36.92721" lon="-3.580185"><ele>542.8</ele><time>2026-04-28T11:57:03.937Z</time></trkpt><trkpt lat="36.9271133" lon="-3.5801417"><ele>544.4</ele><time>2026-04-28T11:57:04.937Z</time></trkpt><trkpt lat="36.9270233" lon="-3.5801083"><ele>546.0</ele><time>2026-04-28T11:57:05.938Z</time></trkpt><trkpt lat="36.9269333" lon="-3.5800717"><ele>546.0</ele><time>2026-04-28T11:57:06.937Z</time></trkpt><trkpt lat="36.9268517" lon="-3.58003"><ele>546.0</ele><time>2026-04-28T11:57:07.937Z</time></trkpt><trkpt lat="36.9267867" lon="-3.5799683"><ele>546.0</ele><time>2026-04-28T11:57:08.937Z</time></trkpt><trkpt lat="36.9267267" lon="-3.5798817"><ele>546.0</ele><time>2026-04-28T11:57:09.937Z</time></trkpt><trkpt lat="36.9266767" lon="-3.5797683"><ele>546.0</ele><time>2026-04-28T11:57:10.937Z</time></trkpt><trkpt lat="36.9266417" lon="-3.5796383"><ele>547.8</ele><time>2026-04-28T11:57:11.937Z</time></trkpt><trkpt lat="36.9266133" lon="-3.5795033"><ele>549.6</ele><time>2026-04-28T11:57:12.937Z</time></trkpt><trkpt lat="36.9265783" lon="-3.5793883"><ele>551.4</ele><time>2026-04-28T11:57:13.937Z</time></trkpt><trkpt lat="36.92655" lon="-3.5792833"><ele>553.2</ele><time>2026-04-28T11:57:14.938Z</time></trkpt><trkpt lat="36.926535" lon="-3.5791767"><ele>555.0</ele><time>2026-04-28T11:57:15.937Z</time></trkpt><trkpt lat="36.9265317" lon="-3.5790783"><ele>555.0</ele><time>2026-04-28T11:57:16.938Z</time></trkpt><trkpt lat="36.9265433" lon="-3.57898"><ele>555.0</ele><time>2026-04-28T11:57:17.935Z</time></trkpt><trkpt lat="36.9265533" lon="-3.578885"><ele>555.0</ele><time>2026-04-28T11:57:18.935Z</time></trkpt><trkpt lat="36.9265717" lon="-3.578805"><ele>555.0</ele><time>2026-04-28T11:57:19.935Z</time></trkpt><trkpt lat="36.926625" lon="-3.5787217"><ele>555.0</ele><time>2026-04-28T11:57:20.937Z</time></trkpt><trkpt lat="36.9266717" lon="-3.5786333"><ele>555.0</ele><time>2026-04-28T11:57:21.936Z</time></trkpt><trkpt lat="36.9266883" lon="-3.5785367"><ele>555.6666666666666</ele><time>2026-04-28T11:57:22.935Z</time></trkpt><trkpt lat="36.9267" lon="-3.578435"><ele>556.3333333333334</ele><time>2026-04-28T11:57:23.935Z</time></trkpt><trkpt lat="36.9266917" lon="-3.5783333"><ele>557.0</ele><time>2026-04-28T11:57:24.938Z</time></trkpt><trkpt lat="36.9266717" lon="-3.5782267"><ele>557.6666666666667</ele><time>2026-04-28T11:57:25.937Z</time></trkpt><trkpt lat="36.9266267" lon="-3.5781267"><ele>558.3333333333334</ele><time>2026-04-28T11:57:26.937Z</time></trkpt><trkpt lat="36.926585" lon="-3.57804"><ele>559.0</ele><time>2026-04-28T11:57:27.937Z</time></trkpt><trkpt lat="36.92655" lon="-3.5779333"><ele>558.6666666666667</ele><time>2026-04-28T11:57:28.937Z</time></trkpt><trkpt lat="36.92654" lon="-3.5778167"><ele>558.3333333333334</ele><time>2026-04-28T11:57:29.938Z</time></trkpt><trkpt lat="36.92655" lon="-3.57771"><ele>558.0</ele><time>2026-04-28T11:57:30.937Z</time></trkpt><trkpt lat="36.9265633" lon="-3.5776083"><ele>557.6666666666666</ele><time>2026-04-28T11:57:31.937Z</time></trkpt><trkpt lat="36.92657" lon="-3.5775183"><ele>557.3333333333333</ele><time>2026-04-28T11:57:32.937Z</time></trkpt><trkpt lat="36.9265667" lon="-3.5774317"><ele>557.0</ele><time>2026-04-28T11:57:33.938Z</time></trkpt><trkpt lat="36.9265183" lon="-3.577285"><ele>557.0</ele><time>2026-04-28T11:57:35.937Z</time></trkpt><trkpt lat="36.9264583" lon="-3.5772333"><ele>557.0</ele><time>2026-04-28T11:57:36.937Z</time></trkpt><trkpt lat="36.9263783" lon="-3.5772017"><ele>557.0</ele><time>2026-04-28T11:57:37.937Z</time></trkpt><trkpt lat="36.92629" lon="-3.57719"><ele>557.0</ele><time>2026-04-28T11:57:38.938Z</time></trkpt><trkpt lat="36.9262083" lon="-3.577175"><ele>557.0</ele><time>2026-04-28T11:57:39.937Z</time></trkpt><trkpt lat="36.926135" lon="-3.577145"><ele>557.0</ele><time>2026-04-28T11:57:40.937Z</time></trkpt><trkpt lat="36.9260567" lon="-3.5771583"><ele>557.0</ele><time>2026-04-28T11:57:41.937Z</time></trkpt><trkpt lat="36.925955" lon="-3.5771733"><ele>557.0</ele><time>2026-04-28T11:57:42.937Z</time></trkpt><trkpt lat="36.9258517" lon="-3.5771867"><ele>557.0</ele><time>2026-04-28T11:57:43.937Z</time></trkpt><trkpt lat="36.9257367" lon="-3.5772"><ele>557.0</ele><time>2026-04-28T11:57:44.938Z</time></trkpt><trkpt lat="36.92562" lon="-3.5772483"><ele>557.0</ele><time>2026-04-28T11:57:45.937Z</time></trkpt><trkpt lat="36.9255067" lon="-3.5773083"><ele>560.4</ele><time>2026-04-28T11:57:46.937Z</time></trkpt><trkpt lat="36.9254017" lon="-3.5773517"><ele>563.8000000000001</ele><time>2026-04-28T11:57:47.936Z</time></trkpt><trkpt lat="36.9253033" lon="-3.5774017"><ele>567.2</ele><time>2026-04-28T11:57:48.936Z</time></trkpt><trkpt lat="36.9252017" lon="-3.5774617"><ele>570.6</ele><time>2026-04-28T11:57:49.934Z</time></trkpt><trkpt lat="36.9251033" lon="-3.5775183"><ele>574.0</ele><time>2026-04-28T11:57:50.936Z</time></trkpt><trkpt lat="36.9250083" lon="-3.5775917"><ele>574.0</ele><time>2026-04-28T11:57:51.934Z</time></trkpt><trkpt lat="36.9249133" lon="-3.57767"><ele>574.0</ele><time>2026-04-28T11:57:52.938Z</time></trkpt><trkpt lat="36.9248233" lon="-3.5777617"><ele>574.0</ele><time>2026-04-28T11:57:53.934Z</time></trkpt><trkpt lat="36.9247383" lon="-3.5778517"><ele>574.0</ele><time>2026-04-28T11:57:54.937Z</time></trkpt><trkpt lat="36.92466" lon="-3.5779417"><ele>574.0</ele><time>2026-04-28T11:57:55.937Z</time></trkpt><trkpt lat="36.9245817" lon="-3.578035"><ele>576.4</ele><time>2026-04-28T11:57:56.937Z</time></trkpt><trkpt lat="36.9245067" lon="-3.5781183"><ele>578.8</ele><time>2026-04-28T11:57:57.937Z</time></trkpt><trkpt lat="36.9244283" lon="-3.5781817"><ele>581.2</ele><time>2026-04-28T11:57:58.937Z</time></trkpt><trkpt lat="36.924335" lon="-3.5782217"><ele>583.6</ele><time>2026-04-28T11:57:59.937Z</time></trkpt><trkpt lat="36.9242367" lon="-3.57824"><ele>586.0</ele><time>2026-04-28T11:58:00.937Z</time></trkpt><trkpt lat="36.9241283" lon="-3.57823"><ele>586.0</ele><time>2026-04-28T11:58:01.937Z</time></trkpt><trkpt lat="36.92402" lon="-3.5782067"><ele>586.0</ele><time>2026-04-28T11:58:02.938Z</time></trkpt><trkpt lat="36.923915" lon="-3.5781883"><ele>586.0</ele><time>2026-04-28T11:58:03.937Z</time></trkpt><trkpt lat="36.9238033" lon="-3.578195"><ele>586.0</ele><time>2026-04-28T11:58:04.937Z</time></trkpt><trkpt lat="36.9236917" lon="-3.57822"><ele>586.0</ele><time>2026-04-28T11:58:05.937Z</time></trkpt><trkpt lat="36.9235817" lon="-3.5782583"><ele>586.0</ele><time>2026-04-28T11:58:06.939Z</time></trkpt><trkpt lat="36.9234767" lon="-3.578295"><ele>586.0</ele><time>2026-04-28T11:58:07.937Z</time></trkpt><trkpt lat="36.9233767" lon="-3.578315"><ele>586.0</ele><time>2026-04-28T11:58:08.938Z</time></trkpt><trkpt lat="36.9232783" lon="-3.578315"><ele>586.0</ele><time>2026-04-28T11:58:09.937Z</time></trkpt><trkpt lat="36.9231817" lon="-3.5782883"><ele>586.0</ele><time>2026-04-28T11:58:10.937Z</time></trkpt><trkpt lat="36.9230983" lon="-3.5782383"><ele>586.3333333333334</ele><time>2026-04-28T11:58:11.937Z</time></trkpt><trkpt lat="36.9230283" lon="-3.5781917"><ele>586.6666666666667</ele><time>2026-04-28T11:58:12.937Z</time></trkpt><trkpt lat="36.9229567" lon="-3.5781767"><ele>587.0</ele><time>2026-04-28T11:58:13.937Z</time></trkpt><trkpt lat="36.922875" lon="-3.5781617"><ele>587.3333333333334</ele><time>2026-04-28T11:58:14.938Z</time></trkpt><trkpt lat="36.9227683" lon="-3.578165"><ele>587.6666666666666</ele><time>2026-04-28T11:58:15.937Z</time></trkpt><trkpt lat="36.9226733" lon="-3.5781733"><ele>588.0</ele><time>2026-04-28T11:58:16.937Z</time></trkpt><trkpt lat="36.9225833" lon="-3.5782067"><ele>588.6</ele><time>2026-04-28T11:58:17.935Z</time></trkpt><trkpt lat="36.9224867" lon="-3.5782417"><ele>589.1999999999999</ele><time>2026-04-28T11:58:18.935Z</time></trkpt><trkpt lat="36.9223883" lon="-3.5782733"><ele>589.8</ele><time>2026-04-28T11:58:19.936Z</time></trkpt><trkpt lat="36.92228" lon="-3.5782817"><ele>590.4</ele><time>2026-04-28T11:58:20.935Z</time></trkpt><trkpt lat="36.92217" lon="-3.5782683"><ele>591.0</ele><time>2026-04-28T11:58:21.937Z</time></trkpt><trkpt lat="36.9220617" lon="-3.578235"><ele>591.0</ele><time>2026-04-28T11:58:22.936Z</time></trkpt><trkpt lat="36.9219517" lon="-3.5781983"><ele>591.0</ele><time>2026-04-28T11:58:23.937Z</time></trkpt><trkpt lat="36.9218383" lon="-3.57815"><ele>591.0</ele><time>2026-04-28T11:58:24.939Z</time></trkpt><trkpt lat="36.9217283" lon="-3.5781"><ele>591.0</ele><time>2026-04-28T11:58:25.937Z</time></trkpt><trkpt lat="36.9216217" lon="-3.57805"><ele>592.2</ele><time>2026-04-28T11:58:26.936Z</time></trkpt><trkpt lat="36.92152" lon="-3.5779983"><ele>593.4000000000001</ele><time>2026-04-28T11:58:27.937Z</time></trkpt><trkpt lat="36.921425" lon="-3.5779267"><ele>594.6</ele><time>2026-04-28T11:58:28.937Z</time></trkpt><trkpt lat="36.921325" lon="-3.577875"><ele>595.8000000000001</ele><time>2026-04-28T11:58:29.937Z</time></trkpt><trkpt lat="36.9212117" lon="-3.577845"><ele>597.0</ele><time>2026-04-28T11:58:30.937Z</time></trkpt><trkpt lat="36.9210933" lon="-3.577845"><ele>597.0</ele><time>2026-04-28T11:58:31.937Z</time></trkpt><trkpt lat="36.9209767" lon="-3.5778433"><ele>597.0</ele><time>2026-04-28T11:58:32.938Z</time></trkpt><trkpt lat="36.9208667" lon="-3.5778333"><ele>597.0</ele><time>2026-04-28T11:58:33.938Z</time></trkpt><trkpt lat="36.920755" lon="-3.5778233"><ele>597.0</ele><time>2026-04-28T11:58:34.937Z</time></trkpt><trkpt lat="36.9206517" lon="-3.577815"><ele>597.0</ele><time>2026-04-28T11:58:35.937Z</time></trkpt><trkpt lat="36.920565" lon="-3.57781"><ele>598.8333333333334</ele><time>2026-04-28T11:58:36.937Z</time></trkpt><trkpt lat="36.9204883" lon="-3.57779"><ele>600.6666666666666</ele><time>2026-04-28T11:58:37.937Z</time></trkpt><trkpt lat="36.9204233" lon="-3.5777617"><ele>602.5</ele><time>2026-04-28T11:58:38.939Z</time></trkpt><trkpt lat="36.9203467" lon="-3.5776483"><ele>604.3333333333333</ele><time>2026-04-28T11:58:40.938Z</time></trkpt><trkpt lat="36.9203267" lon="-3.5775567"><ele>606.1666666666666</ele><time>2026-04-28T11:58:41.937Z</time></trkpt><trkpt lat="36.9203133" lon="-3.5774633"><ele>608.0</ele><time>2026-04-28T11:58:42.937Z</time></trkpt><trkpt lat="36.920295" lon="-3.5773817"><ele>608.0</ele><time>2026-04-28T11:58:43.938Z</time></trkpt><trkpt lat="36.9203167" lon="-3.5772433"><ele>608.0</ele><time>2026-04-28T11:58:45.935Z</time></trkpt><trkpt lat="36.9203783" lon="-3.577185"><ele>608.0</ele><time>2026-04-28T11:58:46.938Z</time></trkpt><trkpt lat="36.9204467" lon="-3.5771433"><ele>608.0</ele><time>2026-04-28T11:58:47.937Z</time></trkpt><trkpt lat="36.9205383" lon="-3.5771117"><ele>608.0</ele><time>2026-04-28T11:58:48.937Z</time></trkpt><trkpt lat="36.9206417" lon="-3.5770683"><ele>607.4</ele><time>2026-04-28T11:58:49.937Z</time></trkpt><trkpt lat="36.9207433" lon="-3.5770133"><ele>606.8</ele><time>2026-04-28T11:58:50.936Z</time></trkpt><trkpt lat="36.9208333" lon="-3.5769533"><ele>606.2</ele><time>2026-04-28T11:58:51.935Z</time></trkpt><trkpt lat="36.9208933" lon="-3.5769033"><ele>605.6</ele><time>2026-04-28T11:58:52.934Z</time></trkpt><trkpt lat="36.92098" lon="-3.57685"><ele>605.0</ele><time>2026-04-28T11:58:53.936Z</time></trkpt><trkpt lat="36.9210383" lon="-3.5767933"><ele>605.0</ele><time>2026-04-28T11:58:54.936Z</time></trkpt><trkpt lat="36.9211217" lon="-3.5767067"><ele>605.0</ele><time>2026-04-28T11:58:55.937Z</time></trkpt><trkpt lat="36.9211717" lon="-3.5766083"><ele>605.0</ele><time>2026-04-28T11:58:56.937Z</time></trkpt><trkpt lat="36.9212133" lon="-3.5764917"><ele>605.0</ele><time>2026-04-28T11:58:57.937Z</time></trkpt><trkpt lat="36.921235" lon="-3.57635"><ele>605.0</ele><time>2026-04-28T11:58:58.937Z</time></trkpt><trkpt lat="36.9212467" lon="-3.5762217"><ele>604.8</ele><time>2026-04-28T11:58:59.937Z</time></trkpt><trkpt lat="36.92125" lon="-3.576105"><ele>604.6</ele><time>2026-04-28T11:59:00.937Z</time></trkpt><trkpt lat="36.9212417" lon="-3.5759933"><ele>604.4</ele><time>2026-04-28T11:59:01.937Z</time></trkpt><trkpt lat="36.92121" lon="-3.57589"><ele>604.2</ele><time>2026-04-28T11:59:02.938Z</time></trkpt><trkpt lat="36.9211633" lon="-3.575785"><ele>604.0</ele><time>2026-04-28T11:59:03.937Z</time></trkpt><trkpt lat="36.9210883" lon="-3.5756967"><ele>604.0</ele><time>2026-04-28T11:59:04.938Z</time></trkpt><trkpt lat="36.9210117" lon="-3.5756117"><ele>604.0</ele><time>2026-04-28T11:59:05.938Z</time></trkpt><trkpt lat="36.9209567" lon="-3.5755033"><ele>604.0</ele><time>2026-04-28T11:59:06.937Z</time></trkpt><trkpt lat="36.9209167" lon="-3.57538"><ele>604.0</ele><time>2026-04-28T11:59:07.937Z</time></trkpt><trkpt lat="36.9208983" lon="-3.57525"><ele>604.0</ele><time>2026-04-28T11:59:08.937Z</time></trkpt><trkpt lat="36.920885" lon="-3.5751267"><ele>606.8333333333334</ele><time>2026-04-28T11:59:09.937Z</time></trkpt><trkpt lat="36.9208767" lon="-3.57502"><ele>609.6666666666667</ele><time>2026-04-28T11:59:10.938Z</time></trkpt><trkpt lat="36.9208617" lon="-3.57492"><ele>612.5</ele><time>2026-04-28T11:59:11.937Z</time></trkpt><trkpt lat="36.92084" lon="-3.5748183"><ele>615.3333333333334</ele><time>2026-04-28T11:59:12.937Z</time></trkpt><trkpt lat="36.9207917" lon="-3.5747133"><ele>618.1666666666666</ele><time>2026-04-28T11:59:13.937Z</time></trkpt><trkpt lat="36.9207317" lon="-3.5746133"><ele>621.0</ele><time>2026-04-28T11:59:14.938Z</time></trkpt><trkpt lat="36.9206617" lon="-3.57451"><ele>621.0</ele><time>2026-04-28T11:59:15.938Z</time></trkpt><trkpt lat="36.9206067" lon="-3.574405"><ele>621.0</ele><time>2026-04-28T11:59:16.938Z</time></trkpt><trkpt lat="36.92056" lon="-3.57431"><ele>621.0</ele><time>2026-04-28T11:59:17.935Z</time></trkpt><trkpt lat="36.9205183" lon="-3.5742267"><ele>621.0</ele><time>2026-04-28T11:59:18.937Z</time></trkpt><trkpt lat="36.9204767" lon="-3.5741517"><ele>621.0</ele><time>2026-04-28T11:59:19.935Z</time></trkpt><trkpt lat="36.9204267" lon="-3.5740933"><ele>621.0</ele><time>2026-04-28T11:59:20.936Z</time></trkpt><trkpt lat="36.9203583" lon="-3.57406"><ele>621.0</ele><time>2026-04-28T11:59:21.937Z</time></trkpt><trkpt lat="36.9202883" lon="-3.5740533"><ele>621.0</ele><time>2026-04-28T11:59:22.935Z</time></trkpt><trkpt lat="36.9202133" lon="-3.5740767"><ele>621.0</ele><time>2026-04-28T11:59:23.936Z</time></trkpt><trkpt lat="36.9201467" lon="-3.5741033"><ele>621.0</ele><time>2026-04-28T11:59:24.938Z</time></trkpt><trkpt lat="36.920065" lon="-3.5741183"><ele>621.0</ele><time>2026-04-28T11:59:25.937Z</time></trkpt><trkpt lat="36.9199917" lon="-3.5741033"><ele>621.0</ele><time>2026-04-28T11:59:26.938Z</time></trkpt><trkpt lat="36.91993" lon="-3.57404"><ele>624.5</ele><time>2026-04-28T11:59:27.938Z</time></trkpt><trkpt lat="36.9198933" lon="-3.5739467"><ele>628.0</ele><time>2026-04-28T11:59:28.935Z</time></trkpt><trkpt lat="36.91988" lon="-3.5738467"><ele>631.5</ele><time>2026-04-28T11:59:29.936Z</time></trkpt><trkpt lat="36.919895" lon="-3.573745"><ele>635.0</ele><time>2026-04-28T11:59:30.935Z</time></trkpt><trkpt lat="36.9199483" lon="-3.5736467"><ele>638.5</ele><time>2026-04-28T11:59:31.935Z</time></trkpt><trkpt lat="36.9199933" lon="-3.57357"><ele>642.0</ele><time>2026-04-28T11:59:32.936Z</time></trkpt><trkpt lat="36.9200367" lon="-3.5735"><ele>642.0</ele><time>2026-04-28T11:59:33.935Z</time></trkpt><trkpt lat="36.9200733" lon="-3.573425"><ele>642.0</ele><time>2026-04-28T11:59:34.934Z</time></trkpt><trkpt lat="36.920085" lon="-3.57334"><ele>642.0</ele><time>2026-04-28T11:59:35.935Z</time></trkpt><trkpt lat="36.9200783" lon="-3.5732417"><ele>642.0</ele><time>2026-04-28T11:59:36.936Z</time></trkpt><trkpt lat="36.9200367" lon="-3.5731417"><ele>642.0</ele><time>2026-04-28T11:59:37.936Z</time></trkpt><trkpt lat="36.91998" lon="-3.5730367"><ele>642.0</ele><time>2026-04-28T11:59:38.935Z</time></trkpt><trkpt lat="36.919915" lon="-3.57293"><ele>639.6</ele><time>2026-04-28T11:59:39.935Z</time></trkpt><trkpt lat="36.9198483" lon="-3.57282"><ele>637.2</ele><time>2026-04-28T11:59:40.935Z</time></trkpt><trkpt lat="36.9197783" lon="-3.5727117"><ele>634.8</ele><time>2026-04-28T11:59:41.936Z</time></trkpt><trkpt lat="36.919715" lon="-3.5726083"><ele>632.4</ele><time>2026-04-28T11:59:42.936Z</time></trkpt><trkpt lat="36.91965" lon="-3.5725117"><ele>630.0</ele><time>2026-04-28T11:59:43.936Z</time></trkpt><trkpt lat="36.9195917" lon="-3.5724217"><ele>630.0</ele><time>2026-04-28T11:59:44.936Z</time></trkpt><trkpt lat="36.9195417" lon="-3.5723433"><ele>630.0</ele><time>2026-04-28T11:59:45.938Z</time></trkpt><trkpt lat="36.9194917" lon="-3.57228"><ele>630.0</ele><time>2026-04-28T11:59:46.938Z</time></trkpt><trkpt lat="36.91944" lon="-3.5722233"><ele>630.0</ele><time>2026-04-28T11:59:47.938Z</time></trkpt><trkpt lat="36.91937" lon="-3.572185"><ele>630.0</ele><time>2026-04-28T11:59:48.938Z</time></trkpt><trkpt lat="36.9192583" lon="-3.5721417"><ele>630.0</ele><time>2026-04-28T11:59:50.939Z</time></trkpt><trkpt lat="36.9191767" lon="-3.5721917"><ele>634.5</ele><time>2026-04-28T11:59:51.937Z</time></trkpt><trkpt lat="36.919095" lon="-3.5722433"><ele>639.0</ele><time>2026-04-28T11:59:52.938Z</time></trkpt><trkpt lat="36.919015" lon="-3.5722667"><ele>643.5</ele><time>2026-04-28T11:59:53.938Z</time></trkpt><trkpt lat="36.91893" lon="-3.5723233"><ele>648.0</ele><time>2026-04-28T11:59:54.938Z</time></trkpt><trkpt lat="36.9188683" lon="-3.572385"><ele>652.5</ele><time>2026-04-28T11:59:55.938Z</time></trkpt><trkpt lat="36.9188133" lon="-3.5724483"><ele>657.0</ele><time>2026-04-28T11:59:56.939Z</time></trkpt><trkpt lat="36.9187517" lon="-3.5725183"><ele>657.0</ele><time>2026-04-28T11:59:57.937Z</time></trkpt><trkpt lat="36.91867" lon="-3.5725433"><ele>657.0</ele><time>2026-04-28T11:59:58.935Z</time></trkpt><trkpt lat="36.91858" lon="-3.5725167"><ele>657.0</ele><time>2026-04-28T11:59:59.936Z</time></trkpt><trkpt lat="36.9184983" lon="-3.5724733"><ele>657.0</ele><time>2026-04-28T12:00:00.935Z</time></trkpt><trkpt lat="36.91843" lon="-3.572425"><ele>657.0</ele><time>2026-04-28T12:00:01.935Z</time></trkpt><trkpt lat="36.91836" lon="-3.5723533"><ele>657.0</ele><time>2026-04-28T12:00:02.935Z</time></trkpt><trkpt lat="36.918295" lon="-3.5722667"><ele>657.0</ele><time>2026-04-28T12:00:03.937Z</time></trkpt><trkpt lat="36.9182533" lon="-3.5721483"><ele>657.0</ele><time>2026-04-28T12:00:04.933Z</time></trkpt><trkpt lat="36.91824" lon="-3.57199"><ele>657.0</ele><time>2026-04-28T12:00:05.935Z</time></trkpt><trkpt lat="36.9182167" lon="-3.571845"><ele>657.0</ele><time>2026-04-28T12:00:06.934Z</time></trkpt><trkpt lat="36.9182167" lon="-3.5716867"><ele>657.5</ele><time>2026-04-28T12:00:07.934Z</time></trkpt><trkpt lat="36.918225" lon="-3.5715233"><ele>658.0</ele><time>2026-04-28T12:00:08.934Z</time></trkpt><trkpt lat="36.9182267" lon="-3.5713667"><ele>658.5</ele><time>2026-04-28T12:00:09.934Z</time></trkpt><trkpt lat="36.9182133" lon="-3.57121"><ele>659.0</ele><time>2026-04-28T12:00:10.937Z</time></trkpt><trkpt lat="36.91819" lon="-3.5710567"><ele>659.0</ele><time>2026-04-28T12:00:11.936Z</time></trkpt><trkpt lat="36.9181683" lon="-3.5709017"><ele>659.0</ele><time>2026-04-28T12:00:12.936Z</time></trkpt><trkpt lat="36.9181433" lon="-3.57075"><ele>659.0</ele><time>2026-04-28T12:00:13.933Z</time></trkpt><trkpt lat="36.9181167" lon="-3.5706017"><ele>659.0</ele><time>2026-04-28T12:00:14.934Z</time></trkpt><trkpt lat="36.9180833" lon="-3.5704517"><ele>658.0</ele><time>2026-04-28T12:00:15.935Z</time></trkpt><trkpt lat="36.9180517" lon="-3.5703017"><ele>657.0</ele><time>2026-04-28T12:00:16.937Z</time></trkpt><trkpt lat="36.91802" lon="-3.5701533"><ele>656.0</ele><time>2026-04-28T12:00:17.934Z</time></trkpt><trkpt lat="36.9179833" lon="-3.57001"><ele>655.0</ele><time>2026-04-28T12:00:18.935Z</time></trkpt><trkpt lat="36.9179533" lon="-3.5698583"><ele>655.0</ele><time>2026-04-28T12:00:19.935Z</time></trkpt><trkpt lat="36.91794" lon="-3.569705"><ele>655.0</ele><time>2026-04-28T12:00:20.934Z</time></trkpt><trkpt lat="36.9179517" lon="-3.5695533"><ele>655.0</ele><time>2026-04-28T12:00:21.935Z</time></trkpt><trkpt lat="36.9179683" lon="-3.56941"><ele>655.0</ele><time>2026-04-28T12:00:22.934Z</time></trkpt><trkpt lat="36.9179883" lon="-3.569265"><ele>655.6</ele><time>2026-04-28T12:00:23.934Z</time></trkpt><trkpt lat="36.9179933" lon="-3.5691233"><ele>656.2</ele><time>2026-04-28T12:00:24.936Z</time></trkpt><trkpt lat="36.9179917" lon="-3.5689917"><ele>656.8</ele><time>2026-04-28T12:00:25.937Z</time></trkpt><trkpt lat="36.91799" lon="-3.5688667"><ele>657.4</ele><time>2026-04-28T12:00:26.937Z</time></trkpt><trkpt lat="36.918015" lon="-3.5687383"><ele>658.0</ele><time>2026-04-28T12:00:27.936Z</time></trkpt><trkpt lat="36.9180517" lon="-3.5686167"><ele>659.8</ele><time>2026-04-28T12:00:28.933Z</time></trkpt><trkpt lat="36.9181017" lon="-3.5685017"><ele>661.5999999999999</ele><time>2026-04-28T12:00:29.936Z</time></trkpt><trkpt lat="36.9181667" lon="-3.5683983"><ele>663.4000000000001</ele><time>2026-04-28T12:00:30.934Z</time></trkpt><trkpt lat="36.9182333" lon="-3.5683017"><ele>665.2</ele><time>2026-04-28T12:00:31.933Z</time></trkpt><trkpt lat="36.9182817" lon="-3.5682033"><ele>667.0</ele><time>2026-04-28T12:00:32.934Z</time></trkpt><trkpt lat="36.918325" lon="-3.568105"><ele>667.0</ele><time>2026-04-28T12:00:33.935Z</time></trkpt><trkpt lat="36.91836" lon="-3.567995"><ele>667.0</ele><time>2026-04-28T12:00:34.933Z</time></trkpt><trkpt lat="36.9183783" lon="-3.5678767"><ele>667.0</ele><time>2026-04-28T12:00:35.934Z</time></trkpt><trkpt lat="36.9183717" lon="-3.5677533"><ele>667.0</ele><time>2026-04-28T12:00:36.935Z</time></trkpt><trkpt lat="36.9183433" lon="-3.567625"><ele>667.0</ele><time>2026-04-28T12:00:37.934Z</time></trkpt><trkpt lat="36.91831" lon="-3.5674933"><ele>667.0</ele><time>2026-04-28T12:00:38.935Z</time></trkpt><trkpt lat="36.9182783" lon="-3.56736"><ele>667.0</ele><time>2026-04-28T12:00:39.934Z</time></trkpt><trkpt lat="36.91825" lon="-3.5672267"><ele>667.0</ele><time>2026-04-28T12:00:40.935Z</time></trkpt><trkpt lat="36.9182167" lon="-3.567095"><ele>667.0</ele><time>2026-04-28T12:00:41.937Z</time></trkpt><trkpt lat="36.9181717" lon="-3.5669633"><ele>667.0</ele><time>2026-04-28T12:00:42.936Z</time></trkpt><trkpt lat="36.9181033" lon="-3.5668417"><ele>667.0</ele><time>2026-04-28T12:00:43.937Z</time></trkpt><trkpt lat="36.9180333" lon="-3.5667317"><ele>667.0</ele><time>2026-04-28T12:00:44.938Z</time></trkpt><trkpt lat="36.9179783" lon="-3.56664"><ele>667.0</ele><time>2026-04-28T12:00:45.937Z</time></trkpt><trkpt lat="36.9179367" lon="-3.5665633"><ele>667.0</ele><time>2026-04-28T12:00:46.936Z</time></trkpt><trkpt lat="36.917895" lon="-3.566495"><ele>667.0</ele><time>2026-04-28T12:00:47.937Z</time></trkpt><trkpt lat="36.9178433" lon="-3.5664433"><ele>667.0</ele><time>2026-04-28T12:00:48.937Z</time></trkpt><trkpt lat="36.917765" lon="-3.566435"><ele>667.0</ele><time>2026-04-28T12:00:49.937Z</time></trkpt><trkpt lat="36.9176733" lon="-3.5664417"><ele>667.0</ele><time>2026-04-28T12:00:50.938Z</time></trkpt><trkpt lat="36.9175967" lon="-3.5664217"><ele>667.0</ele><time>2026-04-28T12:00:51.937Z</time></trkpt><trkpt lat="36.9174917" lon="-3.5664433"><ele>667.0</ele><time>2026-04-28T12:00:52.937Z</time></trkpt><trkpt lat="36.9174117" lon="-3.5664483"><ele>667.0</ele><time>2026-04-28T12:00:53.936Z</time></trkpt><trkpt lat="36.9173433" lon="-3.5664217"><ele>667.0</ele><time>2026-04-28T12:00:54.937Z</time></trkpt><trkpt lat="36.9172783" lon="-3.5663883"><ele>668.1666666666667</ele><time>2026-04-28T12:00:55.936Z</time></trkpt><trkpt lat="36.9172333" lon="-3.5663167"><ele>669.3333333333334</ele><time>2026-04-28T12:00:56.937Z</time></trkpt><trkpt lat="36.9172083" lon="-3.5662233"><ele>670.5</ele><time>2026-04-28T12:00:57.937Z</time></trkpt><trkpt lat="36.9171983" lon="-3.566115"><ele>671.6666666666666</ele><time>2026-04-28T12:00:58.935Z</time></trkpt><trkpt lat="36.9172067" lon="-3.56601"><ele>672.8333333333333</ele><time>2026-04-28T12:00:59.936Z</time></trkpt><trkpt lat="36.917215" lon="-3.5659133"><ele>674.0</ele><time>2026-04-28T12:01:00.936Z</time></trkpt><trkpt lat="36.9172333" lon="-3.5658133"><ele>674.0</ele><time>2026-04-28T12:01:01.937Z</time></trkpt><trkpt lat="36.9172817" lon="-3.5657167"><ele>674.0</ele><time>2026-04-28T12:01:02.935Z</time></trkpt><trkpt lat="36.91732" lon="-3.565625"><ele>674.0</ele><time>2026-04-28T12:01:03.933Z</time></trkpt><trkpt lat="36.917355" lon="-3.565535"><ele>674.0</ele><time>2026-04-28T12:01:04.935Z</time></trkpt><trkpt lat="36.91737" lon="-3.5654383"><ele>674.0</ele><time>2026-04-28T12:01:05.934Z</time></trkpt><trkpt lat="36.9173467" lon="-3.565335"><ele>674.0</ele><time>2026-04-28T12:01:06.935Z</time></trkpt><trkpt lat="36.9173017" lon="-3.5652383"><ele>673.6</ele><time>2026-04-28T12:01:07.934Z</time></trkpt><trkpt lat="36.9172383" lon="-3.5651467"><ele>673.2</ele><time>2026-04-28T12:01:08.935Z</time></trkpt><trkpt lat="36.9171617" lon="-3.5650483"><ele>672.8000000000001</ele><time>2026-04-28T12:01:09.934Z</time></trkpt><trkpt lat="36.9170867" lon="-3.564945"><ele>672.4000000000001</ele><time>2026-04-28T12:01:10.934Z</time></trkpt><trkpt lat="36.91701" lon="-3.5648367"><ele>672.0</ele><time>2026-04-28T12:01:11.937Z</time></trkpt><trkpt lat="36.9169317" lon="-3.5647283"><ele>672.0</ele><time>2026-04-28T12:01:12.937Z</time></trkpt><trkpt lat="36.91685" lon="-3.5646167"><ele>672.0</ele><time>2026-04-28T12:01:13.936Z</time></trkpt><trkpt lat="36.9167583" lon="-3.564515"><ele>672.0</ele><time>2026-04-28T12:01:14.938Z</time></trkpt><trkpt lat="36.9166583" lon="-3.56442"><ele>672.0</ele><time>2026-04-28T12:01:15.937Z</time></trkpt><trkpt lat="36.9165617" lon="-3.5643283"><ele>674.0</ele><time>2026-04-28T12:01:16.936Z</time></trkpt><trkpt lat="36.916465" lon="-3.5642333"><ele>676.0</ele><time>2026-04-28T12:01:17.935Z</time></trkpt><trkpt lat="36.9163633" lon="-3.5641517"><ele>678.0</ele><time>2026-04-28T12:01:18.935Z</time></trkpt><trkpt lat="36.916265" lon="-3.5640767"><ele>680.0</ele><time>2026-04-28T12:01:19.934Z</time></trkpt><trkpt lat="36.9161583" lon="-3.5640133"><ele>680.0</ele><time>2026-04-28T12:01:20.934Z</time></trkpt><trkpt lat="36.916055" lon="-3.5639367"><ele>680.0</ele><time>2026-04-28T12:01:21.935Z</time></trkpt><trkpt lat="36.9159583" lon="-3.5638467"><ele>680.0</ele><time>2026-04-28T12:01:22.936Z</time></trkpt><trkpt lat="36.9158717" lon="-3.5637367"><ele>680.0</ele><time>2026-04-28T12:01:23.933Z</time></trkpt><trkpt lat="36.9157917" lon="-3.5636217"><ele>680.8</ele><time>2026-04-28T12:01:24.937Z</time></trkpt><trkpt lat="36.9157233" lon="-3.5634983"><ele>681.6</ele><time>2026-04-28T12:01:25.937Z</time></trkpt><trkpt lat="36.9156667" lon="-3.5633817"><ele>682.4000000000001</ele><time>2026-04-28T12:01:26.937Z</time></trkpt><trkpt lat="36.9156083" lon="-3.5632733"><ele>683.2</ele><time>2026-04-28T12:01:27.936Z</time></trkpt><trkpt lat="36.9155333" lon="-3.5631733"><ele>684.0</ele><time>2026-04-28T12:01:28.934Z</time></trkpt><trkpt lat="36.9154467" lon="-3.5630867"><ele>684.0</ele><time>2026-04-28T12:01:29.935Z</time></trkpt><trkpt lat="36.9153483" lon="-3.5630233"><ele>684.0</ele><time>2026-04-28T12:01:30.934Z</time></trkpt><trkpt lat="36.915245" lon="-3.5629733"><ele>684.0</ele><time>2026-04-28T12:01:31.936Z</time></trkpt><trkpt lat="36.915145" lon="-3.562935"><ele>684.0</ele><time>2026-04-28T12:01:32.935Z</time></trkpt><trkpt lat="36.9150483" lon="-3.562905"><ele>684.0</ele><time>2026-04-28T12:01:33.935Z</time></trkpt><trkpt lat="36.9149567" lon="-3.5628833"><ele>684.0</ele><time>2026-04-28T12:01:34.936Z</time></trkpt><trkpt lat="36.9148767" lon="-3.5628567"><ele>684.0</ele><time>2026-04-28T12:01:35.937Z</time></trkpt><trkpt lat="36.91479" lon="-3.5628417"><ele>684.0</ele><time>2026-04-28T12:01:36.934Z</time></trkpt><trkpt lat="36.9146917" lon="-3.5628433"><ele>684.0</ele><time>2026-04-28T12:01:37.934Z</time></trkpt><trkpt lat="36.914595" lon="-3.562795"><ele>684.0</ele><time>2026-04-28T12:01:38.935Z</time></trkpt><trkpt lat="36.9145" lon="-3.5627267"><ele>684.0</ele><time>2026-04-28T12:01:39.936Z</time></trkpt><trkpt lat="36.9144317" lon="-3.5626133"><ele>684.0</ele><time>2026-04-28T12:01:40.937Z</time></trkpt><trkpt lat="36.91438" lon="-3.5624833"><ele>684.0</ele><time>2026-04-28T12:01:41.936Z</time></trkpt><trkpt lat="36.914315" lon="-3.5623583"><ele>684.0</ele><time>2026-04-28T12:01:42.936Z</time></trkpt><trkpt lat="36.9142517" lon="-3.5622417"><ele>683.8000000000001</ele><time>2026-04-28T12:01:43.936Z</time></trkpt><trkpt lat="36.9141733" lon="-3.5621483"><ele>683.6</ele><time>2026-04-28T12:01:44.938Z</time></trkpt><trkpt lat="36.9140783" lon="-3.5620767"><ele>683.4</ele><time>2026-04-28T12:01:45.936Z</time></trkpt><trkpt lat="36.9139767" lon="-3.56202"><ele>683.2</ele><time>2026-04-28T12:01:46.937Z</time></trkpt><trkpt lat="36.9138683" lon="-3.561975"><ele>683.0</ele><time>2026-04-28T12:01:47.934Z</time></trkpt><trkpt lat="36.9137583" lon="-3.5619283"><ele>683.0</ele><time>2026-04-28T12:01:48.935Z</time></trkpt><trkpt lat="36.9136567" lon="-3.56187"><ele>683.0</ele><time>2026-04-28T12:01:49.935Z</time></trkpt><trkpt lat="36.9135617" lon="-3.5617917"><ele>683.0</ele><time>2026-04-28T12:01:50.934Z</time></trkpt><trkpt lat="36.9134733" lon="-3.5617017"><ele>683.0</ele><time>2026-04-28T12:01:51.934Z</time></trkpt><trkpt lat="36.9133983" lon="-3.5616017"><ele>683.0</ele><time>2026-04-28T12:01:52.934Z</time></trkpt><trkpt lat="36.91334" lon="-3.5614883"><ele>684.0</ele><time>2026-04-28T12:01:53.935Z</time></trkpt><trkpt lat="36.9132983" lon="-3.5613833"><ele>685.0</ele><time>2026-04-28T12:01:54.937Z</time></trkpt><trkpt lat="36.9132533" lon="-3.5612917"><ele>686.0</ele><time>2026-04-28T12:01:55.937Z</time></trkpt><trkpt lat="36.9132" lon="-3.561215"><ele>687.0</ele><time>2026-04-28T12:01:56.937Z</time></trkpt><trkpt lat="36.9131283" lon="-3.56115"><ele>688.0</ele><time>2026-04-28T12:01:57.937Z</time></trkpt><trkpt lat="36.9130367" lon="-3.561105"><ele>689.0</ele><time>2026-04-28T12:01:58.935Z</time></trkpt><trkpt lat="36.91294" lon="-3.5610533"><ele>689.0</ele><time>2026-04-28T12:01:59.934Z</time></trkpt><trkpt lat="36.9128483" lon="-3.5609767"><ele>689.0</ele><time>2026-04-28T12:02:00.934Z</time></trkpt><trkpt lat="36.9127517" lon="-3.5608933"><ele>689.0</ele><time>2026-04-28T12:02:01.937Z</time></trkpt><trkpt lat="36.912655" lon="-3.5608"><ele>689.0</ele><time>2026-04-28T12:02:02.937Z</time></trkpt><trkpt lat="36.91256" lon="-3.5607017"><ele>688.75</ele><time>2026-04-28T12:02:03.937Z</time></trkpt><trkpt lat="36.9124617" lon="-3.560605"><ele>688.5</ele><time>2026-04-28T12:02:04.934Z</time></trkpt><trkpt lat="36.91236" lon="-3.5605033"><ele>688.25</ele><time>2026-04-28T12:02:05.935Z</time></trkpt><trkpt lat="36.9122617" lon="-3.5604017"><ele>688.0</ele><time>2026-04-28T12:02:06.936Z</time></trkpt><trkpt lat="36.91216" lon="-3.5603033"><ele>688.0</ele><time>2026-04-28T12:02:07.936Z</time></trkpt><trkpt lat="36.9120633" lon="-3.5601967"><ele>688.0</ele><time>2026-04-28T12:02:08.935Z</time></trkpt><trkpt lat="36.911975" lon="-3.5600917"><ele>688.0</ele><time>2026-04-28T12:02:09.936Z</time></trkpt><trkpt lat="36.9118933" lon="-3.5599767"><ele>688.0</ele><time>2026-04-28T12:02:10.936Z</time></trkpt><trkpt lat="36.9118183" lon="-3.5598567"><ele>688.0</ele><time>2026-04-28T12:02:11.937Z</time></trkpt><trkpt lat="36.911745" lon="-3.55974"><ele>688.0</ele><time>2026-04-28T12:02:12.937Z</time></trkpt><trkpt lat="36.9116767" lon="-3.5596267"><ele>688.0</ele><time>2026-04-28T12:02:13.936Z</time></trkpt><trkpt lat="36.91161" lon="-3.5595183"><ele>688.0</ele><time>2026-04-28T12:02:14.937Z</time></trkpt><trkpt lat="36.91154" lon="-3.55942"><ele>688.0</ele><time>2026-04-28T12:02:15.937Z</time></trkpt><trkpt lat="36.9114633" lon="-3.5593333"><ele>691.0</ele><time>2026-04-28T12:02:16.937Z</time></trkpt><trkpt lat="36.9113883" lon="-3.5592567"><ele>694.0</ele><time>2026-04-28T12:02:17.934Z</time></trkpt><trkpt lat="36.9113083" lon="-3.559195"><ele>697.0</ele><time>2026-04-28T12:02:18.934Z</time></trkpt><trkpt lat="36.91122" lon="-3.5591483"><ele>700.0</ele><time>2026-04-28T12:02:19.934Z</time></trkpt><trkpt lat="36.911125" lon="-3.5591233"><ele>703.0</ele><time>2026-04-28T12:02:20.934Z</time></trkpt><trkpt lat="36.9110333" lon="-3.5591133"><ele>703.0</ele><time>2026-04-28T12:02:21.934Z</time></trkpt><trkpt lat="36.91095" lon="-3.5591"><ele>703.0</ele><time>2026-04-28T12:02:22.934Z</time></trkpt><trkpt lat="36.9108717" lon="-3.5590733"><ele>703.0</ele><time>2026-04-28T12:02:23.934Z</time></trkpt><trkpt lat="36.9108017" lon="-3.5590283"><ele>703.0</ele><time>2026-04-28T12:02:24.937Z</time></trkpt><trkpt lat="36.9107417" lon="-3.5589633"><ele>703.0</ele><time>2026-04-28T12:02:25.937Z</time></trkpt><trkpt lat="36.9107067" lon="-3.5588817"><ele>703.0</ele><time>2026-04-28T12:02:26.937Z</time></trkpt><trkpt lat="36.9106817" lon="-3.5587833"><ele>703.6666666666667</ele><time>2026-04-28T12:02:27.937Z</time></trkpt><trkpt lat="36.9106633" lon="-3.5586883"><ele>704.3333333333334</ele><time>2026-04-28T12:02:28.936Z</time></trkpt><trkpt lat="36.9106417" lon="-3.5586083"><ele>705.0</ele><time>2026-04-28T12:02:29.937Z</time></trkpt><trkpt lat="36.9105733" lon="-3.5585017"><ele>705.6666666666666</ele><time>2026-04-28T12:02:31.934Z</time></trkpt><trkpt lat="36.9105183" lon="-3.5584633"><ele>706.3333333333333</ele><time>2026-04-28T12:02:32.935Z</time></trkpt><trkpt lat="36.91045" lon="-3.55844"><ele>707.0</ele><time>2026-04-28T12:02:33.934Z</time></trkpt><trkpt lat="36.9103783" lon="-3.5584367"><ele>707.0</ele><time>2026-04-28T12:02:34.935Z</time></trkpt><trkpt lat="36.9103017" lon="-3.558435"><ele>707.0</ele><time>2026-04-28T12:02:35.934Z</time></trkpt><trkpt lat="36.9102117" lon="-3.5584467"><ele>707.0</ele><time>2026-04-28T12:02:36.935Z</time></trkpt><trkpt lat="36.9101167" lon="-3.558485"><ele>707.0</ele><time>2026-04-28T12:02:37.935Z</time></trkpt><trkpt lat="36.9100183" lon="-3.55852"><ele>707.0</ele><time>2026-04-28T12:02:38.935Z</time></trkpt><trkpt lat="36.9099267" lon="-3.55856"><ele>707.3333333333333</ele><time>2026-04-28T12:02:39.935Z</time></trkpt><trkpt lat="36.909845" lon="-3.558595"><ele>707.6666666666666</ele><time>2026-04-28T12:02:40.935Z</time></trkpt><trkpt lat="36.9097633" lon="-3.558625"><ele>708.0</ele><time>2026-04-28T12:02:41.934Z</time></trkpt><trkpt lat="36.90968" lon="-3.55866"><ele>708.3333333333334</ele><time>2026-04-28T12:02:42.934Z</time></trkpt><trkpt lat="36.9096067" lon="-3.558685"><ele>708.6666666666667</ele><time>2026-04-28T12:02:43.935Z</time></trkpt><trkpt lat="36.90954" lon="-3.5586983"><ele>709.0</ele><time>2026-04-28T12:02:44.937Z</time></trkpt><trkpt lat="36.9094767" lon="-3.5587033"><ele>709.0000000000001</ele><time>2026-04-28T12:02:45.937Z</time></trkpt><trkpt lat="36.9094067" lon="-3.5586867"><ele>709.0</ele><time>2026-04-28T12:02:46.937Z</time></trkpt><trkpt lat="36.9093383" lon="-3.5586483"><ele>709.0</ele><time>2026-04-28T12:02:47.934Z</time></trkpt><trkpt lat="36.90928" lon="-3.5585967"><ele>709.0</ele><time>2026-04-28T12:02:48.935Z</time></trkpt><trkpt lat="36.9092383" lon="-3.558525"><ele>709.0</ele><time>2026-04-28T12:02:49.934Z</time></trkpt><trkpt lat="36.909195" lon="-3.558455"><ele>709.0000000000001</ele><time>2026-04-28T12:02:50.934Z</time></trkpt><trkpt lat="36.9091583" lon="-3.55839"><ele>709.0</ele><time>2026-04-28T12:02:51.935Z</time></trkpt><trkpt lat="36.9091217" lon="-3.5583"><ele>709.0</ele><time>2026-04-28T12:02:52.934Z</time></trkpt><trkpt lat="36.9090883" lon="-3.55819"><ele>709.0</ele><time>2026-04-28T12:02:53.934Z</time></trkpt><trkpt lat="36.9090483" lon="-3.5580867"><ele>709.0</ele><time>2026-04-28T12:02:54.935Z</time></trkpt><trkpt lat="36.9090167" lon="-3.5579967"><ele>709.0</ele><time>2026-04-28T12:02:55.935Z</time></trkpt><trkpt lat="36.908985" lon="-3.557905"><ele>709.0</ele><time>2026-04-28T12:02:56.935Z</time></trkpt><trkpt lat="36.9089517" lon="-3.5578117"><ele>709.0</ele><time>2026-04-28T12:02:57.934Z</time></trkpt><trkpt lat="36.9089233" lon="-3.5577233"><ele>709.0</ele><time>2026-04-28T12:02:58.934Z</time></trkpt><trkpt lat="36.9089033" lon="-3.5576367"><ele>709.0</ele><time>2026-04-28T12:02:59.934Z</time></trkpt><trkpt lat="36.9088867" lon="-3.55756"><ele>709.0</ele><time>2026-04-28T12:03:00.937Z</time></trkpt><trkpt lat="36.908885" lon="-3.557405"><ele>709.0</ele><time>2026-04-28T12:03:02.937Z</time></trkpt><trkpt lat="36.9088833" lon="-3.5573233"><ele>709.0</ele><time>2026-04-28T12:03:03.936Z</time></trkpt><trkpt lat="36.90888" lon="-3.5572417"><ele>709.0</ele><time>2026-04-28T12:03:04.934Z</time></trkpt><trkpt lat="36.9088783" lon="-3.5571583"><ele>709.0</ele><time>2026-04-28T12:03:05.937Z</time></trkpt><trkpt lat="36.9088817" lon="-3.5570733"><ele>709.0</ele><time>2026-04-28T12:03:06.936Z</time></trkpt><trkpt lat="36.90887" lon="-3.5569933"><ele>709.0</ele><time>2026-04-28T12:03:07.936Z</time></trkpt><trkpt lat="36.9088617" lon="-3.5569133"><ele>709.0</ele><time>2026-04-28T12:03:08.936Z</time></trkpt><trkpt lat="36.908855" lon="-3.5567717"><ele>709.0</ele><time>2026-04-28T12:03:10.935Z</time></trkpt><trkpt lat="36.9088817" lon="-3.55665"><ele>709.0</ele><time>2026-04-28T12:03:12.935Z</time></trkpt><trkpt lat="36.9089383" lon="-3.556575"><ele>709.0</ele><time>2026-04-28T12:03:14.937Z</time></trkpt><trkpt lat="36.909045" lon="-3.5565217"><ele>709.0</ele><time>2026-04-28T12:03:16.937Z</time></trkpt><trkpt lat="36.909115" lon="-3.5564833"><ele>709.0</ele><time>2026-04-28T12:03:17.936Z</time></trkpt><trkpt lat="36.9091683" lon="-3.5564233"><ele>709.0</ele><time>2026-04-28T12:03:18.935Z</time></trkpt><trkpt lat="36.909205" lon="-3.556345"><ele>709.0</ele><time>2026-04-28T12:03:19.935Z</time></trkpt><trkpt lat="36.9092383" lon="-3.5562517"><ele>709.0</ele><time>2026-04-28T12:03:20.937Z</time></trkpt><trkpt lat="36.9092483" lon="-3.55615"><ele>708.8333333333334</ele><time>2026-04-28T12:03:21.937Z</time></trkpt><trkpt lat="36.909255" lon="-3.5560483"><ele>708.6666666666667</ele><time>2026-04-28T12:03:22.935Z</time></trkpt><trkpt lat="36.909245" lon="-3.5559433"><ele>708.5</ele><time>2026-04-28T12:03:23.936Z</time></trkpt><trkpt lat="36.9092317" lon="-3.5558367"><ele>708.3333333333334</ele><time>2026-04-28T12:03:24.936Z</time></trkpt><trkpt lat="36.9092233" lon="-3.555735"><ele>708.1666666666666</ele><time>2026-04-28T12:03:25.936Z</time></trkpt><trkpt lat="36.9092233" lon="-3.5556383"><ele>708.0</ele><time>2026-04-28T12:03:26.935Z</time></trkpt><trkpt lat="36.9092433" lon="-3.5555433"><ele>707.2857142857143</ele><time>2026-04-28T12:03:27.935Z</time></trkpt><trkpt lat="36.9092767" lon="-3.5554517"><ele>706.5714285714286</ele><time>2026-04-28T12:03:28.935Z</time></trkpt><trkpt lat="36.9093183" lon="-3.5553733"><ele>705.8571428571429</ele><time>2026-04-28T12:03:29.937Z</time></trkpt><trkpt lat="36.9093817" lon="-3.5553083"><ele>705.1428571428571</ele><time>2026-04-28T12:03:30.937Z</time></trkpt><trkpt lat="36.9094383" lon="-3.55525"><ele>704.4285714285714</ele><time>2026-04-28T12:03:31.934Z</time></trkpt><trkpt lat="36.9094967" lon="-3.5552083"><ele>703.7142857142857</ele><time>2026-04-28T12:03:32.934Z</time></trkpt><trkpt lat="36.90956" lon="-3.5551833"><ele>703.0</ele><time>2026-04-28T12:03:33.937Z</time></trkpt><trkpt lat="36.9096583" lon="-3.5551467"><ele>701.8333333333334</ele><time>2026-04-28T12:03:35.935Z</time></trkpt><trkpt lat="36.9097567" lon="-3.5551117"><ele>700.6666666666667</ele><time>2026-04-28T12:03:37.934Z</time></trkpt><trkpt lat="36.9098233" lon="-3.5550883"><ele>699.5</ele><time>2026-04-28T12:03:38.935Z</time></trkpt><trkpt lat="36.9099033" lon="-3.5550517"><ele>698.3333333333334</ele><time>2026-04-28T12:03:39.934Z</time></trkpt><trkpt lat="36.90998" lon="-3.5550083"><ele>697.1666666666666</ele><time>2026-04-28T12:03:40.935Z</time></trkpt><trkpt lat="36.9100617" lon="-3.5549617"><ele>696.0</ele><time>2026-04-28T12:03:41.937Z</time></trkpt><trkpt lat="36.9101433" lon="-3.554915"><ele>695.0</ele><time>2026-04-28T12:03:42.936Z</time></trkpt><trkpt lat="36.9102317" lon="-3.5548733"><ele>694.0</ele><time>2026-04-28T12:03:43.936Z</time></trkpt><trkpt lat="36.91032" lon="-3.55483"><ele>693.0</ele><time>2026-04-28T12:03:44.937Z</time></trkpt><trkpt lat="36.9104067" lon="-3.5547883"><ele>692.0</ele><time>2026-04-28T12:03:45.936Z</time></trkpt><trkpt lat="36.9104883" lon="-3.5547417"><ele>691.0</ele><time>2026-04-28T12:03:46.937Z</time></trkpt><trkpt lat="36.910565" lon="-3.5546883"><ele>691.0</ele><time>2026-04-28T12:03:47.935Z</time></trkpt><trkpt lat="36.9106417" lon="-3.5546367"><ele>691.0</ele><time>2026-04-28T12:03:48.936Z</time></trkpt><trkpt lat="36.9107233" lon="-3.5545917"><ele>691.0</ele><time>2026-04-28T12:03:49.935Z</time></trkpt><trkpt lat="36.910795" lon="-3.5545367"><ele>691.0</ele><time>2026-04-28T12:03:50.935Z</time></trkpt><trkpt lat="36.910865" lon="-3.55449"><ele>691.0</ele><time>2026-04-28T12:03:51.934Z</time></trkpt><trkpt lat="36.9109267" lon="-3.5544433"><ele>691.0</ele><time>2026-04-28T12:03:52.934Z</time></trkpt><trkpt lat="36.910985" lon="-3.5544017"><ele>690.0</ele><time>2026-04-28T12:03:53.934Z</time></trkpt><trkpt lat="36.9110817" lon="-3.5543267"><ele>689.0</ele><time>2026-04-28T12:03:55.936Z</time></trkpt><trkpt lat="36.9111433" lon="-3.5542717"><ele>688.0</ele><time>2026-04-28T12:03:57.934Z</time></trkpt><trkpt lat="36.9112067" lon="-3.554215"><ele>687.0</ele><time>2026-04-28T12:03:59.937Z</time></trkpt><trkpt lat="36.911295" lon="-3.5541583"><ele>686.0</ele><time>2026-04-28T12:04:01.934Z</time></trkpt><trkpt lat="36.9114067" lon="-3.5540867"><ele>686.0</ele><time>2026-04-28T12:04:03.935Z</time></trkpt><trkpt lat="36.911475" lon="-3.5540517"><ele>686.0</ele><time>2026-04-28T12:04:04.935Z</time></trkpt><trkpt lat="36.9115483" lon="-3.5540183"><ele>686.0</ele><time>2026-04-28T12:04:05.935Z</time></trkpt><trkpt lat="36.9116167" lon="-3.5539833"><ele>686.0</ele><time>2026-04-28T12:04:06.935Z</time></trkpt><trkpt lat="36.911685" lon="-3.5539467"><ele>686.0</ele><time>2026-04-28T12:04:07.935Z</time></trkpt><trkpt lat="36.9117533" lon="-3.5539183"><ele>686.0</ele><time>2026-04-28T12:04:08.936Z</time></trkpt><trkpt lat="36.91182" lon="-3.5538917"><ele>686.0</ele><time>2026-04-28T12:04:09.934Z</time></trkpt><trkpt lat="36.9118833" lon="-3.5538667"><ele>685.8</ele><time>2026-04-28T12:04:10.936Z</time></trkpt><trkpt lat="36.911945" lon="-3.55384"><ele>685.5999999999999</ele><time>2026-04-28T12:04:11.934Z</time></trkpt><trkpt lat="36.91206" lon="-3.5537883"><ele>685.4</ele><time>2026-04-28T12:04:13.936Z</time></trkpt><trkpt lat="36.9121583" lon="-3.5537433"><ele>685.2</ele><time>2026-04-28T12:04:15.937Z</time></trkpt><trkpt lat="36.9122283" lon="-3.55371"><ele>685.0</ele><time>2026-04-28T12:04:18.935Z</time></trkpt><trkpt lat="36.9123233" lon="-3.5536633"><ele>683.7142857142857</ele><time>2026-04-28T12:04:23.935Z</time></trkpt><trkpt lat="36.9124317" lon="-3.5536217"><ele>682.4285714285714</ele><time>2026-04-28T12:04:25.935Z</time></trkpt><trkpt lat="36.9124917" lon="-3.5535967"><ele>681.1428571428571</ele><time>2026-04-28T12:04:26.936Z</time></trkpt><trkpt lat="36.912555" lon="-3.55357"><ele>679.8571428571429</ele><time>2026-04-28T12:04:27.935Z</time></trkpt><trkpt lat="36.9126167" lon="-3.55354"><ele>678.5714285714286</ele><time>2026-04-28T12:04:28.934Z</time></trkpt><trkpt lat="36.9126783" lon="-3.5535117"><ele>677.2857142857143</ele><time>2026-04-28T12:04:29.935Z</time></trkpt><trkpt lat="36.9127367" lon="-3.55348"><ele>676.0</ele><time>2026-04-28T12:04:30.936Z</time></trkpt><trkpt lat="36.9128467" lon="-3.5534317"><ele>675.0</ele><time>2026-04-28T12:04:32.934Z</time></trkpt><trkpt lat="36.9129483" lon="-3.5533917"><ele>674.0</ele><time>2026-04-28T12:04:34.935Z</time></trkpt><trkpt lat="36.9130383" lon="-3.5533483"><ele>673.0</ele><time>2026-04-28T12:04:36.936Z</time></trkpt><trkpt lat="36.913115" lon="-3.5533167"><ele>672.0</ele><time>2026-04-28T12:04:38.936Z</time></trkpt><trkpt lat="36.9131833" lon="-3.5532833"><ele>671.0</ele><time>2026-04-28T12:04:40.935Z</time></trkpt><trkpt lat="36.913245" lon="-3.553255"><ele>670.0</ele><time>2026-04-28T12:04:44.936Z</time></trkpt><trkpt lat="36.9133217" lon="-3.55325"><ele>670.0</ele><time>2026-04-28T12:04:46.934Z</time></trkpt><trkpt lat="36.913385" lon="-3.5533317"><ele>670.0</ele><time>2026-04-28T12:04:48.936Z</time></trkpt><trkpt lat="36.9134217" lon="-3.5534567"><ele>670.0</ele><time>2026-04-28T12:04:50.936Z</time></trkpt><trkpt lat="36.9134633" lon="-3.5535917"><ele>670.0</ele><time>2026-04-28T12:04:52.936Z</time></trkpt><trkpt lat="36.9135167" lon="-3.5537333"><ele>670.0</ele><time>2026-04-28T12:04:54.935Z</time></trkpt><trkpt lat="36.913545" lon="-3.553815"><ele>665.8</ele><time>2026-04-28T12:04:55.935Z</time></trkpt><trkpt lat="36.91357" lon="-3.5539"><ele>661.6</ele><time>2026-04-28T12:04:56.936Z</time></trkpt><trkpt lat="36.9136433" lon="-3.55401"><ele>657.4000000000001</ele><time>2026-04-28T12:04:58.935Z</time></trkpt><trkpt lat="36.9136717" lon="-3.5541317"><ele>653.2</ele><time>2026-04-28T12:04:59.935Z</time></trkpt><trkpt lat="36.9136983" lon="-3.554225"><ele>649.0</ele><time>2026-04-28T12:05:00.936Z</time></trkpt><trkpt lat="36.9137667" lon="-3.55432"><ele>649.0</ele><time>2026-04-28T12:05:02.937Z</time></trkpt><trkpt lat="36.91381" lon="-3.554465"><ele>649.0</ele><time>2026-04-28T12:05:03.937Z</time></trkpt><trkpt lat="36.9138583" lon="-3.55459"><ele>649.0</ele><time>2026-04-28T12:05:04.937Z</time></trkpt><trkpt lat="36.9138967" lon="-3.5547117"><ele>649.0</ele><time>2026-04-28T12:05:05.937Z</time></trkpt><trkpt lat="36.9139367" lon="-3.55479"><ele>649.0</ele><time>2026-04-28T12:05:06.937Z</time></trkpt><trkpt lat="36.91396" lon="-3.5548883"><ele>649.4000000000001</ele><time>2026-04-28T12:05:07.938Z</time></trkpt><trkpt lat="36.913965" lon="-3.5550267"><ele>649.8</ele><time>2026-04-28T12:05:08.939Z</time></trkpt><trkpt lat="36.913965" lon="-3.5551267"><ele>650.2</ele><time>2026-04-28T12:05:09.937Z</time></trkpt><trkpt lat="36.913955" lon="-3.5552333"><ele>650.5999999999999</ele><time>2026-04-28T12:05:10.937Z</time></trkpt><trkpt lat="36.9139333" lon="-3.5553867"><ele>651.0</ele><time>2026-04-28T12:05:11.937Z</time></trkpt><trkpt lat="36.9139233" lon="-3.5554917"><ele>649.5999999999999</ele><time>2026-04-28T12:05:12.937Z</time></trkpt><trkpt lat="36.913895" lon="-3.55561"><ele>648.2</ele><time>2026-04-28T12:05:13.938Z</time></trkpt><trkpt lat="36.9138" lon="-3.5557367"><ele>646.8</ele><time>2026-04-28T12:05:14.936Z</time></trkpt><trkpt lat="36.913745" lon="-3.55582"><ele>645.4000000000001</ele><time>2026-04-28T12:05:15.937Z</time></trkpt><trkpt lat="36.913705" lon="-3.5559567"><ele>644.0</ele><time>2026-04-28T12:05:17.935Z</time></trkpt><trkpt lat="36.913655" lon="-3.55603"><ele>644.0</ele><time>2026-04-28T12:05:18.936Z</time></trkpt><trkpt lat="36.9136083" lon="-3.5561167"><ele>644.0</ele><time>2026-04-28T12:05:19.935Z</time></trkpt><trkpt lat="36.9135517" lon="-3.556235"><ele>644.0</ele><time>2026-04-28T12:05:20.937Z</time></trkpt><trkpt lat="36.9135583" lon="-3.5563167"><ele>644.0</ele><time>2026-04-28T12:05:21.936Z</time></trkpt><trkpt lat="36.9135783" lon="-3.5564083"><ele>644.0</ele><time>2026-04-28T12:05:22.937Z</time></trkpt><trkpt lat="36.9136317" lon="-3.5565383"><ele>643.8000000000001</ele><time>2026-04-28T12:05:23.936Z</time></trkpt><trkpt lat="36.913705" lon="-3.5566217"><ele>643.6</ele><time>2026-04-28T12:05:24.937Z</time></trkpt><trkpt lat="36.913795" lon="-3.5566717"><ele>643.4</ele><time>2026-04-28T12:05:25.937Z</time></trkpt><trkpt lat="36.913895" lon="-3.5567017"><ele>643.2</ele><time>2026-04-28T12:05:26.938Z</time></trkpt><trkpt lat="36.914" lon="-3.556735"><ele>643.0</ele><time>2026-04-28T12:05:27.935Z</time></trkpt><trkpt lat="36.9141083" lon="-3.5567633"><ele>643.0</ele><time>2026-04-28T12:05:28.937Z</time></trkpt><trkpt lat="36.914215" lon="-3.5567983"><ele>643.0</ele><time>2026-04-28T12:05:29.937Z</time></trkpt><trkpt lat="36.9143183" lon="-3.5568333"><ele>643.0</ele><time>2026-04-28T12:05:30.937Z</time></trkpt><trkpt lat="36.91442" lon="-3.5568733"><ele>643.0</ele><time>2026-04-28T12:05:31.937Z</time></trkpt><trkpt lat="36.9145283" lon="-3.55691"><ele>643.0</ele><time>2026-04-28T12:05:32.938Z</time></trkpt><trkpt lat="36.914635" lon="-3.5569383"><ele>642.1999999999999</ele><time>2026-04-28T12:05:33.937Z</time></trkpt><trkpt lat="36.9147383" lon="-3.5569717"><ele>641.4</ele><time>2026-04-28T12:05:34.937Z</time></trkpt><trkpt lat="36.9148367" lon="-3.5570033"><ele>640.5999999999999</ele><time>2026-04-28T12:05:35.937Z</time></trkpt><trkpt lat="36.9149283" lon="-3.5570367"><ele>639.8</ele><time>2026-04-28T12:05:36.937Z</time></trkpt><trkpt lat="36.9150167" lon="-3.5570733"><ele>639.0</ele><time>2026-04-28T12:05:37.937Z</time></trkpt><trkpt lat="36.915105" lon="-3.5571117"><ele>636.6</ele><time>2026-04-28T12:05:38.937Z</time></trkpt><trkpt lat="36.9151933" lon="-3.5571483"><ele>634.2</ele><time>2026-04-28T12:05:39.937Z</time></trkpt><trkpt lat="36.9152883" lon="-3.5571733"><ele>631.8000000000001</ele><time>2026-04-28T12:05:40.937Z</time></trkpt><trkpt lat="36.9153817" lon="-3.5571783"><ele>629.4</ele><time>2026-04-28T12:05:41.937Z</time></trkpt><trkpt lat="36.9154667" lon="-3.5571983"><ele>627.0</ele><time>2026-04-28T12:05:42.937Z</time></trkpt><trkpt lat="36.915545" lon="-3.5571717"><ele>627.0</ele><time>2026-04-28T12:05:43.937Z</time></trkpt><trkpt lat="36.9156183" lon="-3.5570967"><ele>627.0</ele><time>2026-04-28T12:05:44.937Z</time></trkpt><trkpt lat="36.915685" lon="-3.5570567"><ele>627.0</ele><time>2026-04-28T12:05:45.937Z</time></trkpt><trkpt lat="36.915745" lon="-3.5569733"><ele>627.0</ele><time>2026-04-28T12:05:46.937Z</time></trkpt><trkpt lat="36.9158133" lon="-3.55686"><ele>627.0</ele><time>2026-04-28T12:05:47.936Z</time></trkpt><trkpt lat="36.9158783" lon="-3.5567667"><ele>625.0</ele><time>2026-04-28T12:05:48.936Z</time></trkpt><trkpt lat="36.915955" lon="-3.556675"><ele>623.0</ele><time>2026-04-28T12:05:49.935Z</time></trkpt><trkpt lat="36.9160283" lon="-3.5565967"><ele>621.0</ele><time>2026-04-28T12:05:50.935Z</time></trkpt><trkpt lat="36.9161117" lon="-3.556545"><ele>619.0</ele><time>2026-04-28T12:05:51.936Z</time></trkpt><trkpt lat="36.91621" lon="-3.5564883"><ele>617.0</ele><time>2026-04-28T12:05:52.934Z</time></trkpt><trkpt lat="36.9163117" lon="-3.556455"><ele>617.0</ele><time>2026-04-28T12:05:53.935Z</time></trkpt><trkpt lat="36.91641" lon="-3.55645"><ele>617.0</ele><time>2026-04-28T12:05:54.938Z</time></trkpt><trkpt lat="36.9165083" lon="-3.5564483"><ele>617.0</ele><time>2026-04-28T12:05:55.935Z</time></trkpt><trkpt lat="36.9166033" lon="-3.556455"><ele>617.0</ele><time>2026-04-28T12:05:56.935Z</time></trkpt><trkpt lat="36.9166967" lon="-3.5564383"><ele>617.0</ele><time>2026-04-28T12:05:57.936Z</time></trkpt><trkpt lat="36.9167817" lon="-3.5564"><ele>613.8000000000001</ele><time>2026-04-28T12:05:58.937Z</time></trkpt><trkpt lat="36.91686" lon="-3.556335"><ele>610.6</ele><time>2026-04-28T12:05:59.938Z</time></trkpt><trkpt lat="36.91692" lon="-3.5562333"><ele>607.4000000000001</ele><time>2026-04-28T12:06:00.934Z</time></trkpt><trkpt lat="36.9169733" lon="-3.5561417"><ele>604.2</ele><time>2026-04-28T12:06:01.937Z</time></trkpt><trkpt lat="36.9170283" lon="-3.55606"><ele>601.0</ele><time>2026-04-28T12:06:02.937Z</time></trkpt><trkpt lat="36.917055" lon="-3.55594"><ele>601.0</ele><time>2026-04-28T12:06:03.937Z</time></trkpt><trkpt lat="36.9170783" lon="-3.555815"><ele>601.0</ele><time>2026-04-28T12:06:04.937Z</time></trkpt><trkpt lat="36.9171033" lon="-3.5556833"><ele>601.0</ele><time>2026-04-28T12:06:05.934Z</time></trkpt><trkpt lat="36.9171367" lon="-3.5555867"><ele>601.0</ele><time>2026-04-28T12:06:06.938Z</time></trkpt><trkpt lat="36.9171433" lon="-3.5554483"><ele>601.0</ele><time>2026-04-28T12:06:07.937Z</time></trkpt><trkpt lat="36.9171583" lon="-3.5553467"><ele>599.25</ele><time>2026-04-28T12:06:08.937Z</time></trkpt><trkpt lat="36.9171233" lon="-3.5551783"><ele>597.5</ele><time>2026-04-28T12:06:09.937Z</time></trkpt><trkpt lat="36.91704" lon="-3.5550017"><ele>595.75</ele><time>2026-04-28T12:06:10.937Z</time></trkpt><trkpt lat="36.9169533" lon="-3.554875"><ele>594.0</ele><time>2026-04-28T12:06:11.937Z</time></trkpt><trkpt lat="36.9169017" lon="-3.55477"><ele>594.0</ele><time>2026-04-28T12:06:12.937Z</time></trkpt><trkpt lat="36.9168717" lon="-3.5546683"><ele>594.0</ele><time>2026-04-28T12:06:13.937Z</time></trkpt><trkpt lat="36.9167533" lon="-3.5545683"><ele>594.0</ele><time>2026-04-28T12:06:14.938Z</time></trkpt><trkpt lat="36.9166967" lon="-3.5544767"><ele>594.0</ele><time>2026-04-28T12:06:15.937Z</time></trkpt><trkpt lat="36.9166967" lon="-3.5543883"><ele>594.0</ele><time>2026-04-28T12:06:16.938Z</time></trkpt><trkpt lat="36.9166583" lon="-3.5542783"><ele>596.0</ele><time>2026-04-28T12:06:17.937Z</time></trkpt><trkpt lat="36.9166167" lon="-3.5541483"><ele>598.0</ele><time>2026-04-28T12:06:18.936Z</time></trkpt><trkpt lat="36.9166133" lon="-3.5540217"><ele>600.0</ele><time>2026-04-28T12:06:19.937Z</time></trkpt><trkpt lat="36.9166483" lon="-3.5539067"><ele>602.0</ele><time>2026-04-28T12:06:20.938Z</time></trkpt><trkpt lat="36.9167017" lon="-3.5537983"><ele>604.0</ele><time>2026-04-28T12:06:21.937Z</time></trkpt><trkpt lat="36.916775" lon="-3.5537"><ele>598.0</ele><time>2026-04-28T12:06:22.938Z</time></trkpt><trkpt lat="36.9168583" lon="-3.553605"><ele>592.0</ele><time>2026-04-28T12:06:23.935Z</time></trkpt><trkpt lat="36.9169433" lon="-3.5535083"><ele>586.0</ele><time>2026-04-28T12:06:24.937Z</time></trkpt><trkpt lat="36.9170283" lon="-3.5534133"><ele>580.0</ele><time>2026-04-28T12:06:25.939Z</time></trkpt><trkpt lat="36.91711" lon="-3.553325"><ele>580.0</ele><time>2026-04-28T12:06:26.938Z</time></trkpt><trkpt lat="36.917185" lon="-3.5532417"><ele>580.0</ele><time>2026-04-28T12:06:27.937Z</time></trkpt><trkpt lat="36.91726" lon="-3.5531583"><ele>580.0</ele><time>2026-04-28T12:06:28.936Z</time></trkpt><trkpt lat="36.9173317" lon="-3.55308"><ele>580.0</ele><time>2026-04-28T12:06:29.936Z</time></trkpt><trkpt lat="36.9173917" lon="-3.5529933"><ele>580.0</ele><time>2026-04-28T12:06:30.936Z</time></trkpt><trkpt lat="36.91744" lon="-3.5528967"><ele>580.2</ele><time>2026-04-28T12:06:31.935Z</time></trkpt><trkpt lat="36.9174617" lon="-3.55278"><ele>580.4</ele><time>2026-04-28T12:06:32.938Z</time></trkpt><trkpt lat="36.9174717" lon="-3.5526767"><ele>580.6</ele><time>2026-04-28T12:06:33.937Z</time></trkpt><trkpt lat="36.91742" lon="-3.552585"><ele>580.8</ele><time>2026-04-28T12:06:34.937Z</time></trkpt><trkpt lat="36.9173667" lon="-3.552515"><ele>581.0</ele><time>2026-04-28T12:06:35.935Z</time></trkpt><trkpt lat="36.9172533" lon="-3.5524067"><ele>581.0</ele><time>2026-04-28T12:06:37.938Z</time></trkpt><trkpt lat="36.9171417" lon="-3.5523867"><ele>581.0</ele><time>2026-04-28T12:06:38.938Z</time></trkpt><trkpt lat="36.91702" lon="-3.552355"><ele>581.0</ele><time>2026-04-28T12:06:39.935Z</time></trkpt><trkpt lat="36.9169283" lon="-3.5522967"><ele>581.0</ele><time>2026-04-28T12:06:40.936Z</time></trkpt><trkpt lat="36.916855" lon="-3.5522017"><ele>581.0</ele><time>2026-04-28T12:06:41.937Z</time></trkpt><trkpt lat="36.916795" lon="-3.5520783"><ele>583.0</ele><time>2026-04-28T12:06:42.937Z</time></trkpt><trkpt lat="36.9167383" lon="-3.5519517"><ele>585.0</ele><time>2026-04-28T12:06:43.937Z</time></trkpt><trkpt lat="36.916695" lon="-3.5518117"><ele>587.0</ele><time>2026-04-28T12:06:44.938Z</time></trkpt><trkpt lat="36.9166667" lon="-3.5516717"><ele>589.0</ele><time>2026-04-28T12:06:45.938Z</time></trkpt><trkpt lat="36.9166583" lon="-3.5515217"><ele>589.0</ele><time>2026-04-28T12:06:46.937Z</time></trkpt><trkpt lat="36.9166833" lon="-3.5513717"><ele>589.0</ele><time>2026-04-28T12:06:47.937Z</time></trkpt><trkpt lat="36.9167283" lon="-3.551225"><ele>589.0</ele><time>2026-04-28T12:06:48.937Z</time></trkpt><trkpt lat="36.916775" lon="-3.5510783"><ele>589.0</ele><time>2026-04-28T12:06:49.937Z</time></trkpt><trkpt lat="36.9168083" lon="-3.55093"><ele>579.75</ele><time>2026-04-28T12:06:50.937Z</time></trkpt><trkpt lat="36.9168267" lon="-3.5507817"><ele>570.5</ele><time>2026-04-28T12:06:51.938Z</time></trkpt><trkpt lat="36.9168333" lon="-3.550635"><ele>561.25</ele><time>2026-04-28T12:06:52.938Z</time></trkpt><trkpt lat="36.9168567" lon="-3.5504967"><ele>552.0</ele><time>2026-04-28T12:06:53.938Z</time></trkpt><trkpt lat="36.9169117" lon="-3.5503767"><ele>552.4</ele><time>2026-04-28T12:06:54.937Z</time></trkpt><trkpt lat="36.916985" lon="-3.55027"><ele>552.8000000000001</ele><time>2026-04-28T12:06:55.938Z</time></trkpt><trkpt lat="36.917065" lon="-3.5501683"><ele>553.2</ele><time>2026-04-28T12:06:56.938Z</time></trkpt><trkpt lat="36.9171283" lon="-3.5500617"><ele>553.6</ele><time>2026-04-28T12:06:57.937Z</time></trkpt><trkpt lat="36.9171833" lon="-3.5499467"><ele>554.0</ele><time>2026-04-28T12:06:58.934Z</time></trkpt><trkpt lat="36.9172317" lon="-3.549825"><ele>554.0</ele><time>2026-04-28T12:06:59.937Z</time></trkpt><trkpt lat="36.9172783" lon="-3.5496983"><ele>554.0</ele><time>2026-04-28T12:07:00.934Z</time></trkpt><trkpt lat="36.9173283" lon="-3.5495733"><ele>554.0</ele><time>2026-04-28T12:07:01.935Z</time></trkpt><trkpt lat="36.9173733" lon="-3.5494517"><ele>554.0</ele><time>2026-04-28T12:07:02.938Z</time></trkpt><trkpt lat="36.9174183" lon="-3.5493333"><ele>554.0</ele><time>2026-04-28T12:07:03.937Z</time></trkpt><trkpt lat="36.9174617" lon="-3.5492117"><ele>556.0</ele><time>2026-04-28T12:07:04.935Z</time></trkpt><trkpt lat="36.9175067" lon="-3.5490833"><ele>558.0</ele><time>2026-04-28T12:07:05.938Z</time></trkpt><trkpt lat="36.91754" lon="-3.54895"><ele>560.0</ele><time>2026-04-28T12:07:06.937Z</time></trkpt><trkpt lat="36.9175567" lon="-3.5488083"><ele>562.0</ele><time>2026-04-28T12:07:07.939Z</time></trkpt><trkpt lat="36.91756" lon="-3.54867"><ele>564.0</ele><time>2026-04-28T12:07:08.938Z</time></trkpt><trkpt lat="36.9175517" lon="-3.5485317"><ele>564.0</ele><time>2026-04-28T12:07:09.937Z</time></trkpt><trkpt lat="36.9175467" lon="-3.5483983"><ele>564.0</ele><time>2026-04-28T12:07:10.937Z</time></trkpt><trkpt lat="36.917545" lon="-3.548275"><ele>564.0</ele><time>2026-04-28T12:07:11.937Z</time></trkpt><trkpt lat="36.9175383" lon="-3.548155"><ele>564.0</ele><time>2026-04-28T12:07:12.938Z</time></trkpt><trkpt lat="36.9175267" lon="-3.5480383"><ele>564.0</ele><time>2026-04-28T12:07:13.937Z</time></trkpt><trkpt lat="36.9174983" lon="-3.547925"><ele>560.6</ele><time>2026-04-28T12:07:14.938Z</time></trkpt><trkpt lat="36.9174467" lon="-3.54782"><ele>557.2</ele><time>2026-04-28T12:07:15.935Z</time></trkpt><trkpt lat="36.9173783" lon="-3.5477267"><ele>553.8000000000001</ele><time>2026-04-28T12:07:16.934Z</time></trkpt><trkpt lat="36.9173033" lon="-3.54764"><ele>550.4</ele><time>2026-04-28T12:07:17.938Z</time></trkpt><trkpt lat="36.9172233" lon="-3.5475567"><ele>547.0</ele><time>2026-04-28T12:07:18.937Z</time></trkpt><trkpt lat="36.91714" lon="-3.5474733"><ele>547.0</ele><time>2026-04-28T12:07:19.935Z</time></trkpt><trkpt lat="36.9170567" lon="-3.5473917"><ele>547.0</ele><time>2026-04-28T12:07:20.938Z</time></trkpt><trkpt lat="36.9169717" lon="-3.5473133"><ele>547.0</ele><time>2026-04-28T12:07:21.937Z</time></trkpt><trkpt lat="36.9168783" lon="-3.5472433"><ele>547.0</ele><time>2026-04-28T12:07:22.937Z</time></trkpt><trkpt lat="36.91678" lon="-3.5471917"><ele>547.0</ele><time>2026-04-28T12:07:23.938Z</time></trkpt><trkpt lat="36.91668" lon="-3.5471583"><ele>549.6</ele><time>2026-04-28T12:07:24.938Z</time></trkpt><trkpt lat="36.916575" lon="-3.5471383"><ele>552.2</ele><time>2026-04-28T12:07:25.937Z</time></trkpt><trkpt lat="36.916465" lon="-3.547135"><ele>554.8</ele><time>2026-04-28T12:07:26.937Z</time></trkpt><trkpt lat="36.916355" lon="-3.5471267"><ele>557.4</ele><time>2026-04-28T12:07:27.937Z</time></trkpt><trkpt lat="36.9162433" lon="-3.5471083"><ele>560.0</ele><time>2026-04-28T12:07:28.938Z</time></trkpt><trkpt lat="36.91613" lon="-3.5470783"><ele>556.75</ele><time>2026-04-28T12:07:29.938Z</time></trkpt><trkpt lat="36.9160233" lon="-3.5470283"><ele>553.5</ele><time>2026-04-28T12:07:30.937Z</time></trkpt><trkpt lat="36.915925" lon="-3.54696"><ele>550.25</ele><time>2026-04-28T12:07:31.935Z</time></trkpt><trkpt lat="36.9158467" lon="-3.5468533"><ele>547.0</ele><time>2026-04-28T12:07:32.937Z</time></trkpt><trkpt lat="36.9157933" lon="-3.5467117"><ele>547.0</ele><time>2026-04-28T12:07:33.937Z</time></trkpt><trkpt lat="36.9157517" lon="-3.54655"><ele>547.0</ele><time>2026-04-28T12:07:34.937Z</time></trkpt><trkpt lat="36.915715" lon="-3.54638"><ele>547.0</ele><time>2026-04-28T12:07:35.937Z</time></trkpt><trkpt lat="36.915675" lon="-3.5462133"><ele>547.0</ele><time>2026-04-28T12:07:36.937Z</time></trkpt><trkpt lat="36.9156383" lon="-3.5460467"><ele>542.25</ele><time>2026-04-28T12:07:37.937Z</time></trkpt><trkpt lat="36.9155967" lon="-3.5458883"><ele>537.5</ele><time>2026-04-28T12:07:38.937Z</time></trkpt><trkpt lat="36.9155517" lon="-3.5457333"><ele>532.75</ele><time>2026-04-28T12:07:39.938Z</time></trkpt><trkpt lat="36.91551" lon="-3.5455817"><ele>528.0</ele><time>2026-04-28T12:07:40.937Z</time></trkpt><trkpt lat="36.915465" lon="-3.5454367"><ele>523.75</ele><time>2026-04-28T12:07:41.937Z</time></trkpt><trkpt lat="36.9154233" lon="-3.545295"><ele>519.5</ele><time>2026-04-28T12:07:42.937Z</time></trkpt><trkpt lat="36.91537" lon="-3.5451583"><ele>515.25</ele><time>2026-04-28T12:07:43.938Z</time></trkpt><trkpt lat="36.9153067" lon="-3.5450267"><ele>511.0</ele><time>2026-04-28T12:07:44.938Z</time></trkpt><trkpt lat="36.915235" lon="-3.5448917"><ele>511.0</ele><time>2026-04-28T12:07:45.937Z</time></trkpt><trkpt lat="36.91516" lon="-3.5447567"><ele>511.0</ele><time>2026-04-28T12:07:46.937Z</time></trkpt><trkpt lat="36.915075" lon="-3.5446333"><ele>511.0</ele><time>2026-04-28T12:07:47.937Z</time></trkpt><trkpt lat="36.9149833" lon="-3.544525"><ele>511.0</ele><time>2026-04-28T12:07:48.937Z</time></trkpt><trkpt lat="36.9148867" lon="-3.5444317"><ele>513.75</ele><time>2026-04-28T12:07:49.937Z</time></trkpt><trkpt lat="36.9147933" lon="-3.5443383"><ele>516.5</ele><time>2026-04-28T12:07:50.937Z</time></trkpt><trkpt lat="36.91472" lon="-3.5442333"><ele>519.25</ele><time>2026-04-28T12:07:51.936Z</time></trkpt><trkpt lat="36.9146617" lon="-3.5441133"><ele>522.0</ele><time>2026-04-28T12:07:52.936Z</time></trkpt><trkpt lat="36.91462" lon="-3.5439783"><ele>522.0</ele><time>2026-04-28T12:07:53.936Z</time></trkpt><trkpt lat="36.9145917" lon="-3.5438433"><ele>522.0</ele><time>2026-04-28T12:07:54.937Z</time></trkpt><trkpt lat="36.9145667" lon="-3.5437017"><ele>522.0</ele><time>2026-04-28T12:07:55.937Z</time></trkpt><trkpt lat="36.91454" lon="-3.5435633"><ele>522.0</ele><time>2026-04-28T12:07:56.937Z</time></trkpt><trkpt lat="36.9145" lon="-3.54343"><ele>523.5</ele><time>2026-04-28T12:07:57.937Z</time></trkpt><trkpt lat="36.9144367" lon="-3.5433017"><ele>525.0</ele><time>2026-04-28T12:07:58.933Z</time></trkpt><trkpt lat="36.9143567" lon="-3.54318"><ele>526.5</ele><time>2026-04-28T12:07:59.935Z</time></trkpt><trkpt lat="36.9142767" lon="-3.54306"><ele>528.0</ele><time>2026-04-28T12:08:00.934Z</time></trkpt><trkpt lat="36.9141883" lon="-3.5429383"><ele>522.25</ele><time>2026-04-28T12:08:01.933Z</time></trkpt><trkpt lat="36.9141033" lon="-3.5428183"><ele>516.5</ele><time>2026-04-28T12:08:02.935Z</time></trkpt><trkpt lat="36.9140233" lon="-3.5427017"><ele>510.75</ele><time>2026-04-28T12:08:03.935Z</time></trkpt><trkpt lat="36.9139433" lon="-3.5425917"><ele>505.0</ele><time>2026-04-28T12:08:04.934Z</time></trkpt><trkpt lat="36.913865" lon="-3.5424933"><ele>505.00000000000006</ele><time>2026-04-28T12:08:05.933Z</time></trkpt><trkpt lat="36.9137967" lon="-3.5424067"><ele>505.0</ele><time>2026-04-28T12:08:06.937Z</time></trkpt><trkpt lat="36.9137383" lon="-3.5423317"><ele>505.0</ele><time>2026-04-28T12:08:07.934Z</time></trkpt><trkpt lat="36.91368" lon="-3.5422667"><ele>505.0</ele><time>2026-04-28T12:08:08.935Z</time></trkpt><trkpt lat="36.9136183" lon="-3.542215"><ele>505.00000000000006</ele><time>2026-04-28T12:08:09.934Z</time></trkpt><trkpt lat="36.9135483" lon="-3.5421867"><ele>505.0</ele><time>2026-04-28T12:08:10.934Z</time></trkpt><trkpt lat="36.91347" lon="-3.5421933"><ele>507.33333333333337</ele><time>2026-04-28T12:08:11.936Z</time></trkpt><trkpt lat="36.9133983" lon="-3.54222"><ele>509.6666666666667</ele><time>2026-04-28T12:08:12.937Z</time></trkpt><trkpt lat="36.91331" lon="-3.54228"><ele>512.0</ele><time>2026-04-28T12:08:13.937Z</time></trkpt><trkpt lat="36.9132233" lon="-3.5423067"><ele>514.3333333333334</ele><time>2026-04-28T12:08:14.937Z</time></trkpt><trkpt lat="36.91314" lon="-3.542305"><ele>516.6666666666666</ele><time>2026-04-28T12:08:15.936Z</time></trkpt><trkpt lat="36.9130633" lon="-3.5422717"><ele>519.0</ele><time>2026-04-28T12:08:16.937Z</time></trkpt><trkpt lat="36.9129917" lon="-3.5422067"><ele>519.0</ele><time>2026-04-28T12:08:17.934Z</time></trkpt><trkpt lat="36.912935" lon="-3.54211"><ele>519.0</ele><time>2026-04-28T12:08:18.936Z</time></trkpt><trkpt lat="36.912925" lon="-3.5419817"><ele>519.0</ele><time>2026-04-28T12:08:19.934Z</time></trkpt><trkpt lat="36.912935" lon="-3.5418517"><ele>519.0</ele><time>2026-04-28T12:08:20.935Z</time></trkpt><trkpt lat="36.91295" lon="-3.5417267"><ele>519.0</ele><time>2026-04-28T12:08:21.934Z</time></trkpt><trkpt lat="36.9129483" lon="-3.5416183"><ele>514.5</ele><time>2026-04-28T12:08:22.935Z</time></trkpt><trkpt lat="36.9129433" lon="-3.5415"><ele>510.0</ele><time>2026-04-28T12:08:23.936Z</time></trkpt><trkpt lat="36.9130033" lon="-3.5413567"><ele>505.5</ele><time>2026-04-28T12:08:24.937Z</time></trkpt><trkpt lat="36.9130983" lon="-3.5412183"><ele>501.0</ele><time>2026-04-28T12:08:25.936Z</time></trkpt><trkpt lat="36.9132017" lon="-3.54111"><ele>497.25</ele><time>2026-04-28T12:08:26.936Z</time></trkpt><trkpt lat="36.9132767" lon="-3.5410117"><ele>493.5</ele><time>2026-04-28T12:08:27.936Z</time></trkpt><trkpt lat="36.9133183" lon="-3.5409217"><ele>489.75</ele><time>2026-04-28T12:08:28.935Z</time></trkpt><trkpt lat="36.9134167" lon="-3.5408683"><ele>486.0</ele><time>2026-04-28T12:08:29.933Z</time></trkpt><trkpt lat="36.91358" lon="-3.5408483"><ele>482.0</ele><time>2026-04-28T12:08:30.934Z</time></trkpt><trkpt lat="36.91375" lon="-3.5408317"><ele>478.0</ele><time>2026-04-28T12:08:31.935Z</time></trkpt><trkpt lat="36.91393" lon="-3.5408133"><ele>474.0</ele><time>2026-04-28T12:08:32.935Z</time></trkpt><trkpt lat="36.9140817" lon="-3.5407883"><ele>473.25</ele><time>2026-04-28T12:08:33.934Z</time></trkpt><trkpt lat="36.91424" lon="-3.540765"><ele>472.5</ele><time>2026-04-28T12:08:34.934Z</time></trkpt><trkpt lat="36.9143883" lon="-3.5407433"><ele>471.75</ele><time>2026-04-28T12:08:35.935Z</time></trkpt><trkpt lat="36.9145233" lon="-3.54071"><ele>471.0</ele><time>2026-04-28T12:08:36.935Z</time></trkpt><trkpt lat="36.91468" lon="-3.5406683"><ele>471.0</ele><time>2026-04-28T12:08:37.934Z</time></trkpt><trkpt lat="36.914845" lon="-3.5405967"><ele>471.0</ele><time>2026-04-28T12:08:38.935Z</time></trkpt><trkpt lat="36.9149483" lon="-3.5405"><ele>471.0</ele><time>2026-04-28T12:08:39.935Z</time></trkpt><trkpt lat="36.9150583" lon="-3.5403733"><ele>471.0</ele><time>2026-04-28T12:08:40.936Z</time></trkpt><trkpt lat="36.9151567" lon="-3.54024"><ele>471.0</ele><time>2026-04-28T12:08:41.937Z</time></trkpt><trkpt lat="36.9152433" lon="-3.5400817"><ele>471.0</ele><time>2026-04-28T12:08:42.936Z</time></trkpt><trkpt lat="36.9152983" lon="-3.53991"><ele>471.0</ele><time>2026-04-28T12:08:43.936Z</time></trkpt><trkpt lat="36.9153333" lon="-3.539725"><ele>471.25</ele><time>2026-04-28T12:08:44.937Z</time></trkpt><trkpt lat="36.9153433" lon="-3.53954"><ele>471.5</ele><time>2026-04-28T12:08:45.937Z</time></trkpt><trkpt lat="36.9153317" lon="-3.5393567"><ele>471.75</ele><time>2026-04-28T12:08:46.937Z</time></trkpt><trkpt lat="36.9152917" lon="-3.5391783"><ele>472.0</ele><time>2026-04-28T12:08:47.937Z</time></trkpt><trkpt lat="36.9152383" lon="-3.5390067"><ele>472.0</ele><time>2026-04-28T12:08:48.937Z</time></trkpt><trkpt lat="36.9151767" lon="-3.5388367"><ele>472.0</ele><time>2026-04-28T12:08:49.937Z</time></trkpt><trkpt lat="36.9151133" lon="-3.538675"><ele>472.0</ele><time>2026-04-28T12:08:50.937Z</time></trkpt><trkpt lat="36.9150533" lon="-3.53852"><ele>472.0</ele><time>2026-04-28T12:08:51.936Z</time></trkpt><trkpt lat="36.9150017" lon="-3.538375"><ele>473.25</ele><time>2026-04-28T12:08:52.936Z</time></trkpt><trkpt lat="36.91495" lon="-3.538235"><ele>474.5</ele><time>2026-04-28T12:08:53.937Z</time></trkpt><trkpt lat="36.9149067" lon="-3.5380967"><ele>475.75</ele><time>2026-04-28T12:08:54.935Z</time></trkpt><trkpt lat="36.914885" lon="-3.537955"><ele>477.0</ele><time>2026-04-28T12:08:55.936Z</time></trkpt><trkpt lat="36.9148867" lon="-3.5378167"><ele>480.25</ele><time>2026-04-28T12:08:56.937Z</time></trkpt><trkpt lat="36.9149067" lon="-3.5376833"><ele>483.5</ele><time>2026-04-28T12:08:57.936Z</time></trkpt><trkpt lat="36.9149617" lon="-3.537555"><ele>486.75</ele><time>2026-04-28T12:08:58.934Z</time></trkpt><trkpt lat="36.915035" lon="-3.5374367"><ele>490.0</ele><time>2026-04-28T12:08:59.935Z</time></trkpt><trkpt lat="36.9151183" lon="-3.537335"><ele>490.0</ele><time>2026-04-28T12:09:00.936Z</time></trkpt><trkpt lat="36.9152167" lon="-3.5372533"><ele>490.0</ele><time>2026-04-28T12:09:01.935Z</time></trkpt><trkpt lat="36.91534" lon="-3.5372067"><ele>490.0</ele><time>2026-04-28T12:09:02.936Z</time></trkpt><trkpt lat="36.9154517" lon="-3.5371617"><ele>490.0</ele><time>2026-04-28T12:09:03.936Z</time></trkpt><trkpt lat="36.9155683" lon="-3.537125"><ele>490.0</ele><time>2026-04-28T12:09:04.936Z</time></trkpt><trkpt lat="36.9156933" lon="-3.5371083"><ele>490.0</ele><time>2026-04-28T12:09:05.936Z</time></trkpt><trkpt lat="36.9157967" lon="-3.5370667"><ele>490.0</ele><time>2026-04-28T12:09:06.937Z</time></trkpt><trkpt lat="36.9158983" lon="-3.53701"><ele>490.0</ele><time>2026-04-28T12:09:07.937Z</time></trkpt><trkpt lat="36.9160117" lon="-3.5369517"><ele>490.0</ele><time>2026-04-28T12:09:08.937Z</time></trkpt><trkpt lat="36.91614" lon="-3.536885"><ele>490.0</ele><time>2026-04-28T12:09:09.934Z</time></trkpt><trkpt lat="36.91626" lon="-3.5367967"><ele>490.0</ele><time>2026-04-28T12:09:10.936Z</time></trkpt><trkpt lat="36.916345" lon="-3.536675"><ele>490.0</ele><time>2026-04-28T12:09:11.936Z</time></trkpt><trkpt lat="36.9164" lon="-3.5365333"><ele>490.0</ele><time>2026-04-28T12:09:12.937Z</time></trkpt><trkpt lat="36.9164383" lon="-3.5363783"><ele>490.0</ele><time>2026-04-28T12:09:13.936Z</time></trkpt><trkpt lat="36.916455" lon="-3.53622"><ele>490.0</ele><time>2026-04-28T12:09:14.938Z</time></trkpt><trkpt lat="36.9164583" lon="-3.5360567"><ele>490.0</ele><time>2026-04-28T12:09:15.937Z</time></trkpt><trkpt lat="36.916455" lon="-3.5358967"><ele>491.5</ele><time>2026-04-28T12:09:16.933Z</time></trkpt><trkpt lat="36.9164417" lon="-3.5357367"><ele>493.0</ele><time>2026-04-28T12:09:17.938Z</time></trkpt><trkpt lat="36.916435" lon="-3.535575"><ele>494.5</ele><time>2026-04-28T12:09:18.937Z</time></trkpt><trkpt lat="36.91643" lon="-3.535415"><ele>496.0</ele><time>2026-04-28T12:09:19.937Z</time></trkpt><trkpt lat="36.916435" lon="-3.5352617"><ele>498.0</ele><time>2026-04-28T12:09:20.937Z</time></trkpt><trkpt lat="36.9164517" lon="-3.5351067"><ele>500.0</ele><time>2026-04-28T12:09:21.937Z</time></trkpt><trkpt lat="36.9164783" lon="-3.534955"><ele>502.0</ele><time>2026-04-28T12:09:22.937Z</time></trkpt><trkpt lat="36.9165133" lon="-3.5347983"><ele>504.0</ele><time>2026-04-28T12:09:23.938Z</time></trkpt><trkpt lat="36.9165583" lon="-3.5346517"><ele>505.0</ele><time>2026-04-28T12:09:24.937Z</time></trkpt><trkpt lat="36.9166267" lon="-3.5345267"><ele>506.0</ele><time>2026-04-28T12:09:25.936Z</time></trkpt><trkpt lat="36.9167083" lon="-3.5344117"><ele>507.0</ele><time>2026-04-28T12:09:26.935Z</time></trkpt><trkpt lat="36.9167967" lon="-3.53431"><ele>508.0</ele><time>2026-04-28T12:09:27.937Z</time></trkpt><trkpt lat="36.9168917" lon="-3.534225"><ele>508.0</ele><time>2026-04-28T12:09:28.933Z</time></trkpt><trkpt lat="36.9169917" lon="-3.5341533"><ele>508.0</ele><time>2026-04-28T12:09:29.936Z</time></trkpt><trkpt lat="36.9170917" lon="-3.53409"><ele>508.0</ele><time>2026-04-28T12:09:30.935Z</time></trkpt><trkpt lat="36.9171933" lon="-3.534035"><ele>508.0</ele><time>2026-04-28T12:09:31.936Z</time></trkpt><trkpt lat="36.9173017" lon="-3.5339883"><ele>508.0</ele><time>2026-04-28T12:09:32.936Z</time></trkpt><trkpt lat="36.9174183" lon="-3.5339583"><ele>508.0</ele><time>2026-04-28T12:09:33.937Z</time></trkpt><trkpt lat="36.9175433" lon="-3.5339383"><ele>508.0</ele><time>2026-04-28T12:09:34.935Z</time></trkpt><trkpt lat="36.9176717" lon="-3.5339183"><ele>508.0</ele><time>2026-04-28T12:09:35.936Z</time></trkpt><trkpt lat="36.917805" lon="-3.5339017"><ele>506.25</ele><time>2026-04-28T12:09:36.938Z</time></trkpt><trkpt lat="36.91794" lon="-3.5338883"><ele>504.5</ele><time>2026-04-28T12:09:37.936Z</time></trkpt><trkpt lat="36.9180717" lon="-3.5338667"><ele>502.75</ele><time>2026-04-28T12:09:38.936Z</time></trkpt><trkpt lat="36.918205" lon="-3.5338417"><ele>501.0</ele><time>2026-04-28T12:09:39.936Z</time></trkpt><trkpt lat="36.9183333" lon="-3.5338133"><ele>501.25</ele><time>2026-04-28T12:09:40.936Z</time></trkpt><trkpt lat="36.9184583" lon="-3.5337883"><ele>501.5</ele><time>2026-04-28T12:09:41.937Z</time></trkpt><trkpt lat="36.91858" lon="-3.5337633"><ele>501.75</ele><time>2026-04-28T12:09:42.937Z</time></trkpt><trkpt lat="36.9186917" lon="-3.5337333"><ele>502.0</ele><time>2026-04-28T12:09:43.936Z</time></trkpt><trkpt lat="36.9187967" lon="-3.5337133"><ele>503.6</ele><time>2026-04-28T12:09:44.937Z</time></trkpt><trkpt lat="36.918895" lon="-3.5336983"><ele>505.20000000000005</ele><time>2026-04-28T12:09:45.937Z</time></trkpt><trkpt lat="36.918985" lon="-3.53368"><ele>506.8</ele><time>2026-04-28T12:09:46.937Z</time></trkpt><trkpt lat="36.9190833" lon="-3.5336633"><ele>508.4</ele><time>2026-04-28T12:09:47.935Z</time></trkpt><trkpt lat="36.919185" lon="-3.5336417"><ele>510.0</ele><time>2026-04-28T12:09:48.934Z</time></trkpt><trkpt lat="36.9192933" lon="-3.533615"><ele>512.0</ele><time>2026-04-28T12:09:49.935Z</time></trkpt><trkpt lat="36.9194067" lon="-3.5335867"><ele>514.0</ele><time>2026-04-28T12:09:50.935Z</time></trkpt><trkpt lat="36.9195217" lon="-3.5335617"><ele>516.0</ele><time>2026-04-28T12:09:51.934Z</time></trkpt><trkpt lat="36.91964" lon="-3.5335317"><ele>518.0</ele><time>2026-04-28T12:09:52.935Z</time></trkpt><trkpt lat="36.9197633" lon="-3.5335033"><ele>518.0</ele><time>2026-04-28T12:09:53.934Z</time></trkpt><trkpt lat="36.9198867" lon="-3.5334733"><ele>518.0</ele><time>2026-04-28T12:09:54.938Z</time></trkpt><trkpt lat="36.9200133" lon="-3.533445"><ele>518.0</ele><time>2026-04-28T12:09:55.936Z</time></trkpt><trkpt lat="36.9201383" lon="-3.5334133"><ele>518.0</ele><time>2026-04-28T12:09:56.937Z</time></trkpt><trkpt lat="36.920265" lon="-3.53338"><ele>521.0</ele><time>2026-04-28T12:09:57.937Z</time></trkpt><trkpt lat="36.92039" lon="-3.5333467"><ele>524.0</ele><time>2026-04-28T12:09:58.936Z</time></trkpt><trkpt lat="36.9205167" lon="-3.5333183"><ele>527.0</ele><time>2026-04-28T12:09:59.935Z</time></trkpt><trkpt lat="36.9206433" lon="-3.5332933"><ele>530.0</ele><time>2026-04-28T12:10:00.934Z</time></trkpt><trkpt lat="36.9207683" lon="-3.5332633"><ele>530.0</ele><time>2026-04-28T12:10:01.936Z</time></trkpt><trkpt lat="36.920895" lon="-3.533235"><ele>530.0</ele><time>2026-04-28T12:10:02.934Z</time></trkpt><trkpt lat="36.9210217" lon="-3.5332067"><ele>530.0</ele><time>2026-04-28T12:10:03.934Z</time></trkpt><trkpt lat="36.921145" lon="-3.53318"><ele>530.0</ele><time>2026-04-28T12:10:04.934Z</time></trkpt><trkpt lat="36.9212633" lon="-3.5331517"><ele>531.0</ele><time>2026-04-28T12:10:05.935Z</time></trkpt><trkpt lat="36.92138" lon="-3.5331233"><ele>532.0</ele><time>2026-04-28T12:10:06.935Z</time></trkpt><trkpt lat="36.9214983" lon="-3.5330983"><ele>533.0</ele><time>2026-04-28T12:10:07.934Z</time></trkpt><trkpt lat="36.92162" lon="-3.5330733"><ele>534.0</ele><time>2026-04-28T12:10:08.935Z</time></trkpt><trkpt lat="36.92174" lon="-3.5330483"><ele>535.25</ele><time>2026-04-28T12:10:09.935Z</time></trkpt><trkpt lat="36.9218617" lon="-3.5330267"><ele>536.5</ele><time>2026-04-28T12:10:10.935Z</time></trkpt><trkpt lat="36.9219833" lon="-3.533"><ele>537.75</ele><time>2026-04-28T12:10:11.936Z</time></trkpt><trkpt lat="36.922105" lon="-3.5329667"><ele>539.0</ele><time>2026-04-28T12:10:12.937Z</time></trkpt><trkpt lat="36.922225" lon="-3.5329417"><ele>539.0</ele><time>2026-04-28T12:10:13.937Z</time></trkpt><trkpt lat="36.92235" lon="-3.53292"><ele>539.0</ele><time>2026-04-28T12:10:14.937Z</time></trkpt><trkpt lat="36.92247" lon="-3.5329017"><ele>539.0</ele><time>2026-04-28T12:10:15.937Z</time></trkpt><trkpt lat="36.922585" lon="-3.5328833"><ele>539.0</ele><time>2026-04-28T12:10:16.937Z</time></trkpt><trkpt lat="36.9226983" lon="-3.5328767"><ele>540.25</ele><time>2026-04-28T12:10:17.934Z</time></trkpt><trkpt lat="36.922815" lon="-3.5328917"><ele>541.5</ele><time>2026-04-28T12:10:18.935Z</time></trkpt><trkpt lat="36.92293" lon="-3.5329317"><ele>542.75</ele><time>2026-04-28T12:10:19.934Z</time></trkpt><trkpt lat="36.9230383" lon="-3.532965"><ele>544.0</ele><time>2026-04-28T12:10:20.935Z</time></trkpt><trkpt lat="36.9231433" lon="-3.5330233"><ele>544.0</ele><time>2026-04-28T12:10:21.934Z</time></trkpt><trkpt lat="36.9232383" lon="-3.5330933"><ele>544.0</ele><time>2026-04-28T12:10:22.934Z</time></trkpt><trkpt lat="36.9233283" lon="-3.53316"><ele>544.0</ele><time>2026-04-28T12:10:23.935Z</time></trkpt><trkpt lat="36.9234083" lon="-3.5332467"><ele>544.0</ele><time>2026-04-28T12:10:24.938Z</time></trkpt><trkpt lat="36.92348" lon="-3.53332"><ele>544.0</ele><time>2026-04-28T12:10:25.937Z</time></trkpt><trkpt lat="36.9235333" lon="-3.5334117"><ele>546.2</ele><time>2026-04-28T12:10:26.937Z</time></trkpt><trkpt lat="36.9235783" lon="-3.5335117"><ele>548.4</ele><time>2026-04-28T12:10:27.938Z</time></trkpt><trkpt lat="36.9236267" lon="-3.5335833"><ele>550.6</ele><time>2026-04-28T12:10:28.935Z</time></trkpt><trkpt lat="36.9236933" lon="-3.5336533"><ele>552.8</ele><time>2026-04-28T12:10:30.934Z</time></trkpt><trkpt lat="36.9237733" lon="-3.53365"><ele>555.0</ele><time>2026-04-28T12:10:32.935Z</time></trkpt><trkpt lat="36.9238767" lon="-3.5335767"><ele>555.0</ele><time>2026-04-28T12:10:34.934Z</time></trkpt><trkpt lat="36.92394" lon="-3.5335383"><ele>555.0</ele><time>2026-04-28T12:10:35.934Z</time></trkpt><trkpt lat="36.924005" lon="-3.533525"><ele>555.0</ele><time>2026-04-28T12:10:36.937Z</time></trkpt><trkpt lat="36.9241233" lon="-3.533595"><ele>555.0</ele><time>2026-04-28T12:10:38.934Z</time></trkpt><trkpt lat="36.9241917" lon="-3.5337367"><ele>555.0</ele><time>2026-04-28T12:10:40.934Z</time></trkpt><trkpt lat="36.9242167" lon="-3.53391"><ele>554.8333333333334</ele><time>2026-04-28T12:10:42.935Z</time></trkpt><trkpt lat="36.9242117" lon="-3.533995"><ele>554.6666666666666</ele><time>2026-04-28T12:10:43.936Z</time></trkpt><trkpt lat="36.9241967" lon="-3.5341117"><ele>554.5</ele><time>2026-04-28T12:10:44.937Z</time></trkpt><trkpt lat="36.924185" lon="-3.5342067"><ele>554.3333333333333</ele><time>2026-04-28T12:10:45.936Z</time></trkpt><trkpt lat="36.9241917" lon="-3.5343333"><ele>554.1666666666666</ele><time>2026-04-28T12:10:46.938Z</time></trkpt><trkpt lat="36.9242233" lon="-3.5344533"><ele>554.0</ele><time>2026-04-28T12:10:47.934Z</time></trkpt><trkpt lat="36.9242783" lon="-3.5345717"><ele>553.8</ele><time>2026-04-28T12:10:48.936Z</time></trkpt><trkpt lat="36.9243333" lon="-3.534675"><ele>553.5999999999999</ele><time>2026-04-28T12:10:49.936Z</time></trkpt><trkpt lat="36.92439" lon="-3.534765"><ele>553.4</ele><time>2026-04-28T12:10:50.936Z</time></trkpt><trkpt lat="36.9244467" lon="-3.534855"><ele>553.1999999999999</ele><time>2026-04-28T12:10:51.936Z</time></trkpt><trkpt lat="36.9244967" lon="-3.534955"><ele>553.0</ele><time>2026-04-28T12:10:52.936Z</time></trkpt><trkpt lat="36.9245517" lon="-3.535035"><ele>553.0</ele><time>2026-04-28T12:10:53.936Z</time></trkpt><trkpt lat="36.9246283" lon="-3.5350917"><ele>553.0</ele><time>2026-04-28T12:10:54.937Z</time></trkpt><trkpt lat="36.9247133" lon="-3.5351383"><ele>553.0</ele><time>2026-04-28T12:10:55.937Z</time></trkpt><trkpt lat="36.924805" lon="-3.535165"><ele>553.0</ele><time>2026-04-28T12:10:56.937Z</time></trkpt><trkpt lat="36.9249167" lon="-3.5351817"><ele>553.0</ele><time>2026-04-28T12:10:57.937Z</time></trkpt><trkpt lat="36.92505" lon="-3.53517"><ele>553.0</ele><time>2026-04-28T12:10:58.937Z</time></trkpt><trkpt lat="36.9251733" lon="-3.53516"><ele>553.0</ele><time>2026-04-28T12:10:59.938Z</time></trkpt><trkpt lat="36.9252833" lon="-3.5351617"><ele>553.0</ele><time>2026-04-28T12:11:00.936Z</time></trkpt><trkpt lat="36.9253833" lon="-3.53518"><ele>553.0</ele><time>2026-04-28T12:11:01.936Z</time></trkpt><trkpt lat="36.9254983" lon="-3.5351833"><ele>553.0</ele><time>2026-04-28T12:11:02.936Z</time></trkpt><trkpt lat="36.92561" lon="-3.5351917"><ele>553.0</ele><time>2026-04-28T12:11:03.935Z</time></trkpt><trkpt lat="36.9257117" lon="-3.535235"><ele>553.0</ele><time>2026-04-28T12:11:04.936Z</time></trkpt><trkpt lat="36.9257917" lon="-3.5353167"><ele>553.0</ele><time>2026-04-28T12:11:05.937Z</time></trkpt><trkpt lat="36.9258533" lon="-3.535425"><ele>553.0</ele><time>2026-04-28T12:11:06.934Z</time></trkpt><trkpt lat="36.92591" lon="-3.5355433"><ele>550.6</ele><time>2026-04-28T12:11:07.934Z</time></trkpt><trkpt lat="36.9259583" lon="-3.535665"><ele>548.1999999999999</ele><time>2026-04-28T12:11:08.937Z</time></trkpt><trkpt lat="36.926005" lon="-3.5357867"><ele>545.8</ele><time>2026-04-28T12:11:09.938Z</time></trkpt><trkpt lat="36.9260533" lon="-3.535905"><ele>543.4</ele><time>2026-04-28T12:11:10.936Z</time></trkpt><trkpt lat="36.9261067" lon="-3.5360133"><ele>541.0</ele><time>2026-04-28T12:11:11.937Z</time></trkpt><trkpt lat="36.9261567" lon="-3.5361217"><ele>539.2</ele><time>2026-04-28T12:11:12.937Z</time></trkpt><trkpt lat="36.9262083" lon="-3.53623"><ele>537.4000000000001</ele><time>2026-04-28T12:11:13.937Z</time></trkpt><trkpt lat="36.92626" lon="-3.53634"><ele>535.6</ele><time>2026-04-28T12:11:14.939Z</time></trkpt><trkpt lat="36.92631" lon="-3.5364533"><ele>533.8000000000001</ele><time>2026-04-28T12:11:15.936Z</time></trkpt><trkpt lat="36.926365" lon="-3.5365583"><ele>532.0</ele><time>2026-04-28T12:11:16.937Z</time></trkpt><trkpt lat="36.926415" lon="-3.5366617"><ele>532.0</ele><time>2026-04-28T12:11:17.934Z</time></trkpt><trkpt lat="36.9264667" lon="-3.5367567"><ele>532.0</ele><time>2026-04-28T12:11:18.937Z</time></trkpt><trkpt lat="36.926525" lon="-3.536845"><ele>532.0</ele><time>2026-04-28T12:11:19.936Z</time></trkpt><trkpt lat="36.926595" lon="-3.536915"><ele>532.0</ele><time>2026-04-28T12:11:20.936Z</time></trkpt><trkpt lat="36.9266783" lon="-3.536965"><ele>532.0</ele><time>2026-04-28T12:11:21.936Z</time></trkpt><trkpt lat="36.926775" lon="-3.5369767"><ele>532.0</ele><time>2026-04-28T12:11:22.935Z</time></trkpt><trkpt lat="36.92687" lon="-3.5369683"><ele>532.0</ele><time>2026-04-28T12:11:23.938Z</time></trkpt><trkpt lat="36.9269483" lon="-3.5369583"><ele>532.0</ele><time>2026-04-28T12:11:24.938Z</time></trkpt><trkpt lat="36.9270317" lon="-3.536885"><ele>532.0</ele><time>2026-04-28T12:11:25.937Z</time></trkpt><trkpt lat="36.9271067" lon="-3.5368067"><ele>532.0</ele><time>2026-04-28T12:11:26.937Z</time></trkpt><trkpt lat="36.927175" lon="-3.53677"><ele>532.0</ele><time>2026-04-28T12:11:27.937Z</time></trkpt><trkpt lat="36.9272867" lon="-3.5367817"><ele>532.0</ele><time>2026-04-28T12:11:28.936Z</time></trkpt><trkpt lat="36.9273733" lon="-3.536825"><ele>532.0</ele><time>2026-04-28T12:11:29.936Z</time></trkpt><trkpt lat="36.9274467" lon="-3.536905"><ele>532.0</ele><time>2026-04-28T12:11:30.937Z</time></trkpt><trkpt lat="36.9274983" lon="-3.5369917"><ele>532.0</ele><time>2026-04-28T12:11:31.938Z</time></trkpt><trkpt lat="36.9275267" lon="-3.5370867"><ele>532.0</ele><time>2026-04-28T12:11:32.935Z</time></trkpt><trkpt lat="36.9275433" lon="-3.53719"><ele>532.0</ele><time>2026-04-28T12:11:33.934Z</time></trkpt><trkpt lat="36.9275517" lon="-3.5372883"><ele>532.0</ele><time>2026-04-28T12:11:34.937Z</time></trkpt><trkpt lat="36.9275283" lon="-3.537385"><ele>532.0</ele><time>2026-04-28T12:11:35.935Z</time></trkpt><trkpt lat="36.9274933" lon="-3.53748"><ele>532.0</ele><time>2026-04-28T12:11:36.936Z</time></trkpt><trkpt lat="36.9274683" lon="-3.5375767"><ele>532.0</ele><time>2026-04-28T12:11:37.935Z</time></trkpt><trkpt lat="36.927445" lon="-3.53768"><ele>532.0</ele><time>2026-04-28T12:11:38.937Z</time></trkpt><trkpt lat="36.9274017" lon="-3.5377833"><ele>532.0</ele><time>2026-04-28T12:11:39.937Z</time></trkpt><trkpt lat="36.9273033" lon="-3.53792"><ele>531.8000000000001</ele><time>2026-04-28T12:11:40.934Z</time></trkpt><trkpt lat="36.9272267" lon="-3.5380583"><ele>531.6</ele><time>2026-04-28T12:11:41.934Z</time></trkpt><trkpt lat="36.9271933" lon="-3.5381917"><ele>531.4000000000001</ele><time>2026-04-28T12:11:42.938Z</time></trkpt><trkpt lat="36.9271783" lon="-3.5383167"><ele>531.2</ele><time>2026-04-28T12:11:43.937Z</time></trkpt><trkpt lat="36.92717" lon="-3.5384367"><ele>531.0</ele><time>2026-04-28T12:11:44.937Z</time></trkpt><trkpt lat="36.927185" lon="-3.5385467"><ele>531.0</ele><time>2026-04-28T12:11:45.934Z</time></trkpt><trkpt lat="36.927195" lon="-3.5386483"><ele>531.0</ele><time>2026-04-28T12:11:46.937Z</time></trkpt><trkpt lat="36.9271967" lon="-3.5387667"><ele>531.0</ele><time>2026-04-28T12:11:47.938Z</time></trkpt><trkpt lat="36.9271983" lon="-3.5388983"><ele>531.0</ele><time>2026-04-28T12:11:48.937Z</time></trkpt><trkpt lat="36.9271917" lon="-3.53902"><ele>531.0</ele><time>2026-04-28T12:11:49.934Z</time></trkpt><trkpt lat="36.9271917" lon="-3.539135"><ele>530.6666666666666</ele><time>2026-04-28T12:11:50.937Z</time></trkpt><trkpt lat="36.9271933" lon="-3.5392467"><ele>530.3333333333334</ele><time>2026-04-28T12:11:51.936Z</time></trkpt><trkpt lat="36.9271967" lon="-3.5393517"><ele>530.0</ele><time>2026-04-28T12:11:52.937Z</time></trkpt><trkpt lat="36.92719" lon="-3.5394433"><ele>529.6666666666667</ele><time>2026-04-28T12:11:53.934Z</time></trkpt><trkpt lat="36.9271867" lon="-3.5395317"><ele>529.3333333333334</ele><time>2026-04-28T12:11:54.934Z</time></trkpt><trkpt lat="36.9271833" lon="-3.5396783"><ele>529.0</ele><time>2026-04-28T12:11:56.935Z</time></trkpt><trkpt lat="36.9271867" lon="-3.5398033"><ele>528.1666666666667</ele><time>2026-04-28T12:11:58.935Z</time></trkpt><trkpt lat="36.927185" lon="-3.5399483"><ele>527.3333333333334</ele><time>2026-04-28T12:12:00.935Z</time></trkpt><trkpt lat="36.92718" lon="-3.5400367"><ele>526.5</ele><time>2026-04-28T12:12:01.935Z</time></trkpt><trkpt lat="36.9271767" lon="-3.5401333"><ele>525.6666666666666</ele><time>2026-04-28T12:12:02.934Z</time></trkpt><trkpt lat="36.9271733" lon="-3.5402367"><ele>524.8333333333333</ele><time>2026-04-28T12:12:03.935Z</time></trkpt><trkpt lat="36.927175" lon="-3.5403383"><ele>524.0</ele><time>2026-04-28T12:12:04.936Z</time></trkpt><trkpt lat="36.9271767" lon="-3.540435"><ele>524.0</ele><time>2026-04-28T12:12:05.935Z</time></trkpt><trkpt lat="36.9271867" lon="-3.5405233"><ele>524.0</ele><time>2026-04-28T12:12:06.935Z</time></trkpt><trkpt lat="36.9271967" lon="-3.5406033"><ele>524.0</ele><time>2026-04-28T12:12:07.935Z</time></trkpt><trkpt lat="36.9272217" lon="-3.5407433"><ele>524.0</ele><time>2026-04-28T12:12:09.935Z</time></trkpt><trkpt lat="36.9272283" lon="-3.5408767"><ele>524.0</ele><time>2026-04-28T12:12:11.935Z</time></trkpt><trkpt lat="36.9272617" lon="-3.5409917"><ele>524.0</ele><time>2026-04-28T12:12:13.934Z</time></trkpt><trkpt lat="36.9272967" lon="-3.54112"><ele>524.0</ele><time>2026-04-28T12:12:15.935Z</time></trkpt><trkpt lat="36.9273183" lon="-3.5412"><ele>524.0</ele><time>2026-04-28T12:12:16.934Z</time></trkpt><trkpt lat="36.92734" lon="-3.541305"><ele>524.0</ele><time>2026-04-28T12:12:17.935Z</time></trkpt><trkpt lat="36.9273533" lon="-3.5414267"><ele>524.0</ele><time>2026-04-28T12:12:18.937Z</time></trkpt><trkpt lat="36.9273667" lon="-3.5415517"><ele>524.0</ele><time>2026-04-28T12:12:19.934Z</time></trkpt><trkpt lat="36.9273783" lon="-3.54167"><ele>524.0</ele><time>2026-04-28T12:12:20.935Z</time></trkpt><trkpt lat="36.9273867" lon="-3.5417917"><ele>524.0</ele><time>2026-04-28T12:12:21.935Z</time></trkpt><trkpt lat="36.9273917" lon="-3.5419117"><ele>524.0</ele><time>2026-04-28T12:12:22.934Z</time></trkpt><trkpt lat="36.9273917" lon="-3.5420233"><ele>524.0</ele><time>2026-04-28T12:12:23.935Z</time></trkpt><trkpt lat="36.927395" lon="-3.5421383"><ele>524.0</ele><time>2026-04-28T12:12:24.937Z</time></trkpt><trkpt lat="36.9274" lon="-3.5422567"><ele>524.0</ele><time>2026-04-28T12:12:25.937Z</time></trkpt><trkpt lat="36.9274017" lon="-3.5423717"><ele>524.0</ele><time>2026-04-28T12:12:26.935Z</time></trkpt><trkpt lat="36.9274" lon="-3.54247"><ele>524.0</ele><time>2026-04-28T12:12:27.937Z</time></trkpt><trkpt lat="36.9273967" lon="-3.5425533"><ele>524.0</ele><time>2026-04-28T12:12:28.936Z</time></trkpt><trkpt lat="36.927395" lon="-3.542665"><ele>524.0</ele><time>2026-04-28T12:12:30.936Z</time></trkpt><trkpt lat="36.9273983" lon="-3.542745"><ele>524.0</ele><time>2026-04-28T12:12:32.935Z</time></trkpt><trkpt lat="36.9273983" lon="-3.5428383"><ele>524.0</ele><time>2026-04-28T12:12:34.935Z</time></trkpt><trkpt lat="36.9273967" lon="-3.5429817"><ele>524.0</ele><time>2026-04-28T12:12:36.935Z</time></trkpt><trkpt lat="36.9273917" lon="-3.5430917"><ele>524.0</ele><time>2026-04-28T12:12:37.935Z</time></trkpt><trkpt lat="36.9273767" lon="-3.54321"><ele>524.0</ele><time>2026-04-28T12:12:38.934Z</time></trkpt><trkpt lat="36.9273467" lon="-3.543345"><ele>524.0</ele><time>2026-04-28T12:12:39.934Z</time></trkpt><trkpt lat="36.9273383" lon="-3.5434767"><ele>524.0</ele><time>2026-04-28T12:12:40.934Z</time></trkpt><trkpt lat="36.9273367" lon="-3.5436017"><ele>524.0</ele><time>2026-04-28T12:12:41.935Z</time></trkpt><trkpt lat="36.927315" lon="-3.5437283"><ele>524.0</ele><time>2026-04-28T12:12:42.935Z</time></trkpt><trkpt lat="36.927295" lon="-3.543855"><ele>524.0</ele><time>2026-04-28T12:12:43.936Z</time></trkpt><trkpt lat="36.9272867" lon="-3.54398"><ele>524.0</ele><time>2026-04-28T12:12:44.938Z</time></trkpt><trkpt lat="36.9272783" lon="-3.5441"><ele>524.0</ele><time>2026-04-28T12:12:45.934Z</time></trkpt><trkpt lat="36.927265" lon="-3.5442183"><ele>524.0</ele><time>2026-04-28T12:12:46.937Z</time></trkpt><trkpt lat="36.927255" lon="-3.5443383"><ele>524.0</ele><time>2026-04-28T12:12:47.935Z</time></trkpt><trkpt lat="36.9272433" lon="-3.5444683"><ele>524.0</ele><time>2026-04-28T12:12:48.937Z</time></trkpt><trkpt lat="36.92723" lon="-3.5446033"><ele>524.75</ele><time>2026-04-28T12:12:49.935Z</time></trkpt><trkpt lat="36.9272183" lon="-3.5447483"><ele>525.5</ele><time>2026-04-28T12:12:50.938Z</time></trkpt><trkpt lat="36.9272183" lon="-3.5448983"><ele>526.25</ele><time>2026-04-28T12:12:51.937Z</time></trkpt><trkpt lat="36.9272233" lon="-3.5450483"><ele>527.0</ele><time>2026-04-28T12:12:52.937Z</time></trkpt><trkpt lat="36.92726" lon="-3.5451967"><ele>527.0</ele><time>2026-04-28T12:12:53.936Z</time></trkpt><trkpt lat="36.9273217" lon="-3.545325"><ele>527.0</ele><time>2026-04-28T12:12:54.937Z</time></trkpt><trkpt lat="36.9274283" lon="-3.5454367"><ele>527.0</ele><time>2026-04-28T12:12:55.937Z</time></trkpt><trkpt lat="36.927505" lon="-3.5455317"><ele>527.0</ele><time>2026-04-28T12:12:56.937Z</time></trkpt><trkpt lat="36.9275567" lon="-3.5456083"><ele>527.0</ele><time>2026-04-28T12:12:57.937Z</time></trkpt><trkpt lat="36.9276067" lon="-3.5456683"><ele>529.25</ele><time>2026-04-28T12:12:58.937Z</time></trkpt><trkpt lat="36.9277367" lon="-3.545685"><ele>531.5</ele><time>2026-04-28T12:12:59.935Z</time></trkpt><trkpt lat="36.927885" lon="-3.5456917"><ele>533.75</ele><time>2026-04-28T12:13:00.935Z</time></trkpt><trkpt lat="36.928005" lon="-3.5457017"><ele>536.0</ele><time>2026-04-28T12:13:01.934Z</time></trkpt><trkpt lat="36.9280983" lon="-3.545705"><ele>536.0</ele><time>2026-04-28T12:13:02.935Z</time></trkpt><trkpt lat="36.928255" lon="-3.545685"><ele>536.0</ele><time>2026-04-28T12:13:03.934Z</time></trkpt><trkpt lat="36.9284133" lon="-3.5456783"><ele>536.0</ele><time>2026-04-28T12:13:04.935Z</time></trkpt><trkpt lat="36.9285133" lon="-3.545685"><ele>536.0</ele><time>2026-04-28T12:13:05.935Z</time></trkpt><trkpt lat="36.9286317" lon="-3.5456717"><ele>537.5</ele><time>2026-04-28T12:13:06.937Z</time></trkpt><trkpt lat="36.9287667" lon="-3.54565"><ele>539.0</ele><time>2026-04-28T12:13:07.934Z</time></trkpt><trkpt lat="36.9288717" lon="-3.54563"><ele>540.5</ele><time>2026-04-28T12:13:08.937Z</time></trkpt><trkpt lat="36.9290333" lon="-3.5455983"><ele>542.0</ele><time>2026-04-28T12:13:09.936Z</time></trkpt><trkpt lat="36.92918" lon="-3.5455667"><ele>543.25</ele><time>2026-04-28T12:13:10.937Z</time></trkpt><trkpt lat="36.9292833" lon="-3.5455433"><ele>544.5</ele><time>2026-04-28T12:13:11.937Z</time></trkpt><trkpt lat="36.9294667" lon="-3.5455283"><ele>545.75</ele><time>2026-04-28T12:13:13.934Z</time></trkpt><trkpt lat="36.929555" lon="-3.5455717"><ele>547.0</ele><time>2026-04-28T12:13:15.934Z</time></trkpt><trkpt lat="36.929715" lon="-3.5455367"><ele>547.0</ele><time>2026-04-28T12:13:16.934Z</time></trkpt><trkpt lat="36.929875" lon="-3.5454967"><ele>547.0</ele><time>2026-04-28T12:13:17.934Z</time></trkpt><trkpt lat="36.92998" lon="-3.5454667"><ele>547.0</ele><time>2026-04-28T12:13:18.935Z</time></trkpt><trkpt lat="36.93007" lon="-3.54545"><ele>547.0</ele><time>2026-04-28T12:13:19.936Z</time></trkpt><trkpt lat="36.93015" lon="-3.545435"><ele>547.0</ele><time>2026-04-28T12:13:20.935Z</time></trkpt><trkpt lat="36.9302317" lon="-3.5454167"><ele>548.6</ele><time>2026-04-28T12:13:21.934Z</time></trkpt><trkpt lat="36.93031" lon="-3.545405"><ele>550.2</ele><time>2026-04-28T12:13:22.934Z</time></trkpt><trkpt lat="36.9303867" lon="-3.5453983"><ele>551.8</ele><time>2026-04-28T12:13:23.934Z</time></trkpt><trkpt lat="36.93057" lon="-3.545405"><ele>553.4</ele><time>2026-04-28T12:13:25.934Z</time></trkpt><trkpt lat="36.930645" lon="-3.5454433"><ele>555.0</ele><time>2026-04-28T12:13:26.935Z</time></trkpt><trkpt lat="36.93076" lon="-3.5455283"><ele>555.0</ele><time>2026-04-28T12:13:27.936Z</time></trkpt><trkpt lat="36.9308517" lon="-3.5456233"><ele>555.0</ele><time>2026-04-28T12:13:28.935Z</time></trkpt><trkpt lat="36.930865" lon="-3.54573"><ele>555.0</ele><time>2026-04-28T12:13:29.936Z</time></trkpt><trkpt lat="36.9308783" lon="-3.54588"><ele>555.0</ele><time>2026-04-28T12:13:30.935Z</time></trkpt><trkpt lat="36.9308717" lon="-3.54602"><ele>555.0</ele><time>2026-04-28T12:13:31.935Z</time></trkpt><trkpt lat="36.9308417" lon="-3.5461717"><ele>558.25</ele><time>2026-04-28T12:13:32.938Z</time></trkpt><trkpt lat="36.9307717" lon="-3.546295"><ele>561.5</ele><time>2026-04-28T12:13:33.935Z</time></trkpt><trkpt lat="36.930685" lon="-3.5463917"><ele>564.75</ele><time>2026-04-28T12:13:34.937Z</time></trkpt><trkpt lat="36.9305817" lon="-3.5464667"><ele>568.0</ele><time>2026-04-28T12:13:35.937Z</time></trkpt><trkpt lat="36.9304717" lon="-3.5465267"><ele>568.0</ele><time>2026-04-28T12:13:36.938Z</time></trkpt><trkpt lat="36.9303567" lon="-3.5465683"><ele>568.0</ele><time>2026-04-28T12:13:37.937Z</time></trkpt><trkpt lat="36.930255" lon="-3.54663"><ele>568.0</ele><time>2026-04-28T12:13:38.935Z</time></trkpt><trkpt lat="36.93013" lon="-3.5466583"><ele>568.0</ele><time>2026-04-28T12:13:39.935Z</time></trkpt><trkpt lat="36.9299983" lon="-3.5466783"><ele>566.75</ele><time>2026-04-28T12:13:40.934Z</time></trkpt><trkpt lat="36.929865" lon="-3.5466917"><ele>565.5</ele><time>2026-04-28T12:13:41.937Z</time></trkpt><trkpt lat="36.9297383" lon="-3.5467217"><ele>564.25</ele><time>2026-04-28T12:13:42.936Z</time></trkpt><trkpt lat="36.9296117" lon="-3.546755"><ele>563.0</ele><time>2026-04-28T12:13:43.937Z</time></trkpt><trkpt lat="36.92949" lon="-3.5467867"><ele>563.0</ele><time>2026-04-28T12:13:44.937Z</time></trkpt><trkpt lat="36.9293717" lon="-3.546825"><ele>563.0</ele><time>2026-04-28T12:13:45.934Z</time></trkpt><trkpt lat="36.929255" lon="-3.5468883"><ele>563.0</ele><time>2026-04-28T12:13:46.937Z</time></trkpt><trkpt lat="36.9291633" lon="-3.5469783"><ele>563.0</ele><time>2026-04-28T12:13:47.934Z</time></trkpt><trkpt lat="36.9290983" lon="-3.5470967"><ele>564.6</ele><time>2026-04-28T12:13:48.935Z</time></trkpt><trkpt lat="36.929065" lon="-3.5472233"><ele>566.1999999999999</ele><time>2026-04-28T12:13:49.935Z</time></trkpt><trkpt lat="36.9290483" lon="-3.547355"><ele>567.8</ele><time>2026-04-28T12:13:50.935Z</time></trkpt><trkpt lat="36.9290567" lon="-3.5474967"><ele>569.4</ele><time>2026-04-28T12:13:51.935Z</time></trkpt><trkpt lat="36.9290683" lon="-3.547645"><ele>571.0</ele><time>2026-04-28T12:13:52.935Z</time></trkpt><trkpt lat="36.9290783" lon="-3.5477933"><ele>570.25</ele><time>2026-04-28T12:13:53.935Z</time></trkpt><trkpt lat="36.9291167" lon="-3.547935"><ele>569.5</ele><time>2026-04-28T12:13:54.938Z</time></trkpt><trkpt lat="36.9291733" lon="-3.5480667"><ele>568.75</ele><time>2026-04-28T12:13:55.937Z</time></trkpt><trkpt lat="36.9292467" lon="-3.5481783"><ele>568.0</ele><time>2026-04-28T12:13:56.937Z</time></trkpt><trkpt lat="36.92935" lon="-3.5482583"><ele>571.0</ele><time>2026-04-28T12:13:57.937Z</time></trkpt><trkpt lat="36.92956" lon="-3.5483067"><ele>574.0</ele><time>2026-04-28T12:13:59.937Z</time></trkpt><trkpt lat="36.9297133" lon="-3.5483117"><ele>577.0</ele><time>2026-04-28T12:14:00.936Z</time></trkpt><trkpt lat="36.9298083" lon="-3.54834"><ele>577.0</ele><time>2026-04-28T12:14:01.937Z</time></trkpt><trkpt lat="36.9299233" lon="-3.5483483"><ele>577.0</ele><time>2026-04-28T12:14:02.937Z</time></trkpt><trkpt lat="36.9300383" lon="-3.548375"><ele>577.0</ele><time>2026-04-28T12:14:03.937Z</time></trkpt><trkpt lat="36.930175" lon="-3.548405"><ele>577.0</ele><time>2026-04-28T12:14:04.937Z</time></trkpt><trkpt lat="36.9303" lon="-3.548435"><ele>578.75</ele><time>2026-04-28T12:14:05.937Z</time></trkpt><trkpt lat="36.930395" lon="-3.5484617"><ele>580.5</ele><time>2026-04-28T12:14:06.937Z</time></trkpt><trkpt lat="36.930595" lon="-3.548505"><ele>582.25</ele><time>2026-04-28T12:14:07.938Z</time></trkpt><trkpt lat="36.93072" lon="-3.5485367"><ele>584.0</ele><time>2026-04-28T12:14:08.935Z</time></trkpt><trkpt lat="36.9308017" lon="-3.5485817"><ele>586.0</ele><time>2026-04-28T12:14:10.935Z</time></trkpt><trkpt lat="36.9309883" lon="-3.5486017"><ele>588.0</ele><time>2026-04-28T12:14:11.936Z</time></trkpt><trkpt lat="36.9311483" lon="-3.5486283"><ele>590.0</ele><time>2026-04-28T12:14:12.937Z</time></trkpt><trkpt lat="36.93124" lon="-3.5486483"><ele>592.0</ele><time>2026-04-28T12:14:13.937Z</time></trkpt><trkpt lat="36.931355" lon="-3.5486617"><ele>592.0</ele><time>2026-04-28T12:14:14.937Z</time></trkpt><trkpt lat="36.9315783" lon="-3.5486967"><ele>592.0</ele><time>2026-04-28T12:14:16.937Z</time></trkpt><trkpt lat="36.9317717" lon="-3.5487567"><ele>592.0</ele><time>2026-04-28T12:14:17.934Z</time></trkpt><trkpt lat="36.9318967" lon="-3.5487933"><ele>591.5</ele><time>2026-04-28T12:14:18.935Z</time></trkpt><trkpt lat="36.932015" lon="-3.5488233"><ele>591.0</ele><time>2026-04-28T12:14:19.935Z</time></trkpt><trkpt lat="36.9321017" lon="-3.54886"><ele>590.5</ele><time>2026-04-28T12:14:20.935Z</time></trkpt><trkpt lat="36.9322417" lon="-3.5489033"><ele>590.0</ele><time>2026-04-28T12:14:21.935Z</time></trkpt><trkpt lat="36.9323767" lon="-3.5489267"><ele>590.0</ele><time>2026-04-28T12:14:22.935Z</time></trkpt><trkpt lat="36.9325" lon="-3.5489467"><ele>590.0</ele><time>2026-04-28T12:14:23.936Z</time></trkpt><trkpt lat="36.932615" lon="-3.548965"><ele>590.0</ele><time>2026-04-28T12:14:24.939Z</time></trkpt><trkpt lat="36.9327883" lon="-3.5490183"><ele>590.0</ele><time>2026-04-28T12:14:26.937Z</time></trkpt><trkpt lat="36.9329267" lon="-3.549045"><ele>592.0</ele><time>2026-04-28T12:14:27.937Z</time></trkpt><trkpt lat="36.9330567" lon="-3.54908"><ele>594.0</ele><time>2026-04-28T12:14:28.935Z</time></trkpt><trkpt lat="36.9332183" lon="-3.5491017"><ele>596.0</ele><time>2026-04-28T12:14:29.935Z</time></trkpt><trkpt lat="36.9333367" lon="-3.5491167"><ele>598.0</ele><time>2026-04-28T12:14:30.939Z</time></trkpt><trkpt lat="36.9334633" lon="-3.5491283"><ele>600.5</ele><time>2026-04-28T12:14:31.935Z</time></trkpt><trkpt lat="36.9336117" lon="-3.5491567"><ele>603.0</ele><time>2026-04-28T12:14:32.936Z</time></trkpt><trkpt lat="36.9336967" lon="-3.5491833"><ele>605.5</ele><time>2026-04-28T12:14:33.935Z</time></trkpt><trkpt lat="36.93381" lon="-3.5492233"><ele>608.0</ele><time>2026-04-28T12:14:34.937Z</time></trkpt><trkpt lat="36.93392" lon="-3.54925"><ele>608.0</ele><time>2026-04-28T12:14:35.936Z</time></trkpt><trkpt lat="36.934" lon="-3.54927"><ele>608.0</ele><time>2026-04-28T12:14:36.939Z</time></trkpt><trkpt lat="36.9341283" lon="-3.5492883"><ele>608.0</ele><time>2026-04-28T12:14:37.935Z</time></trkpt><trkpt lat="36.934205" lon="-3.5493067"><ele>608.0</ele><time>2026-04-28T12:14:38.938Z</time></trkpt><trkpt lat="36.934385" lon="-3.5493567"><ele>610.3333333333333</ele><time>2026-04-28T12:14:39.937Z</time></trkpt><trkpt lat="36.93449" lon="-3.5493733"><ele>612.6666666666666</ele><time>2026-04-28T12:14:40.935Z</time></trkpt><trkpt lat="36.9347067" lon="-3.5494317"><ele>615.0</ele><time>2026-04-28T12:14:43.935Z</time></trkpt><trkpt lat="36.9348733" lon="-3.5494483"><ele>615.0</ele><time>2026-04-28T12:14:44.934Z</time></trkpt><trkpt lat="36.934975" lon="-3.5494667"><ele>615.0</ele><time>2026-04-28T12:14:45.935Z</time></trkpt><trkpt lat="36.9350933" lon="-3.54949"><ele>615.0</ele><time>2026-04-28T12:14:46.937Z</time></trkpt><trkpt lat="36.9351967" lon="-3.5495267"><ele>615.0</ele><time>2026-04-28T12:14:47.935Z</time></trkpt><trkpt lat="36.935315" lon="-3.5495433"><ele>615.0</ele><time>2026-04-28T12:14:48.936Z</time></trkpt><trkpt lat="36.93543" lon="-3.5495667"><ele>615.75</ele><time>2026-04-28T12:14:49.935Z</time></trkpt><trkpt lat="36.9356317" lon="-3.54961"><ele>616.5</ele><time>2026-04-28T12:14:51.936Z</time></trkpt><trkpt lat="36.9357617" lon="-3.54963"><ele>617.25</ele><time>2026-04-28T12:14:52.935Z</time></trkpt><trkpt lat="36.935855" lon="-3.5496567"><ele>618.0</ele><time>2026-04-28T12:14:53.937Z</time></trkpt><trkpt lat="36.9359733" lon="-3.549685"><ele>620.25</ele><time>2026-04-28T12:14:54.938Z</time></trkpt><trkpt lat="36.936075" lon="-3.5497"><ele>622.5</ele><time>2026-04-28T12:14:55.937Z</time></trkpt><trkpt lat="36.9361933" lon="-3.5497133"><ele>624.75</ele><time>2026-04-28T12:14:56.938Z</time></trkpt><trkpt lat="36.9363017" lon="-3.5497367"><ele>627.0</ele><time>2026-04-28T12:14:57.935Z</time></trkpt><trkpt lat="36.93642" lon="-3.5497533"><ele>627.0</ele><time>2026-04-28T12:14:58.937Z</time></trkpt><trkpt lat="36.93653" lon="-3.549775"><ele>627.0</ele><time>2026-04-28T12:14:59.937Z</time></trkpt><trkpt lat="36.9366183" lon="-3.5498"><ele>627.0</ele><time>2026-04-28T12:15:00.938Z</time></trkpt><trkpt lat="36.9367117" lon="-3.5498267"><ele>627.0</ele><time>2026-04-28T12:15:01.937Z</time></trkpt><trkpt lat="36.9368783" lon="-3.5498817"><ele>629.5</ele><time>2026-04-28T12:15:02.937Z</time></trkpt><trkpt lat="36.9370767" lon="-3.5499283"><ele>632.0</ele><time>2026-04-28T12:15:04.937Z</time></trkpt><trkpt lat="36.9372217" lon="-3.5499517"><ele>634.5</ele><time>2026-04-28T12:15:05.936Z</time></trkpt><trkpt lat="36.9373083" lon="-3.5499683"><ele>637.0</ele><time>2026-04-28T12:15:06.937Z</time></trkpt><trkpt lat="36.9374117" lon="-3.54999"><ele>637.0</ele><time>2026-04-28T12:15:07.937Z</time></trkpt><trkpt lat="36.9375283" lon="-3.55001"><ele>637.0</ele><time>2026-04-28T12:15:08.94Z</time></trkpt><trkpt lat="36.9376467" lon="-3.55004"><ele>637.0</ele><time>2026-04-28T12:15:09.937Z</time></trkpt><trkpt lat="36.937735" lon="-3.55007"><ele>637.0</ele><time>2026-04-28T12:15:10.939Z</time></trkpt><trkpt lat="36.9378083" lon="-3.5500933"><ele>637.0</ele><time>2026-04-28T12:15:11.938Z</time></trkpt><trkpt lat="36.93793" lon="-3.5501167"><ele>637.8</ele><time>2026-04-28T12:15:12.938Z</time></trkpt><trkpt lat="36.9380383" lon="-3.5501367"><ele>638.6</ele><time>2026-04-28T12:15:13.937Z</time></trkpt><trkpt lat="36.9381567" lon="-3.5501633"><ele>639.4</ele><time>2026-04-28T12:15:14.938Z</time></trkpt><trkpt lat="36.9382783" lon="-3.5502217"><ele>640.1999999999999</ele><time>2026-04-28T12:15:15.937Z</time></trkpt><trkpt lat="36.93833" lon="-3.5502717"><ele>641.0</ele><time>2026-04-28T12:15:16.937Z</time></trkpt><trkpt lat="36.9384067" lon="-3.5503533"><ele>639.4</ele><time>2026-04-28T12:15:17.934Z</time></trkpt><trkpt lat="36.9385233" lon="-3.5504617"><ele>637.8</ele><time>2026-04-28T12:15:18.936Z</time></trkpt><trkpt lat="36.9386183" lon="-3.5505517"><ele>636.1999999999999</ele><time>2026-04-28T12:15:19.937Z</time></trkpt><trkpt lat="36.9386867" lon="-3.5506117"><ele>634.5999999999999</ele><time>2026-04-28T12:15:20.937Z</time></trkpt><trkpt lat="36.9387733" lon="-3.5506367"><ele>633.0</ele><time>2026-04-28T12:15:21.935Z</time></trkpt><trkpt lat="36.9388833" lon="-3.5506367"><ele>633.0</ele><time>2026-04-28T12:15:22.936Z</time></trkpt><trkpt lat="36.9390267" lon="-3.5506183"><ele>633.0</ele><time>2026-04-28T12:15:23.937Z</time></trkpt><trkpt lat="36.93925" lon="-3.5506017"><ele>633.0</ele><time>2026-04-28T12:15:24.937Z</time></trkpt><trkpt lat="36.939415" lon="-3.5505867"><ele>636.3333333333334</ele><time>2026-04-28T12:15:25.936Z</time></trkpt><trkpt lat="36.93952" lon="-3.55058"><ele>639.6666666666667</ele><time>2026-04-28T12:15:26.936Z</time></trkpt><trkpt lat="36.93972" lon="-3.5505533"><ele>643.0</ele><time>2026-04-28T12:15:29.936Z</time></trkpt><trkpt lat="36.93991" lon="-3.550525"><ele>643.0</ele><time>2026-04-28T12:15:30.937Z</time></trkpt><trkpt lat="36.9400483" lon="-3.5504483"><ele>643.0</ele><time>2026-04-28T12:15:31.937Z</time></trkpt><trkpt lat="36.940165" lon="-3.5503617"><ele>643.0</ele><time>2026-04-28T12:15:32.935Z</time></trkpt><trkpt lat="36.940215" lon="-3.5502633"><ele>643.0</ele><time>2026-04-28T12:15:33.938Z</time></trkpt><trkpt lat="36.9402783" lon="-3.5501317"><ele>645.5999999999999</ele><time>2026-04-28T12:15:34.938Z</time></trkpt><trkpt lat="36.94031" lon="-3.5500117"><ele>648.1999999999999</ele><time>2026-04-28T12:15:35.937Z</time></trkpt><trkpt lat="36.9403167" lon="-3.5499017"><ele>650.8</ele><time>2026-04-28T12:15:36.937Z</time></trkpt><trkpt lat="36.9403633" lon="-3.549775"><ele>653.4</ele><time>2026-04-28T12:15:37.934Z</time></trkpt><trkpt lat="36.940445" lon="-3.5496267"><ele>656.0</ele><time>2026-04-28T12:15:38.937Z</time></trkpt><trkpt lat="36.9405333" lon="-3.5494917"><ele>658.0</ele><time>2026-04-28T12:15:39.934Z</time></trkpt><trkpt lat="36.9405983" lon="-3.54938"><ele>660.0</ele><time>2026-04-28T12:15:40.935Z</time></trkpt><trkpt lat="36.94068" lon="-3.5492917"><ele>662.0</ele><time>2026-04-28T12:15:41.935Z</time></trkpt><trkpt lat="36.94079" lon="-3.5492183"><ele>664.0</ele><time>2026-04-28T12:15:42.935Z</time></trkpt><trkpt lat="36.9408967" lon="-3.5491483"><ele>664.25</ele><time>2026-04-28T12:15:43.935Z</time></trkpt><trkpt lat="36.9410167" lon="-3.5490733"><ele>664.5</ele><time>2026-04-28T12:15:44.938Z</time></trkpt><trkpt lat="36.9411317" lon="-3.549005"><ele>664.75</ele><time>2026-04-28T12:15:45.935Z</time></trkpt><trkpt lat="36.9412417" lon="-3.54894"><ele>665.0</ele><time>2026-04-28T12:15:46.936Z</time></trkpt><trkpt lat="36.9414317" lon="-3.548855"><ele>665.0</ele><time>2026-04-28T12:15:47.936Z</time></trkpt><trkpt lat="36.9415483" lon="-3.5487833"><ele>665.0</ele><time>2026-04-28T12:15:48.935Z</time></trkpt><trkpt lat="36.9415317" lon="-3.548695"><ele>665.0</ele><time>2026-04-28T12:15:49.936Z</time></trkpt><trkpt lat="36.941685" lon="-3.5486267"><ele>665.0</ele><time>2026-04-28T12:15:50.936Z</time></trkpt><trkpt lat="36.9418217" lon="-3.5485617"><ele>667.8</ele><time>2026-04-28T12:15:51.935Z</time></trkpt><trkpt lat="36.9418583" lon="-3.5484783"><ele>670.6</ele><time>2026-04-28T12:15:52.938Z</time></trkpt><trkpt lat="36.9419533" lon="-3.5484117"><ele>673.4000000000001</ele><time>2026-04-28T12:15:53.937Z</time></trkpt><trkpt lat="36.9420683" lon="-3.54837"><ele>676.2</ele><time>2026-04-28T12:15:54.937Z</time></trkpt><trkpt lat="36.9422083" lon="-3.5483383"><ele>679.0</ele><time>2026-04-28T12:15:55.937Z</time></trkpt><trkpt lat="36.94234" lon="-3.5483133"><ele>679.0</ele><time>2026-04-28T12:15:56.938Z</time></trkpt><trkpt lat="36.942435" lon="-3.5482867"><ele>679.0</ele><time>2026-04-28T12:15:57.937Z</time></trkpt><trkpt lat="36.94256" lon="-3.54827"><ele>679.0</ele><time>2026-04-28T12:15:58.937Z</time></trkpt><trkpt lat="36.9426967" lon="-3.54828"><ele>679.0</ele><time>2026-04-28T12:15:59.938Z</time></trkpt><trkpt lat="36.9428483" lon="-3.5482917"><ele>680.25</ele><time>2026-04-28T12:16:00.935Z</time></trkpt><trkpt lat="36.9429867" lon="-3.5483017"><ele>681.5</ele><time>2026-04-28T12:16:01.936Z</time></trkpt><trkpt lat="36.94311" lon="-3.5483067"><ele>682.75</ele><time>2026-04-28T12:16:02.936Z</time></trkpt><trkpt lat="36.9432583" lon="-3.5483417"><ele>684.0</ele><time>2026-04-28T12:16:03.937Z</time></trkpt><trkpt lat="36.943395" lon="-3.548365"><ele>684.75</ele><time>2026-04-28T12:16:04.935Z</time></trkpt><trkpt lat="36.9434983" lon="-3.5483683"><ele>685.5</ele><time>2026-04-28T12:16:05.937Z</time></trkpt><trkpt lat="36.9436167" lon="-3.548375"><ele>686.25</ele><time>2026-04-28T12:16:06.934Z</time></trkpt><trkpt lat="36.9437683" lon="-3.5484067"><ele>687.0</ele><time>2026-04-28T12:16:07.936Z</time></trkpt><trkpt lat="36.943875" lon="-3.5484033"><ele>687.0</ele><time>2026-04-28T12:16:08.936Z</time></trkpt><trkpt lat="36.9439933" lon="-3.5484117"><ele>687.0</ele><time>2026-04-28T12:16:09.936Z</time></trkpt><trkpt lat="36.9440933" lon="-3.5484083"><ele>687.0</ele><time>2026-04-28T12:16:10.935Z</time></trkpt><trkpt lat="36.94423" lon="-3.5484283"><ele>687.0</ele><time>2026-04-28T12:16:11.938Z</time></trkpt><trkpt lat="36.94436" lon="-3.5484383"><ele>688.0</ele><time>2026-04-28T12:16:12.936Z</time></trkpt><trkpt lat="36.9444917" lon="-3.5484433"><ele>689.0</ele><time>2026-04-28T12:16:13.938Z</time></trkpt><trkpt lat="36.9446133" lon="-3.5484483"><ele>690.0</ele><time>2026-04-28T12:16:14.939Z</time></trkpt><trkpt lat="36.944735" lon="-3.5484517"><ele>691.0</ele><time>2026-04-28T12:16:15.937Z</time></trkpt><trkpt lat="36.9448217" lon="-3.5484467"><ele>691.0</ele><time>2026-04-28T12:16:16.938Z</time></trkpt><trkpt lat="36.944905" lon="-3.54844"><ele>691.0</ele><time>2026-04-28T12:16:17.937Z</time></trkpt><trkpt lat="36.9449917" lon="-3.5484367"><ele>691.0</ele><time>2026-04-28T12:16:18.935Z</time></trkpt><trkpt lat="36.9450817" lon="-3.5484167"><ele>691.0</ele><time>2026-04-28T12:16:19.935Z</time></trkpt><trkpt lat="36.9451833" lon="-3.5484217"><ele>691.0</ele><time>2026-04-28T12:16:20.936Z</time></trkpt><trkpt lat="36.9452667" lon="-3.5484383"><ele>691.0</ele><time>2026-04-28T12:16:21.934Z</time></trkpt><trkpt lat="36.9453633" lon="-3.5484117"><ele>691.5</ele><time>2026-04-28T12:16:23.935Z</time></trkpt><trkpt lat="36.9454833" lon="-3.5483967"><ele>692.0</ele><time>2026-04-28T12:16:25.934Z</time></trkpt><trkpt lat="36.945545" lon="-3.5483767"><ele>692.5</ele><time>2026-04-28T12:16:26.937Z</time></trkpt><trkpt lat="36.94563" lon="-3.548375"><ele>693.0</ele><time>2026-04-28T12:16:27.935Z</time></trkpt><trkpt lat="36.9457" lon="-3.5483533"><ele>693.5</ele><time>2026-04-28T12:16:28.935Z</time></trkpt><trkpt lat="36.94579" lon="-3.5483517"><ele>694.0</ele><time>2026-04-28T12:16:29.938Z</time></trkpt><trkpt lat="36.945885" lon="-3.5483583"><ele>695.0</ele><time>2026-04-28T12:16:30.937Z</time></trkpt><trkpt lat="36.94597" lon="-3.5483533"><ele>696.0</ele><time>2026-04-28T12:16:31.937Z</time></trkpt><trkpt lat="36.946055" lon="-3.548375"><ele>697.0</ele><time>2026-04-28T12:16:32.938Z</time></trkpt><trkpt lat="36.9461617" lon="-3.5484083"><ele>698.0</ele><time>2026-04-28T12:16:34.934Z</time></trkpt><trkpt lat="36.9462467" lon="-3.5485367"><ele>699.0</ele><time>2026-04-28T12:16:35.938Z</time></trkpt><trkpt lat="36.94631" lon="-3.5486667"><ele>699.1666666666666</ele><time>2026-04-28T12:16:36.936Z</time></trkpt><trkpt lat="36.94638" lon="-3.5487717"><ele>699.3333333333334</ele><time>2026-04-28T12:16:37.937Z</time></trkpt><trkpt lat="36.946445" lon="-3.5488933"><ele>699.5</ele><time>2026-04-28T12:16:38.939Z</time></trkpt><trkpt lat="36.9465017" lon="-3.54895"><ele>699.6666666666667</ele><time>2026-04-28T12:16:39.936Z</time></trkpt><trkpt lat="36.9465567" lon="-3.5490033"><ele>699.8333333333334</ele><time>2026-04-28T12:16:40.938Z</time></trkpt><trkpt lat="36.9466067" lon="-3.5490683"><ele>700.0</ele><time>2026-04-28T12:16:41.938Z</time></trkpt><trkpt lat="36.9466583" lon="-3.5491783"><ele>701.0</ele><time>2026-04-28T12:16:42.937Z</time></trkpt><trkpt lat="36.946715" lon="-3.5493133"><ele>702.0</ele><time>2026-04-28T12:16:43.936Z</time></trkpt><trkpt lat="36.946765" lon="-3.5494"><ele>703.0</ele><time>2026-04-28T12:16:44.937Z</time></trkpt><trkpt lat="36.946835" lon="-3.54947"><ele>704.0</ele><time>2026-04-28T12:16:45.936Z</time></trkpt><trkpt lat="36.9468967" lon="-3.5495517"><ele>705.0</ele><time>2026-04-28T12:16:46.936Z</time></trkpt><trkpt lat="36.946945" lon="-3.5496317"><ele>705.0</ele><time>2026-04-28T12:16:47.936Z</time></trkpt><trkpt lat="36.9470233" lon="-3.54973"><ele>705.0</ele><time>2026-04-28T12:16:49.937Z</time></trkpt><trkpt lat="36.9470883" lon="-3.5498183"><ele>705.0</ele><time>2026-04-28T12:16:51.937Z</time></trkpt><trkpt lat="36.94713" lon="-3.54988"><ele>705.0</ele><time>2026-04-28T12:16:52.936Z</time></trkpt><trkpt lat="36.9471867" lon="-3.549935"><ele>705.0</ele><time>2026-04-28T12:16:53.936Z</time></trkpt><trkpt lat="36.9472533" lon="-3.5499667"><ele>705.0</ele><time>2026-04-28T12:16:54.936Z</time></trkpt><trkpt lat="36.9473233" lon="-3.54999"><ele>705.0</ele><time>2026-04-28T12:16:55.936Z</time></trkpt><trkpt lat="36.9473867" lon="-3.5500217"><ele>705.0</ele><time>2026-04-28T12:16:56.937Z</time></trkpt><trkpt lat="36.9474867" lon="-3.5501033"><ele>705.0</ele><time>2026-04-28T12:16:58.935Z</time></trkpt><trkpt lat="36.94754" lon="-3.55016"><ele>705.0</ele><time>2026-04-28T12:16:59.936Z</time></trkpt><trkpt lat="36.947585" lon="-3.5502317"><ele>705.0</ele><time>2026-04-28T12:17:00.937Z</time></trkpt><trkpt lat="36.94764" lon="-3.5503017"><ele>705.0</ele><time>2026-04-28T12:17:01.936Z</time></trkpt><trkpt lat="36.9477033" lon="-3.5503717"><ele>705.5</ele><time>2026-04-28T12:17:02.937Z</time></trkpt><trkpt lat="36.9477683" lon="-3.550425"><ele>706.0</ele><time>2026-04-28T12:17:03.937Z</time></trkpt><trkpt lat="36.947835" lon="-3.550475"><ele>706.5</ele><time>2026-04-28T12:17:04.936Z</time></trkpt><trkpt lat="36.9478733" lon="-3.5505717"><ele>707.0</ele><time>2026-04-28T12:17:05.935Z</time></trkpt><trkpt lat="36.9479267" lon="-3.550655"><ele>707.5</ele><time>2026-04-28T12:17:06.938Z</time></trkpt><trkpt lat="36.947985" lon="-3.55071"><ele>708.0</ele><time>2026-04-28T12:17:07.936Z</time></trkpt><trkpt lat="36.948045" lon="-3.5508167"><ele>708.0</ele><time>2026-04-28T12:17:08.937Z</time></trkpt><trkpt lat="36.9480967" lon="-3.5508817"><ele>708.0</ele><time>2026-04-28T12:17:09.936Z</time></trkpt><trkpt lat="36.9481517" lon="-3.550945"><ele>708.0</ele><time>2026-04-28T12:17:10.938Z</time></trkpt><trkpt lat="36.9482083" lon="-3.5510217"><ele>708.0</ele><time>2026-04-28T12:17:11.934Z</time></trkpt><trkpt lat="36.948275" lon="-3.5510967"><ele>708.0</ele><time>2026-04-28T12:17:12.936Z</time></trkpt><trkpt lat="36.9483333" lon="-3.551175"><ele>708.0</ele><time>2026-04-28T12:17:13.937Z</time></trkpt><trkpt lat="36.9483867" lon="-3.55124"><ele>708.1666666666666</ele><time>2026-04-28T12:17:14.936Z</time></trkpt><trkpt lat="36.948435" lon="-3.5512967"><ele>708.3333333333334</ele><time>2026-04-28T12:17:15.935Z</time></trkpt><trkpt lat="36.94849" lon="-3.5513433"><ele>708.5</ele><time>2026-04-28T12:17:16.935Z</time></trkpt><trkpt lat="36.9485633" lon="-3.5514433"><ele>708.6666666666667</ele><time>2026-04-28T12:17:18.934Z</time></trkpt><trkpt lat="36.9486467" lon="-3.5515417"><ele>708.8333333333334</ele><time>2026-04-28T12:17:20.935Z</time></trkpt><trkpt lat="36.9487033" lon="-3.5515967"><ele>709.0</ele><time>2026-04-28T12:17:21.935Z</time></trkpt><trkpt lat="36.94877" lon="-3.55165"><ele>709.0</ele><time>2026-04-28T12:17:22.935Z</time></trkpt><trkpt lat="36.9488467" lon="-3.5517083"><ele>709.0</ele><time>2026-04-28T12:17:23.935Z</time></trkpt><trkpt lat="36.9489467" lon="-3.5517467"><ele>709.0</ele><time>2026-04-28T12:17:24.938Z</time></trkpt><trkpt lat="36.9490383" lon="-3.55179"><ele>709.0</ele><time>2026-04-28T12:17:25.935Z</time></trkpt><trkpt lat="36.9491183" lon="-3.5518167"><ele>709.0</ele><time>2026-04-28T12:17:26.936Z</time></trkpt><trkpt lat="36.9491817" lon="-3.5518483"><ele>709.0</ele><time>2026-04-28T12:17:27.938Z</time></trkpt><trkpt lat="36.9492733" lon="-3.5518633"><ele>709.4000000000001</ele><time>2026-04-28T12:17:28.935Z</time></trkpt><trkpt lat="36.9493867" lon="-3.5518617"><ele>709.8</ele><time>2026-04-28T12:17:29.938Z</time></trkpt><trkpt lat="36.9494817" lon="-3.55188"><ele>710.2</ele><time>2026-04-28T12:17:30.935Z</time></trkpt><trkpt lat="36.949575" lon="-3.55188"><ele>710.5999999999999</ele><time>2026-04-28T12:17:31.938Z</time></trkpt><trkpt lat="36.9496833" lon="-3.551825"><ele>711.0</ele><time>2026-04-28T12:17:32.938Z</time></trkpt><trkpt lat="36.949775" lon="-3.5517717"><ele>711.0</ele><time>2026-04-28T12:17:33.936Z</time></trkpt><trkpt lat="36.9498583" lon="-3.5516967"><ele>711.0</ele><time>2026-04-28T12:17:34.938Z</time></trkpt><trkpt lat="36.9499283" lon="-3.5516233"><ele>711.0</ele><time>2026-04-28T12:17:35.939Z</time></trkpt><trkpt lat="36.9500017" lon="-3.5515633"><ele>711.0</ele><time>2026-04-28T12:17:36.938Z</time></trkpt><trkpt lat="36.95008" lon="-3.5515083"><ele>711.0</ele><time>2026-04-28T12:17:37.938Z</time></trkpt><trkpt lat="36.9502067" lon="-3.5514583"><ele>709.5</ele><time>2026-04-28T12:17:39.937Z</time></trkpt><trkpt lat="36.9502667" lon="-3.55141"><ele>708.0</ele><time>2026-04-28T12:17:40.937Z</time></trkpt><trkpt lat="36.95033" lon="-3.5513717"><ele>706.5</ele><time>2026-04-28T12:17:41.937Z</time></trkpt><trkpt lat="36.9503933" lon="-3.5513167"><ele>705.0</ele><time>2026-04-28T12:17:42.937Z</time></trkpt><trkpt lat="36.95045" lon="-3.55127"><ele>703.5</ele><time>2026-04-28T12:17:43.937Z</time></trkpt><trkpt lat="36.95057" lon="-3.551175"><ele>702.0</ele><time>2026-04-28T12:17:45.937Z</time></trkpt><trkpt lat="36.9506283" lon="-3.551145"><ele>703.8333333333334</ele><time>2026-04-28T12:17:46.939Z</time></trkpt><trkpt lat="36.9506933" lon="-3.5510683"><ele>705.6666666666666</ele><time>2026-04-28T12:17:47.936Z</time></trkpt><trkpt lat="36.9507583" lon="-3.55101"><ele>707.5</ele><time>2026-04-28T12:17:48.935Z</time></trkpt><trkpt lat="36.9508467" lon="-3.5509767"><ele>709.3333333333333</ele><time>2026-04-28T12:17:49.935Z</time></trkpt><trkpt lat="36.9509233" lon="-3.55091"><ele>711.1666666666666</ele><time>2026-04-28T12:17:50.936Z</time></trkpt><trkpt lat="36.9509833" lon="-3.55088"><ele>713.0</ele><time>2026-04-28T12:17:51.935Z</time></trkpt><trkpt lat="36.951055" lon="-3.5508433"><ele>713.0</ele><time>2026-04-28T12:17:52.934Z</time></trkpt><trkpt lat="36.9511183" lon="-3.55079"><ele>713.0</ele><time>2026-04-28T12:17:53.935Z</time></trkpt><trkpt lat="36.9511883" lon="-3.5507267"><ele>713.0</ele><time>2026-04-28T12:17:54.938Z</time></trkpt><trkpt lat="36.95126" lon="-3.55066"><ele>713.0</ele><time>2026-04-28T12:17:55.935Z</time></trkpt><trkpt lat="36.9513217" lon="-3.550615"><ele>713.0</ele><time>2026-04-28T12:17:56.936Z</time></trkpt><trkpt lat="36.9513833" lon="-3.5505733"><ele>713.0</ele><time>2026-04-28T12:17:57.935Z</time></trkpt><trkpt lat="36.9514917" lon="-3.5505183"><ele>713.0</ele><time>2026-04-28T12:17:59.938Z</time></trkpt><trkpt lat="36.9515533" lon="-3.5504633"><ele>713.0</ele><time>2026-04-28T12:18:00.934Z</time></trkpt><trkpt lat="36.95167" lon="-3.5504117"><ele>713.0</ele><time>2026-04-28T12:18:02.937Z</time></trkpt><trkpt lat="36.9517367" lon="-3.5503667"><ele>713.0</ele><time>2026-04-28T12:18:03.935Z</time></trkpt><trkpt lat="36.9518" lon="-3.550305"><ele>713.0</ele><time>2026-04-28T12:18:04.937Z</time></trkpt><trkpt lat="36.9518733" lon="-3.5502417"><ele>713.0</ele><time>2026-04-28T12:18:05.937Z</time></trkpt><trkpt lat="36.9519567" lon="-3.5501867"><ele>714.4</ele><time>2026-04-28T12:18:06.937Z</time></trkpt><trkpt lat="36.952035" lon="-3.5501367"><ele>715.8</ele><time>2026-04-28T12:18:07.938Z</time></trkpt><trkpt lat="36.9521067" lon="-3.5500983"><ele>717.2</ele><time>2026-04-28T12:18:08.938Z</time></trkpt><trkpt lat="36.9521833" lon="-3.5500517"><ele>718.6</ele><time>2026-04-28T12:18:09.936Z</time></trkpt><trkpt lat="36.95226" lon="-3.54995"><ele>720.0</ele><time>2026-04-28T12:18:10.938Z</time></trkpt><trkpt lat="36.952335" lon="-3.549895"><ele>720.0</ele><time>2026-04-28T12:18:11.938Z</time></trkpt><trkpt lat="36.9524133" lon="-3.54988"><ele>720.0</ele><time>2026-04-28T12:18:12.937Z</time></trkpt><trkpt lat="36.9524933" lon="-3.5498"><ele>720.0</ele><time>2026-04-28T12:18:13.938Z</time></trkpt><trkpt lat="36.95257" lon="-3.54972"><ele>720.0</ele><time>2026-04-28T12:18:14.939Z</time></trkpt><trkpt lat="36.9526467" lon="-3.5496917"><ele>720.0</ele><time>2026-04-28T12:18:15.937Z</time></trkpt><trkpt lat="36.9527233" lon="-3.5496333"><ele>718.1666666666666</ele><time>2026-04-28T12:18:16.938Z</time></trkpt><trkpt lat="36.9527933" lon="-3.5495533"><ele>716.3333333333334</ele><time>2026-04-28T12:18:17.937Z</time></trkpt><trkpt lat="36.9528617" lon="-3.54951"><ele>714.5</ele><time>2026-04-28T12:18:18.937Z</time></trkpt><trkpt lat="36.9529333" lon="-3.5494267"><ele>712.6666666666667</ele><time>2026-04-28T12:18:19.938Z</time></trkpt><trkpt lat="36.9529983" lon="-3.5493633"><ele>710.8333333333334</ele><time>2026-04-28T12:18:20.941Z</time></trkpt><trkpt lat="36.95306" lon="-3.549315"><ele>709.0</ele><time>2026-04-28T12:18:21.934Z</time></trkpt><trkpt lat="36.9531717" lon="-3.5491967"><ele>712.0000000000001</ele><time>2026-04-28T12:18:23.935Z</time></trkpt><trkpt lat="36.953225" lon="-3.5491483"><ele>715.0</ele><time>2026-04-28T12:18:24.938Z</time></trkpt><trkpt lat="36.95328" lon="-3.5490883"><ele>718.0</ele><time>2026-04-28T12:18:25.935Z</time></trkpt><trkpt lat="36.9533333" lon="-3.5490167"><ele>721.0</ele><time>2026-04-28T12:18:26.937Z</time></trkpt><trkpt lat="36.953385" lon="-3.548945"><ele>724.0</ele><time>2026-04-28T12:18:27.937Z</time></trkpt><trkpt lat="36.9534417" lon="-3.5488883"><ele>727.0000000000001</ele><time>2026-04-28T12:18:28.936Z</time></trkpt><trkpt lat="36.95352" lon="-3.548875"><ele>730.0</ele><time>2026-04-28T12:18:29.935Z</time></trkpt><trkpt lat="36.953605" lon="-3.5488817"><ele>730.0</ele><time>2026-04-28T12:18:30.937Z</time></trkpt><trkpt lat="36.9536917" lon="-3.5488683"><ele>730.0</ele><time>2026-04-28T12:18:31.937Z</time></trkpt><trkpt lat="36.9537833" lon="-3.5488367"><ele>730.0</ele><time>2026-04-28T12:18:32.935Z</time></trkpt><trkpt lat="36.9538817" lon="-3.54879"><ele>730.0</ele><time>2026-04-28T12:18:33.936Z</time></trkpt><trkpt lat="36.953985" lon="-3.5487383"><ele>730.0</ele><time>2026-04-28T12:18:34.936Z</time></trkpt><trkpt lat="36.9540917" lon="-3.54868"><ele>733.75</ele><time>2026-04-28T12:18:35.936Z</time></trkpt><trkpt lat="36.9542" lon="-3.5486183"><ele>737.5</ele><time>2026-04-28T12:18:36.937Z</time></trkpt><trkpt lat="36.9543083" lon="-3.5485517"><ele>741.25</ele><time>2026-04-28T12:18:37.937Z</time></trkpt><trkpt lat="36.9544217" lon="-3.5484833"><ele>745.0</ele><time>2026-04-28T12:18:38.934Z</time></trkpt><trkpt lat="36.9545333" lon="-3.5484217"><ele>745.0</ele><time>2026-04-28T12:18:39.934Z</time></trkpt><trkpt lat="36.9546483" lon="-3.5483567"><ele>745.0</ele><time>2026-04-28T12:18:40.934Z</time></trkpt><trkpt lat="36.954765" lon="-3.5482917"><ele>745.0</ele><time>2026-04-28T12:18:41.935Z</time></trkpt><trkpt lat="36.9548817" lon="-3.5482217"><ele>745.0</ele><time>2026-04-28T12:18:42.935Z</time></trkpt><trkpt lat="36.9549983" lon="-3.5481533"><ele>747.75</ele><time>2026-04-28T12:18:43.935Z</time></trkpt><trkpt lat="36.9551183" lon="-3.5480817"><ele>750.5</ele><time>2026-04-28T12:18:44.935Z</time></trkpt><trkpt lat="36.9552383" lon="-3.548015"><ele>753.25</ele><time>2026-04-28T12:18:45.936Z</time></trkpt><trkpt lat="36.9553567" lon="-3.5479433"><ele>756.0</ele><time>2026-04-28T12:18:46.934Z</time></trkpt><trkpt lat="36.9554767" lon="-3.5478767"><ele>756.0</ele><time>2026-04-28T12:18:47.935Z</time></trkpt><trkpt lat="36.955595" lon="-3.5478117"><ele>756.0</ele><time>2026-04-28T12:18:48.936Z</time></trkpt><trkpt lat="36.95571" lon="-3.547745"><ele>756.0</ele><time>2026-04-28T12:18:49.936Z</time></trkpt><trkpt lat="36.955825" lon="-3.547665"><ele>756.0</ele><time>2026-04-28T12:18:50.935Z</time></trkpt><trkpt lat="36.9559367" lon="-3.547575"><ele>752.75</ele><time>2026-04-28T12:18:51.935Z</time></trkpt><trkpt lat="36.9560483" lon="-3.54749"><ele>749.5</ele><time>2026-04-28T12:18:52.935Z</time></trkpt><trkpt lat="36.9561583" lon="-3.547405"><ele>746.25</ele><time>2026-04-28T12:18:53.935Z</time></trkpt><trkpt lat="36.956265" lon="-3.5473033"><ele>743.0</ele><time>2026-04-28T12:18:54.936Z</time></trkpt><trkpt lat="36.9563733" lon="-3.5472083"><ele>743.0</ele><time>2026-04-28T12:18:55.935Z</time></trkpt><trkpt lat="36.9564833" lon="-3.54712"><ele>743.0</ele><time>2026-04-28T12:18:56.935Z</time></trkpt><trkpt lat="36.9565933" lon="-3.5470267"><ele>743.0</ele><time>2026-04-28T12:18:57.936Z</time></trkpt><trkpt lat="36.9567067" lon="-3.5469367"><ele>743.0</ele><time>2026-04-28T12:18:58.935Z</time></trkpt><trkpt lat="36.9568283" lon="-3.5468567"><ele>746.25</ele><time>2026-04-28T12:18:59.936Z</time></trkpt><trkpt lat="36.9569583" lon="-3.546785"><ele>749.5</ele><time>2026-04-28T12:19:00.936Z</time></trkpt><trkpt lat="36.9570917" lon="-3.54673"><ele>752.75</ele><time>2026-04-28T12:19:01.935Z</time></trkpt><trkpt lat="36.9572217" lon="-3.5466867"><ele>756.0</ele><time>2026-04-28T12:19:02.935Z</time></trkpt><trkpt lat="36.9573533" lon="-3.54665"><ele>756.0</ele><time>2026-04-28T12:19:03.935Z</time></trkpt><trkpt lat="36.957485" lon="-3.54661"><ele>756.0</ele><time>2026-04-28T12:19:04.934Z</time></trkpt><trkpt lat="36.9576133" lon="-3.54656"><ele>756.0</ele><time>2026-04-28T12:19:05.935Z</time></trkpt><trkpt lat="36.95774" lon="-3.546515"><ele>756.0</ele><time>2026-04-28T12:19:06.936Z</time></trkpt><trkpt lat="36.9578667" lon="-3.5464717"><ele>754.5</ele><time>2026-04-28T12:19:07.935Z</time></trkpt><trkpt lat="36.9579817" lon="-3.5463983"><ele>753.0</ele><time>2026-04-28T12:19:08.935Z</time></trkpt><trkpt lat="36.9580917" lon="-3.5463217"><ele>751.5</ele><time>2026-04-28T12:19:09.936Z</time></trkpt><trkpt lat="36.95819" lon="-3.5462267"><ele>750.0</ele><time>2026-04-28T12:19:10.935Z</time></trkpt><trkpt lat="36.9582783" lon="-3.5461067"><ele>751.75</ele><time>2026-04-28T12:19:11.935Z</time></trkpt><trkpt lat="36.95836" lon="-3.545975"><ele>753.5</ele><time>2026-04-28T12:19:12.936Z</time></trkpt><trkpt lat="36.95841" lon="-3.5458283"><ele>755.25</ele><time>2026-04-28T12:19:13.937Z</time></trkpt><trkpt lat="36.95845" lon="-3.545675"><ele>757.0</ele><time>2026-04-28T12:19:14.937Z</time></trkpt><trkpt lat="36.9584917" lon="-3.5455233"><ele>759.5</ele><time>2026-04-28T12:19:15.936Z</time></trkpt><trkpt lat="36.9585383" lon="-3.5453717"><ele>762.0</ele><time>2026-04-28T12:19:16.935Z</time></trkpt><trkpt lat="36.95859" lon="-3.5452433"><ele>764.5</ele><time>2026-04-28T12:19:17.937Z</time></trkpt><trkpt lat="36.9586667" lon="-3.5451417"><ele>767.0</ele><time>2026-04-28T12:19:18.937Z</time></trkpt><trkpt lat="36.9587617" lon="-3.5450717"><ele>767.0</ele><time>2026-04-28T12:19:19.937Z</time></trkpt><trkpt lat="36.9588667" lon="-3.54502"><ele>767.0</ele><time>2026-04-28T12:19:20.937Z</time></trkpt><trkpt lat="36.9589767" lon="-3.544985"><ele>767.0</ele><time>2026-04-28T12:19:21.934Z</time></trkpt><trkpt lat="36.9590867" lon="-3.5449517"><ele>767.0</ele><time>2026-04-28T12:19:22.935Z</time></trkpt><trkpt lat="36.9592" lon="-3.544925"><ele>767.0</ele><time>2026-04-28T12:19:23.935Z</time></trkpt><trkpt lat="36.95932" lon="-3.54491"><ele>767.0</ele><time>2026-04-28T12:19:24.935Z</time></trkpt><trkpt lat="36.9594433" lon="-3.5449083"><ele>767.0</ele><time>2026-04-28T12:19:25.936Z</time></trkpt><trkpt lat="36.959565" lon="-3.5449183"><ele>767.0</ele><time>2026-04-28T12:19:26.936Z</time></trkpt><trkpt lat="36.9596817" lon="-3.544935"><ele>767.0</ele><time>2026-04-28T12:19:27.937Z</time></trkpt><trkpt lat="36.9598" lon="-3.5449517"><ele>767.0</ele><time>2026-04-28T12:19:28.937Z</time></trkpt><trkpt lat="36.9599217" lon="-3.5449883"><ele>767.0</ele><time>2026-04-28T12:19:29.936Z</time></trkpt><trkpt lat="36.9600483" lon="-3.5450183"><ele>767.0</ele><time>2026-04-28T12:19:30.934Z</time></trkpt><trkpt lat="36.96018" lon="-3.5450483"><ele>768.25</ele><time>2026-04-28T12:19:31.937Z</time></trkpt><trkpt lat="36.96031" lon="-3.54507"><ele>769.5</ele><time>2026-04-28T12:19:32.937Z</time></trkpt><trkpt lat="36.960445" lon="-3.5450917"><ele>770.75</ele><time>2026-04-28T12:19:33.936Z</time></trkpt><trkpt lat="36.9605817" lon="-3.5450983"><ele>772.0</ele><time>2026-04-28T12:19:34.937Z</time></trkpt><trkpt lat="36.9607217" lon="-3.545095"><ele>772.0</ele><time>2026-04-28T12:19:35.936Z</time></trkpt><trkpt lat="36.960865" lon="-3.5450817"><ele>772.0</ele><time>2026-04-28T12:19:36.936Z</time></trkpt><trkpt lat="36.9610083" lon="-3.5450683"><ele>772.0</ele><time>2026-04-28T12:19:37.936Z</time></trkpt><trkpt lat="36.9611467" lon="-3.5450667"><ele>772.0</ele><time>2026-04-28T12:19:38.937Z</time></trkpt><trkpt lat="36.9612833" lon="-3.5450583"><ele>774.0</ele><time>2026-04-28T12:19:39.937Z</time></trkpt><trkpt lat="36.96142" lon="-3.5450467"><ele>776.0</ele><time>2026-04-28T12:19:40.937Z</time></trkpt><trkpt lat="36.9615533" lon="-3.5450417"><ele>778.0</ele><time>2026-04-28T12:19:41.937Z</time></trkpt><trkpt lat="36.961685" lon="-3.5450283"><ele>780.0</ele><time>2026-04-28T12:19:42.936Z</time></trkpt><trkpt lat="36.961815" lon="-3.54502"><ele>780.5</ele><time>2026-04-28T12:19:43.937Z</time></trkpt><trkpt lat="36.9619433" lon="-3.5450083"><ele>781.0</ele><time>2026-04-28T12:19:44.937Z</time></trkpt><trkpt lat="36.96207" lon="-3.5449833"><ele>781.5</ele><time>2026-04-28T12:19:45.937Z</time></trkpt><trkpt lat="36.962195" lon="-3.5449617"><ele>782.0</ele><time>2026-04-28T12:19:46.937Z</time></trkpt><trkpt lat="36.9623167" lon="-3.5449283"><ele>782.0</ele><time>2026-04-28T12:19:47.937Z</time></trkpt><trkpt lat="36.96244" lon="-3.5448933"><ele>782.0</ele><time>2026-04-28T12:19:48.937Z</time></trkpt><trkpt lat="36.96256" lon="-3.5448417"><ele>782.0</ele><time>2026-04-28T12:19:49.936Z</time></trkpt><trkpt lat="36.9626783" lon="-3.5447867"><ele>782.0</ele><time>2026-04-28T12:19:50.936Z</time></trkpt><trkpt lat="36.9627967" lon="-3.544745"><ele>781.75</ele><time>2026-04-28T12:19:51.936Z</time></trkpt><trkpt lat="36.9629183" lon="-3.54471"><ele>781.5</ele><time>2026-04-28T12:19:52.936Z</time></trkpt><trkpt lat="36.9630383" lon="-3.5446717"><ele>781.25</ele><time>2026-04-28T12:19:53.937Z</time></trkpt><trkpt lat="36.9631533" lon="-3.5446283"><ele>781.0</ele><time>2026-04-28T12:19:54.937Z</time></trkpt><trkpt lat="36.9632683" lon="-3.5445883"><ele>785.25</ele><time>2026-04-28T12:19:55.934Z</time></trkpt><trkpt lat="36.96338" lon="-3.544545"><ele>789.5</ele><time>2026-04-28T12:19:56.937Z</time></trkpt><trkpt lat="36.963495" lon="-3.544505"><ele>793.75</ele><time>2026-04-28T12:19:57.936Z</time></trkpt><trkpt lat="36.9636117" lon="-3.5444617"><ele>798.0</ele><time>2026-04-28T12:19:58.937Z</time></trkpt><trkpt lat="36.9637283" lon="-3.5444117"><ele>798.0</ele><time>2026-04-28T12:19:59.937Z</time></trkpt><trkpt lat="36.963845" lon="-3.54436"><ele>798.0</ele><time>2026-04-28T12:20:00.933Z</time></trkpt><trkpt lat="36.9639583" lon="-3.544305"><ele>798.0</ele><time>2026-04-28T12:20:01.937Z</time></trkpt><trkpt lat="36.9640667" lon="-3.5442483"><ele>798.0</ele><time>2026-04-28T12:20:02.938Z</time></trkpt><trkpt lat="36.9641717" lon="-3.5441917"><ele>796.0</ele><time>2026-04-28T12:20:03.934Z</time></trkpt><trkpt lat="36.964275" lon="-3.5441333"><ele>794.0</ele><time>2026-04-28T12:20:04.934Z</time></trkpt><trkpt lat="36.9643733" lon="-3.544065"><ele>792.0</ele><time>2026-04-28T12:20:05.935Z</time></trkpt><trkpt lat="36.96447" lon="-3.543995"><ele>790.0</ele><time>2026-04-28T12:20:06.936Z</time></trkpt><trkpt lat="36.9645683" lon="-3.54392"><ele>790.0</ele><time>2026-04-28T12:20:07.936Z</time></trkpt><trkpt lat="36.964665" lon="-3.5438533"><ele>790.0</ele><time>2026-04-28T12:20:08.934Z</time></trkpt><trkpt lat="36.9647633" lon="-3.5437817"><ele>790.0</ele><time>2026-04-28T12:20:09.935Z</time></trkpt><trkpt lat="36.9648617" lon="-3.5437167"><ele>790.0</ele><time>2026-04-28T12:20:10.937Z</time></trkpt><trkpt lat="36.9649683" lon="-3.5436617"><ele>794.0</ele><time>2026-04-28T12:20:11.935Z</time></trkpt><trkpt lat="36.965075" lon="-3.5436083"><ele>798.0</ele><time>2026-04-28T12:20:12.934Z</time></trkpt><trkpt lat="36.9651833" lon="-3.54356"><ele>802.0</ele><time>2026-04-28T12:20:13.937Z</time></trkpt><trkpt lat="36.9652933" lon="-3.5435117"><ele>806.0</ele><time>2026-04-28T12:20:14.936Z</time></trkpt><trkpt lat="36.965405" lon="-3.5434617"><ele>806.0</ele><time>2026-04-28T12:20:15.937Z</time></trkpt><trkpt lat="36.9655083" lon="-3.543405"><ele>806.0</ele><time>2026-04-28T12:20:16.936Z</time></trkpt><trkpt lat="36.9656067" lon="-3.54335"><ele>806.0</ele><time>2026-04-28T12:20:17.934Z</time></trkpt><trkpt lat="36.9657017" lon="-3.5432867"><ele>806.0</ele><time>2026-04-28T12:20:18.934Z</time></trkpt><trkpt lat="36.965795" lon="-3.5432217"><ele>806.0</ele><time>2026-04-28T12:20:19.935Z</time></trkpt><trkpt lat="36.9658867" lon="-3.5431533"><ele>804.8</ele><time>2026-04-28T12:20:20.934Z</time></trkpt><trkpt lat="36.9659767" lon="-3.5430817"><ele>803.5999999999999</ele><time>2026-04-28T12:20:21.935Z</time></trkpt><trkpt lat="36.9660617" lon="-3.5430083"><ele>802.4</ele><time>2026-04-28T12:20:22.934Z</time></trkpt><trkpt lat="36.9661467" lon="-3.5429333"><ele>801.2</ele><time>2026-04-28T12:20:23.935Z</time></trkpt><trkpt lat="36.9662333" lon="-3.5428667"><ele>800.0</ele><time>2026-04-28T12:20:24.935Z</time></trkpt><trkpt lat="36.9663133" lon="-3.5427983"><ele>801.0000000000001</ele><time>2026-04-28T12:20:25.935Z</time></trkpt><trkpt lat="36.9663933" lon="-3.5427483"><ele>802.0</ele><time>2026-04-28T12:20:26.935Z</time></trkpt><trkpt lat="36.966475" lon="-3.5427283"><ele>803.0</ele><time>2026-04-28T12:20:27.935Z</time></trkpt><trkpt lat="36.9665583" lon="-3.5427267"><ele>804.0</ele><time>2026-04-28T12:20:28.937Z</time></trkpt><trkpt lat="36.96664" lon="-3.5427417"><ele>805.0000000000001</ele><time>2026-04-28T12:20:29.937Z</time></trkpt><trkpt lat="36.9667167" lon="-3.5428017"><ele>806.0</ele><time>2026-04-28T12:20:30.936Z</time></trkpt><trkpt lat="36.9667833" lon="-3.5429067"><ele>806.0</ele><time>2026-04-28T12:20:31.938Z</time></trkpt><trkpt lat="36.966835" lon="-3.5429683"><ele>806.0</ele><time>2026-04-28T12:20:32.937Z</time></trkpt><trkpt lat="36.9668767" lon="-3.543105"><ele>806.0</ele><time>2026-04-28T12:20:33.935Z</time></trkpt><trkpt lat="36.966935" lon="-3.543225"><ele>806.0</ele><time>2026-04-28T12:20:34.935Z</time></trkpt><trkpt lat="36.9670033" lon="-3.5433283"><ele>806.0</ele><time>2026-04-28T12:20:35.935Z</time></trkpt><trkpt lat="36.9670683" lon="-3.54346"><ele>806.0000000000001</ele><time>2026-04-28T12:20:36.937Z</time></trkpt><trkpt lat="36.9671167" lon="-3.5435533"><ele>806.0</ele><time>2026-04-28T12:20:37.933Z</time></trkpt><trkpt lat="36.9671817" lon="-3.5436533"><ele>806.0</ele><time>2026-04-28T12:20:38.936Z</time></trkpt><trkpt lat="36.96724" lon="-3.543745"><ele>806.0</ele><time>2026-04-28T12:20:39.934Z</time></trkpt><trkpt lat="36.96729" lon="-3.543825"><ele>806.0000000000001</ele><time>2026-04-28T12:20:40.934Z</time></trkpt><trkpt lat="36.967335" lon="-3.5439067"><ele>806.0</ele><time>2026-04-28T12:20:41.937Z</time></trkpt><trkpt lat="36.967375" lon="-3.54407"><ele>809.0</ele><time>2026-04-28T12:20:42.936Z</time></trkpt><trkpt lat="36.967395" lon="-3.544245"><ele>812.0</ele><time>2026-04-28T12:20:43.933Z</time></trkpt><trkpt lat="36.9673833" lon="-3.54439"><ele>815.0</ele><time>2026-04-28T12:20:44.937Z</time></trkpt><trkpt lat="36.967335" lon="-3.5445633"><ele>818.0</ele><time>2026-04-28T12:20:45.933Z</time></trkpt><trkpt lat="36.967275" lon="-3.544695"><ele>824.0</ele><time>2026-04-28T12:20:46.933Z</time></trkpt><trkpt lat="36.967155" lon="-3.54478"><ele>830.0</ele><time>2026-04-28T12:20:48.935Z</time></trkpt><trkpt lat="36.9670233" lon="-3.5448467"><ele>836.0</ele><time>2026-04-28T12:20:49.935Z</time></trkpt><trkpt lat="36.9668817" lon="-3.5449567"><ele>842.0</ele><time>2026-04-28T12:20:50.935Z</time></trkpt><trkpt lat="36.9667567" lon="-3.5450367"><ele>835.5</ele><time>2026-04-28T12:20:51.934Z</time></trkpt><trkpt lat="36.96665" lon="-3.5451133"><ele>829.0</ele><time>2026-04-28T12:20:52.935Z</time></trkpt><trkpt lat="36.9665383" lon="-3.5451867"><ele>822.5</ele><time>2026-04-28T12:20:53.937Z</time></trkpt><trkpt lat="36.96643" lon="-3.5452667"><ele>816.0</ele><time>2026-04-28T12:20:54.937Z</time></trkpt><trkpt lat="36.9663233" lon="-3.54534"><ele>823.25</ele><time>2026-04-28T12:20:55.935Z</time></trkpt><trkpt lat="36.966215" lon="-3.54542"><ele>830.5</ele><time>2026-04-28T12:20:56.937Z</time></trkpt><trkpt lat="36.9661067" lon="-3.5455"><ele>837.75</ele><time>2026-04-28T12:20:57.938Z</time></trkpt><trkpt lat="36.9659933" lon="-3.5455817"><ele>845.0</ele><time>2026-04-28T12:20:58.933Z</time></trkpt><trkpt lat="36.965905" lon="-3.5455883"><ele>840.0</ele><time>2026-04-28T12:21:00.936Z</time></trkpt><trkpt lat="36.9657417" lon="-3.5456867"><ele>835.0</ele><time>2026-04-28T12:21:01.934Z</time></trkpt><trkpt lat="36.9656283" lon="-3.5458017"><ele>830.0</ele><time>2026-04-28T12:21:02.938Z</time></trkpt><trkpt lat="36.965515" lon="-3.5459083"><ele>830.0</ele><time>2026-04-28T12:21:03.934Z</time></trkpt><trkpt lat="36.96538" lon="-3.5460267"><ele>830.0</ele><time>2026-04-28T12:21:04.934Z</time></trkpt><trkpt lat="36.965275" lon="-3.546115"><ele>830.0</ele><time>2026-04-28T12:21:05.935Z</time></trkpt><trkpt lat="36.9651633" lon="-3.546215"><ele>830.0</ele><time>2026-04-28T12:21:06.938Z</time></trkpt><trkpt lat="36.9650583" lon="-3.5463017"><ele>832.0</ele><time>2026-04-28T12:21:07.937Z</time></trkpt><trkpt lat="36.9649567" lon="-3.546395"><ele>834.0</ele><time>2026-04-28T12:21:08.936Z</time></trkpt><trkpt lat="36.96487" lon="-3.5464583"><ele>836.0</ele><time>2026-04-28T12:21:09.936Z</time></trkpt><trkpt lat="36.964765" lon="-3.546555"><ele>838.0</ele><time>2026-04-28T12:21:10.936Z</time></trkpt><trkpt lat="36.96468" lon="-3.5466267"><ele>838.0</ele><time>2026-04-28T12:21:11.937Z</time></trkpt><trkpt lat="36.9645867" lon="-3.5467"><ele>838.0</ele><time>2026-04-28T12:21:12.938Z</time></trkpt><trkpt lat="36.9644883" lon="-3.5467733"><ele>838.0</ele><time>2026-04-28T12:21:13.934Z</time></trkpt><trkpt lat="36.9643883" lon="-3.5468467"><ele>838.0</ele><time>2026-04-28T12:21:14.934Z</time></trkpt><trkpt lat="36.9642867" lon="-3.546935"><ele>838.0</ele><time>2026-04-28T12:21:15.935Z</time></trkpt><trkpt lat="36.9641867" lon="-3.547"><ele>838.0</ele><time>2026-04-28T12:21:16.935Z</time></trkpt><trkpt lat="36.9640867" lon="-3.547055"><ele>838.0</ele><time>2026-04-28T12:21:17.934Z</time></trkpt><trkpt lat="36.9640083" lon="-3.547105"><ele>838.0</ele><time>2026-04-28T12:21:18.935Z</time></trkpt><trkpt lat="36.9639217" lon="-3.5472017"><ele>838.0</ele><time>2026-04-28T12:21:19.935Z</time></trkpt><trkpt lat="36.9638567" lon="-3.5473117"><ele>838.0</ele><time>2026-04-28T12:21:20.935Z</time></trkpt><trkpt lat="36.9638217" lon="-3.5474"><ele>838.0</ele><time>2026-04-28T12:21:21.935Z</time></trkpt><trkpt lat="36.9637967" lon="-3.54754"><ele>838.0</ele><time>2026-04-28T12:21:22.935Z</time></trkpt><trkpt lat="36.9637967" lon="-3.5477317"><ele>838.0</ele><time>2026-04-28T12:21:24.939Z</time></trkpt><trkpt lat="36.9638483" lon="-3.547935"><ele>839.0</ele><time>2026-04-28T12:21:25.937Z</time></trkpt><trkpt lat="36.96391" lon="-3.5480817"><ele>840.0</ele><time>2026-04-28T12:21:26.935Z</time></trkpt><trkpt lat="36.9639667" lon="-3.5481933"><ele>841.0</ele><time>2026-04-28T12:21:27.937Z</time></trkpt><trkpt lat="36.9640217" lon="-3.5483333"><ele>842.0</ele><time>2026-04-28T12:21:28.934Z</time></trkpt><trkpt lat="36.9640767" lon="-3.54847"><ele>842.0</ele><time>2026-04-28T12:21:29.934Z</time></trkpt><trkpt lat="36.964125" lon="-3.5486"><ele>842.0</ele><time>2026-04-28T12:21:30.934Z</time></trkpt><trkpt lat="36.96417" lon="-3.54871"><ele>842.0</ele><time>2026-04-28T12:21:31.934Z</time></trkpt><trkpt lat="36.9642217" lon="-3.548885"><ele>842.0</ele><time>2026-04-28T12:21:32.935Z</time></trkpt><trkpt lat="36.9642683" lon="-3.5490483"><ele>843.5</ele><time>2026-04-28T12:21:33.934Z</time></trkpt><trkpt lat="36.96429" lon="-3.549215"><ele>845.0</ele><time>2026-04-28T12:21:34.933Z</time></trkpt><trkpt lat="36.9643067" lon="-3.54936"><ele>846.5</ele><time>2026-04-28T12:21:35.934Z</time></trkpt><trkpt lat="36.964325" lon="-3.5494767"><ele>848.0</ele><time>2026-04-28T12:21:36.938Z</time></trkpt><trkpt lat="36.9643317" lon="-3.5496533"><ele>848.2</ele><time>2026-04-28T12:21:37.934Z</time></trkpt><trkpt lat="36.9643433" lon="-3.5497983"><ele>848.4</ele><time>2026-04-28T12:21:38.936Z</time></trkpt><trkpt lat="36.96437" lon="-3.549895"><ele>848.6</ele><time>2026-04-28T12:21:39.937Z</time></trkpt><trkpt lat="36.9643983" lon="-3.550005"><ele>848.8000000000001</ele><time>2026-04-28T12:21:40.936Z</time></trkpt><trkpt lat="36.9644683" lon="-3.550155"><ele>849.0</ele><time>2026-04-28T12:21:41.937Z</time></trkpt><trkpt lat="36.9645633" lon="-3.5502717"><ele>849.0</ele><time>2026-04-28T12:21:42.935Z</time></trkpt><trkpt lat="36.9646617" lon="-3.5503483"><ele>849.0</ele><time>2026-04-28T12:21:43.937Z</time></trkpt><trkpt lat="36.9647667" lon="-3.550425"><ele>849.0</ele><time>2026-04-28T12:21:44.938Z</time></trkpt><trkpt lat="36.964885" lon="-3.5505017"><ele>849.0</ele><time>2026-04-28T12:21:45.937Z</time></trkpt><trkpt lat="36.9650033" lon="-3.550595"><ele>849.5</ele><time>2026-04-28T12:21:46.938Z</time></trkpt><trkpt lat="36.96511" lon="-3.5506883"><ele>850.0</ele><time>2026-04-28T12:21:47.934Z</time></trkpt><trkpt lat="36.965225" lon="-3.5507833"><ele>850.5</ele><time>2026-04-28T12:21:48.936Z</time></trkpt><trkpt lat="36.9653417" lon="-3.5508783"><ele>851.0</ele><time>2026-04-28T12:21:49.936Z</time></trkpt><trkpt lat="36.9654617" lon="-3.55097"><ele>851.0</ele><time>2026-04-28T12:21:50.936Z</time></trkpt><trkpt lat="36.9655833" lon="-3.551065"><ele>851.0</ele><time>2026-04-28T12:21:51.935Z</time></trkpt><trkpt lat="36.965705" lon="-3.5511633"><ele>851.0</ele><time>2026-04-28T12:21:52.937Z</time></trkpt><trkpt lat="36.9658267" lon="-3.55126"><ele>851.0</ele><time>2026-04-28T12:21:53.936Z</time></trkpt><trkpt lat="36.9659517" lon="-3.5513617"><ele>851.0</ele><time>2026-04-28T12:21:54.937Z</time></trkpt><trkpt lat="36.96608" lon="-3.55146"><ele>851.0</ele><time>2026-04-28T12:21:55.937Z</time></trkpt><trkpt lat="36.966205" lon="-3.5515567"><ele>851.0</ele><time>2026-04-28T12:21:56.937Z</time></trkpt><trkpt lat="36.9663317" lon="-3.551655"><ele>851.0</ele><time>2026-04-28T12:21:57.937Z</time></trkpt><trkpt lat="36.966465" lon="-3.5517517"><ele>851.0</ele><time>2026-04-28T12:21:58.936Z</time></trkpt><trkpt lat="36.9666" lon="-3.551855"><ele>851.0</ele><time>2026-04-28T12:21:59.937Z</time></trkpt><trkpt lat="36.9667383" lon="-3.5519567"><ele>851.0</ele><time>2026-04-28T12:22:00.937Z</time></trkpt><trkpt lat="36.9668833" lon="-3.55206"><ele>850.3333333333334</ele><time>2026-04-28T12:22:01.936Z</time></trkpt><trkpt lat="36.967025" lon="-3.552165"><ele>849.6666666666667</ele><time>2026-04-28T12:22:02.937Z</time></trkpt><trkpt lat="36.9671617" lon="-3.5522667"><ele>849.0</ele><time>2026-04-28T12:22:03.937Z</time></trkpt><trkpt lat="36.96729" lon="-3.5523683"><ele>849.0</ele><time>2026-04-28T12:22:04.937Z</time></trkpt><trkpt lat="36.9674317" lon="-3.5524717"><ele>849.0</ele><time>2026-04-28T12:22:05.937Z</time></trkpt><trkpt lat="36.967575" lon="-3.552585"><ele>849.0</ele><time>2026-04-28T12:22:06.936Z</time></trkpt><trkpt lat="36.9677217" lon="-3.5526933"><ele>848.6666666666667</ele><time>2026-04-28T12:22:07.937Z</time></trkpt><trkpt lat="36.9678717" lon="-3.5528033"><ele>848.3333333333334</ele><time>2026-04-28T12:22:08.938Z</time></trkpt><trkpt lat="36.9680183" lon="-3.5529183"><ele>848.0</ele><time>2026-04-28T12:22:09.937Z</time></trkpt><trkpt lat="36.9681617" lon="-3.5530317"><ele>848.0</ele><time>2026-04-28T12:22:10.937Z</time></trkpt><trkpt lat="36.9683067" lon="-3.55314"><ele>848.0</ele><time>2026-04-28T12:22:11.937Z</time></trkpt><trkpt lat="36.9684517" lon="-3.55325"><ele>848.0</ele><time>2026-04-28T12:22:12.937Z</time></trkpt><trkpt lat="36.9686033" lon="-3.553365"><ele>847.6666666666667</ele><time>2026-04-28T12:22:13.937Z</time></trkpt><trkpt lat="36.9687567" lon="-3.5534783"><ele>847.3333333333333</ele><time>2026-04-28T12:22:14.934Z</time></trkpt><trkpt lat="36.9689117" lon="-3.5535933"><ele>847.0</ele><time>2026-04-28T12:22:15.936Z</time></trkpt><trkpt lat="36.9690683" lon="-3.5537083"><ele>845.6666666666666</ele><time>2026-04-28T12:22:16.937Z</time></trkpt><trkpt lat="36.969225" lon="-3.553825"><ele>844.3333333333333</ele><time>2026-04-28T12:22:17.935Z</time></trkpt><trkpt lat="36.9693833" lon="-3.5539433"><ele>843.0</ele><time>2026-04-28T12:22:18.935Z</time></trkpt><trkpt lat="36.96954" lon="-3.5540633"><ele>843.0</ele><time>2026-04-28T12:22:19.935Z</time></trkpt><trkpt lat="36.969695" lon="-3.55418"><ele>843.0</ele><time>2026-04-28T12:22:20.937Z</time></trkpt><trkpt lat="36.969845" lon="-3.55429"><ele>843.0</ele><time>2026-04-28T12:22:21.937Z</time></trkpt><trkpt lat="36.96999" lon="-3.554395"><ele>843.0</ele><time>2026-04-28T12:22:22.936Z</time></trkpt><trkpt lat="36.9701317" lon="-3.5545"><ele>843.0</ele><time>2026-04-28T12:22:23.936Z</time></trkpt><trkpt lat="36.97027" lon="-3.5546067"><ele>843.0</ele><time>2026-04-28T12:22:24.938Z</time></trkpt><trkpt lat="36.9704117" lon="-3.55471"><ele>842.3333333333333</ele><time>2026-04-28T12:22:25.937Z</time></trkpt><trkpt lat="36.97055" lon="-3.5548167"><ele>841.6666666666666</ele><time>2026-04-28T12:22:26.937Z</time></trkpt><trkpt lat="36.9706833" lon="-3.5549117"><ele>841.0</ele><time>2026-04-28T12:22:27.937Z</time></trkpt><trkpt lat="36.97081" lon="-3.5550083"><ele>840.5</ele><time>2026-04-28T12:22:28.937Z</time></trkpt><trkpt lat="36.9709317" lon="-3.5550967"><ele>840.0</ele><time>2026-04-28T12:22:29.937Z</time></trkpt><trkpt lat="36.9710517" lon="-3.5551817"><ele>839.5</ele><time>2026-04-28T12:22:30.938Z</time></trkpt><trkpt lat="36.9711667" lon="-3.55527"><ele>839.0</ele><time>2026-04-28T12:22:31.935Z</time></trkpt><trkpt lat="36.9712783" lon="-3.5553567"><ele>838.5</ele><time>2026-04-28T12:22:32.937Z</time></trkpt><trkpt lat="36.9713883" lon="-3.5554383"><ele>838.0</ele><time>2026-04-28T12:22:33.937Z</time></trkpt><trkpt lat="36.9714967" lon="-3.55552"><ele>837.5</ele><time>2026-04-28T12:22:34.937Z</time></trkpt><trkpt lat="36.971605" lon="-3.5556017"><ele>837.0</ele><time>2026-04-28T12:22:35.937Z</time></trkpt><trkpt lat="36.9717067" lon="-3.5556817"><ele>837.0</ele><time>2026-04-28T12:22:36.937Z</time></trkpt><trkpt lat="36.9718083" lon="-3.5557483"><ele>837.0</ele><time>2026-04-28T12:22:37.937Z</time></trkpt><trkpt lat="36.9719067" lon="-3.55582"><ele>837.0</ele><time>2026-04-28T12:22:38.938Z</time></trkpt><trkpt lat="36.9720017" lon="-3.555895"><ele>837.0</ele><time>2026-04-28T12:22:39.937Z</time></trkpt><trkpt lat="36.9720917" lon="-3.5559617"><ele>837.0</ele><time>2026-04-28T12:22:40.937Z</time></trkpt><trkpt lat="36.9721767" lon="-3.5560283"><ele>837.0</ele><time>2026-04-28T12:22:41.937Z</time></trkpt><trkpt lat="36.9722617" lon="-3.55609"><ele>837.0</ele><time>2026-04-28T12:22:42.937Z</time></trkpt><trkpt lat="36.972345" lon="-3.5561483"><ele>837.0</ele><time>2026-04-28T12:22:43.937Z</time></trkpt><trkpt lat="36.9724267" lon="-3.5562083"><ele>837.0</ele><time>2026-04-28T12:22:44.939Z</time></trkpt><trkpt lat="36.972505" lon="-3.5562683"><ele>837.0</ele><time>2026-04-28T12:22:45.937Z</time></trkpt><trkpt lat="36.9725817" lon="-3.5563317"><ele>836.2</ele><time>2026-04-28T12:22:46.937Z</time></trkpt><trkpt lat="36.97266" lon="-3.55639"><ele>835.4000000000001</ele><time>2026-04-28T12:22:47.935Z</time></trkpt><trkpt lat="36.9727383" lon="-3.5564517"><ele>834.5999999999999</ele><time>2026-04-28T12:22:48.935Z</time></trkpt><trkpt lat="36.97282" lon="-3.5565083"><ele>833.8</ele><time>2026-04-28T12:22:49.936Z</time></trkpt><trkpt lat="36.9729" lon="-3.55657"><ele>833.0</ele><time>2026-04-28T12:22:50.938Z</time></trkpt><trkpt lat="36.97298" lon="-3.55663"><ele>833.0</ele><time>2026-04-28T12:22:51.936Z</time></trkpt><trkpt lat="36.9730617" lon="-3.5566883"><ele>833.0</ele><time>2026-04-28T12:22:52.937Z</time></trkpt><trkpt lat="36.9731467" lon="-3.5567483"><ele>833.0</ele><time>2026-04-28T12:22:53.936Z</time></trkpt><trkpt lat="36.9732333" lon="-3.5568133"><ele>833.0</ele><time>2026-04-28T12:22:54.938Z</time></trkpt><trkpt lat="36.9733167" lon="-3.5568783"><ele>833.0</ele><time>2026-04-28T12:22:55.937Z</time></trkpt><trkpt lat="36.9733983" lon="-3.5569417"><ele>832.8333333333334</ele><time>2026-04-28T12:22:56.938Z</time></trkpt><trkpt lat="36.9734783" lon="-3.5569983"><ele>832.6666666666667</ele><time>2026-04-28T12:22:57.937Z</time></trkpt><trkpt lat="36.973555" lon="-3.5570567"><ele>832.5</ele><time>2026-04-28T12:22:58.939Z</time></trkpt><trkpt lat="36.9736267" lon="-3.5571133"><ele>832.3333333333333</ele><time>2026-04-28T12:22:59.937Z</time></trkpt><trkpt lat="36.9736983" lon="-3.557165"><ele>832.1666666666666</ele><time>2026-04-28T12:23:00.937Z</time></trkpt><trkpt lat="36.9737667" lon="-3.5572183"><ele>832.0</ele><time>2026-04-28T12:23:01.937Z</time></trkpt><trkpt lat="36.9738333" lon="-3.557265"><ele>831.9999999999999</ele><time>2026-04-28T12:23:02.937Z</time></trkpt><trkpt lat="36.973895" lon="-3.5573133"><ele>832.0</ele><time>2026-04-28T12:23:03.937Z</time></trkpt><trkpt lat="36.973955" lon="-3.5573567"><ele>832.0</ele><time>2026-04-28T12:23:04.937Z</time></trkpt><trkpt lat="36.9740117" lon="-3.557395"><ele>832.0</ele><time>2026-04-28T12:23:05.937Z</time></trkpt><trkpt lat="36.97411" lon="-3.557455"><ele>831.9999999999999</ele><time>2026-04-28T12:23:07.937Z</time></trkpt><trkpt lat="36.9742217" lon="-3.55746"><ele>832.0</ele><time>2026-04-28T12:23:14.938Z</time></trkpt><trkpt lat="36.9742667" lon="-3.5573867"><ele>833.0</ele><time>2026-04-28T12:23:16.937Z</time></trkpt><trkpt lat="36.974265" lon="-3.5572883"><ele>833.0</ele><time>2026-04-28T12:23:26.938Z</time></trkpt><trkpt lat="36.9743233" lon="-3.5572"><ele>833.0</ele><time>2026-04-28T12:23:28.937Z</time></trkpt><trkpt lat="36.974405" lon="-3.5571633"><ele>833.0</ele><time>2026-04-28T12:23:30.937Z</time></trkpt><trkpt lat="36.9744767" lon="-3.5572133"><ele>833.0</ele><time>2026-04-28T12:23:32.937Z</time></trkpt></trkseg><trkseg><trkpt lat="36.979435" lon="-3.5615267"><ele>806.0000000000001</ele><time>2026-04-28T12:35:45.934Z</time></trkpt><trkpt lat="36.9793717" lon="-3.5615067"><ele>806.0</ele><time>2026-04-28T12:35:50.934Z</time></trkpt><trkpt lat="36.9794617" lon="-3.5615517"><ele>806.0</ele><time>2026-04-28T12:36:15.934Z</time></trkpt><trkpt lat="36.9795367" lon="-3.5615967"><ele>806.0</ele><time>2026-04-28T12:36:16.935Z</time></trkpt><trkpt lat="36.97962" lon="-3.56165"><ele>806.0000000000001</ele><time>2026-04-28T12:36:17.935Z</time></trkpt><trkpt lat="36.979705" lon="-3.5617033"><ele>806.0</ele><time>2026-04-28T12:36:18.935Z</time></trkpt><trkpt lat="36.9797933" lon="-3.5617583"><ele>806.0</ele><time>2026-04-28T12:36:19.934Z</time></trkpt><trkpt lat="36.9798767" lon="-3.5618167"><ele>806.0</ele><time>2026-04-28T12:36:20.934Z</time></trkpt><trkpt lat="36.9799617" lon="-3.561875"><ele>806.0</ele><time>2026-04-28T12:36:21.935Z</time></trkpt><trkpt lat="36.980055" lon="-3.561935"><ele>806.0</ele><time>2026-04-28T12:36:22.934Z</time></trkpt><trkpt lat="36.9801433" lon="-3.5619967"><ele>806.0</ele><time>2026-04-28T12:36:23.934Z</time></trkpt><trkpt lat="36.9802317" lon="-3.56206"><ele>805.1999999999999</ele><time>2026-04-28T12:36:24.934Z</time></trkpt><trkpt lat="36.98032" lon="-3.5621233"><ele>804.4</ele><time>2026-04-28T12:36:25.934Z</time></trkpt><trkpt lat="36.9804067" lon="-3.5621833"><ele>803.6</ele><time>2026-04-28T12:36:26.937Z</time></trkpt><trkpt lat="36.9804917" lon="-3.5622417"><ele>802.8</ele><time>2026-04-28T12:36:27.936Z</time></trkpt><trkpt lat="36.98058" lon="-3.5623017"><ele>802.0</ele><time>2026-04-28T12:36:28.934Z</time></trkpt><trkpt lat="36.9806717" lon="-3.562365"><ele>802.0</ele><time>2026-04-28T12:36:29.934Z</time></trkpt><trkpt lat="36.9807683" lon="-3.5624317"><ele>802.0</ele><time>2026-04-28T12:36:30.935Z</time></trkpt><trkpt lat="36.980865" lon="-3.5625"><ele>802.0</ele><time>2026-04-28T12:36:31.935Z</time></trkpt><trkpt lat="36.9809583" lon="-3.5625667"><ele>802.0</ele><time>2026-04-28T12:36:32.934Z</time></trkpt><trkpt lat="36.9810517" lon="-3.562635"><ele>802.0</ele><time>2026-04-28T12:36:33.934Z</time></trkpt><trkpt lat="36.98115" lon="-3.562705"><ele>801.6</ele><time>2026-04-28T12:36:34.934Z</time></trkpt><trkpt lat="36.9812467" lon="-3.5627733"><ele>801.2</ele><time>2026-04-28T12:36:35.934Z</time></trkpt><trkpt lat="36.9813433" lon="-3.5628417"><ele>800.8</ele><time>2026-04-28T12:36:36.934Z</time></trkpt><trkpt lat="36.9814367" lon="-3.5629083"><ele>800.4</ele><time>2026-04-28T12:36:37.936Z</time></trkpt><trkpt lat="36.9815267" lon="-3.5629733"><ele>800.0</ele><time>2026-04-28T12:36:38.936Z</time></trkpt><trkpt lat="36.98162" lon="-3.5630383"><ele>799.4</ele><time>2026-04-28T12:36:39.935Z</time></trkpt><trkpt lat="36.9817117" lon="-3.5631067"><ele>798.8</ele><time>2026-04-28T12:36:40.934Z</time></trkpt><trkpt lat="36.981805" lon="-3.5631733"><ele>798.2</ele><time>2026-04-28T12:36:41.937Z</time></trkpt><trkpt lat="36.981895" lon="-3.5632383"><ele>797.6</ele><time>2026-04-28T12:36:42.937Z</time></trkpt><trkpt lat="36.98198" lon="-3.5632983"><ele>797.0</ele><time>2026-04-28T12:36:43.936Z</time></trkpt><trkpt lat="36.9820633" lon="-3.5633533"><ele>797.0000000000001</ele><time>2026-04-28T12:36:44.937Z</time></trkpt><trkpt lat="36.9821417" lon="-3.5634133"><ele>797.0</ele><time>2026-04-28T12:36:45.933Z</time></trkpt><trkpt lat="36.9822217" lon="-3.5634717"><ele>797.0</ele><time>2026-04-28T12:36:46.936Z</time></trkpt><trkpt lat="36.9823033" lon="-3.5635283"><ele>797.0</ele><time>2026-04-28T12:36:47.933Z</time></trkpt><trkpt lat="36.982375" lon="-3.5635817"><ele>797.0000000000001</ele><time>2026-04-28T12:36:48.933Z</time></trkpt><trkpt lat="36.9824383" lon="-3.5636283"><ele>797.0</ele><time>2026-04-28T12:36:49.933Z</time></trkpt><trkpt lat="36.9824933" lon="-3.563675"><ele>797.1428571428571</ele><time>2026-04-28T12:36:50.933Z</time></trkpt><trkpt lat="36.9825467" lon="-3.5637183"><ele>797.2857142857143</ele><time>2026-04-28T12:36:51.933Z</time></trkpt><trkpt lat="36.9826017" lon="-3.5637617"><ele>797.4285714285714</ele><time>2026-04-28T12:36:52.933Z</time></trkpt><trkpt lat="36.9826633" lon="-3.5638083"><ele>797.5714285714286</ele><time>2026-04-28T12:36:53.933Z</time></trkpt><trkpt lat="36.982735" lon="-3.563855"><ele>797.7142857142858</ele><time>2026-04-28T12:36:54.937Z</time></trkpt><trkpt lat="36.9828033" lon="-3.5639017"><ele>797.8571428571429</ele><time>2026-04-28T12:36:55.933Z</time></trkpt><trkpt lat="36.9828733" lon="-3.56395"><ele>798.0</ele><time>2026-04-28T12:36:56.937Z</time></trkpt><trkpt lat="36.9829417" lon="-3.564"><ele>798.0</ele><time>2026-04-28T12:36:57.933Z</time></trkpt><trkpt lat="36.9830133" lon="-3.5640483"><ele>798.0</ele><time>2026-04-28T12:36:58.933Z</time></trkpt><trkpt lat="36.9830883" lon="-3.5641"><ele>798.0</ele><time>2026-04-28T12:36:59.936Z</time></trkpt><trkpt lat="36.9831667" lon="-3.564155"><ele>798.0</ele><time>2026-04-28T12:37:00.934Z</time></trkpt><trkpt lat="36.9832467" lon="-3.5642083"><ele>798.0</ele><time>2026-04-28T12:37:01.933Z</time></trkpt><trkpt lat="36.983325" lon="-3.5642667"><ele>798.0</ele><time>2026-04-28T12:37:02.933Z</time></trkpt><trkpt lat="36.9834033" lon="-3.564325"><ele>797.8</ele><time>2026-04-28T12:37:03.934Z</time></trkpt><trkpt lat="36.9834833" lon="-3.5643833"><ele>797.5999999999999</ele><time>2026-04-28T12:37:04.933Z</time></trkpt><trkpt lat="36.9835683" lon="-3.5644417"><ele>797.4000000000001</ele><time>2026-04-28T12:37:05.933Z</time></trkpt><trkpt lat="36.9836533" lon="-3.5644967"><ele>797.2</ele><time>2026-04-28T12:37:06.934Z</time></trkpt><trkpt lat="36.98374" lon="-3.5645533"><ele>797.0</ele><time>2026-04-28T12:37:07.933Z</time></trkpt><trkpt lat="36.9838217" lon="-3.56461"><ele>796.8333333333334</ele><time>2026-04-28T12:37:08.934Z</time></trkpt><trkpt lat="36.9838933" lon="-3.5646617"><ele>796.6666666666667</ele><time>2026-04-28T12:37:09.933Z</time></trkpt><trkpt lat="36.9839583" lon="-3.564705"><ele>796.5</ele><time>2026-04-28T12:37:10.933Z</time></trkpt><trkpt lat="36.984015" lon="-3.5647533"><ele>796.3333333333333</ele><time>2026-04-28T12:37:11.933Z</time></trkpt><trkpt lat="36.9840683" lon="-3.5648017"><ele>796.1666666666666</ele><time>2026-04-28T12:37:12.934Z</time></trkpt><trkpt lat="36.9841667" lon="-3.5648817"><ele>796.0</ele><time>2026-04-28T12:37:14.933Z</time></trkpt><trkpt lat="36.9842567" lon="-3.5649517"><ele>796.0</ele><time>2026-04-28T12:37:16.933Z</time></trkpt><trkpt lat="36.9843433" lon="-3.5650167"><ele>796.0</ele><time>2026-04-28T12:37:18.933Z</time></trkpt><trkpt lat="36.984415" lon="-3.5650783"><ele>796.0</ele><time>2026-04-28T12:37:20.934Z</time></trkpt><trkpt lat="36.9844883" lon="-3.56515"><ele>796.0</ele><time>2026-04-28T12:37:22.935Z</time></trkpt><trkpt lat="36.9845717" lon="-3.5652167"><ele>796.0</ele><time>2026-04-28T12:37:24.934Z</time></trkpt><trkpt lat="36.98467" lon="-3.56528"><ele>796.0</ele><time>2026-04-28T12:37:26.933Z</time></trkpt><trkpt lat="36.9847667" lon="-3.565345"><ele>796.0</ele><time>2026-04-28T12:37:28.933Z</time></trkpt><trkpt lat="36.9848733" lon="-3.5654133"><ele>796.0</ele><time>2026-04-28T12:37:30.934Z</time></trkpt><trkpt lat="36.98496" lon="-3.5654967"><ele>796.0</ele><time>2026-04-28T12:37:32.934Z</time></trkpt><trkpt lat="36.9850267" lon="-3.5655617"><ele>796.0</ele><time>2026-04-28T12:37:34.934Z</time></trkpt><trkpt lat="36.9851117" lon="-3.5656033"><ele>794.9999999999999</ele><time>2026-04-28T12:37:36.934Z</time></trkpt><trkpt lat="36.9851717" lon="-3.5656333"><ele>794.0</ele><time>2026-04-28T12:37:37.934Z</time></trkpt><trkpt lat="36.9852333" lon="-3.5656733"><ele>793.0</ele><time>2026-04-28T12:37:38.934Z</time></trkpt><trkpt lat="36.9852917" lon="-3.5657133"><ele>792.0</ele><time>2026-04-28T12:37:39.934Z</time></trkpt><trkpt lat="36.9853867" lon="-3.5657917"><ele>790.9999999999999</ele><time>2026-04-28T12:37:41.934Z</time></trkpt><trkpt lat="36.9854383" lon="-3.56584"><ele>790.0</ele><time>2026-04-28T12:37:43.934Z</time></trkpt><trkpt lat="36.9855183" lon="-3.5659067"><ele>790.0</ele><time>2026-04-28T12:37:51.934Z</time></trkpt><trkpt lat="36.9856467" lon="-3.5659667"><ele>790.0</ele><time>2026-04-28T12:37:53.933Z</time></trkpt><trkpt lat="36.9857283" lon="-3.5659917"><ele>790.0</ele><time>2026-04-28T12:37:54.934Z</time></trkpt><trkpt lat="36.985805" lon="-3.5660233"><ele>790.0</ele><time>2026-04-28T12:37:55.933Z</time></trkpt><trkpt lat="36.9859033" lon="-3.5660467"><ele>790.0</ele><time>2026-04-28T12:37:56.934Z</time></trkpt><trkpt lat="36.9859933" lon="-3.5660733"><ele>789.9999999999999</ele><time>2026-04-28T12:37:57.936Z</time></trkpt><trkpt lat="36.98609" lon="-3.5661"><ele>790.0</ele><time>2026-04-28T12:37:58.933Z</time></trkpt><trkpt lat="36.9861767" lon="-3.56613"><ele>790.0</ele><time>2026-04-28T12:37:59.934Z</time></trkpt><trkpt lat="36.9862667" lon="-3.566165"><ele>790.0</ele><time>2026-04-28T12:38:00.934Z</time></trkpt><trkpt lat="36.9863467" lon="-3.5661833"><ele>789.9999999999999</ele><time>2026-04-28T12:38:01.934Z</time></trkpt><trkpt lat="36.9864233" lon="-3.5662083"><ele>790.0</ele><time>2026-04-28T12:38:02.934Z</time></trkpt><trkpt lat="36.9864917" lon="-3.5662533"><ele>789.4999999999999</ele><time>2026-04-28T12:38:03.934Z</time></trkpt><trkpt lat="36.98656" lon="-3.5662633"><ele>789.0</ele><time>2026-04-28T12:38:04.933Z</time></trkpt><trkpt lat="36.98663" lon="-3.5662833"><ele>788.5</ele><time>2026-04-28T12:38:05.934Z</time></trkpt><trkpt lat="36.9866933" lon="-3.56631"><ele>788.0</ele><time>2026-04-28T12:38:06.934Z</time></trkpt><trkpt lat="36.986755" lon="-3.5663333"><ele>787.4999999999999</ele><time>2026-04-28T12:38:07.934Z</time></trkpt><trkpt lat="36.9868583" lon="-3.5663717"><ele>787.0</ele><time>2026-04-28T12:38:09.934Z</time></trkpt><trkpt lat="36.9869583" lon="-3.5663767"><ele>786.9999999999999</ele><time>2026-04-28T12:38:11.934Z</time></trkpt><trkpt lat="36.9870417" lon="-3.5664033"><ele>787.0</ele><time>2026-04-28T12:38:13.934Z</time></trkpt><trkpt lat="36.98713" lon="-3.5663767"><ele>787.0</ele><time>2026-04-28T12:38:15.934Z</time></trkpt><trkpt lat="36.9872167" lon="-3.5663833"><ele>787.0</ele><time>2026-04-28T12:38:17.934Z</time></trkpt><trkpt lat="36.9873" lon="-3.5663817"><ele>786.9999999999999</ele><time>2026-04-28T12:38:19.934Z</time></trkpt><trkpt lat="36.987385" lon="-3.566415"><ele>787.0</ele><time>2026-04-28T12:38:21.934Z</time></trkpt><trkpt lat="36.9874567" lon="-3.5664617"><ele>786.4999999999999</ele><time>2026-04-28T12:38:23.934Z</time></trkpt><trkpt lat="36.987525" lon="-3.56651"><ele>786.0</ele><time>2026-04-28T12:38:25.934Z</time></trkpt><trkpt lat="36.987605" lon="-3.56651"><ele>785.5</ele><time>2026-04-28T12:38:27.934Z</time></trkpt><trkpt lat="36.9876967" lon="-3.5665417"><ele>785.0</ele><time>2026-04-28T12:38:29.934Z</time></trkpt><trkpt lat="36.9877583" lon="-3.56658"><ele>784.4999999999999</ele><time>2026-04-28T12:38:31.933Z</time></trkpt><trkpt lat="36.9878083" lon="-3.5666283"><ele>784.0</ele><time>2026-04-28T12:38:33.933Z</time></trkpt><trkpt lat="36.9878983" lon="-3.5666267"><ele>784.0</ele><time>2026-04-28T12:38:35.933Z</time></trkpt><trkpt lat="36.987965" lon="-3.5665767"><ele>784.0</ele><time>2026-04-28T12:38:37.934Z</time></trkpt><trkpt lat="36.9880133" lon="-3.566465"><ele>784.0</ele><time>2026-04-28T12:38:39.936Z</time></trkpt><trkpt lat="36.9880233" lon="-3.5663767"><ele>784.0</ele><time>2026-04-28T12:38:40.933Z</time></trkpt><trkpt lat="36.98802" lon="-3.5662583"><ele>784.0</ele><time>2026-04-28T12:38:41.936Z</time></trkpt><trkpt lat="36.988015" lon="-3.56611"><ele>784.4000000000001</ele><time>2026-04-28T12:38:43.933Z</time></trkpt><trkpt lat="36.988005" lon="-3.566015"><ele>784.8</ele><time>2026-04-28T12:38:44.933Z</time></trkpt><trkpt lat="36.9880017" lon="-3.5658833"><ele>785.2</ele><time>2026-04-28T12:38:46.935Z</time></trkpt><trkpt lat="36.9879967" lon="-3.5657483"><ele>785.5999999999999</ele><time>2026-04-28T12:38:47.935Z</time></trkpt><trkpt lat="36.987985" lon="-3.56558"><ele>786.0</ele><time>2026-04-28T12:38:49.935Z</time></trkpt><trkpt lat="36.9879583" lon="-3.5654683"><ele>786.0</ele><time>2026-04-28T12:38:51.935Z</time></trkpt><trkpt lat="36.9879317" lon="-3.5653817"><ele>786.0</ele><time>2026-04-28T12:38:53.935Z</time></trkpt><trkpt lat="36.9878867" lon="-3.5652567"><ele>786.0</ele><time>2026-04-28T12:38:56.935Z</time></trkpt><trkpt lat="36.987845" lon="-3.56514"><ele>786.0</ele><time>2026-04-28T12:38:58.934Z</time></trkpt><trkpt lat="36.9878" lon="-3.5650733"><ele>786.0</ele><time>2026-04-28T12:38:59.934Z</time></trkpt><trkpt lat="36.9878283" lon="-3.564995"><ele>786.0</ele><time>2026-04-28T12:39:03.934Z</time></trkpt><trkpt lat="36.98788" lon="-3.5648967"><ele>790.0</ele><time>2026-04-28T12:39:07.935Z</time></trkpt><trkpt lat="36.9878933" lon="-3.5647617"><ele>790.0</ele><time>2026-04-28T12:39:17.935Z</time></trkpt><trkpt lat="36.9878417" lon="-3.5646983"><ele>790.0</ele><time>2026-04-28T12:39:26.935Z</time></trkpt></trkseg></trk></gpx>